<?xml version='1.0' encoding='UTF-8'?><gpx version="1.1" creator="JPX - https://github.com/jenetics/jpx" xmlns="http://www.topografix.com/GPX/1/1"><trk><trkseg><trkpt lat="42.149848" lon="14.5854319"><ele>193.2857142857143</ele><time>2026-04-10T07:12:23.357Z</time></trkpt><trkpt lat="42.1498931" lon="14.5854915"><ele>193.57142857142858</ele><time>2026-04-10T07:12:53.856Z</time></trkpt><trkpt lat="42.1498985" lon="14.5855841"><ele>193.85714285714286</ele><time>2026-04-10T07:12:58.857Z</time></trkpt><trkpt lat="42.1499635" lon="14.5855791"><ele>194.14285714285717</ele><time>2026-04-10T07:13:13.857Z</time></trkpt><trkpt lat="42.1499435" lon="14.585447"><ele>194.42857142857142</ele><time>2026-04-10T07:13:25.857Z</time></trkpt><trkpt lat="42.149889" lon="14.5853631"><ele>194.71428571428572</ele><time>2026-04-10T07:13:56.856Z</time></trkpt><trkpt lat="42.1498683" lon="14.5852771"><ele>195.0</ele><time>2026-04-10T07:14:01.857Z</time></trkpt><trkpt lat="42.1497542" lon="14.5851955"><ele>195.28571428571428</ele><time>2026-04-10T07:14:40.857Z</time></trkpt><trkpt lat="42.149831" lon="14.5852337"><ele>195.57142857142856</ele><time>2026-04-10T07:14:58.856Z</time></trkpt><trkpt lat="42.1498956" lon="14.5852968"><ele>195.85714285714286</ele><time>2026-04-10T07:15:01.857Z</time></trkpt><trkpt lat="42.1499697" lon="14.5853335"><ele>196.14285714285714</ele><time>2026-04-10T07:15:04.857Z</time></trkpt><trkpt lat="42.1500491" lon="14.5853372"><ele>196.42857142857144</ele><time>2026-04-10T07:15:08.856Z</time></trkpt><trkpt lat="42.1501061" lon="14.5852972"><ele>196.71428571428572</ele><time>2026-04-10T07:15:12.857Z</time></trkpt><trkpt lat="42.1501695" lon="14.5852785"><ele>197.0</ele><time>2026-04-10T07:15:15.856Z</time></trkpt><trkpt lat="42.1502667" lon="14.5852183"><ele>198.33333333333334</ele><time>2026-04-10T07:15:18.857Z</time></trkpt><trkpt lat="42.1503517" lon="14.5851533"><ele>199.66666666666669</ele><time>2026-04-10T07:15:20.857Z</time></trkpt><trkpt lat="42.1504133" lon="14.5851233"><ele>201.0</ele><time>2026-04-10T07:15:22.857Z</time></trkpt><trkpt lat="42.150485" lon="14.5850733"><ele>202.33333333333331</ele><time>2026-04-10T07:15:26.856Z</time></trkpt><trkpt lat="42.15057" lon="14.5850483"><ele>203.66666666666666</ele><time>2026-04-10T07:15:29.857Z</time></trkpt><trkpt lat="42.1506383" lon="14.5850333"><ele>205.0</ele><time>2026-04-10T07:15:31.856Z</time></trkpt><trkpt lat="42.15073" lon="14.5850667"><ele>205.16666666666666</ele><time>2026-04-10T07:15:34.857Z</time></trkpt><trkpt lat="42.1507983" lon="14.5850717"><ele>205.33333333333331</ele><time>2026-04-10T07:15:37.857Z</time></trkpt><trkpt lat="42.1508733" lon="14.5850533"><ele>205.5</ele><time>2026-04-10T07:15:40.857Z</time></trkpt><trkpt lat="42.1509517" lon="14.5850983"><ele>205.66666666666669</ele><time>2026-04-10T07:15:42.857Z</time></trkpt><trkpt lat="42.1510417" lon="14.585125"><ele>205.83333333333334</ele><time>2026-04-10T07:15:44.857Z</time></trkpt><trkpt lat="42.1511267" lon="14.5851633"><ele>206.0</ele><time>2026-04-10T07:15:46.856Z</time></trkpt><trkpt lat="42.151225" lon="14.5851033"><ele>206.0</ele><time>2026-04-10T07:15:48.857Z</time></trkpt><trkpt lat="42.15135" lon="14.5850667"><ele>206.0</ele><time>2026-04-10T07:15:49.856Z</time></trkpt><trkpt lat="42.151455" lon="14.5849833"><ele>206.0</ele><time>2026-04-10T07:15:51.857Z</time></trkpt><trkpt lat="42.1515383" lon="14.5849067"><ele>206.0</ele><time>2026-04-10T07:15:53.857Z</time></trkpt><trkpt lat="42.1515983" lon="14.5848067"><ele>206.0</ele><time>2026-04-10T07:15:55.857Z</time></trkpt><trkpt lat="42.1516433" lon="14.5846883"><ele>204.8</ele><time>2026-04-10T07:15:57.856Z</time></trkpt><trkpt lat="42.1516917" lon="14.5845333"><ele>203.60000000000002</ele><time>2026-04-10T07:15:59.857Z</time></trkpt><trkpt lat="42.1517383" lon="14.5843817"><ele>202.4</ele><time>2026-04-10T07:16:01.857Z</time></trkpt><trkpt lat="42.15176" lon="14.5842767"><ele>201.2</ele><time>2026-04-10T07:16:02.857Z</time></trkpt><trkpt lat="42.1517717" lon="14.5841917"><ele>200.0</ele><time>2026-04-10T07:16:03.857Z</time></trkpt><trkpt lat="42.1517833" lon="14.5840983"><ele>199.66666666666669</ele><time>2026-04-10T07:16:04.857Z</time></trkpt><trkpt lat="42.1518033" lon="14.5840067"><ele>199.33333333333334</ele><time>2026-04-10T07:16:05.857Z</time></trkpt><trkpt lat="42.1518267" lon="14.5839167"><ele>199.0</ele><time>2026-04-10T07:16:06.857Z</time></trkpt><trkpt lat="42.15185" lon="14.5838317"><ele>198.66666666666669</ele><time>2026-04-10T07:16:07.857Z</time></trkpt><trkpt lat="42.1518717" lon="14.5837483"><ele>198.33333333333334</ele><time>2026-04-10T07:16:08.856Z</time></trkpt><trkpt lat="42.151885" lon="14.58359"><ele>198.0</ele><time>2026-04-10T07:16:10.857Z</time></trkpt><trkpt lat="42.1518583" lon="14.58345"><ele>196.8</ele><time>2026-04-10T07:16:12.857Z</time></trkpt><trkpt lat="42.1518617" lon="14.58332"><ele>195.60000000000002</ele><time>2026-04-10T07:16:14.857Z</time></trkpt><trkpt lat="42.1519217" lon="14.5831867"><ele>194.39999999999998</ele><time>2026-04-10T07:16:16.857Z</time></trkpt><trkpt lat="42.1519767" lon="14.583065"><ele>193.2</ele><time>2026-04-10T07:16:18.856Z</time></trkpt><trkpt lat="42.1520467" lon="14.5830033"><ele>192.0</ele><time>2026-04-10T07:16:20.857Z</time></trkpt><trkpt lat="42.1521233" lon="14.5830517"><ele>192.0</ele><time>2026-04-10T07:16:22.857Z</time></trkpt><trkpt lat="42.1522017" lon="14.5831617"><ele>192.0</ele><time>2026-04-10T07:16:24.857Z</time></trkpt><trkpt lat="42.1522833" lon="14.5832733"><ele>192.0</ele><time>2026-04-10T07:16:26.857Z</time></trkpt><trkpt lat="42.1523267" lon="14.5833367"><ele>192.0</ele><time>2026-04-10T07:16:27.857Z</time></trkpt><trkpt lat="42.15237" lon="14.5834033"><ele>192.0</ele><time>2026-04-10T07:16:28.857Z</time></trkpt><trkpt lat="42.1524183" lon="14.583475"><ele>192.0</ele><time>2026-04-10T07:16:29.857Z</time></trkpt><trkpt lat="42.15247" lon="14.5835467"><ele>190.66666666666666</ele><time>2026-04-10T07:16:30.856Z</time></trkpt><trkpt lat="42.1525233" lon="14.5836217"><ele>189.33333333333334</ele><time>2026-04-10T07:16:31.857Z</time></trkpt><trkpt lat="42.15258" lon="14.583695"><ele>188.0</ele><time>2026-04-10T07:16:32.857Z</time></trkpt><trkpt lat="42.1526383" lon="14.5837683"><ele>186.66666666666669</ele><time>2026-04-10T07:16:33.857Z</time></trkpt><trkpt lat="42.1527" lon="14.58384"><ele>185.33333333333334</ele><time>2026-04-10T07:16:34.857Z</time></trkpt><trkpt lat="42.1527617" lon="14.5839183"><ele>184.0</ele><time>2026-04-10T07:16:35.857Z</time></trkpt><trkpt lat="42.15282" lon="14.584"><ele>184.0</ele><time>2026-04-10T07:16:36.857Z</time></trkpt><trkpt lat="42.152885" lon="14.58408"><ele>184.0</ele><time>2026-04-10T07:16:37.857Z</time></trkpt><trkpt lat="42.15295" lon="14.5841633"><ele>184.0</ele><time>2026-04-10T07:16:38.857Z</time></trkpt><trkpt lat="42.1530117" lon="14.584245"><ele>184.0</ele><time>2026-04-10T07:16:39.856Z</time></trkpt><trkpt lat="42.1530733" lon="14.584325"><ele>184.0</ele><time>2026-04-10T07:16:40.857Z</time></trkpt><trkpt lat="42.15313" lon="14.5844133"><ele>184.0</ele><time>2026-04-10T07:16:41.857Z</time></trkpt><trkpt lat="42.1531783" lon="14.5845067"><ele>182.83333333333334</ele><time>2026-04-10T07:16:42.857Z</time></trkpt><trkpt lat="42.1532183" lon="14.5846017"><ele>181.66666666666669</ele><time>2026-04-10T07:16:43.856Z</time></trkpt><trkpt lat="42.1532483" lon="14.5846983"><ele>180.5</ele><time>2026-04-10T07:16:44.856Z</time></trkpt><trkpt lat="42.1532733" lon="14.5847967"><ele>179.33333333333334</ele><time>2026-04-10T07:16:45.856Z</time></trkpt><trkpt lat="42.153285" lon="14.584895"><ele>178.16666666666666</ele><time>2026-04-10T07:16:46.857Z</time></trkpt><trkpt lat="42.1533033" lon="14.58498"><ele>177.0</ele><time>2026-04-10T07:16:47.857Z</time></trkpt><trkpt lat="42.1533183" lon="14.5851117"><ele>177.0</ele><time>2026-04-10T07:16:49.857Z</time></trkpt><trkpt lat="42.15334" lon="14.5852167"><ele>177.0</ele><time>2026-04-10T07:16:51.857Z</time></trkpt><trkpt lat="42.1533883" lon="14.5852767"><ele>177.0</ele><time>2026-04-10T07:16:53.857Z</time></trkpt><trkpt lat="42.153475" lon="14.5852767"><ele>177.0</ele><time>2026-04-10T07:16:55.857Z</time></trkpt><trkpt lat="42.153575" lon="14.5852383"><ele>177.0</ele><time>2026-04-10T07:16:57.857Z</time></trkpt><trkpt lat="42.1536983" lon="14.5852333"><ele>177.0</ele><time>2026-04-10T07:16:59.856Z</time></trkpt><trkpt lat="42.153765" lon="14.5852267"><ele>177.0</ele><time>2026-04-10T07:17:00.857Z</time></trkpt><trkpt lat="42.1538333" lon="14.5852217"><ele>177.0</ele><time>2026-04-10T07:17:01.856Z</time></trkpt><trkpt lat="42.1539083" lon="14.58522"><ele>177.0</ele><time>2026-04-10T07:17:02.857Z</time></trkpt><trkpt lat="42.1539833" lon="14.58522"><ele>177.0</ele><time>2026-04-10T07:17:03.857Z</time></trkpt><trkpt lat="42.1540583" lon="14.5852217"><ele>177.0</ele><time>2026-04-10T07:17:04.856Z</time></trkpt><trkpt lat="42.1541367" lon="14.5852233"><ele>177.0</ele><time>2026-04-10T07:17:05.857Z</time></trkpt><trkpt lat="42.1542167" lon="14.58523"><ele>176.16666666666666</ele><time>2026-04-10T07:17:06.857Z</time></trkpt><trkpt lat="42.1543" lon="14.58524"><ele>175.33333333333334</ele><time>2026-04-10T07:17:07.857Z</time></trkpt><trkpt lat="42.1543733" lon="14.5852817"><ele>174.5</ele><time>2026-04-10T07:17:08.857Z</time></trkpt><trkpt lat="42.1544483" lon="14.58533"><ele>173.66666666666669</ele><time>2026-04-10T07:17:09.857Z</time></trkpt><trkpt lat="42.1545067" lon="14.5854"><ele>172.83333333333334</ele><time>2026-04-10T07:17:10.857Z</time></trkpt><trkpt lat="42.1545567" lon="14.5854833"><ele>172.0</ele><time>2026-04-10T07:17:11.856Z</time></trkpt><trkpt lat="42.154605" lon="14.5855633"><ele>171.66666666666669</ele><time>2026-04-10T07:17:12.856Z</time></trkpt><trkpt lat="42.1546533" lon="14.5856417"><ele>171.33333333333334</ele><time>2026-04-10T07:17:13.857Z</time></trkpt><trkpt lat="42.1547017" lon="14.5857167"><ele>171.0</ele><time>2026-04-10T07:17:14.857Z</time></trkpt><trkpt lat="42.1547583" lon="14.5857783"><ele>170.66666666666666</ele><time>2026-04-10T07:17:15.856Z</time></trkpt><trkpt lat="42.15482" lon="14.58583"><ele>170.33333333333331</ele><time>2026-04-10T07:17:16.857Z</time></trkpt><trkpt lat="42.1548783" lon="14.5858717"><ele>170.0</ele><time>2026-04-10T07:17:17.856Z</time></trkpt><trkpt lat="42.1549783" lon="14.58593"><ele>170.0</ele><time>2026-04-10T07:17:19.856Z</time></trkpt><trkpt lat="42.1550683" lon="14.5859783"><ele>170.0</ele><time>2026-04-10T07:17:21.857Z</time></trkpt><trkpt lat="42.1551517" lon="14.58602"><ele>170.0</ele><time>2026-04-10T07:17:23.857Z</time></trkpt><trkpt lat="42.1552267" lon="14.5860467"><ele>170.0</ele><time>2026-04-10T07:17:25.857Z</time></trkpt><trkpt lat="42.1552933" lon="14.58607"><ele>170.0</ele><time>2026-04-10T07:17:27.857Z</time></trkpt><trkpt lat="42.1553567" lon="14.5860967"><ele>170.0</ele><time>2026-04-10T07:17:29.856Z</time></trkpt><trkpt lat="42.1554267" lon="14.58613"><ele>170.0</ele><time>2026-04-10T07:17:31.857Z</time></trkpt><trkpt lat="42.1555017" lon="14.58615"><ele>170.0</ele><time>2026-04-10T07:17:33.857Z</time></trkpt><trkpt lat="42.1555767" lon="14.586165"><ele>170.0</ele><time>2026-04-10T07:17:35.857Z</time></trkpt><trkpt lat="42.1556567" lon="14.586185"><ele>170.0</ele><time>2026-04-10T07:17:37.856Z</time></trkpt><trkpt lat="42.155725" lon="14.5862133"><ele>170.0</ele><time>2026-04-10T07:17:39.856Z</time></trkpt><trkpt lat="42.1558083" lon="14.58624"><ele>170.0</ele><time>2026-04-10T07:17:41.857Z</time></trkpt><trkpt lat="42.1558883" lon="14.586265"><ele>169.33333333333331</ele><time>2026-04-10T07:17:43.857Z</time></trkpt><trkpt lat="42.1559683" lon="14.5862833"><ele>168.66666666666666</ele><time>2026-04-10T07:17:45.856Z</time></trkpt><trkpt lat="42.1560467" lon="14.586285"><ele>168.0</ele><time>2026-04-10T07:17:47.857Z</time></trkpt><trkpt lat="42.15613" lon="14.5862717"><ele>167.33333333333334</ele><time>2026-04-10T07:17:49.857Z</time></trkpt><trkpt lat="42.1562017" lon="14.5862467"><ele>166.66666666666669</ele><time>2026-04-10T07:17:51.856Z</time></trkpt><trkpt lat="42.1562767" lon="14.5862183"><ele>166.0</ele><time>2026-04-10T07:17:53.857Z</time></trkpt><trkpt lat="42.156345" lon="14.5861867"><ele>166.83333333333334</ele><time>2026-04-10T07:17:55.857Z</time></trkpt><trkpt lat="42.1564083" lon="14.586145"><ele>167.66666666666669</ele><time>2026-04-10T07:17:57.857Z</time></trkpt><trkpt lat="42.1564717" lon="14.586095"><ele>168.5</ele><time>2026-04-10T07:17:59.857Z</time></trkpt><trkpt lat="42.1565383" lon="14.5860517"><ele>169.33333333333334</ele><time>2026-04-10T07:18:01.857Z</time></trkpt><trkpt lat="42.15663" lon="14.5860083"><ele>170.16666666666666</ele><time>2026-04-10T07:18:04.857Z</time></trkpt><trkpt lat="42.1566967" lon="14.5859617"><ele>171.0</ele><time>2026-04-10T07:18:06.857Z</time></trkpt><trkpt lat="42.156765" lon="14.585905"><ele>171.0</ele><time>2026-04-10T07:18:08.857Z</time></trkpt><trkpt lat="42.1568367" lon="14.5858567"><ele>171.0</ele><time>2026-04-10T07:18:10.857Z</time></trkpt><trkpt lat="42.1569067" lon="14.58581"><ele>171.0</ele><time>2026-04-10T07:18:12.857Z</time></trkpt><trkpt lat="42.1569783" lon="14.5857683"><ele>171.0</ele><time>2026-04-10T07:18:14.857Z</time></trkpt><trkpt lat="42.1570533" lon="14.58573"><ele>171.0</ele><time>2026-04-10T07:18:16.856Z</time></trkpt><trkpt lat="42.1571283" lon="14.585695"><ele>171.0</ele><time>2026-04-10T07:18:18.857Z</time></trkpt><trkpt lat="42.15721" lon="14.5856583"><ele>171.0</ele><time>2026-04-10T07:18:20.857Z</time></trkpt><trkpt lat="42.157285" lon="14.5856133"><ele>171.0</ele><time>2026-04-10T07:18:22.857Z</time></trkpt><trkpt lat="42.157355" lon="14.5855667"><ele>171.0</ele><time>2026-04-10T07:18:24.857Z</time></trkpt><trkpt lat="42.1574267" lon="14.5855183"><ele>171.0</ele><time>2026-04-10T07:18:26.857Z</time></trkpt><trkpt lat="42.157495" lon="14.585465"><ele>171.0</ele><time>2026-04-10T07:18:28.857Z</time></trkpt><trkpt lat="42.1575683" lon="14.5854"><ele>171.0</ele><time>2026-04-10T07:18:30.857Z</time></trkpt><trkpt lat="42.1576383" lon="14.585325"><ele>171.0</ele><time>2026-04-10T07:18:32.857Z</time></trkpt><trkpt lat="42.157705" lon="14.5852417"><ele>171.0</ele><time>2026-04-10T07:18:34.856Z</time></trkpt><trkpt lat="42.1577633" lon="14.58516"><ele>171.0</ele><time>2026-04-10T07:18:36.856Z</time></trkpt><trkpt lat="42.157815" lon="14.585075"><ele>171.0</ele><time>2026-04-10T07:18:38.857Z</time></trkpt><trkpt lat="42.1578633" lon="14.5849867"><ele>171.0</ele><time>2026-04-10T07:18:40.857Z</time></trkpt><trkpt lat="42.1579067" lon="14.5849017"><ele>171.0</ele><time>2026-04-10T07:18:42.857Z</time></trkpt><trkpt lat="42.15795" lon="14.584815"><ele>171.0</ele><time>2026-04-10T07:18:44.857Z</time></trkpt><trkpt lat="42.15799" lon="14.5847383"><ele>171.0</ele><time>2026-04-10T07:18:46.857Z</time></trkpt><trkpt lat="42.1580333" lon="14.5846533"><ele>171.0</ele><time>2026-04-10T07:18:48.857Z</time></trkpt><trkpt lat="42.1580783" lon="14.58457"><ele>171.0</ele><time>2026-04-10T07:18:50.857Z</time></trkpt><trkpt lat="42.1581333" lon="14.5844967"><ele>171.0</ele><time>2026-04-10T07:18:52.857Z</time></trkpt><trkpt lat="42.1581833" lon="14.584415"><ele>171.0</ele><time>2026-04-10T07:18:54.856Z</time></trkpt><trkpt lat="42.1582417" lon="14.58434"><ele>170.33333333333334</ele><time>2026-04-10T07:18:56.857Z</time></trkpt><trkpt lat="42.1583017" lon="14.584265"><ele>169.66666666666666</ele><time>2026-04-10T07:18:58.857Z</time></trkpt><trkpt lat="42.15837" lon="14.5841867"><ele>169.0</ele><time>2026-04-10T07:19:00.857Z</time></trkpt><trkpt lat="42.15844" lon="14.5841117"><ele>168.33333333333331</ele><time>2026-04-10T07:19:02.857Z</time></trkpt><trkpt lat="42.1585067" lon="14.5840283"><ele>167.66666666666666</ele><time>2026-04-10T07:19:04.857Z</time></trkpt><trkpt lat="42.1585683" lon="14.5839483"><ele>167.0</ele><time>2026-04-10T07:19:06.856Z</time></trkpt><trkpt lat="42.1586333" lon="14.583875"><ele>167.0</ele><time>2026-04-10T07:19:08.856Z</time></trkpt><trkpt lat="42.1587" lon="14.5838067"><ele>167.0</ele><time>2026-04-10T07:19:10.857Z</time></trkpt><trkpt lat="42.1587683" lon="14.5837367"><ele>167.0</ele><time>2026-04-10T07:19:12.856Z</time></trkpt><trkpt lat="42.1588333" lon="14.5836667"><ele>167.0</ele><time>2026-04-10T07:19:14.856Z</time></trkpt><trkpt lat="42.1588933" lon="14.5836"><ele>167.0</ele><time>2026-04-10T07:19:16.857Z</time></trkpt><trkpt lat="42.15895" lon="14.5835317"><ele>167.0</ele><time>2026-04-10T07:19:18.856Z</time></trkpt><trkpt lat="42.1590133" lon="14.58347"><ele>167.0</ele><time>2026-04-10T07:19:20.856Z</time></trkpt><trkpt lat="42.15907" lon="14.5833967"><ele>167.0</ele><time>2026-04-10T07:19:22.856Z</time></trkpt><trkpt lat="42.1591267" lon="14.5833317"><ele>167.0</ele><time>2026-04-10T07:19:24.857Z</time></trkpt><trkpt lat="42.1591833" lon="14.5832583"><ele>167.0</ele><time>2026-04-10T07:19:26.857Z</time></trkpt><trkpt lat="42.1592433" lon="14.5831867"><ele>167.0</ele><time>2026-04-10T07:19:28.857Z</time></trkpt><trkpt lat="42.1593033" lon="14.58311"><ele>167.0</ele><time>2026-04-10T07:19:30.857Z</time></trkpt><trkpt lat="42.1593633" lon="14.583035"><ele>167.0</ele><time>2026-04-10T07:19:32.857Z</time></trkpt><trkpt lat="42.1594233" lon="14.5829617"><ele>167.0</ele><time>2026-04-10T07:19:34.856Z</time></trkpt><trkpt lat="42.1594783" lon="14.58289"><ele>167.0</ele><time>2026-04-10T07:19:36.856Z</time></trkpt><trkpt lat="42.1595317" lon="14.582815"><ele>167.0</ele><time>2026-04-10T07:19:38.857Z</time></trkpt><trkpt lat="42.15958" lon="14.582735"><ele>167.0</ele><time>2026-04-10T07:19:40.857Z</time></trkpt><trkpt lat="42.1596283" lon="14.582655"><ele>167.0</ele><time>2026-04-10T07:19:42.857Z</time></trkpt><trkpt lat="42.1596783" lon="14.5825767"><ele>167.0</ele><time>2026-04-10T07:19:44.857Z</time></trkpt><trkpt lat="42.15973" lon="14.5825033"><ele>167.0</ele><time>2026-04-10T07:19:46.857Z</time></trkpt><trkpt lat="42.159775" lon="14.5824367"><ele>167.0</ele><time>2026-04-10T07:19:48.857Z</time></trkpt><trkpt lat="42.1598267" lon="14.582335"><ele>167.0</ele><time>2026-04-10T07:19:50.857Z</time></trkpt><trkpt lat="42.1598883" lon="14.582225"><ele>167.0</ele><time>2026-04-10T07:19:52.857Z</time></trkpt><trkpt lat="42.1599567" lon="14.5821317"><ele>167.0</ele><time>2026-04-10T07:19:54.857Z</time></trkpt><trkpt lat="42.1600233" lon="14.5820467"><ele>167.0</ele><time>2026-04-10T07:19:56.857Z</time></trkpt><trkpt lat="42.1600867" lon="14.58199"><ele>167.0</ele><time>2026-04-10T07:19:58.857Z</time></trkpt><trkpt lat="42.16015" lon="14.581955"><ele>167.0</ele><time>2026-04-10T07:20:00.856Z</time></trkpt><trkpt lat="42.1602233" lon="14.5819567"><ele>167.0</ele><time>2026-04-10T07:20:02.856Z</time></trkpt><trkpt lat="42.1603117" lon="14.5820083"><ele>167.0</ele><time>2026-04-10T07:20:04.857Z</time></trkpt><trkpt lat="42.16041" lon="14.5820767"><ele>167.0</ele><time>2026-04-10T07:20:06.857Z</time></trkpt><trkpt lat="42.1605083" lon="14.582145"><ele>167.0</ele><time>2026-04-10T07:20:08.857Z</time></trkpt><trkpt lat="42.1606083" lon="14.5822167"><ele>167.0</ele><time>2026-04-10T07:20:10.857Z</time></trkpt><trkpt lat="42.1607067" lon="14.582295"><ele>167.0</ele><time>2026-04-10T07:20:12.857Z</time></trkpt><trkpt lat="42.160805" lon="14.5823817"><ele>167.0</ele><time>2026-04-10T07:20:14.857Z</time></trkpt><trkpt lat="42.1608833" lon="14.5824833"><ele>166.0</ele><time>2026-04-10T07:20:16.856Z</time></trkpt><trkpt lat="42.1609517" lon="14.58261"><ele>165.0</ele><time>2026-04-10T07:20:18.857Z</time></trkpt><trkpt lat="42.1610117" lon="14.5827417"><ele>164.0</ele><time>2026-04-10T07:20:20.857Z</time></trkpt><trkpt lat="42.1610717" lon="14.58288"><ele>163.0</ele><time>2026-04-10T07:20:22.857Z</time></trkpt><trkpt lat="42.1611383" lon="14.58303"><ele>163.0</ele><time>2026-04-10T07:20:24.857Z</time></trkpt><trkpt lat="42.1611683" lon="14.5831067"><ele>163.0</ele><time>2026-04-10T07:20:25.856Z</time></trkpt><trkpt lat="42.1612" lon="14.58319"><ele>163.0</ele><time>2026-04-10T07:20:26.857Z</time></trkpt><trkpt lat="42.1612583" lon="14.5833417"><ele>163.0</ele><time>2026-04-10T07:20:28.857Z</time></trkpt><trkpt lat="42.161295" lon="14.583415"><ele>163.0</ele><time>2026-04-10T07:20:29.856Z</time></trkpt><trkpt lat="42.161365" lon="14.58355"><ele>163.0</ele><time>2026-04-10T07:20:31.856Z</time></trkpt><trkpt lat="42.16144" lon="14.5836667"><ele>162.5</ele><time>2026-04-10T07:20:33.857Z</time></trkpt><trkpt lat="42.161505" lon="14.5837717"><ele>162.0</ele><time>2026-04-10T07:20:35.856Z</time></trkpt><trkpt lat="42.161545" lon="14.5838533"><ele>161.5</ele><time>2026-04-10T07:20:37.856Z</time></trkpt><trkpt lat="42.161595" lon="14.5839083"><ele>161.0</ele><time>2026-04-10T07:20:40.857Z</time></trkpt><trkpt lat="42.161665" lon="14.5838733"><ele>160.5</ele><time>2026-04-10T07:20:43.857Z</time></trkpt><trkpt lat="42.1617267" lon="14.5838267"><ele>160.0</ele><time>2026-04-10T07:20:45.857Z</time></trkpt><trkpt lat="42.161795" lon="14.5837683"><ele>160.0</ele><time>2026-04-10T07:20:47.856Z</time></trkpt><trkpt lat="42.1618617" lon="14.5837017"><ele>160.0</ele><time>2026-04-10T07:20:49.857Z</time></trkpt><trkpt lat="42.1619367" lon="14.5836217"><ele>160.0</ele><time>2026-04-10T07:20:51.856Z</time></trkpt><trkpt lat="42.162025" lon="14.5835467"><ele>160.0</ele><time>2026-04-10T07:20:53.857Z</time></trkpt><trkpt lat="42.1621217" lon="14.58349"><ele>160.0</ele><time>2026-04-10T07:20:55.857Z</time></trkpt><trkpt lat="42.1622217" lon="14.5834617"><ele>159.8</ele><time>2026-04-10T07:20:57.856Z</time></trkpt><trkpt lat="42.162315" lon="14.583465"><ele>159.6</ele><time>2026-04-10T07:20:59.856Z</time></trkpt><trkpt lat="42.1624083" lon="14.5834917"><ele>159.4</ele><time>2026-04-10T07:21:01.857Z</time></trkpt><trkpt lat="42.162495" lon="14.5835267"><ele>159.2</ele><time>2026-04-10T07:21:03.857Z</time></trkpt><trkpt lat="42.1625817" lon="14.5835567"><ele>159.0</ele><time>2026-04-10T07:21:05.857Z</time></trkpt><trkpt lat="42.1626667" lon="14.5835867"><ele>158.83333333333334</ele><time>2026-04-10T07:21:07.856Z</time></trkpt><trkpt lat="42.1627483" lon="14.58362"><ele>158.66666666666666</ele><time>2026-04-10T07:21:09.857Z</time></trkpt><trkpt lat="42.162835" lon="14.5836467"><ele>158.5</ele><time>2026-04-10T07:21:11.856Z</time></trkpt><trkpt lat="42.1629217" lon="14.5836733"><ele>158.33333333333331</ele><time>2026-04-10T07:21:13.857Z</time></trkpt><trkpt lat="42.1630067" lon="14.5837067"><ele>158.16666666666666</ele><time>2026-04-10T07:21:15.857Z</time></trkpt><trkpt lat="42.1630933" lon="14.5837317"><ele>158.0</ele><time>2026-04-10T07:21:17.857Z</time></trkpt><trkpt lat="42.1631783" lon="14.5837683"><ele>157.20000000000002</ele><time>2026-04-10T07:21:19.857Z</time></trkpt><trkpt lat="42.1632733" lon="14.5837983"><ele>156.4</ele><time>2026-04-10T07:21:21.857Z</time></trkpt><trkpt lat="42.163365" lon="14.5838233"><ele>155.60000000000002</ele><time>2026-04-10T07:21:23.857Z</time></trkpt><trkpt lat="42.1634533" lon="14.5838467"><ele>154.8</ele><time>2026-04-10T07:21:25.857Z</time></trkpt><trkpt lat="42.1635367" lon="14.58388"><ele>154.0</ele><time>2026-04-10T07:21:27.857Z</time></trkpt><trkpt lat="42.1636233" lon="14.5839133"><ele>154.0</ele><time>2026-04-10T07:21:29.856Z</time></trkpt><trkpt lat="42.16371" lon="14.5839467"><ele>154.0</ele><time>2026-04-10T07:21:31.857Z</time></trkpt><trkpt lat="42.163805" lon="14.5839717"><ele>154.0</ele><time>2026-04-10T07:21:33.857Z</time></trkpt><trkpt lat="42.1638967" lon="14.5839983"><ele>154.0</ele><time>2026-04-10T07:21:35.856Z</time></trkpt><trkpt lat="42.1639883" lon="14.5840217"><ele>154.0</ele><time>2026-04-10T07:21:37.856Z</time></trkpt><trkpt lat="42.1640833" lon="14.5840467"><ele>154.0</ele><time>2026-04-10T07:21:39.856Z</time></trkpt><trkpt lat="42.16418" lon="14.5840783"><ele>154.0</ele><time>2026-04-10T07:21:41.856Z</time></trkpt><trkpt lat="42.1642683" lon="14.5840933"><ele>154.0</ele><time>2026-04-10T07:21:43.857Z</time></trkpt><trkpt lat="42.16436" lon="14.584135"><ele>154.0</ele><time>2026-04-10T07:21:45.857Z</time></trkpt><trkpt lat="42.16446" lon="14.5841817"><ele>154.0</ele><time>2026-04-10T07:21:47.857Z</time></trkpt><trkpt lat="42.1645517" lon="14.5842233"><ele>154.0</ele><time>2026-04-10T07:21:49.857Z</time></trkpt><trkpt lat="42.1646383" lon="14.5842667"><ele>154.0</ele><time>2026-04-10T07:21:51.856Z</time></trkpt><trkpt lat="42.1647283" lon="14.5843167"><ele>154.0</ele><time>2026-04-10T07:21:53.856Z</time></trkpt><trkpt lat="42.1648233" lon="14.5843583"><ele>154.0</ele><time>2026-04-10T07:21:55.857Z</time></trkpt><trkpt lat="42.1649117" lon="14.5843917"><ele>154.0</ele><time>2026-04-10T07:21:57.857Z</time></trkpt><trkpt lat="42.1649933" lon="14.58442"><ele>153.6</ele><time>2026-04-10T07:21:59.857Z</time></trkpt><trkpt lat="42.1650817" lon="14.584455"><ele>153.2</ele><time>2026-04-10T07:22:01.856Z</time></trkpt><trkpt lat="42.1651683" lon="14.5845"><ele>152.79999999999998</ele><time>2026-04-10T07:22:03.856Z</time></trkpt><trkpt lat="42.165255" lon="14.584545"><ele>152.4</ele><time>2026-04-10T07:22:05.857Z</time></trkpt><trkpt lat="42.16534" lon="14.5845883"><ele>152.0</ele><time>2026-04-10T07:22:07.856Z</time></trkpt><trkpt lat="42.16543" lon="14.5846217"><ele>151.6</ele><time>2026-04-10T07:22:09.857Z</time></trkpt><trkpt lat="42.1655233" lon="14.58466"><ele>151.2</ele><time>2026-04-10T07:22:11.856Z</time></trkpt><trkpt lat="42.1656117" lon="14.5846967"><ele>150.8</ele><time>2026-04-10T07:22:13.856Z</time></trkpt><trkpt lat="42.165695" lon="14.5847367"><ele>150.4</ele><time>2026-04-10T07:22:15.857Z</time></trkpt><trkpt lat="42.1657817" lon="14.5847783"><ele>150.0</ele><time>2026-04-10T07:22:17.857Z</time></trkpt><trkpt lat="42.1658683" lon="14.584825"><ele>149.8</ele><time>2026-04-10T07:22:19.857Z</time></trkpt><trkpt lat="42.1659567" lon="14.5848733"><ele>149.6</ele><time>2026-04-10T07:22:21.857Z</time></trkpt><trkpt lat="42.1660467" lon="14.5849117"><ele>149.4</ele><time>2026-04-10T07:22:23.857Z</time></trkpt><trkpt lat="42.166145" lon="14.58495"><ele>149.2</ele><time>2026-04-10T07:22:25.856Z</time></trkpt><trkpt lat="42.16624" lon="14.5849817"><ele>149.0</ele><time>2026-04-10T07:22:27.856Z</time></trkpt><trkpt lat="42.1663367" lon="14.585015"><ele>149.0</ele><time>2026-04-10T07:22:29.856Z</time></trkpt><trkpt lat="42.16642" lon="14.58507"><ele>149.0</ele><time>2026-04-10T07:22:31.857Z</time></trkpt><trkpt lat="42.1665033" lon="14.5851367"><ele>149.0</ele><time>2026-04-10T07:22:33.857Z</time></trkpt><trkpt lat="42.166585" lon="14.585215"><ele>149.0</ele><time>2026-04-10T07:22:35.857Z</time></trkpt><trkpt lat="42.1666633" lon="14.5853117"><ele>149.0</ele><time>2026-04-10T07:22:37.856Z</time></trkpt><trkpt lat="42.1667417" lon="14.5854167"><ele>148.6</ele><time>2026-04-10T07:22:39.857Z</time></trkpt><trkpt lat="42.16681" lon="14.585515"><ele>148.2</ele><time>2026-04-10T07:22:41.857Z</time></trkpt><trkpt lat="42.166875" lon="14.58562"><ele>147.79999999999998</ele><time>2026-04-10T07:22:43.857Z</time></trkpt><trkpt lat="42.16694" lon="14.5857267"><ele>147.4</ele><time>2026-04-10T07:22:45.856Z</time></trkpt><trkpt lat="42.1670083" lon="14.585845"><ele>147.0</ele><time>2026-04-10T07:22:47.857Z</time></trkpt><trkpt lat="42.1670817" lon="14.5859633"><ele>147.0</ele><time>2026-04-10T07:22:49.856Z</time></trkpt><trkpt lat="42.1671567" lon="14.5860733"><ele>147.0</ele><time>2026-04-10T07:22:51.857Z</time></trkpt><trkpt lat="42.16723" lon="14.58619"><ele>147.0</ele><time>2026-04-10T07:22:53.857Z</time></trkpt><trkpt lat="42.1673067" lon="14.5863167"><ele>147.0</ele><time>2026-04-10T07:22:55.856Z</time></trkpt><trkpt lat="42.167385" lon="14.5864433"><ele>147.0</ele><time>2026-04-10T07:22:57.857Z</time></trkpt><trkpt lat="42.1674683" lon="14.5865633"><ele>147.0</ele><time>2026-04-10T07:22:59.857Z</time></trkpt><trkpt lat="42.1675433" lon="14.586695"><ele>147.0</ele><time>2026-04-10T07:23:01.858Z</time></trkpt><trkpt lat="42.1675817" lon="14.5867633"><ele>147.0</ele><time>2026-04-10T07:23:02.858Z</time></trkpt><trkpt lat="42.1676233" lon="14.58683"><ele>147.0</ele><time>2026-04-10T07:23:03.857Z</time></trkpt><trkpt lat="42.1677033" lon="14.5869583"><ele>146.57142857142858</ele><time>2026-04-10T07:23:05.858Z</time></trkpt><trkpt lat="42.1677783" lon="14.5870817"><ele>146.14285714285714</ele><time>2026-04-10T07:23:07.857Z</time></trkpt><trkpt lat="42.16782" lon="14.5871467"><ele>145.71428571428572</ele><time>2026-04-10T07:23:08.858Z</time></trkpt><trkpt lat="42.1678583" lon="14.587215"><ele>145.28571428571428</ele><time>2026-04-10T07:23:09.858Z</time></trkpt><trkpt lat="42.1678983" lon="14.5872833"><ele>144.85714285714286</ele><time>2026-04-10T07:23:10.858Z</time></trkpt><trkpt lat="42.1679383" lon="14.5873517"><ele>144.42857142857144</ele><time>2026-04-10T07:23:11.858Z</time></trkpt><trkpt lat="42.1679833" lon="14.5874183"><ele>144.0</ele><time>2026-04-10T07:23:12.857Z</time></trkpt><trkpt lat="42.1680267" lon="14.5874817"><ele>144.0</ele><time>2026-04-10T07:23:13.858Z</time></trkpt><trkpt lat="42.1681133" lon="14.5875983"><ele>144.0</ele><time>2026-04-10T07:23:15.857Z</time></trkpt><trkpt lat="42.1681583" lon="14.5876633"><ele>144.0</ele><time>2026-04-10T07:23:16.858Z</time></trkpt><trkpt lat="42.16825" lon="14.587775"><ele>144.0</ele><time>2026-04-10T07:23:18.858Z</time></trkpt><trkpt lat="42.1683433" lon="14.5878767"><ele>144.0</ele><time>2026-04-10T07:23:20.858Z</time></trkpt><trkpt lat="42.16844" lon="14.587975"><ele>143.25</ele><time>2026-04-10T07:23:22.857Z</time></trkpt><trkpt lat="42.1685433" lon="14.5880633"><ele>142.5</ele><time>2026-04-10T07:23:24.858Z</time></trkpt><trkpt lat="42.1686467" lon="14.5881367"><ele>141.75</ele><time>2026-04-10T07:23:26.857Z</time></trkpt><trkpt lat="42.1687517" lon="14.5882083"><ele>141.0</ele><time>2026-04-10T07:23:28.858Z</time></trkpt><trkpt lat="42.1688567" lon="14.5882733"><ele>141.0</ele><time>2026-04-10T07:23:30.858Z</time></trkpt><trkpt lat="42.1689633" lon="14.588345"><ele>141.0</ele><time>2026-04-10T07:23:32.857Z</time></trkpt><trkpt lat="42.1690683" lon="14.5884083"><ele>141.0</ele><time>2026-04-10T07:23:34.858Z</time></trkpt><trkpt lat="42.16917" lon="14.5884683"><ele>141.0</ele><time>2026-04-10T07:23:36.857Z</time></trkpt><trkpt lat="42.1692717" lon="14.5885283"><ele>141.2</ele><time>2026-04-10T07:23:38.858Z</time></trkpt><trkpt lat="42.169365" lon="14.588585"><ele>141.39999999999998</ele><time>2026-04-10T07:23:40.857Z</time></trkpt><trkpt lat="42.169455" lon="14.5886417"><ele>141.6</ele><time>2026-04-10T07:23:42.858Z</time></trkpt><trkpt lat="42.1695383" lon="14.588705"><ele>141.79999999999998</ele><time>2026-04-10T07:23:44.858Z</time></trkpt><trkpt lat="42.1696183" lon="14.5887667"><ele>142.0</ele><time>2026-04-10T07:23:46.857Z</time></trkpt><trkpt lat="42.1697017" lon="14.5888183"><ele>141.4</ele><time>2026-04-10T07:23:48.857Z</time></trkpt><trkpt lat="42.1697867" lon="14.5888767"><ele>140.79999999999998</ele><time>2026-04-10T07:23:50.858Z</time></trkpt><trkpt lat="42.16988" lon="14.58893"><ele>140.2</ele><time>2026-04-10T07:23:52.857Z</time></trkpt><trkpt lat="42.16997" lon="14.58898"><ele>139.6</ele><time>2026-04-10T07:23:54.857Z</time></trkpt><trkpt lat="42.17006" lon="14.589035"><ele>139.0</ele><time>2026-04-10T07:23:56.858Z</time></trkpt><trkpt lat="42.17015" lon="14.589095"><ele>139.0</ele><time>2026-04-10T07:23:58.858Z</time></trkpt><trkpt lat="42.1702367" lon="14.5891583"><ele>139.0</ele><time>2026-04-10T07:24:00.858Z</time></trkpt><trkpt lat="42.1703217" lon="14.589215"><ele>139.0</ele><time>2026-04-10T07:24:02.857Z</time></trkpt><trkpt lat="42.1704" lon="14.5892733"><ele>139.0</ele><time>2026-04-10T07:24:04.857Z</time></trkpt><trkpt lat="42.17049" lon="14.58933"><ele>139.0</ele><time>2026-04-10T07:24:06.858Z</time></trkpt><trkpt lat="42.1705783" lon="14.5893717"><ele>139.0</ele><time>2026-04-10T07:24:08.857Z</time></trkpt><trkpt lat="42.1706717" lon="14.589435"><ele>139.0</ele><time>2026-04-10T07:24:10.857Z</time></trkpt><trkpt lat="42.1707683" lon="14.58949"><ele>139.0</ele><time>2026-04-10T07:24:12.857Z</time></trkpt><trkpt lat="42.1708683" lon="14.5895433"><ele>139.0</ele><time>2026-04-10T07:24:14.858Z</time></trkpt><trkpt lat="42.1709783" lon="14.5896"><ele>139.0</ele><time>2026-04-10T07:24:16.858Z</time></trkpt><trkpt lat="42.1710783" lon="14.5896583"><ele>138.4</ele><time>2026-04-10T07:24:18.858Z</time></trkpt><trkpt lat="42.171175" lon="14.58974"><ele>137.8</ele><time>2026-04-10T07:24:20.857Z</time></trkpt><trkpt lat="42.17126" lon="14.5898183"><ele>137.2</ele><time>2026-04-10T07:24:22.857Z</time></trkpt><trkpt lat="42.1713333" lon="14.589905"><ele>136.6</ele><time>2026-04-10T07:24:24.858Z</time></trkpt><trkpt lat="42.17141" lon="14.5899917"><ele>136.0</ele><time>2026-04-10T07:24:26.857Z</time></trkpt><trkpt lat="42.171485" lon="14.5900683"><ele>136.2</ele><time>2026-04-10T07:24:28.857Z</time></trkpt><trkpt lat="42.17156" lon="14.59015"><ele>136.39999999999998</ele><time>2026-04-10T07:24:30.858Z</time></trkpt><trkpt lat="42.171635" lon="14.5902383"><ele>136.6</ele><time>2026-04-10T07:24:32.857Z</time></trkpt><trkpt lat="42.1717117" lon="14.5903283"><ele>136.79999999999998</ele><time>2026-04-10T07:24:34.858Z</time></trkpt><trkpt lat="42.17179" lon="14.5904183"><ele>137.0</ele><time>2026-04-10T07:24:36.858Z</time></trkpt><trkpt lat="42.1718717" lon="14.5904983"><ele>136.4</ele><time>2026-04-10T07:24:38.858Z</time></trkpt><trkpt lat="42.1719433" lon="14.5905783"><ele>135.79999999999998</ele><time>2026-04-10T07:24:40.858Z</time></trkpt><trkpt lat="42.1720233" lon="14.5906567"><ele>135.2</ele><time>2026-04-10T07:24:42.857Z</time></trkpt><trkpt lat="42.1721017" lon="14.59073"><ele>134.6</ele><time>2026-04-10T07:24:44.858Z</time></trkpt><trkpt lat="42.1721883" lon="14.5908183"><ele>134.0</ele><time>2026-04-10T07:24:46.857Z</time></trkpt><trkpt lat="42.1722717" lon="14.5909133"><ele>134.0</ele><time>2026-04-10T07:24:48.858Z</time></trkpt><trkpt lat="42.17236" lon="14.5910083"><ele>134.0</ele><time>2026-04-10T07:24:50.858Z</time></trkpt><trkpt lat="42.1724583" lon="14.5910967"><ele>134.0</ele><time>2026-04-10T07:24:52.857Z</time></trkpt><trkpt lat="42.1725533" lon="14.591205"><ele>134.0</ele><time>2026-04-10T07:24:54.858Z</time></trkpt><trkpt lat="42.1726417" lon="14.5913067"><ele>133.5</ele><time>2026-04-10T07:24:56.857Z</time></trkpt><trkpt lat="42.1727217" lon="14.59142"><ele>133.0</ele><time>2026-04-10T07:24:58.857Z</time></trkpt><trkpt lat="42.1727983" lon="14.5915383"><ele>132.5</ele><time>2026-04-10T07:25:00.858Z</time></trkpt><trkpt lat="42.1728683" lon="14.5916583"><ele>132.0</ele><time>2026-04-10T07:25:02.858Z</time></trkpt><trkpt lat="42.1729317" lon="14.5917733"><ele>132.0</ele><time>2026-04-10T07:25:04.858Z</time></trkpt><trkpt lat="42.173" lon="14.591895"><ele>132.0</ele><time>2026-04-10T07:25:06.857Z</time></trkpt><trkpt lat="42.17307" lon="14.5920067"><ele>132.0</ele><time>2026-04-10T07:25:08.858Z</time></trkpt><trkpt lat="42.1731333" lon="14.59212"><ele>132.0</ele><time>2026-04-10T07:25:10.858Z</time></trkpt><trkpt lat="42.1731967" lon="14.59223"><ele>132.0</ele><time>2026-04-10T07:25:12.857Z</time></trkpt><trkpt lat="42.173255" lon="14.5923533"><ele>131.6</ele><time>2026-04-10T07:25:14.858Z</time></trkpt><trkpt lat="42.17331" lon="14.592475"><ele>131.2</ele><time>2026-04-10T07:25:16.857Z</time></trkpt><trkpt lat="42.1733617" lon="14.5926017"><ele>130.8</ele><time>2026-04-10T07:25:18.857Z</time></trkpt><trkpt lat="42.17341" lon="14.5927383"><ele>130.4</ele><time>2026-04-10T07:25:20.858Z</time></trkpt><trkpt lat="42.1734533" lon="14.592875"><ele>130.0</ele><time>2026-04-10T07:25:22.858Z</time></trkpt><trkpt lat="42.1734867" lon="14.5930067"><ele>129.8</ele><time>2026-04-10T07:25:24.858Z</time></trkpt><trkpt lat="42.1735217" lon="14.5931367"><ele>129.6</ele><time>2026-04-10T07:25:26.857Z</time></trkpt><trkpt lat="42.173565" lon="14.5932667"><ele>129.4</ele><time>2026-04-10T07:25:28.857Z</time></trkpt><trkpt lat="42.1736" lon="14.593395"><ele>129.2</ele><time>2026-04-10T07:25:30.858Z</time></trkpt><trkpt lat="42.1736433" lon="14.59353"><ele>129.0</ele><time>2026-04-10T07:25:32.858Z</time></trkpt><trkpt lat="42.1736933" lon="14.5936567"><ele>128.6</ele><time>2026-04-10T07:25:34.858Z</time></trkpt><trkpt lat="42.173745" lon="14.59376"><ele>128.2</ele><time>2026-04-10T07:25:36.857Z</time></trkpt><trkpt lat="42.1738067" lon="14.593865"><ele>127.79999999999998</ele><time>2026-04-10T07:25:38.857Z</time></trkpt><trkpt lat="42.17387" lon="14.5939567"><ele>127.39999999999999</ele><time>2026-04-10T07:25:40.857Z</time></trkpt><trkpt lat="42.1739367" lon="14.5940667"><ele>127.0</ele><time>2026-04-10T07:25:42.858Z</time></trkpt><trkpt lat="42.1740117" lon="14.5941767"><ele>127.0</ele><time>2026-04-10T07:25:44.858Z</time></trkpt><trkpt lat="42.1740833" lon="14.59429"><ele>126.99999999999999</ele><time>2026-04-10T07:25:46.857Z</time></trkpt><trkpt lat="42.1741483" lon="14.5944033"><ele>126.99999999999999</ele><time>2026-04-10T07:25:48.857Z</time></trkpt><trkpt lat="42.1742117" lon="14.5945233"><ele>127.0</ele><time>2026-04-10T07:25:50.857Z</time></trkpt><trkpt lat="42.17427" lon="14.594645"><ele>127.0</ele><time>2026-04-10T07:25:52.857Z</time></trkpt><trkpt lat="42.1743217" lon="14.5947733"><ele>126.8</ele><time>2026-04-10T07:25:54.858Z</time></trkpt><trkpt lat="42.174365" lon="14.5949067"><ele>126.6</ele><time>2026-04-10T07:25:56.857Z</time></trkpt><trkpt lat="42.1744" lon="14.595045"><ele>126.39999999999999</ele><time>2026-04-10T07:25:58.858Z</time></trkpt><trkpt lat="42.1744383" lon="14.5951883"><ele>126.19999999999999</ele><time>2026-04-10T07:26:00.857Z</time></trkpt><trkpt lat="42.1744833" lon="14.595335"><ele>126.0</ele><time>2026-04-10T07:26:02.858Z</time></trkpt><trkpt lat="42.17452" lon="14.5954783"><ele>126.0</ele><time>2026-04-10T07:26:04.857Z</time></trkpt><trkpt lat="42.17456" lon="14.595615"><ele>126.0</ele><time>2026-04-10T07:26:06.857Z</time></trkpt><trkpt lat="42.1746033" lon="14.5957483"><ele>126.0</ele><time>2026-04-10T07:26:08.858Z</time></trkpt><trkpt lat="42.1746367" lon="14.5958717"><ele>126.0</ele><time>2026-04-10T07:26:10.858Z</time></trkpt><trkpt lat="42.1746783" lon="14.596"><ele>126.0</ele><time>2026-04-10T07:26:12.858Z</time></trkpt><trkpt lat="42.1747117" lon="14.5961283"><ele>125.6</ele><time>2026-04-10T07:26:14.857Z</time></trkpt><trkpt lat="42.1747533" lon="14.596265"><ele>125.19999999999999</ele><time>2026-04-10T07:26:16.857Z</time></trkpt><trkpt lat="42.1748017" lon="14.5964"><ele>124.80000000000001</ele><time>2026-04-10T07:26:18.858Z</time></trkpt><trkpt lat="42.17485" lon="14.5965317"><ele>124.4</ele><time>2026-04-10T07:26:20.858Z</time></trkpt><trkpt lat="42.17489" lon="14.5966667"><ele>124.0</ele><time>2026-04-10T07:26:22.857Z</time></trkpt><trkpt lat="42.17494" lon="14.5967983"><ele>123.5</ele><time>2026-04-10T07:26:24.858Z</time></trkpt><trkpt lat="42.1749933" lon="14.59693"><ele>123.0</ele><time>2026-04-10T07:26:26.857Z</time></trkpt><trkpt lat="42.1750517" lon="14.5970633"><ele>122.5</ele><time>2026-04-10T07:26:28.857Z</time></trkpt><trkpt lat="42.1751133" lon="14.59719"><ele>122.0</ele><time>2026-04-10T07:26:30.857Z</time></trkpt><trkpt lat="42.1751783" lon="14.59733"><ele>121.5</ele><time>2026-04-10T07:26:32.857Z</time></trkpt><trkpt lat="42.17524" lon="14.597465"><ele>121.0</ele><time>2026-04-10T07:26:34.857Z</time></trkpt><trkpt lat="42.1753083" lon="14.5976067"><ele>120.5</ele><time>2026-04-10T07:26:36.857Z</time></trkpt><trkpt lat="42.175375" lon="14.5977433"><ele>120.0</ele><time>2026-04-10T07:26:38.858Z</time></trkpt><trkpt lat="42.17545" lon="14.5978717"><ele>120.0</ele><time>2026-04-10T07:26:40.858Z</time></trkpt><trkpt lat="42.1755267" lon="14.5979983"><ele>120.0</ele><time>2026-04-10T07:26:42.858Z</time></trkpt><trkpt lat="42.17557" lon="14.5980617"><ele>120.0</ele><time>2026-04-10T07:26:43.858Z</time></trkpt><trkpt lat="42.1756117" lon="14.5981267"><ele>120.0</ele><time>2026-04-10T07:26:44.858Z</time></trkpt><trkpt lat="42.1756567" lon="14.5981867"><ele>120.0</ele><time>2026-04-10T07:26:45.857Z</time></trkpt><trkpt lat="42.1757" lon="14.5982517"><ele>120.0</ele><time>2026-04-10T07:26:46.857Z</time></trkpt><trkpt lat="42.1757483" lon="14.5983133"><ele>120.0</ele><time>2026-04-10T07:26:47.858Z</time></trkpt><trkpt lat="42.1758" lon="14.598375"><ele>119.66666666666667</ele><time>2026-04-10T07:26:48.858Z</time></trkpt><trkpt lat="42.1758517" lon="14.598435"><ele>119.33333333333334</ele><time>2026-04-10T07:26:49.857Z</time></trkpt><trkpt lat="42.1759017" lon="14.5984917"><ele>119.0</ele><time>2026-04-10T07:26:50.857Z</time></trkpt><trkpt lat="42.1759533" lon="14.5985433"><ele>118.66666666666667</ele><time>2026-04-10T07:26:51.857Z</time></trkpt><trkpt lat="42.1760067" lon="14.59859"><ele>118.33333333333334</ele><time>2026-04-10T07:26:52.857Z</time></trkpt><trkpt lat="42.1760633" lon="14.5986383"><ele>118.0</ele><time>2026-04-10T07:26:53.858Z</time></trkpt><trkpt lat="42.17617" lon="14.5987367"><ele>117.80000000000001</ele><time>2026-04-10T07:26:55.857Z</time></trkpt><trkpt lat="42.1762767" lon="14.5988267"><ele>117.60000000000001</ele><time>2026-04-10T07:26:57.858Z</time></trkpt><trkpt lat="42.176385" lon="14.5989117"><ele>117.39999999999999</ele><time>2026-04-10T07:26:59.857Z</time></trkpt><trkpt lat="42.1764917" lon="14.598995"><ele>117.19999999999999</ele><time>2026-04-10T07:27:01.858Z</time></trkpt><trkpt lat="42.1765467" lon="14.5990433"><ele>117.0</ele><time>2026-04-10T07:27:02.857Z</time></trkpt><trkpt lat="42.1766533" lon="14.599125"><ele>116.39999999999999</ele><time>2026-04-10T07:27:04.857Z</time></trkpt><trkpt lat="42.1767067" lon="14.5991717"><ele>115.79999999999998</ele><time>2026-04-10T07:27:05.858Z</time></trkpt><trkpt lat="42.1767633" lon="14.5992117"><ele>115.2</ele><time>2026-04-10T07:27:06.857Z</time></trkpt><trkpt lat="42.1768633" lon="14.59929"><ele>114.6</ele><time>2026-04-10T07:27:08.858Z</time></trkpt><trkpt lat="42.17696" lon="14.599375"><ele>114.0</ele><time>2026-04-10T07:27:10.858Z</time></trkpt><trkpt lat="42.1770617" lon="14.5994617"><ele>114.2</ele><time>2026-04-10T07:27:12.858Z</time></trkpt><trkpt lat="42.17716" lon="14.5995417"><ele>114.4</ele><time>2026-04-10T07:27:14.858Z</time></trkpt><trkpt lat="42.1772467" lon="14.599615"><ele>114.6</ele><time>2026-04-10T07:27:16.858Z</time></trkpt><trkpt lat="42.1773367" lon="14.5996933"><ele>114.8</ele><time>2026-04-10T07:27:18.858Z</time></trkpt><trkpt lat="42.1774267" lon="14.599765"><ele>115.0</ele><time>2026-04-10T07:27:20.858Z</time></trkpt><trkpt lat="42.1775133" lon="14.599835"><ele>114.4</ele><time>2026-04-10T07:27:22.858Z</time></trkpt><trkpt lat="42.1776" lon="14.5999183"><ele>113.8</ele><time>2026-04-10T07:27:24.857Z</time></trkpt><trkpt lat="42.1776867" lon="14.5999967"><ele>113.19999999999999</ele><time>2026-04-10T07:27:26.857Z</time></trkpt><trkpt lat="42.1777717" lon="14.6000767"><ele>112.6</ele><time>2026-04-10T07:27:28.857Z</time></trkpt><trkpt lat="42.1778517" lon="14.600165"><ele>112.0</ele><time>2026-04-10T07:27:30.858Z</time></trkpt><trkpt lat="42.1779267" lon="14.60026"><ele>111.8</ele><time>2026-04-10T07:27:32.858Z</time></trkpt><trkpt lat="42.1780067" lon="14.6003517"><ele>111.6</ele><time>2026-04-10T07:27:34.858Z</time></trkpt><trkpt lat="42.17808" lon="14.6004517"><ele>111.39999999999999</ele><time>2026-04-10T07:27:36.858Z</time></trkpt><trkpt lat="42.178145" lon="14.6005533"><ele>111.19999999999999</ele><time>2026-04-10T07:27:38.857Z</time></trkpt><trkpt lat="42.1782233" lon="14.60065"><ele>111.0</ele><time>2026-04-10T07:27:40.857Z</time></trkpt><trkpt lat="42.1783017" lon="14.6007367"><ele>111.0</ele><time>2026-04-10T07:27:42.858Z</time></trkpt><trkpt lat="42.1783783" lon="14.6008367"><ele>111.0</ele><time>2026-04-10T07:27:44.857Z</time></trkpt><trkpt lat="42.1784533" lon="14.60094"><ele>111.0</ele><time>2026-04-10T07:27:46.857Z</time></trkpt><trkpt lat="42.17853" lon="14.6010417"><ele>111.0</ele><time>2026-04-10T07:27:48.858Z</time></trkpt><trkpt lat="42.178605" lon="14.601145"><ele>111.0</ele><time>2026-04-10T07:27:50.857Z</time></trkpt><trkpt lat="42.1786733" lon="14.6012483"><ele>111.19999999999999</ele><time>2026-04-10T07:27:52.858Z</time></trkpt><trkpt lat="42.1787433" lon="14.601335"><ele>111.39999999999999</ele><time>2026-04-10T07:27:54.857Z</time></trkpt><trkpt lat="42.178815" lon="14.60143"><ele>111.6</ele><time>2026-04-10T07:27:56.858Z</time></trkpt><trkpt lat="42.1788983" lon="14.6015183"><ele>111.8</ele><time>2026-04-10T07:27:58.858Z</time></trkpt><trkpt lat="42.1789833" lon="14.6016"><ele>112.0</ele><time>2026-04-10T07:28:00.857Z</time></trkpt><trkpt lat="42.1790667" lon="14.60167"><ele>111.39999999999999</ele><time>2026-04-10T07:28:02.858Z</time></trkpt><trkpt lat="42.179145" lon="14.601745"><ele>110.79999999999998</ele><time>2026-04-10T07:28:04.857Z</time></trkpt><trkpt lat="42.1792233" lon="14.6018167"><ele>110.2</ele><time>2026-04-10T07:28:06.858Z</time></trkpt><trkpt lat="42.179305" lon="14.6019"><ele>109.6</ele><time>2026-04-10T07:28:08.858Z</time></trkpt><trkpt lat="42.1793833" lon="14.60198"><ele>109.0</ele><time>2026-04-10T07:28:10.858Z</time></trkpt><trkpt lat="42.17945" lon="14.602075"><ele>108.6</ele><time>2026-04-10T07:28:12.857Z</time></trkpt><trkpt lat="42.1795167" lon="14.6021733"><ele>108.2</ele><time>2026-04-10T07:28:14.858Z</time></trkpt><trkpt lat="42.1795883" lon="14.6022733"><ele>107.79999999999998</ele><time>2026-04-10T07:28:16.857Z</time></trkpt><trkpt lat="42.179655" lon="14.60237"><ele>107.39999999999999</ele><time>2026-04-10T07:28:18.858Z</time></trkpt><trkpt lat="42.179715" lon="14.60248"><ele>107.0</ele><time>2026-04-10T07:28:20.857Z</time></trkpt><trkpt lat="42.1797817" lon="14.6025833"><ele>106.99999999999999</ele><time>2026-04-10T07:28:22.858Z</time></trkpt><trkpt lat="42.1798417" lon="14.6026767"><ele>107.0</ele><time>2026-04-10T07:28:24.858Z</time></trkpt><trkpt lat="42.1798983" lon="14.6027733"><ele>107.0</ele><time>2026-04-10T07:28:26.858Z</time></trkpt><trkpt lat="42.1799567" lon="14.602855"><ele>107.0</ele><time>2026-04-10T07:28:28.858Z</time></trkpt><trkpt lat="42.18001" lon="14.6029267"><ele>106.99999999999999</ele><time>2026-04-10T07:28:30.857Z</time></trkpt><trkpt lat="42.1800667" lon="14.6029933"><ele>107.0</ele><time>2026-04-10T07:28:32.857Z</time></trkpt><trkpt lat="42.1801283" lon="14.603055"><ele>106.49999999999999</ele><time>2026-04-10T07:28:34.857Z</time></trkpt><trkpt lat="42.1801883" lon="14.603115"><ele>106.0</ele><time>2026-04-10T07:28:36.858Z</time></trkpt><trkpt lat="42.1802567" lon="14.6031717"><ele>105.5</ele><time>2026-04-10T07:28:38.857Z</time></trkpt><trkpt lat="42.1803233" lon="14.6032217"><ele>105.0</ele><time>2026-04-10T07:28:40.858Z</time></trkpt><trkpt lat="42.1803867" lon="14.6032783"><ele>104.49999999999999</ele><time>2026-04-10T07:28:42.858Z</time></trkpt><trkpt lat="42.18045" lon="14.6033367"><ele>104.0</ele><time>2026-04-10T07:28:44.858Z</time></trkpt><trkpt lat="42.18051" lon="14.6033833"><ele>103.99999999999999</ele><time>2026-04-10T07:28:46.858Z</time></trkpt><trkpt lat="42.1805733" lon="14.6034417"><ele>104.0</ele><time>2026-04-10T07:28:48.858Z</time></trkpt><trkpt lat="42.1806483" lon="14.6034983"><ele>104.0</ele><time>2026-04-10T07:28:50.857Z</time></trkpt><trkpt lat="42.1807317" lon="14.6035517"><ele>104.0</ele><time>2026-04-10T07:28:52.858Z</time></trkpt><trkpt lat="42.180815" lon="14.603605"><ele>103.99999999999999</ele><time>2026-04-10T07:28:54.857Z</time></trkpt><trkpt lat="42.1808917" lon="14.603655"><ele>104.0</ele><time>2026-04-10T07:28:56.858Z</time></trkpt><trkpt lat="42.1809717" lon="14.6037"><ele>103.6</ele><time>2026-04-10T07:28:58.858Z</time></trkpt><trkpt lat="42.1810517" lon="14.603745"><ele>103.2</ele><time>2026-04-10T07:29:00.857Z</time></trkpt><trkpt lat="42.1811467" lon="14.60379"><ele>102.8</ele><time>2026-04-10T07:29:02.858Z</time></trkpt><trkpt lat="42.181235" lon="14.60385"><ele>102.39999999999999</ele><time>2026-04-10T07:29:04.857Z</time></trkpt><trkpt lat="42.1813267" lon="14.60391"><ele>102.0</ele><time>2026-04-10T07:29:06.858Z</time></trkpt><trkpt lat="42.181425" lon="14.6039617"><ele>101.8</ele><time>2026-04-10T07:29:08.857Z</time></trkpt><trkpt lat="42.1815267" lon="14.6040167"><ele>101.6</ele><time>2026-04-10T07:29:10.858Z</time></trkpt><trkpt lat="42.1816267" lon="14.6040767"><ele>101.39999999999999</ele><time>2026-04-10T07:29:12.857Z</time></trkpt><trkpt lat="42.1817333" lon="14.6041333"><ele>101.19999999999999</ele><time>2026-04-10T07:29:14.858Z</time></trkpt><trkpt lat="42.18184" lon="14.6041883"><ele>101.0</ele><time>2026-04-10T07:29:16.857Z</time></trkpt><trkpt lat="42.1819467" lon="14.6042417"><ele>101.0</ele><time>2026-04-10T07:29:18.858Z</time></trkpt><trkpt lat="42.1820517" lon="14.6042917"><ele>101.0</ele><time>2026-04-10T07:29:20.857Z</time></trkpt><trkpt lat="42.182155" lon="14.60435"><ele>101.0</ele><time>2026-04-10T07:29:22.858Z</time></trkpt><trkpt lat="42.1822583" lon="14.6044067"><ele>101.0</ele><time>2026-04-10T07:29:24.858Z</time></trkpt><trkpt lat="42.18236" lon="14.6044667"><ele>101.0</ele><time>2026-04-10T07:29:26.858Z</time></trkpt><trkpt lat="42.1824567" lon="14.6045167"><ele>100.0</ele><time>2026-04-10T07:29:28.858Z</time></trkpt><trkpt lat="42.18255" lon="14.60457"><ele>99.0</ele><time>2026-04-10T07:29:30.858Z</time></trkpt><trkpt lat="42.1826433" lon="14.6046083"><ele>98.0</ele><time>2026-04-10T07:29:32.857Z</time></trkpt><trkpt lat="42.1827383" lon="14.60466"><ele>97.0</ele><time>2026-04-10T07:29:34.857Z</time></trkpt><trkpt lat="42.1828217" lon="14.6047017"><ele>96.0</ele><time>2026-04-10T07:29:36.858Z</time></trkpt><trkpt lat="42.1828917" lon="14.6047283"><ele>96.0</ele><time>2026-04-10T07:29:38.858Z</time></trkpt><trkpt lat="42.1829617" lon="14.60476"><ele>96.0</ele><time>2026-04-10T07:29:42.857Z</time></trkpt><trkpt lat="42.1829933" lon="14.6046617"><ele>96.0</ele><time>2026-04-10T07:29:47.858Z</time></trkpt><trkpt lat="42.183035" lon="14.6045733"><ele>96.0</ele><time>2026-04-10T07:29:50.857Z</time></trkpt><trkpt lat="42.183075" lon="14.604475"><ele>96.0</ele><time>2026-04-10T07:29:53.858Z</time></trkpt><trkpt lat="42.1831217" lon="14.6043817"><ele>96.0</ele><time>2026-04-10T07:29:56.857Z</time></trkpt><trkpt lat="42.1831567" lon="14.604305"><ele>96.16666666666667</ele><time>2026-04-10T07:29:58.857Z</time></trkpt><trkpt lat="42.183185" lon="14.6042283"><ele>96.33333333333334</ele><time>2026-04-10T07:30:00.858Z</time></trkpt><trkpt lat="42.1832317" lon="14.6041217"><ele>96.5</ele><time>2026-04-10T07:30:03.857Z</time></trkpt><trkpt lat="42.18327" lon="14.6040433"><ele>96.66666666666667</ele><time>2026-04-10T07:30:05.858Z</time></trkpt><trkpt lat="42.1833033" lon="14.6039633"><ele>96.83333333333334</ele><time>2026-04-10T07:30:07.858Z</time></trkpt><trkpt lat="42.18334" lon="14.6038833"><ele>97.0</ele><time>2026-04-10T07:30:09.857Z</time></trkpt><trkpt lat="42.1833967" lon="14.6037767"><ele>97.00000000000001</ele><time>2026-04-10T07:30:12.858Z</time></trkpt><trkpt lat="42.1834383" lon="14.6036767"><ele>97.0</ele><time>2026-04-10T07:30:15.858Z</time></trkpt><trkpt lat="42.183485" lon="14.60358"><ele>97.0</ele><time>2026-04-10T07:30:18.858Z</time></trkpt><trkpt lat="42.18353" lon="14.6034717"><ele>97.0</ele><time>2026-04-10T07:30:21.858Z</time></trkpt><trkpt lat="42.18357" lon="14.603405"><ele>97.00000000000001</ele><time>2026-04-10T07:30:23.857Z</time></trkpt><trkpt lat="42.1836033" lon="14.6033283"><ele>97.0</ele><time>2026-04-10T07:30:25.857Z</time></trkpt><trkpt lat="42.1836417" lon="14.6032433"><ele>96.83333333333334</ele><time>2026-04-10T07:30:27.858Z</time></trkpt><trkpt lat="42.1836867" lon="14.6031533"><ele>96.66666666666667</ele><time>2026-04-10T07:30:29.858Z</time></trkpt><trkpt lat="42.1837283" lon="14.6030617"><ele>96.5</ele><time>2026-04-10T07:30:31.858Z</time></trkpt><trkpt lat="42.1837633" lon="14.6029833"><ele>96.33333333333334</ele><time>2026-04-10T07:30:33.858Z</time></trkpt><trkpt lat="42.1837983" lon="14.6029"><ele>96.16666666666667</ele><time>2026-04-10T07:30:35.857Z</time></trkpt><trkpt lat="42.1838533" lon="14.6028133"><ele>96.0</ele><time>2026-04-10T07:30:38.857Z</time></trkpt><trkpt lat="42.18392" lon="14.6027967"><ele>95.33333333333333</ele><time>2026-04-10T07:30:41.857Z</time></trkpt><trkpt lat="42.1839867" lon="14.60283"><ele>94.66666666666667</ele><time>2026-04-10T07:30:45.857Z</time></trkpt><trkpt lat="42.184065" lon="14.60284"><ele>94.0</ele><time>2026-04-10T07:30:48.858Z</time></trkpt><trkpt lat="42.1841533" lon="14.602845"><ele>93.33333333333334</ele><time>2026-04-10T07:30:51.858Z</time></trkpt><trkpt lat="42.1842183" lon="14.602845"><ele>92.66666666666667</ele><time>2026-04-10T07:30:53.857Z</time></trkpt><trkpt lat="42.184295" lon="14.6028333"><ele>92.0</ele><time>2026-04-10T07:30:55.858Z</time></trkpt><trkpt lat="42.184365" lon="14.602875"><ele>92.0</ele><time>2026-04-10T07:30:58.858Z</time></trkpt><trkpt lat="42.18443" lon="14.6029317"><ele>92.0</ele><time>2026-04-10T07:31:01.858Z</time></trkpt><trkpt lat="42.1845033" lon="14.6029833"><ele>92.0</ele><time>2026-04-10T07:31:05.858Z</time></trkpt><trkpt lat="42.1845717" lon="14.6030183"><ele>92.0</ele><time>2026-04-10T07:31:09.858Z</time></trkpt><trkpt lat="42.1846433" lon="14.6030067"><ele>92.0</ele><time>2026-04-10T07:31:27.857Z</time></trkpt><trkpt lat="42.1847233" lon="14.602985"><ele>92.0</ele><time>2026-04-10T07:31:30.858Z</time></trkpt><trkpt lat="42.1847833" lon="14.6030217"><ele>92.0</ele><time>2026-04-10T07:31:33.857Z</time></trkpt><trkpt lat="42.18484" lon="14.6030717"><ele>92.0</ele><time>2026-04-10T07:31:36.858Z</time></trkpt><trkpt lat="42.1849" lon="14.6031183"><ele>92.0</ele><time>2026-04-10T07:31:38.858Z</time></trkpt><trkpt lat="42.1849683" lon="14.603165"><ele>92.0</ele><time>2026-04-10T07:31:40.857Z</time></trkpt><trkpt lat="42.1850417" lon="14.603205"><ele>92.0</ele><time>2026-04-10T07:31:42.858Z</time></trkpt><trkpt lat="42.1851017" lon="14.6032367"><ele>92.0</ele><time>2026-04-10T07:31:44.858Z</time></trkpt><trkpt lat="42.18517" lon="14.6032767"><ele>92.0</ele><time>2026-04-10T07:31:47.858Z</time></trkpt><trkpt lat="42.1852317" lon="14.6033"><ele>91.33333333333334</ele><time>2026-04-10T07:31:50.858Z</time></trkpt><trkpt lat="42.1853017" lon="14.603345"><ele>90.66666666666667</ele><time>2026-04-10T07:31:54.858Z</time></trkpt><trkpt lat="42.1853517" lon="14.6034233"><ele>90.0</ele><time>2026-04-10T07:31:58.858Z</time></trkpt><trkpt lat="42.1854033" lon="14.60352"><ele>89.33333333333333</ele><time>2026-04-10T07:32:03.858Z</time></trkpt><trkpt lat="42.1854683" lon="14.6035567"><ele>88.66666666666666</ele><time>2026-04-10T07:32:07.858Z</time></trkpt><trkpt lat="42.1855367" lon="14.60355"><ele>88.0</ele><time>2026-04-10T07:32:19.858Z</time></trkpt><trkpt lat="42.18558" lon="14.6034317"><ele>88.0</ele><time>2026-04-10T07:32:20.858Z</time></trkpt><trkpt lat="42.1856017" lon="14.6033167"><ele>88.0</ele><time>2026-04-10T07:32:26.858Z</time></trkpt><trkpt lat="42.1855533" lon="14.603245"><ele>88.0</ele><time>2026-04-10T07:32:31.857Z</time></trkpt><trkpt lat="42.1854483" lon="14.6031383"><ele>88.0</ele><time>2026-04-10T07:33:27.858Z</time></trkpt><trkpt lat="42.185365" lon="14.6031017"><ele>88.0</ele><time>2026-04-10T07:34:14.858Z</time></trkpt><trkpt lat="42.1853617" lon="14.6030167"><ele>88.0</ele><time>2026-04-10T07:35:37.858Z</time></trkpt><trkpt lat="42.1853983" lon="14.603155"><ele>88.0</ele><time>2026-04-10T07:42:26.86Z</time></trkpt><trkpt lat="42.1853983" lon="14.6030617"><ele>88.0</ele><time>2026-04-10T07:44:24.861Z</time></trkpt><trkpt lat="42.1852983" lon="14.6030017"><ele>88.0</ele><time>2026-04-10T07:45:09.86Z</time></trkpt><trkpt lat="42.185325" lon="14.602915"><ele>88.0</ele><time>2026-04-10T07:45:27.861Z</time></trkpt><trkpt lat="42.1853067" lon="14.6028333"><ele>88.0</ele><time>2026-04-10T07:45:45.86Z</time></trkpt><trkpt lat="42.1852333" lon="14.6027317"><ele>88.0</ele><time>2026-04-10T07:46:19.86Z</time></trkpt><trkpt lat="42.18513" lon="14.6026767"><ele>87.5</ele><time>2026-04-10T07:46:46.86Z</time></trkpt><trkpt lat="42.18518" lon="14.6026183"><ele>87.0</ele><time>2026-04-10T07:47:23.862Z</time></trkpt><trkpt lat="42.1852233" lon="14.602525"><ele>86.5</ele><time>2026-04-10T07:47:27.861Z</time></trkpt><trkpt lat="42.1852533" lon="14.60244"><ele>86.0</ele><time>2026-04-10T07:47:31.862Z</time></trkpt><trkpt lat="42.1852767" lon="14.6023533"><ele>85.5</ele><time>2026-04-10T07:47:33.862Z</time></trkpt><trkpt lat="42.1853217" lon="14.6022633"><ele>85.0</ele><time>2026-04-10T07:47:34.862Z</time></trkpt><trkpt lat="42.1853467" lon="14.6021533"><ele>85.0</ele><time>2026-04-10T07:47:37.862Z</time></trkpt><trkpt lat="42.18536" lon="14.60205"><ele>85.0</ele><time>2026-04-10T07:47:40.861Z</time></trkpt><trkpt lat="42.1853717" lon="14.6019567"><ele>85.0</ele><time>2026-04-10T07:47:43.862Z</time></trkpt><trkpt lat="42.1853517" lon="14.601855"><ele>85.0</ele><time>2026-04-10T07:47:47.861Z</time></trkpt><trkpt lat="42.1853083" lon="14.60178"><ele>85.0</ele><time>2026-04-10T07:47:51.861Z</time></trkpt><trkpt lat="42.1852633" lon="14.6016817"><ele>85.0</ele><time>2026-04-10T07:47:55.861Z</time></trkpt><trkpt lat="42.1852367" lon="14.6015733"><ele>85.42857142857143</ele><time>2026-04-10T07:47:59.862Z</time></trkpt><trkpt lat="42.1852017" lon="14.601495"><ele>85.85714285714285</ele><time>2026-04-10T07:48:02.862Z</time></trkpt><trkpt lat="42.18516" lon="14.6014017"><ele>86.28571428571428</ele><time>2026-04-10T07:48:06.862Z</time></trkpt><trkpt lat="42.1851283" lon="14.601325"><ele>86.71428571428572</ele><time>2026-04-10T07:48:09.862Z</time></trkpt><trkpt lat="42.1851083" lon="14.6012383"><ele>87.14285714285714</ele><time>2026-04-10T07:48:12.861Z</time></trkpt><trkpt lat="42.1850883" lon="14.601155"><ele>87.57142857142857</ele><time>2026-04-10T07:48:15.862Z</time></trkpt><trkpt lat="42.1850633" lon="14.6010717"><ele>88.0</ele><time>2026-04-10T07:48:20.862Z</time></trkpt><trkpt lat="42.1850433" lon="14.600985"><ele>88.42857142857143</ele><time>2026-04-10T07:48:24.861Z</time></trkpt><trkpt lat="42.1850267" lon="14.6008967"><ele>88.85714285714286</ele><time>2026-04-10T07:48:28.862Z</time></trkpt><trkpt lat="42.1849883" lon="14.6008267"><ele>89.28571428571428</ele><time>2026-04-10T07:48:32.862Z</time></trkpt><trkpt lat="42.184945" lon="14.6007633"><ele>89.71428571428572</ele><time>2026-04-10T07:48:36.862Z</time></trkpt><trkpt lat="42.184905" lon="14.6006917"><ele>90.14285714285714</ele><time>2026-04-10T07:48:41.861Z</time></trkpt><trkpt lat="42.1848983" lon="14.6005917"><ele>90.57142857142857</ele><time>2026-04-10T07:48:45.862Z</time></trkpt><trkpt lat="42.1848717" lon="14.6005067"><ele>91.0</ele><time>2026-04-10T07:48:50.862Z</time></trkpt><trkpt lat="42.1848717" lon="14.600415"><ele>91.66666666666666</ele><time>2026-04-10T07:48:55.862Z</time></trkpt><trkpt lat="42.1848767" lon="14.600315"><ele>92.33333333333333</ele><time>2026-04-10T07:49:00.862Z</time></trkpt><trkpt lat="42.1848617" lon="14.60023"><ele>93.0</ele><time>2026-04-10T07:49:05.862Z</time></trkpt><trkpt lat="42.1848267" lon="14.6001567"><ele>93.66666666666667</ele><time>2026-04-10T07:49:11.862Z</time></trkpt><trkpt lat="42.1847033" lon="14.600135"><ele>94.33333333333334</ele><time>2026-04-10T07:49:28.861Z</time></trkpt><trkpt lat="42.1847167" lon="14.6002233"><ele>95.0</ele><time>2026-04-10T07:49:50.861Z</time></trkpt><trkpt lat="42.184755" lon="14.6002983"><ele>95.14285714285714</ele><time>2026-04-10T07:49:53.862Z</time></trkpt><trkpt lat="42.1848017" lon="14.600375"><ele>95.28571428571429</ele><time>2026-04-10T07:49:59.861Z</time></trkpt><trkpt lat="42.184855" lon="14.6004567"><ele>95.42857142857142</ele><time>2026-04-10T07:50:04.861Z</time></trkpt><trkpt lat="42.1849067" lon="14.600515"><ele>95.57142857142857</ele><time>2026-04-10T07:50:08.862Z</time></trkpt><trkpt lat="42.1849567" lon="14.6005733"><ele>95.71428571428571</ele><time>2026-04-10T07:50:11.861Z</time></trkpt><trkpt lat="42.1850083" lon="14.6006367"><ele>95.85714285714285</ele><time>2026-04-10T07:50:15.861Z</time></trkpt><trkpt lat="42.1850717" lon="14.60068"><ele>96.0</ele><time>2026-04-10T07:50:19.862Z</time></trkpt><trkpt lat="42.1851433" lon="14.6007333"><ele>95.16666666666667</ele><time>2026-04-10T07:50:24.862Z</time></trkpt><trkpt lat="42.1851983" lon="14.6007933"><ele>94.33333333333333</ele><time>2026-04-10T07:50:27.861Z</time></trkpt><trkpt lat="42.1852633" lon="14.60088"><ele>93.5</ele><time>2026-04-10T07:50:30.862Z</time></trkpt><trkpt lat="42.1853267" lon="14.6009333"><ele>92.66666666666666</ele><time>2026-04-10T07:50:33.861Z</time></trkpt><trkpt lat="42.1854067" lon="14.60094"><ele>91.83333333333333</ele><time>2026-04-10T07:50:36.862Z</time></trkpt><trkpt lat="42.18547" lon="14.6008867"><ele>91.0</ele><time>2026-04-10T07:50:40.862Z</time></trkpt><trkpt lat="42.1854933" lon="14.60079"><ele>91.0</ele><time>2026-04-10T07:50:44.862Z</time></trkpt><trkpt lat="42.1854967" lon="14.6006833"><ele>91.0</ele><time>2026-04-10T07:50:47.862Z</time></trkpt><trkpt lat="42.18549" lon="14.6005783"><ele>91.0</ele><time>2026-04-10T07:50:50.861Z</time></trkpt><trkpt lat="42.1854683" lon="14.6004933"><ele>91.0</ele><time>2026-04-10T07:50:53.861Z</time></trkpt><trkpt lat="42.185425" lon="14.6004133"><ele>91.0</ele><time>2026-04-10T07:50:57.861Z</time></trkpt><trkpt lat="42.1853817" lon="14.6003367"><ele>91.0</ele><time>2026-04-10T07:51:00.861Z</time></trkpt><trkpt lat="42.18533" lon="14.6002633"><ele>91.0</ele><time>2026-04-10T07:51:03.861Z</time></trkpt><trkpt lat="42.1852867" lon="14.6002"><ele>91.66666666666666</ele><time>2026-04-10T07:51:06.861Z</time></trkpt><trkpt lat="42.18524" lon="14.6001283"><ele>92.33333333333333</ele><time>2026-04-10T07:51:09.861Z</time></trkpt><trkpt lat="42.18519" lon="14.600045"><ele>93.0</ele><time>2026-04-10T07:51:13.862Z</time></trkpt><trkpt lat="42.185135" lon="14.599965"><ele>93.66666666666667</ele><time>2026-04-10T07:51:17.861Z</time></trkpt><trkpt lat="42.1850933" lon="14.5998717"><ele>94.33333333333334</ele><time>2026-04-10T07:51:21.862Z</time></trkpt><trkpt lat="42.1850433" lon="14.5997917"><ele>95.0</ele><time>2026-04-10T07:51:24.861Z</time></trkpt><trkpt lat="42.1850017" lon="14.5997167"><ele>95.0</ele><time>2026-04-10T07:51:28.861Z</time></trkpt><trkpt lat="42.1849517" lon="14.5996467"><ele>95.0</ele><time>2026-04-10T07:51:32.862Z</time></trkpt><trkpt lat="42.1850067" lon="14.5995983"><ele>95.0</ele><time>2026-04-10T07:51:38.861Z</time></trkpt><trkpt lat="42.1850617" lon="14.5995167"><ele>95.0</ele><time>2026-04-10T07:51:42.862Z</time></trkpt><trkpt lat="42.1851017" lon="14.599445"><ele>95.0</ele><time>2026-04-10T07:51:45.861Z</time></trkpt><trkpt lat="42.185155" lon="14.5993617"><ele>95.0</ele><time>2026-04-10T07:51:49.861Z</time></trkpt><trkpt lat="42.185195" lon="14.5992917"><ele>95.0</ele><time>2026-04-10T07:51:52.862Z</time></trkpt><trkpt lat="42.1852417" lon="14.5992283"><ele>95.33333333333334</ele><time>2026-04-10T07:51:56.862Z</time></trkpt><trkpt lat="42.1852867" lon="14.5991517"><ele>95.66666666666667</ele><time>2026-04-10T07:52:02.861Z</time></trkpt><trkpt lat="42.1853567" lon="14.5991717"><ele>96.0</ele><time>2026-04-10T07:52:08.861Z</time></trkpt><trkpt lat="42.185405" lon="14.5990817"><ele>96.33333333333334</ele><time>2026-04-10T07:52:13.861Z</time></trkpt><trkpt lat="42.185435" lon="14.5989783"><ele>96.66666666666667</ele><time>2026-04-10T07:52:16.862Z</time></trkpt><trkpt lat="42.1854567" lon="14.5988767"><ele>97.0</ele><time>2026-04-10T07:52:19.861Z</time></trkpt><trkpt lat="42.1854833" lon="14.5987783"><ele>97.00000000000001</ele><time>2026-04-10T07:52:22.862Z</time></trkpt><trkpt lat="42.1855083" lon="14.5986717"><ele>97.0</ele><time>2026-04-10T07:52:25.862Z</time></trkpt><trkpt lat="42.1855317" lon="14.5985567"><ele>97.0</ele><time>2026-04-10T07:52:28.862Z</time></trkpt><trkpt lat="42.1855483" lon="14.5984683"><ele>97.0</ele><time>2026-04-10T07:52:30.862Z</time></trkpt><trkpt lat="42.1855717" lon="14.5983867"><ele>97.00000000000001</ele><time>2026-04-10T07:52:32.862Z</time></trkpt><trkpt lat="42.1856017" lon="14.5982783"><ele>97.0</ele><time>2026-04-10T07:52:35.861Z</time></trkpt><trkpt lat="42.18562" lon="14.598175"><ele>97.16666666666667</ele><time>2026-04-10T07:52:38.862Z</time></trkpt><trkpt lat="42.1856433" lon="14.598075"><ele>97.33333333333334</ele><time>2026-04-10T07:52:41.862Z</time></trkpt><trkpt lat="42.1856667" lon="14.5979683"><ele>97.5</ele><time>2026-04-10T07:52:44.862Z</time></trkpt><trkpt lat="42.1856867" lon="14.5978767"><ele>97.66666666666666</ele><time>2026-04-10T07:52:47.861Z</time></trkpt><trkpt lat="42.1857517" lon="14.59782"><ele>97.83333333333333</ele><time>2026-04-10T07:52:51.862Z</time></trkpt><trkpt lat="42.1858083" lon="14.5977617"><ele>98.0</ele><time>2026-04-10T07:52:54.862Z</time></trkpt><trkpt lat="42.18586" lon="14.5976867"><ele>98.28571428571429</ele><time>2026-04-10T07:52:57.862Z</time></trkpt><trkpt lat="42.1859117" lon="14.597615"><ele>98.57142857142857</ele><time>2026-04-10T07:53:00.862Z</time></trkpt><trkpt lat="42.18597" lon="14.5975317"><ele>98.85714285714286</ele><time>2026-04-10T07:53:03.862Z</time></trkpt><trkpt lat="42.1860133" lon="14.5974683"><ele>99.14285714285714</ele><time>2026-04-10T07:53:07.861Z</time></trkpt><trkpt lat="42.1860333" lon="14.5973683"><ele>99.42857142857143</ele><time>2026-04-10T07:53:10.862Z</time></trkpt><trkpt lat="42.185985" lon="14.5973"><ele>99.71428571428572</ele><time>2026-04-10T07:53:14.862Z</time></trkpt><trkpt lat="42.1859217" lon="14.5973"><ele>100.0</ele><time>2026-04-10T07:53:17.862Z</time></trkpt><trkpt lat="42.1858583" lon="14.5972767"><ele>100.00000000000001</ele><time>2026-04-10T07:53:21.861Z</time></trkpt><trkpt lat="42.1857967" lon="14.59722"><ele>100.0</ele><time>2026-04-10T07:53:25.861Z</time></trkpt><trkpt lat="42.1857333" lon="14.5971833"><ele>100.0</ele><time>2026-04-10T07:53:28.862Z</time></trkpt><trkpt lat="42.185675" lon="14.5971433"><ele>100.0</ele><time>2026-04-10T07:53:31.862Z</time></trkpt><trkpt lat="42.185605" lon="14.59711"><ele>100.0</ele><time>2026-04-10T07:53:34.862Z</time></trkpt><trkpt lat="42.1855367" lon="14.5970767"><ele>100.00000000000001</ele><time>2026-04-10T07:53:37.862Z</time></trkpt><trkpt lat="42.185475" lon="14.597045"><ele>100.0</ele><time>2026-04-10T07:53:40.861Z</time></trkpt><trkpt lat="42.1854217" lon="14.5969767"><ele>100.00000000000001</ele><time>2026-04-10T07:53:45.861Z</time></trkpt><trkpt lat="42.18541" lon="14.5968883"><ele>100.0</ele><time>2026-04-10T07:53:48.861Z</time></trkpt><trkpt lat="42.1854067" lon="14.5968"><ele>100.0</ele><time>2026-04-10T07:53:50.862Z</time></trkpt><trkpt lat="42.1854" lon="14.5967133"><ele>100.0</ele><time>2026-04-10T07:53:52.861Z</time></trkpt><trkpt lat="42.1854033" lon="14.5966267"><ele>100.0</ele><time>2026-04-10T07:53:54.862Z</time></trkpt><trkpt lat="42.1854083" lon="14.5965367"><ele>100.00000000000001</ele><time>2026-04-10T07:53:56.862Z</time></trkpt><trkpt lat="42.1854133" lon="14.596435"><ele>100.0</ele><time>2026-04-10T07:53:58.861Z</time></trkpt><trkpt lat="42.185415" lon="14.5963483"><ele>100.00000000000001</ele><time>2026-04-10T07:54:00.861Z</time></trkpt><trkpt lat="42.185425" lon="14.5962367"><ele>100.0</ele><time>2026-04-10T07:54:03.862Z</time></trkpt><trkpt lat="42.1854967" lon="14.5961833"><ele>100.0</ele><time>2026-04-10T07:54:07.862Z</time></trkpt><trkpt lat="42.1855617" lon="14.596165"><ele>100.0</ele><time>2026-04-10T07:54:09.861Z</time></trkpt><trkpt lat="42.185655" lon="14.5961233"><ele>100.00000000000001</ele><time>2026-04-10T07:54:12.862Z</time></trkpt><trkpt lat="42.185725" lon="14.5960867"><ele>100.0</ele><time>2026-04-10T07:54:14.861Z</time></trkpt><trkpt lat="42.185795" lon="14.5960667"><ele>99.33333333333334</ele><time>2026-04-10T07:54:16.861Z</time></trkpt><trkpt lat="42.18587" lon="14.596045"><ele>98.66666666666667</ele><time>2026-04-10T07:54:18.862Z</time></trkpt><trkpt lat="42.1859383" lon="14.5960183"><ele>98.0</ele><time>2026-04-10T07:54:20.862Z</time></trkpt><trkpt lat="42.1860117" lon="14.5960033"><ele>97.33333333333334</ele><time>2026-04-10T07:54:22.862Z</time></trkpt><trkpt lat="42.18609" lon="14.59599"><ele>96.66666666666667</ele><time>2026-04-10T07:54:24.862Z</time></trkpt><trkpt lat="42.1861667" lon="14.5959733"><ele>96.0</ele><time>2026-04-10T07:54:26.861Z</time></trkpt><trkpt lat="42.1862483" lon="14.595935"><ele>96.0</ele><time>2026-04-10T07:54:28.862Z</time></trkpt><trkpt lat="42.1863283" lon="14.5958983"><ele>96.0</ele><time>2026-04-10T07:54:30.861Z</time></trkpt><trkpt lat="42.186405" lon="14.5958433"><ele>96.0</ele><time>2026-04-10T07:54:32.862Z</time></trkpt><trkpt lat="42.18648" lon="14.5958"><ele>96.0</ele><time>2026-04-10T07:54:34.862Z</time></trkpt><trkpt lat="42.18655" lon="14.5957567"><ele>96.0</ele><time>2026-04-10T07:54:36.862Z</time></trkpt><trkpt lat="42.1866133" lon="14.595715"><ele>96.0</ele><time>2026-04-10T07:54:38.861Z</time></trkpt><trkpt lat="42.1866767" lon="14.5956717"><ele>95.99999999999999</ele><time>2026-04-10T07:54:40.862Z</time></trkpt><trkpt lat="42.1867417" lon="14.5956267"><ele>96.0</ele><time>2026-04-10T07:54:42.861Z</time></trkpt><trkpt lat="42.1868083" lon="14.59559"><ele>96.0</ele><time>2026-04-10T07:54:44.862Z</time></trkpt><trkpt lat="42.186885" lon="14.5955683"><ele>96.0</ele><time>2026-04-10T07:54:46.861Z</time></trkpt><trkpt lat="42.1869583" lon="14.5955433"><ele>96.0</ele><time>2026-04-10T07:54:48.862Z</time></trkpt><trkpt lat="42.1870283" lon="14.59551"><ele>95.99999999999999</ele><time>2026-04-10T07:54:50.861Z</time></trkpt><trkpt lat="42.1870933" lon="14.5954817"><ele>96.0</ele><time>2026-04-10T07:54:52.861Z</time></trkpt><trkpt lat="42.18716" lon="14.595455"><ele>95.99999999999999</ele><time>2026-04-10T07:54:54.862Z</time></trkpt><trkpt lat="42.1872267" lon="14.5954333"><ele>96.0</ele><time>2026-04-10T07:54:56.862Z</time></trkpt><trkpt lat="42.187295" lon="14.5954133"><ele>96.0</ele><time>2026-04-10T07:54:58.862Z</time></trkpt><trkpt lat="42.1873767" lon="14.5954"><ele>96.0</ele><time>2026-04-10T07:55:01.862Z</time></trkpt><trkpt lat="42.1874483" lon="14.5953833"><ele>96.0</ele><time>2026-04-10T07:55:04.862Z</time></trkpt><trkpt lat="42.187515" lon="14.5953267"><ele>95.99999999999999</ele><time>2026-04-10T07:55:07.862Z</time></trkpt><trkpt lat="42.18756" lon="14.5952617"><ele>96.0</ele><time>2026-04-10T07:55:10.862Z</time></trkpt><trkpt lat="42.187585" lon="14.59518"><ele>95.28571428571428</ele><time>2026-04-10T07:55:14.862Z</time></trkpt><trkpt lat="42.18762" lon="14.5951033"><ele>94.57142857142857</ele><time>2026-04-10T07:55:18.862Z</time></trkpt><trkpt lat="42.187645" lon="14.5950167"><ele>93.85714285714286</ele><time>2026-04-10T07:55:22.862Z</time></trkpt><trkpt lat="42.187695" lon="14.5949467"><ele>93.14285714285714</ele><time>2026-04-10T07:55:26.862Z</time></trkpt><trkpt lat="42.1877467" lon="14.59488"><ele>92.42857142857143</ele><time>2026-04-10T07:55:30.861Z</time></trkpt><trkpt lat="42.187805" lon="14.59481"><ele>91.71428571428571</ele><time>2026-04-10T07:55:34.862Z</time></trkpt><trkpt lat="42.1878633" lon="14.59474"><ele>91.0</ele><time>2026-04-10T07:55:37.862Z</time></trkpt><trkpt lat="42.1879167" lon="14.594665"><ele>91.0</ele><time>2026-04-10T07:55:40.862Z</time></trkpt><trkpt lat="42.1879617" lon="14.594595"><ele>91.0</ele><time>2026-04-10T07:55:43.862Z</time></trkpt><trkpt lat="42.188005" lon="14.5945317"><ele>91.0</ele><time>2026-04-10T07:55:46.862Z</time></trkpt><trkpt lat="42.1880583" lon="14.5944683"><ele>91.0</ele><time>2026-04-10T07:55:50.862Z</time></trkpt><trkpt lat="42.188115" lon="14.594415"><ele>91.0</ele><time>2026-04-10T07:55:53.862Z</time></trkpt><trkpt lat="42.18817" lon="14.59436"><ele>91.0</ele><time>2026-04-10T07:55:55.862Z</time></trkpt><trkpt lat="42.1882283" lon="14.5942933"><ele>91.0</ele><time>2026-04-10T07:55:57.862Z</time></trkpt><trkpt lat="42.1882817" lon="14.5942383"><ele>89.57142857142857</ele><time>2026-04-10T07:55:59.862Z</time></trkpt><trkpt lat="42.1883333" lon="14.594175"><ele>88.14285714285714</ele><time>2026-04-10T07:56:02.861Z</time></trkpt><trkpt lat="42.1883817" lon="14.5941067"><ele>86.71428571428572</ele><time>2026-04-10T07:56:05.862Z</time></trkpt><trkpt lat="42.1884283" lon="14.59404"><ele>85.28571428571428</ele><time>2026-04-10T07:56:12.862Z</time></trkpt><trkpt lat="42.188495" lon="14.59398"><ele>83.85714285714286</ele><time>2026-04-10T07:56:19.862Z</time></trkpt><trkpt lat="42.1885567" lon="14.59396"><ele>82.42857142857143</ele><time>2026-04-10T07:56:21.862Z</time></trkpt><trkpt lat="42.18864" lon="14.5939533"><ele>81.0</ele><time>2026-04-10T07:56:23.862Z</time></trkpt><trkpt lat="42.1887267" lon="14.5939633"><ele>81.0</ele><time>2026-04-10T07:56:25.862Z</time></trkpt><trkpt lat="42.1888167" lon="14.5939567"><ele>81.0</ele><time>2026-04-10T07:56:27.862Z</time></trkpt><trkpt lat="42.18893" lon="14.5939283"><ele>81.0</ele><time>2026-04-10T07:56:29.861Z</time></trkpt><trkpt lat="42.189025" lon="14.5939317"><ele>81.0</ele><time>2026-04-10T07:56:31.861Z</time></trkpt><trkpt lat="42.1891217" lon="14.5939433"><ele>81.0</ele><time>2026-04-10T07:56:33.862Z</time></trkpt><trkpt lat="42.1892017" lon="14.59398"><ele>80.2</ele><time>2026-04-10T07:56:35.862Z</time></trkpt><trkpt lat="42.1893033" lon="14.5940817"><ele>79.39999999999999</ele><time>2026-04-10T07:56:37.862Z</time></trkpt><trkpt lat="42.189395" lon="14.59414"><ele>78.6</ele><time>2026-04-10T07:56:39.862Z</time></trkpt><trkpt lat="42.18947" lon="14.5941767"><ele>77.8</ele><time>2026-04-10T07:56:41.862Z</time></trkpt><trkpt lat="42.18955" lon="14.5941983"><ele>77.0</ele><time>2026-04-10T07:56:44.862Z</time></trkpt><trkpt lat="42.1896183" lon="14.59421"><ele>77.0</ele><time>2026-04-10T07:56:47.862Z</time></trkpt><trkpt lat="42.1896817" lon="14.594225"><ele>77.0</ele><time>2026-04-10T07:56:50.862Z</time></trkpt><trkpt lat="42.1897617" lon="14.5942683"><ele>77.0</ele><time>2026-04-10T07:56:53.861Z</time></trkpt><trkpt lat="42.1898167" lon="14.59432"><ele>77.0</ele><time>2026-04-10T07:56:55.861Z</time></trkpt><trkpt lat="42.1898733" lon="14.594385"><ele>77.0</ele><time>2026-04-10T07:56:59.861Z</time></trkpt><trkpt lat="42.1899283" lon="14.5944467"><ele>77.0</ele><time>2026-04-10T07:57:02.862Z</time></trkpt><trkpt lat="42.190055" lon="14.5945467"><ele>75.85714285714286</ele><time>2026-04-10T07:57:47.861Z</time></trkpt><trkpt lat="42.1900967" lon="14.5946133"><ele>74.71428571428572</ele><time>2026-04-10T07:57:52.861Z</time></trkpt><trkpt lat="42.19015" lon="14.594675"><ele>73.57142857142857</ele><time>2026-04-10T07:57:57.862Z</time></trkpt><trkpt lat="42.190185" lon="14.5947717"><ele>72.42857142857143</ele><time>2026-04-10T07:58:00.862Z</time></trkpt><trkpt lat="42.1902167" lon="14.5948783"><ele>71.28571428571429</ele><time>2026-04-10T07:58:03.862Z</time></trkpt><trkpt lat="42.1902333" lon="14.5949633"><ele>70.14285714285714</ele><time>2026-04-10T07:58:06.861Z</time></trkpt><trkpt lat="42.1902367" lon="14.5950567"><ele>69.0</ele><time>2026-04-10T07:58:09.862Z</time></trkpt><trkpt lat="42.1902283" lon="14.595175"><ele>69.0</ele><time>2026-04-10T07:58:12.862Z</time></trkpt><trkpt lat="42.1902217" lon="14.5952733"><ele>69.0</ele><time>2026-04-10T07:58:17.862Z</time></trkpt><trkpt lat="42.1902233" lon="14.5953717"><ele>69.0</ele><time>2026-04-10T07:58:20.861Z</time></trkpt><trkpt lat="42.1902217" lon="14.59548"><ele>69.0</ele><time>2026-04-10T07:58:23.862Z</time></trkpt><trkpt lat="42.1902167" lon="14.595585"><ele>69.0</ele><time>2026-04-10T07:58:27.861Z</time></trkpt><trkpt lat="42.1902283" lon="14.5957"><ele>69.0</ele><time>2026-04-10T07:58:32.861Z</time></trkpt><trkpt lat="42.1902267" lon="14.5957933"><ele>69.57142857142857</ele><time>2026-04-10T07:58:36.862Z</time></trkpt><trkpt lat="42.190215" lon="14.5958783"><ele>70.14285714285715</ele><time>2026-04-10T07:58:39.862Z</time></trkpt><trkpt lat="42.1901917" lon="14.595975"><ele>70.71428571428572</ele><time>2026-04-10T07:58:43.861Z</time></trkpt><trkpt lat="42.1901733" lon="14.5960667"><ele>71.28571428571429</ele><time>2026-04-10T07:58:48.861Z</time></trkpt><trkpt lat="42.1901717" lon="14.5961717"><ele>71.85714285714286</ele><time>2026-04-10T07:58:54.861Z</time></trkpt><trkpt lat="42.190175" lon="14.5962617"><ele>72.42857142857143</ele><time>2026-04-10T07:58:58.862Z</time></trkpt><trkpt lat="42.19015" lon="14.5963517"><ele>73.0</ele><time>2026-04-10T07:59:01.861Z</time></trkpt><trkpt lat="42.190155" lon="14.5964467"><ele>73.5</ele><time>2026-04-10T07:59:04.862Z</time></trkpt><trkpt lat="42.1901467" lon="14.5965383"><ele>74.0</ele><time>2026-04-10T07:59:08.862Z</time></trkpt><trkpt lat="42.1901617" lon="14.596635"><ele>74.5</ele><time>2026-04-10T07:59:13.862Z</time></trkpt><trkpt lat="42.1901983" lon="14.5967233"><ele>75.0</ele><time>2026-04-10T07:59:17.861Z</time></trkpt><trkpt lat="42.19022" lon="14.5968167"><ele>75.5</ele><time>2026-04-10T07:59:21.861Z</time></trkpt><trkpt lat="42.1902267" lon="14.596955"><ele>76.0</ele><time>2026-04-10T07:59:24.861Z</time></trkpt><trkpt lat="42.19026" lon="14.5970483"><ele>76.42857142857143</ele><time>2026-04-10T07:59:27.862Z</time></trkpt><trkpt lat="42.1903" lon="14.597145"><ele>76.85714285714286</ele><time>2026-04-10T07:59:30.862Z</time></trkpt><trkpt lat="42.1903217" lon="14.5972267"><ele>77.28571428571429</ele><time>2026-04-10T07:59:32.862Z</time></trkpt><trkpt lat="42.1903417" lon="14.5973117"><ele>77.71428571428572</ele><time>2026-04-10T07:59:34.861Z</time></trkpt><trkpt lat="42.1903567" lon="14.5974017"><ele>78.14285714285714</ele><time>2026-04-10T07:59:36.862Z</time></trkpt><trkpt lat="42.1903767" lon="14.5974933"><ele>78.57142857142858</ele><time>2026-04-10T07:59:39.861Z</time></trkpt><trkpt lat="42.190375" lon="14.597585"><ele>79.0</ele><time>2026-04-10T07:59:43.862Z</time></trkpt><trkpt lat="42.1903867" lon="14.59772"><ele>79.00000000000001</ele><time>2026-04-10T07:59:52.862Z</time></trkpt><trkpt lat="42.190385" lon="14.5978183"><ele>79.0</ele><time>2026-04-10T07:59:54.861Z</time></trkpt><trkpt lat="42.19039" lon="14.5979217"><ele>79.0</ele><time>2026-04-10T07:59:57.861Z</time></trkpt><trkpt lat="42.1903733" lon="14.5980167"><ele>79.0</ele><time>2026-04-10T08:00:01.861Z</time></trkpt><trkpt lat="42.1903867" lon="14.59811"><ele>79.0</ele><time>2026-04-10T08:00:04.861Z</time></trkpt><trkpt lat="42.1903833" lon="14.5981983"><ele>79.00000000000001</ele><time>2026-04-10T08:00:07.861Z</time></trkpt><trkpt lat="42.1903967" lon="14.5983167"><ele>79.0</ele><time>2026-04-10T08:00:10.861Z</time></trkpt><trkpt lat="42.19041" lon="14.5984333"><ele>79.16666666666666</ele><time>2026-04-10T08:00:13.862Z</time></trkpt><trkpt lat="42.1904033" lon="14.598545"><ele>79.33333333333333</ele><time>2026-04-10T08:00:15.862Z</time></trkpt><trkpt lat="42.190385" lon="14.59864"><ele>79.5</ele><time>2026-04-10T08:00:17.861Z</time></trkpt><trkpt lat="42.1903633" lon="14.5987333"><ele>79.66666666666667</ele><time>2026-04-10T08:00:19.862Z</time></trkpt><trkpt lat="42.1903467" lon="14.598855"><ele>79.83333333333334</ele><time>2026-04-10T08:00:21.862Z</time></trkpt><trkpt lat="42.1903217" lon="14.5989633"><ele>80.0</ele><time>2026-04-10T08:00:23.861Z</time></trkpt><trkpt lat="42.1903017" lon="14.5991083"><ele>78.33333333333334</ele><time>2026-04-10T08:00:25.861Z</time></trkpt><trkpt lat="42.1902633" lon="14.5992267"><ele>76.66666666666667</ele><time>2026-04-10T08:00:27.862Z</time></trkpt><trkpt lat="42.19024" lon="14.5993433"><ele>75.0</ele><time>2026-04-10T08:00:29.862Z</time></trkpt><trkpt lat="42.1902" lon="14.5994283"><ele>73.33333333333333</ele><time>2026-04-10T08:00:31.861Z</time></trkpt><trkpt lat="42.1901783" lon="14.5995317"><ele>71.66666666666666</ele><time>2026-04-10T08:00:36.862Z</time></trkpt><trkpt lat="42.19015" lon="14.5996133"><ele>70.0</ele><time>2026-04-10T08:00:39.861Z</time></trkpt><trkpt lat="42.1900917" lon="14.5997"><ele>68.5</ele><time>2026-04-10T08:00:43.862Z</time></trkpt><trkpt lat="42.190035" lon="14.5997467"><ele>67.0</ele><time>2026-04-10T08:00:46.862Z</time></trkpt><trkpt lat="42.1899917" lon="14.5998417"><ele>65.5</ele><time>2026-04-10T08:00:50.861Z</time></trkpt><trkpt lat="42.1899933" lon="14.5999283"><ele>64.0</ele><time>2026-04-10T08:00:53.862Z</time></trkpt><trkpt lat="42.1900567" lon="14.6000067"><ele>62.49999999999999</ele><time>2026-04-10T08:00:56.861Z</time></trkpt><trkpt lat="42.19012" lon="14.60008"><ele>61.0</ele><time>2026-04-10T08:00:58.862Z</time></trkpt><trkpt lat="42.190185" lon="14.6001333"><ele>60.99999999999999</ele><time>2026-04-10T08:01:00.861Z</time></trkpt><trkpt lat="42.1902517" lon="14.600185"><ele>61.0</ele><time>2026-04-10T08:01:02.861Z</time></trkpt><trkpt lat="42.190325" lon="14.60024"><ele>61.0</ele><time>2026-04-10T08:01:05.861Z</time></trkpt><trkpt lat="42.1903467" lon="14.6003433"><ele>61.0</ele><time>2026-04-10T08:01:08.862Z</time></trkpt><trkpt lat="42.1903283" lon="14.600435"><ele>60.99999999999999</ele><time>2026-04-10T08:01:11.862Z</time></trkpt><trkpt lat="42.1903433" lon="14.6005533"><ele>61.0</ele><time>2026-04-10T08:01:14.861Z</time></trkpt><trkpt lat="42.19036" lon="14.60064"><ele>62.49999999999999</ele><time>2026-04-10T08:01:16.862Z</time></trkpt><trkpt lat="42.19037" lon="14.6007467"><ele>64.0</ele><time>2026-04-10T08:01:18.862Z</time></trkpt><trkpt lat="42.190385" lon="14.6008583"><ele>65.5</ele><time>2026-04-10T08:01:20.861Z</time></trkpt><trkpt lat="42.190395" lon="14.60096"><ele>67.0</ele><time>2026-04-10T08:01:22.862Z</time></trkpt><trkpt lat="42.1903883" lon="14.601065"><ele>68.5</ele><time>2026-04-10T08:01:24.861Z</time></trkpt><trkpt lat="42.1903733" lon="14.60118"><ele>70.0</ele><time>2026-04-10T08:01:26.862Z</time></trkpt><trkpt lat="42.1903733" lon="14.6013033"><ele>70.5</ele><time>2026-04-10T08:01:28.862Z</time></trkpt><trkpt lat="42.1903667" lon="14.6014233"><ele>71.0</ele><time>2026-04-10T08:01:30.862Z</time></trkpt><trkpt lat="42.1903633" lon="14.6015367"><ele>71.5</ele><time>2026-04-10T08:01:32.862Z</time></trkpt><trkpt lat="42.19036" lon="14.6016233"><ele>72.0</ele><time>2026-04-10T08:01:34.861Z</time></trkpt><trkpt lat="42.1904033" lon="14.6017083"><ele>72.5</ele><time>2026-04-10T08:01:40.862Z</time></trkpt><trkpt lat="42.1904433" lon="14.601795"><ele>73.0</ele><time>2026-04-10T08:01:44.861Z</time></trkpt><trkpt lat="42.190465" lon="14.601875"><ele>73.0</ele><time>2026-04-10T08:01:47.861Z</time></trkpt><trkpt lat="42.190495" lon="14.6019733"><ele>73.0</ele><time>2026-04-10T08:01:50.861Z</time></trkpt><trkpt lat="42.1905117" lon="14.6020933"><ele>73.0</ele><time>2026-04-10T08:01:53.861Z</time></trkpt><trkpt lat="42.1905183" lon="14.602205"><ele>73.0</ele><time>2026-04-10T08:01:56.861Z</time></trkpt><trkpt lat="42.1905017" lon="14.6023067"><ele>73.0</ele><time>2026-04-10T08:01:59.862Z</time></trkpt><trkpt lat="42.1904667" lon="14.6024167"><ele>73.0</ele><time>2026-04-10T08:02:02.862Z</time></trkpt><trkpt lat="42.1904283" lon="14.6025033"><ele>72.5</ele><time>2026-04-10T08:02:05.862Z</time></trkpt><trkpt lat="42.1903817" lon="14.6026367"><ele>72.0</ele><time>2026-04-10T08:02:07.862Z</time></trkpt><trkpt lat="42.1903783" lon="14.6027283"><ele>71.5</ele><time>2026-04-10T08:02:09.862Z</time></trkpt><trkpt lat="42.1903933" lon="14.60282"><ele>71.0</ele><time>2026-04-10T08:02:11.861Z</time></trkpt><trkpt lat="42.190415" lon="14.6029117"><ele>70.5</ele><time>2026-04-10T08:02:13.862Z</time></trkpt><trkpt lat="42.1904217" lon="14.60302"><ele>70.0</ele><time>2026-04-10T08:02:16.862Z</time></trkpt><trkpt lat="42.1904117" lon="14.6031267"><ele>67.85714285714286</ele><time>2026-04-10T08:02:20.861Z</time></trkpt><trkpt lat="42.1903917" lon="14.6032317"><ele>65.71428571428571</ele><time>2026-04-10T08:02:24.862Z</time></trkpt><trkpt lat="42.19036" lon="14.6033267"><ele>63.57142857142857</ele><time>2026-04-10T08:02:27.862Z</time></trkpt><trkpt lat="42.1903317" lon="14.6034033"><ele>61.42857142857143</ele><time>2026-04-10T08:02:30.862Z</time></trkpt><trkpt lat="42.1902767" lon="14.603455"><ele>59.285714285714285</ele><time>2026-04-10T08:02:34.862Z</time></trkpt><trkpt lat="42.1902233" lon="14.6035067"><ele>57.14285714285714</ele><time>2026-04-10T08:02:42.861Z</time></trkpt><trkpt lat="42.1902733" lon="14.6035817"><ele>55.0</ele><time>2026-04-10T08:02:47.862Z</time></trkpt><trkpt lat="42.1903167" lon="14.6036467"><ele>54.71428571428571</ele><time>2026-04-10T08:02:49.861Z</time></trkpt><trkpt lat="42.190345" lon="14.60373"><ele>54.42857142857143</ele><time>2026-04-10T08:02:51.861Z</time></trkpt><trkpt lat="42.1903983" lon="14.603815"><ele>54.14285714285714</ele><time>2026-04-10T08:02:54.862Z</time></trkpt><trkpt lat="42.19045" lon="14.6039083"><ele>53.857142857142854</ele><time>2026-04-10T08:02:57.861Z</time></trkpt><trkpt lat="42.1904733" lon="14.6039967"><ele>53.57142857142857</ele><time>2026-04-10T08:03:00.862Z</time></trkpt><trkpt lat="42.1904667" lon="14.6040817"><ele>53.285714285714285</ele><time>2026-04-10T08:03:03.862Z</time></trkpt><trkpt lat="42.190405" lon="14.6041"><ele>53.0</ele><time>2026-04-10T08:03:08.862Z</time></trkpt><trkpt lat="42.1903233" lon="14.6040867"><ele>53.00000000000001</ele><time>2026-04-10T08:03:12.861Z</time></trkpt><trkpt lat="42.19024" lon="14.6040817"><ele>53.0</ele><time>2026-04-10T08:03:16.862Z</time></trkpt><trkpt lat="42.1901683" lon="14.6041017"><ele>53.0</ele><time>2026-04-10T08:03:21.861Z</time></trkpt><trkpt lat="42.1901083" lon="14.6041633"><ele>53.0</ele><time>2026-04-10T08:03:26.861Z</time></trkpt><trkpt lat="42.1900517" lon="14.6042017"><ele>53.00000000000001</ele><time>2026-04-10T08:03:30.862Z</time></trkpt><trkpt lat="42.18998" lon="14.604255"><ele>53.0</ele><time>2026-04-10T08:03:34.862Z</time></trkpt><trkpt lat="42.1899417" lon="14.6043417"><ele>53.0</ele><time>2026-04-10T08:03:39.862Z</time></trkpt><trkpt lat="42.1898917" lon="14.6044"><ele>53.0</ele><time>2026-04-10T08:03:43.862Z</time></trkpt><trkpt lat="42.189815" lon="14.6044317"><ele>53.0</ele><time>2026-04-10T08:03:47.862Z</time></trkpt><trkpt lat="42.1897417" lon="14.6044783"><ele>53.0</ele><time>2026-04-10T08:03:51.862Z</time></trkpt><trkpt lat="42.1896767" lon="14.6045133"><ele>53.0</ele><time>2026-04-10T08:03:54.862Z</time></trkpt><trkpt lat="42.18962" lon="14.604565"><ele>53.0</ele><time>2026-04-10T08:03:57.861Z</time></trkpt><trkpt lat="42.1895467" lon="14.6045883"><ele>53.0</ele><time>2026-04-10T08:04:01.862Z</time></trkpt><trkpt lat="42.189485" lon="14.604635"><ele>55.714285714285715</ele><time>2026-04-10T08:04:05.861Z</time></trkpt><trkpt lat="42.18943" lon="14.6046917"><ele>58.42857142857143</ele><time>2026-04-10T08:04:09.862Z</time></trkpt><trkpt lat="42.1893733" lon="14.6047533"><ele>61.142857142857146</ele><time>2026-04-10T08:04:14.862Z</time></trkpt><trkpt lat="42.18934" lon="14.6048367"><ele>63.85714285714286</ele><time>2026-04-10T08:04:19.862Z</time></trkpt><trkpt lat="42.1892717" lon="14.60485"><ele>66.57142857142857</ele><time>2026-04-10T08:04:24.862Z</time></trkpt><trkpt lat="42.1892317" lon="14.60494"><ele>69.28571428571429</ele><time>2026-04-10T08:04:29.862Z</time></trkpt><trkpt lat="42.189175" lon="14.605005"><ele>72.0</ele><time>2026-04-10T08:04:34.862Z</time></trkpt><trkpt lat="42.1891133" lon="14.605035"><ele>72.0</ele><time>2026-04-10T08:04:38.862Z</time></trkpt><trkpt lat="42.18904" lon="14.605065"><ele>72.0</ele><time>2026-04-10T08:04:42.862Z</time></trkpt><trkpt lat="42.1889533" lon="14.6050583"><ele>72.0</ele><time>2026-04-10T08:04:45.862Z</time></trkpt><trkpt lat="42.1888817" lon="14.6050633"><ele>72.0</ele><time>2026-04-10T08:04:48.862Z</time></trkpt><trkpt lat="42.188805" lon="14.6050817"><ele>72.0</ele><time>2026-04-10T08:04:52.861Z</time></trkpt><trkpt lat="42.18872" lon="14.605075"><ele>72.0</ele><time>2026-04-10T08:04:55.862Z</time></trkpt><trkpt lat="42.1886483" lon="14.6050767"><ele>72.28571428571429</ele><time>2026-04-10T08:04:56.862Z</time></trkpt><trkpt lat="42.1885817" lon="14.6050983"><ele>72.57142857142857</ele><time>2026-04-10T08:04:58.862Z</time></trkpt><trkpt lat="42.1884983" lon="14.60513"><ele>72.85714285714286</ele><time>2026-04-10T08:05:01.862Z</time></trkpt><trkpt lat="42.1884867" lon="14.6052433"><ele>73.14285714285714</ele><time>2026-04-10T08:05:05.862Z</time></trkpt><trkpt lat="42.18854" lon="14.6052983"><ele>73.42857142857143</ele><time>2026-04-10T08:05:08.862Z</time></trkpt><trkpt lat="42.1886" lon="14.6053383"><ele>73.71428571428572</ele><time>2026-04-10T08:05:12.862Z</time></trkpt><trkpt lat="42.1886633" lon="14.6053883"><ele>74.0</ele><time>2026-04-10T08:05:16.862Z</time></trkpt><trkpt lat="42.1887483" lon="14.6053883"><ele>74.0</ele><time>2026-04-10T08:05:20.861Z</time></trkpt><trkpt lat="42.1888017" lon="14.60534"><ele>74.0</ele><time>2026-04-10T08:05:22.862Z</time></trkpt><trkpt lat="42.1888633" lon="14.6052983"><ele>74.0</ele><time>2026-04-10T08:05:24.861Z</time></trkpt><trkpt lat="42.1889333" lon="14.6052683"><ele>74.0</ele><time>2026-04-10T08:05:26.862Z</time></trkpt><trkpt lat="42.1890017" lon="14.6052383"><ele>74.0</ele><time>2026-04-10T08:05:28.861Z</time></trkpt><trkpt lat="42.18907" lon="14.6052217"><ele>74.0</ele><time>2026-04-10T08:05:30.862Z</time></trkpt><trkpt lat="42.1891383" lon="14.6052067"><ele>74.0</ele><time>2026-04-10T08:05:32.862Z</time></trkpt><trkpt lat="42.1892033" lon="14.60518"><ele>73.71428571428572</ele><time>2026-04-10T08:05:34.862Z</time></trkpt><trkpt lat="42.189285" lon="14.6051567"><ele>73.42857142857143</ele><time>2026-04-10T08:05:37.862Z</time></trkpt><trkpt lat="42.1893483" lon="14.6051383"><ele>73.14285714285714</ele><time>2026-04-10T08:05:40.862Z</time></trkpt><trkpt lat="42.1894083" lon="14.6051067"><ele>72.85714285714286</ele><time>2026-04-10T08:05:43.861Z</time></trkpt><trkpt lat="42.189475" lon="14.6050667"><ele>72.57142857142857</ele><time>2026-04-10T08:05:46.862Z</time></trkpt><trkpt lat="42.18954" lon="14.6050317"><ele>72.28571428571429</ele><time>2026-04-10T08:05:49.862Z</time></trkpt><trkpt lat="42.1896033" lon="14.6049833"><ele>72.0</ele><time>2026-04-10T08:05:52.862Z</time></trkpt><trkpt lat="42.189665" lon="14.6049533"><ele>72.00000000000001</ele><time>2026-04-10T08:05:55.862Z</time></trkpt><trkpt lat="42.1897433" lon="14.60491"><ele>72.0</ele><time>2026-04-10T08:05:59.861Z</time></trkpt><trkpt lat="42.189805" lon="14.604875"><ele>72.0</ele><time>2026-04-10T08:06:02.862Z</time></trkpt><trkpt lat="42.1898683" lon="14.6048317"><ele>72.0</ele><time>2026-04-10T08:06:05.862Z</time></trkpt><trkpt lat="42.1899367" lon="14.6048717"><ele>72.0</ele><time>2026-04-10T08:06:09.861Z</time></trkpt><trkpt lat="42.189995" lon="14.6049367"><ele>72.00000000000001</ele><time>2026-04-10T08:06:13.861Z</time></trkpt><trkpt lat="42.1900283" lon="14.6050283"><ele>72.0</ele><time>2026-04-10T08:06:17.861Z</time></trkpt><trkpt lat="42.1900483" lon="14.6051133"><ele>72.16666666666667</ele><time>2026-04-10T08:06:20.862Z</time></trkpt><trkpt lat="42.190075" lon="14.6052033"><ele>72.33333333333333</ele><time>2026-04-10T08:06:23.861Z</time></trkpt><trkpt lat="42.1901017" lon="14.6052983"><ele>72.5</ele><time>2026-04-10T08:06:26.862Z</time></trkpt><trkpt lat="42.1901133" lon="14.60542"><ele>72.66666666666666</ele><time>2026-04-10T08:06:29.862Z</time></trkpt><trkpt lat="42.1901083" lon="14.6055117"><ele>72.83333333333333</ele><time>2026-04-10T08:06:31.862Z</time></trkpt><trkpt lat="42.1900783" lon="14.6056183"><ele>73.0</ele><time>2026-04-10T08:06:34.862Z</time></trkpt><trkpt lat="42.1900433" lon="14.6057183"><ele>73.0</ele><time>2026-04-10T08:06:38.861Z</time></trkpt><trkpt lat="42.1900167" lon="14.605815"><ele>73.0</ele><time>2026-04-10T08:06:42.861Z</time></trkpt><trkpt lat="42.1899867" lon="14.6059017"><ele>73.0</ele><time>2026-04-10T08:06:45.861Z</time></trkpt><trkpt lat="42.1899633" lon="14.60601"><ele>73.0</ele><time>2026-04-10T08:06:49.862Z</time></trkpt><trkpt lat="42.189945" lon="14.6061067"><ele>73.0</ele><time>2026-04-10T08:06:52.862Z</time></trkpt><trkpt lat="42.189925" lon="14.6062133"><ele>73.0</ele><time>2026-04-10T08:06:55.861Z</time></trkpt><trkpt lat="42.18989" lon="14.606325"><ele>72.0</ele><time>2026-04-10T08:06:58.862Z</time></trkpt><trkpt lat="42.1898517" lon="14.60642"><ele>71.0</ele><time>2026-04-10T08:07:01.862Z</time></trkpt><trkpt lat="42.18977" lon="14.6064533"><ele>70.0</ele><time>2026-04-10T08:07:07.862Z</time></trkpt><trkpt lat="42.189705" lon="14.6065183"><ele>69.0</ele><time>2026-04-10T08:07:11.862Z</time></trkpt><trkpt lat="42.1896533" lon="14.606585"><ele>68.0</ele><time>2026-04-10T08:07:14.862Z</time></trkpt><trkpt lat="42.1896033" lon="14.6066517"><ele>67.0</ele><time>2026-04-10T08:07:18.861Z</time></trkpt><trkpt lat="42.1895483" lon="14.60673"><ele>68.66666666666666</ele><time>2026-04-10T08:07:22.861Z</time></trkpt><trkpt lat="42.1895083" lon="14.6067967"><ele>70.33333333333333</ele><time>2026-04-10T08:07:25.862Z</time></trkpt><trkpt lat="42.18946" lon="14.60688"><ele>72.0</ele><time>2026-04-10T08:07:28.861Z</time></trkpt><trkpt lat="42.1894183" lon="14.6069617"><ele>73.66666666666667</ele><time>2026-04-10T08:07:31.862Z</time></trkpt><trkpt lat="42.189355" lon="14.6070367"><ele>75.33333333333334</ele><time>2026-04-10T08:07:34.862Z</time></trkpt><trkpt lat="42.1893017" lon="14.6071333"><ele>77.0</ele><time>2026-04-10T08:07:37.861Z</time></trkpt><trkpt lat="42.18927" lon="14.60721"><ele>77.0</ele><time>2026-04-10T08:07:39.862Z</time></trkpt><trkpt lat="42.189255" lon="14.6072967"><ele>77.0</ele><time>2026-04-10T08:07:41.862Z</time></trkpt><trkpt lat="42.189215" lon="14.607375"><ele>77.0</ele><time>2026-04-10T08:07:43.861Z</time></trkpt><trkpt lat="42.1891667" lon="14.6074417"><ele>77.0</ele><time>2026-04-10T08:07:45.862Z</time></trkpt><trkpt lat="42.1891183" lon="14.60751"><ele>77.0</ele><time>2026-04-10T08:07:47.861Z</time></trkpt><trkpt lat="42.1890617" lon="14.6075883"><ele>77.0</ele><time>2026-04-10T08:07:50.862Z</time></trkpt><trkpt lat="42.1890067" lon="14.6076633"><ele>77.0</ele><time>2026-04-10T08:07:53.862Z</time></trkpt><trkpt lat="42.188945" lon="14.607745"><ele>77.42857142857143</ele><time>2026-04-10T08:07:56.861Z</time></trkpt><trkpt lat="42.1888767" lon="14.60782"><ele>77.85714285714286</ele><time>2026-04-10T08:07:59.861Z</time></trkpt><trkpt lat="42.1888267" lon="14.6078717"><ele>78.28571428571428</ele><time>2026-04-10T08:08:01.862Z</time></trkpt><trkpt lat="42.1887733" lon="14.6079167"><ele>78.71428571428572</ele><time>2026-04-10T08:08:03.861Z</time></trkpt><trkpt lat="42.1887083" lon="14.607985"><ele>79.14285714285714</ele><time>2026-04-10T08:08:06.861Z</time></trkpt><trkpt lat="42.18865" lon="14.6080383"><ele>79.57142857142857</ele><time>2026-04-10T08:08:09.861Z</time></trkpt><trkpt lat="42.1885867" lon="14.6080917"><ele>80.0</ele><time>2026-04-10T08:08:12.862Z</time></trkpt><trkpt lat="42.188525" lon="14.6081683"><ele>80.0</ele><time>2026-04-10T08:08:15.862Z</time></trkpt><trkpt lat="42.1884717" lon="14.60825"><ele>80.0</ele><time>2026-04-10T08:08:18.861Z</time></trkpt><trkpt lat="42.1884233" lon="14.6083383"><ele>80.0</ele><time>2026-04-10T08:08:21.861Z</time></trkpt><trkpt lat="42.1884233" lon="14.6084333"><ele>80.0</ele><time>2026-04-10T08:08:25.861Z</time></trkpt><trkpt lat="42.1884867" lon="14.6084833"><ele>80.0</ele><time>2026-04-10T08:08:27.862Z</time></trkpt><trkpt lat="42.1885483" lon="14.60853"><ele>80.0</ele><time>2026-04-10T08:08:29.861Z</time></trkpt><trkpt lat="42.1886267" lon="14.6085683"><ele>80.0</ele><time>2026-04-10T08:08:32.862Z</time></trkpt><trkpt lat="42.18872" lon="14.6085817"><ele>80.0</ele><time>2026-04-10T08:08:35.861Z</time></trkpt><trkpt lat="42.18879" lon="14.6086167"><ele>80.0</ele><time>2026-04-10T08:08:37.862Z</time></trkpt><trkpt lat="42.1888567" lon="14.60865"><ele>80.0</ele><time>2026-04-10T08:08:39.862Z</time></trkpt><trkpt lat="42.1889267" lon="14.6086917"><ele>80.0</ele><time>2026-04-10T08:08:41.862Z</time></trkpt><trkpt lat="42.1889933" lon="14.6087367"><ele>80.0</ele><time>2026-04-10T08:08:43.861Z</time></trkpt><trkpt lat="42.18905" lon="14.6088017"><ele>79.83333333333334</ele><time>2026-04-10T08:08:45.862Z</time></trkpt><trkpt lat="42.1890817" lon="14.6088933"><ele>79.66666666666667</ele><time>2026-04-10T08:08:48.862Z</time></trkpt><trkpt lat="42.1890633" lon="14.608995"><ele>79.5</ele><time>2026-04-10T08:08:54.862Z</time></trkpt><trkpt lat="42.1890367" lon="14.6090733"><ele>79.33333333333333</ele><time>2026-04-10T08:08:57.861Z</time></trkpt><trkpt lat="42.1890067" lon="14.6091567"><ele>79.16666666666666</ele><time>2026-04-10T08:09:00.862Z</time></trkpt><trkpt lat="42.18898" lon="14.6092517"><ele>79.0</ele><time>2026-04-10T08:09:03.861Z</time></trkpt><trkpt lat="42.1889417" lon="14.6093617"><ele>79.00000000000001</ele><time>2026-04-10T08:09:06.861Z</time></trkpt><trkpt lat="42.1889117" lon="14.6094383"><ele>79.0</ele><time>2026-04-10T08:09:08.862Z</time></trkpt><trkpt lat="42.1888717" lon="14.60955"><ele>79.0</ele><time>2026-04-10T08:09:11.862Z</time></trkpt><trkpt lat="42.18883" lon="14.6096633"><ele>79.0</ele><time>2026-04-10T08:09:14.861Z</time></trkpt><trkpt lat="42.1888" lon="14.6097417"><ele>79.0</ele><time>2026-04-10T08:09:16.863Z</time></trkpt><trkpt lat="42.1887683" lon="14.60982"><ele>79.00000000000001</ele><time>2026-04-10T08:09:18.862Z</time></trkpt><trkpt lat="42.1887383" lon="14.6099017"><ele>79.0</ele><time>2026-04-10T08:09:20.862Z</time></trkpt><trkpt lat="42.1887067" lon="14.609985"><ele>78.85714285714286</ele><time>2026-04-10T08:09:22.862Z</time></trkpt><trkpt lat="42.1886783" lon="14.6100683"><ele>78.71428571428572</ele><time>2026-04-10T08:09:24.863Z</time></trkpt><trkpt lat="42.1886483" lon="14.6101483"><ele>78.57142857142858</ele><time>2026-04-10T08:09:26.863Z</time></trkpt><trkpt lat="42.188615" lon="14.61023"><ele>78.42857142857143</ele><time>2026-04-10T08:09:28.862Z</time></trkpt><trkpt lat="42.1885867" lon="14.6103117"><ele>78.28571428571428</ele><time>2026-04-10T08:09:30.862Z</time></trkpt><trkpt lat="42.18856" lon="14.610395"><ele>78.14285714285715</ele><time>2026-04-10T08:09:32.863Z</time></trkpt><trkpt lat="42.1885317" lon="14.6104817"><ele>78.0</ele><time>2026-04-10T08:09:34.862Z</time></trkpt><trkpt lat="42.1885017" lon="14.6105667"><ele>77.5</ele><time>2026-04-10T08:09:36.863Z</time></trkpt><trkpt lat="42.1884633" lon="14.6106533"><ele>77.0</ele><time>2026-04-10T08:09:38.863Z</time></trkpt><trkpt lat="42.188425" lon="14.61075"><ele>76.5</ele><time>2026-04-10T08:09:40.862Z</time></trkpt><trkpt lat="42.1883817" lon="14.6108567"><ele>76.0</ele><time>2026-04-10T08:09:42.863Z</time></trkpt><trkpt lat="42.1883367" lon="14.6109583"><ele>75.5</ele><time>2026-04-10T08:09:44.862Z</time></trkpt><trkpt lat="42.1882983" lon="14.6110467"><ele>75.0</ele><time>2026-04-10T08:09:46.862Z</time></trkpt><trkpt lat="42.188255" lon="14.61114"><ele>74.28571428571428</ele><time>2026-04-10T08:09:49.863Z</time></trkpt><trkpt lat="42.1882917" lon="14.6112383"><ele>73.57142857142857</ele><time>2026-04-10T08:09:52.862Z</time></trkpt><trkpt lat="42.1883567" lon="14.6113183"><ele>72.85714285714286</ele><time>2026-04-10T08:09:55.863Z</time></trkpt><trkpt lat="42.1884083" lon="14.6113833"><ele>72.14285714285714</ele><time>2026-04-10T08:09:57.862Z</time></trkpt><trkpt lat="42.18846" lon="14.6114467"><ele>71.42857142857143</ele><time>2026-04-10T08:09:59.863Z</time></trkpt><trkpt lat="42.1885083" lon="14.6115067"><ele>70.71428571428571</ele><time>2026-04-10T08:10:01.863Z</time></trkpt><trkpt lat="42.1885617" lon="14.6115567"><ele>70.0</ele><time>2026-04-10T08:10:03.862Z</time></trkpt><trkpt lat="42.1886183" lon="14.6116133"><ele>70.0</ele><time>2026-04-10T08:10:05.862Z</time></trkpt><trkpt lat="42.188685" lon="14.6116967"><ele>70.0</ele><time>2026-04-10T08:10:08.862Z</time></trkpt><trkpt lat="42.1887517" lon="14.611775"><ele>70.0</ele><time>2026-04-10T08:10:11.862Z</time></trkpt><trkpt lat="42.188815" lon="14.611855"><ele>70.0</ele><time>2026-04-10T08:10:14.862Z</time></trkpt><trkpt lat="42.188855" lon="14.611925"><ele>70.0</ele><time>2026-04-10T08:10:16.863Z</time></trkpt><trkpt lat="42.1888967" lon="14.611995"><ele>70.0</ele><time>2026-04-10T08:10:18.863Z</time></trkpt><trkpt lat="42.1889383" lon="14.6120783"><ele>70.0</ele><time>2026-04-10T08:10:21.863Z</time></trkpt><trkpt lat="42.188975" lon="14.6121633"><ele>70.0</ele><time>2026-04-10T08:10:24.863Z</time></trkpt><trkpt lat="42.1890233" lon="14.6122633"><ele>70.0</ele><time>2026-04-10T08:10:27.862Z</time></trkpt><trkpt lat="42.1890717" lon="14.6123667"><ele>70.0</ele><time>2026-04-10T08:10:30.863Z</time></trkpt><trkpt lat="42.1891267" lon="14.6124667"><ele>70.0</ele><time>2026-04-10T08:10:33.863Z</time></trkpt><trkpt lat="42.1891717" lon="14.6125533"><ele>70.0</ele><time>2026-04-10T08:10:36.863Z</time></trkpt><trkpt lat="42.1892133" lon="14.6126417"><ele>70.0</ele><time>2026-04-10T08:10:39.862Z</time></trkpt><trkpt lat="42.1892517" lon="14.612735"><ele>70.0</ele><time>2026-04-10T08:10:42.862Z</time></trkpt><trkpt lat="42.1892833" lon="14.6128267"><ele>70.0</ele><time>2026-04-10T08:10:45.862Z</time></trkpt><trkpt lat="42.18932" lon="14.6129283"><ele>70.0</ele><time>2026-04-10T08:10:48.862Z</time></trkpt><trkpt lat="42.1893683" lon="14.6130383"><ele>70.0</ele><time>2026-04-10T08:10:51.862Z</time></trkpt><trkpt lat="42.18941" lon="14.613155"><ele>70.0</ele><time>2026-04-10T08:10:54.863Z</time></trkpt><trkpt lat="42.1894333" lon="14.61324"><ele>68.0</ele><time>2026-04-10T08:10:56.863Z</time></trkpt><trkpt lat="42.189465" lon="14.61333"><ele>66.0</ele><time>2026-04-10T08:10:58.863Z</time></trkpt><trkpt lat="42.1894983" lon="14.613405"><ele>64.0</ele><time>2026-04-10T08:11:00.863Z</time></trkpt><trkpt lat="42.1895367" lon="14.613515"><ele>62.0</ele><time>2026-04-10T08:11:03.862Z</time></trkpt><trkpt lat="42.1895733" lon="14.6135883"><ele>60.0</ele><time>2026-04-10T08:11:06.863Z</time></trkpt><trkpt lat="42.18963" lon="14.613655"><ele>58.0</ele><time>2026-04-10T08:11:10.862Z</time></trkpt><trkpt lat="42.1896867" lon="14.6137"><ele>56.0</ele><time>2026-04-10T08:11:14.863Z</time></trkpt><trkpt lat="42.1897533" lon="14.6137317"><ele>54.714285714285715</ele><time>2026-04-10T08:11:19.863Z</time></trkpt><trkpt lat="42.1898017" lon="14.6137883"><ele>53.42857142857143</ele><time>2026-04-10T08:11:22.863Z</time></trkpt><trkpt lat="42.18986" lon="14.6138333"><ele>52.14285714285714</ele><time>2026-04-10T08:11:25.863Z</time></trkpt><trkpt lat="42.189915" lon="14.61389"><ele>50.85714285714286</ele><time>2026-04-10T08:11:29.862Z</time></trkpt><trkpt lat="42.1899733" lon="14.6139683"><ele>49.57142857142857</ele><time>2026-04-10T08:11:33.863Z</time></trkpt><trkpt lat="42.1900167" lon="14.6140317"><ele>48.285714285714285</ele><time>2026-04-10T08:11:36.862Z</time></trkpt><trkpt lat="42.19006" lon="14.6140967"><ele>47.0</ele><time>2026-04-10T08:11:40.863Z</time></trkpt><trkpt lat="42.19012" lon="14.6141667"><ele>47.0</ele><time>2026-04-10T08:11:44.863Z</time></trkpt><trkpt lat="42.1901883" lon="14.614245"><ele>47.0</ele><time>2026-04-10T08:11:47.862Z</time></trkpt><trkpt lat="42.1902633" lon="14.6142917"><ele>47.0</ele><time>2026-04-10T08:11:50.863Z</time></trkpt><trkpt lat="42.190345" lon="14.6143233"><ele>47.0</ele><time>2026-04-10T08:11:53.863Z</time></trkpt><trkpt lat="42.19043" lon="14.6143517"><ele>47.0</ele><time>2026-04-10T08:11:56.862Z</time></trkpt><trkpt lat="42.1905017" lon="14.6143617"><ele>47.0</ele><time>2026-04-10T08:11:59.863Z</time></trkpt><trkpt lat="42.190565" lon="14.6144"><ele>47.0</ele><time>2026-04-10T08:12:02.863Z</time></trkpt><trkpt lat="42.190625" lon="14.6144567"><ele>47.0</ele><time>2026-04-10T08:12:06.863Z</time></trkpt><trkpt lat="42.1906533" lon="14.614545"><ele>47.0</ele><time>2026-04-10T08:12:10.862Z</time></trkpt><trkpt lat="42.1906817" lon="14.6146217"><ele>47.0</ele><time>2026-04-10T08:12:13.862Z</time></trkpt><trkpt lat="42.1907083" lon="14.614715"><ele>47.0</ele><time>2026-04-10T08:12:16.862Z</time></trkpt><trkpt lat="42.1907433" lon="14.6148167"><ele>47.0</ele><time>2026-04-10T08:12:19.862Z</time></trkpt><trkpt lat="42.1908033" lon="14.6149183"><ele>43.0</ele><time>2026-04-10T08:12:22.863Z</time></trkpt><trkpt lat="42.1908667" lon="14.61497"><ele>39.0</ele><time>2026-04-10T08:12:24.862Z</time></trkpt><trkpt lat="42.1909367" lon="14.6150117"><ele>35.0</ele><time>2026-04-10T08:12:26.863Z</time></trkpt><trkpt lat="42.19098" lon="14.61509"><ele>31.0</ele><time>2026-04-10T08:12:28.862Z</time></trkpt><trkpt lat="42.191005" lon="14.6151917"><ele>27.0</ele><time>2026-04-10T08:12:30.862Z</time></trkpt><trkpt lat="42.1910267" lon="14.615295"><ele>23.0</ele><time>2026-04-10T08:12:32.862Z</time></trkpt><trkpt lat="42.19105" lon="14.6153983"><ele>23.0</ele><time>2026-04-10T08:12:34.863Z</time></trkpt><trkpt lat="42.1910767" lon="14.6154983"><ele>23.0</ele><time>2026-04-10T08:12:36.863Z</time></trkpt><trkpt lat="42.19111" lon="14.61561"><ele>23.0</ele><time>2026-04-10T08:12:39.863Z</time></trkpt><trkpt lat="42.1911433" lon="14.6157167"><ele>23.0</ele><time>2026-04-10T08:12:42.862Z</time></trkpt><trkpt lat="42.1911567" lon="14.6158"><ele>23.0</ele><time>2026-04-10T08:12:45.862Z</time></trkpt><trkpt lat="42.1910967" lon="14.615835"><ele>23.0</ele><time>2026-04-10T08:12:52.863Z</time></trkpt><trkpt lat="42.1910267" lon="14.61584"><ele>23.0</ele><time>2026-04-10T08:12:57.863Z</time></trkpt><trkpt lat="42.1909533" lon="14.6158567"><ele>23.0</ele><time>2026-04-10T08:13:01.863Z</time></trkpt><trkpt lat="42.1908867" lon="14.6158517"><ele>23.0</ele><time>2026-04-10T08:13:04.862Z</time></trkpt><trkpt lat="42.1908" lon="14.6158367"><ele>23.0</ele><time>2026-04-10T08:13:08.862Z</time></trkpt><trkpt lat="42.1907283" lon="14.6158267"><ele>23.0</ele><time>2026-04-10T08:13:11.862Z</time></trkpt><trkpt lat="42.1906583" lon="14.6157967"><ele>23.0</ele><time>2026-04-10T08:13:14.862Z</time></trkpt><trkpt lat="42.1905783" lon="14.6157567"><ele>24.166666666666668</ele><time>2026-04-10T08:13:17.863Z</time></trkpt><trkpt lat="42.190515" lon="14.6157417"><ele>25.333333333333336</ele><time>2026-04-10T08:13:19.862Z</time></trkpt><trkpt lat="42.1904283" lon="14.6157183"><ele>26.5</ele><time>2026-04-10T08:13:22.863Z</time></trkpt><trkpt lat="42.19036" lon="14.6157083"><ele>27.666666666666668</ele><time>2026-04-10T08:13:25.862Z</time></trkpt><trkpt lat="42.1902833" lon="14.6157117"><ele>28.833333333333332</ele><time>2026-04-10T08:13:28.863Z</time></trkpt><trkpt lat="42.190205" lon="14.6157167"><ele>30.0</ele><time>2026-04-10T08:13:31.863Z</time></trkpt><trkpt lat="42.1901183" lon="14.6157433"><ele>30.0</ele><time>2026-04-10T08:13:34.863Z</time></trkpt><trkpt lat="42.1900417" lon="14.6157667"><ele>30.0</ele><time>2026-04-10T08:13:37.863Z</time></trkpt><trkpt lat="42.1899617" lon="14.615795"><ele>30.0</ele><time>2026-04-10T08:13:40.862Z</time></trkpt><trkpt lat="42.1898833" lon="14.6158117"><ele>30.0</ele><time>2026-04-10T08:13:43.863Z</time></trkpt><trkpt lat="42.1898117" lon="14.615825"><ele>30.0</ele><time>2026-04-10T08:13:46.862Z</time></trkpt><trkpt lat="42.1897467" lon="14.6158333"><ele>30.0</ele><time>2026-04-10T08:13:49.863Z</time></trkpt><trkpt lat="42.18967" lon="14.6158083"><ele>30.833333333333332</ele><time>2026-04-10T08:13:53.863Z</time></trkpt><trkpt lat="42.18959" lon="14.6157917"><ele>31.666666666666664</ele><time>2026-04-10T08:13:56.863Z</time></trkpt><trkpt lat="42.1895183" lon="14.61577"><ele>32.5</ele><time>2026-04-10T08:13:59.862Z</time></trkpt><trkpt lat="42.1894417" lon="14.61573"><ele>33.33333333333333</ele><time>2026-04-10T08:14:03.863Z</time></trkpt><trkpt lat="42.1893617" lon="14.6156917"><ele>34.166666666666664</ele><time>2026-04-10T08:14:07.862Z</time></trkpt><trkpt lat="42.1892817" lon="14.6156617"><ele>35.0</ele><time>2026-04-10T08:14:11.863Z</time></trkpt><trkpt lat="42.18921" lon="14.6156283"><ele>35.0</ele><time>2026-04-10T08:14:13.863Z</time></trkpt><trkpt lat="42.18912" lon="14.615585"><ele>35.0</ele><time>2026-04-10T08:14:15.862Z</time></trkpt><trkpt lat="42.1890183" lon="14.6155317"><ele>35.0</ele><time>2026-04-10T08:14:17.862Z</time></trkpt><trkpt lat="42.1889283" lon="14.615475"><ele>35.0</ele><time>2026-04-10T08:14:19.863Z</time></trkpt><trkpt lat="42.1888467" lon="14.6154317"><ele>35.0</ele><time>2026-04-10T08:14:21.863Z</time></trkpt><trkpt lat="42.188775" lon="14.615385"><ele>35.0</ele><time>2026-04-10T08:14:23.862Z</time></trkpt><trkpt lat="42.188715" lon="14.615345"><ele>35.0</ele><time>2026-04-10T08:14:25.862Z</time></trkpt><trkpt lat="42.188655" lon="14.61531"><ele>35.0</ele><time>2026-04-10T08:14:27.863Z</time></trkpt><trkpt lat="42.1885733" lon="14.6152383"><ele>35.0</ele><time>2026-04-10T08:14:30.863Z</time></trkpt><trkpt lat="42.1885" lon="14.6151633"><ele>35.0</ele><time>2026-04-10T08:14:33.862Z</time></trkpt><trkpt lat="42.188435" lon="14.6150917"><ele>35.0</ele><time>2026-04-10T08:14:36.863Z</time></trkpt><trkpt lat="42.1883683" lon="14.6150317"><ele>35.0</ele><time>2026-04-10T08:14:39.862Z</time></trkpt><trkpt lat="42.1882883" lon="14.6149583"><ele>35.0</ele><time>2026-04-10T08:14:42.863Z</time></trkpt><trkpt lat="42.1882267" lon="14.6149083"><ele>35.0</ele><time>2026-04-10T08:14:44.863Z</time></trkpt><trkpt lat="42.1881733" lon="14.6148617"><ele>35.0</ele><time>2026-04-10T08:14:46.863Z</time></trkpt><trkpt lat="42.1881183" lon="14.6148117"><ele>35.0</ele><time>2026-04-10T08:14:48.862Z</time></trkpt><trkpt lat="42.1880617" lon="14.6147517"><ele>35.0</ele><time>2026-04-10T08:14:50.862Z</time></trkpt><trkpt lat="42.187995" lon="14.6146717"><ele>35.166666666666664</ele><time>2026-04-10T08:14:53.863Z</time></trkpt><trkpt lat="42.1879283" lon="14.6145917"><ele>35.33333333333333</ele><time>2026-04-10T08:14:56.863Z</time></trkpt><trkpt lat="42.1878567" lon="14.61453"><ele>35.5</ele><time>2026-04-10T08:14:59.862Z</time></trkpt><trkpt lat="42.1877917" lon="14.6144817"><ele>35.666666666666664</ele><time>2026-04-10T08:15:02.863Z</time></trkpt><trkpt lat="42.18772" lon="14.6144433"><ele>35.833333333333336</ele><time>2026-04-10T08:15:05.863Z</time></trkpt><trkpt lat="42.18764" lon="14.6144067"><ele>36.0</ele><time>2026-04-10T08:15:08.863Z</time></trkpt><trkpt lat="42.187565" lon="14.6143533"><ele>36.0</ele><time>2026-04-10T08:15:11.862Z</time></trkpt><trkpt lat="42.1874817" lon="14.6143033"><ele>36.0</ele><time>2026-04-10T08:15:14.863Z</time></trkpt><trkpt lat="42.1874" lon="14.6142683"><ele>36.0</ele><time>2026-04-10T08:15:17.863Z</time></trkpt><trkpt lat="42.187315" lon="14.6142167"><ele>36.0</ele><time>2026-04-10T08:15:20.863Z</time></trkpt><trkpt lat="42.1872467" lon="14.6141617"><ele>36.0</ele><time>2026-04-10T08:15:23.862Z</time></trkpt><trkpt lat="42.187165" lon="14.6140983"><ele>36.0</ele><time>2026-04-10T08:15:26.862Z</time></trkpt><trkpt lat="42.18709" lon="14.6140333"><ele>36.57142857142858</ele><time>2026-04-10T08:15:29.863Z</time></trkpt><trkpt lat="42.1870317" lon="14.6139767"><ele>37.142857142857146</ele><time>2026-04-10T08:15:32.862Z</time></trkpt><trkpt lat="42.1869767" lon="14.613925"><ele>37.714285714285715</ele><time>2026-04-10T08:15:35.862Z</time></trkpt><trkpt lat="42.1869267" lon="14.6138667"><ele>38.28571428571429</ele><time>2026-04-10T08:15:38.863Z</time></trkpt><trkpt lat="42.18686" lon="14.6137967"><ele>38.85714285714286</ele><time>2026-04-10T08:15:41.862Z</time></trkpt><trkpt lat="42.186795" lon="14.6137117"><ele>39.42857142857143</ele><time>2026-04-10T08:15:44.862Z</time></trkpt><trkpt lat="42.1867433" lon="14.6136567"><ele>40.0</ele><time>2026-04-10T08:15:46.863Z</time></trkpt><trkpt lat="42.1866917" lon="14.6135967"><ele>40.0</ele><time>2026-04-10T08:15:48.863Z</time></trkpt><trkpt lat="42.18663" lon="14.61353"><ele>40.0</ele><time>2026-04-10T08:15:50.862Z</time></trkpt><trkpt lat="42.1865733" lon="14.6134683"><ele>40.0</ele><time>2026-04-10T08:15:52.863Z</time></trkpt><trkpt lat="42.18652" lon="14.6134083"><ele>40.0</ele><time>2026-04-10T08:15:54.863Z</time></trkpt><trkpt lat="42.1864483" lon="14.6133333"><ele>40.0</ele><time>2026-04-10T08:15:57.863Z</time></trkpt><trkpt lat="42.1863783" lon="14.6132733"><ele>40.0</ele><time>2026-04-10T08:16:00.862Z</time></trkpt><trkpt lat="42.18631" lon="14.613215"><ele>43.0</ele><time>2026-04-10T08:16:03.862Z</time></trkpt><trkpt lat="42.1862283" lon="14.613165"><ele>46.0</ele><time>2026-04-10T08:16:06.863Z</time></trkpt><trkpt lat="42.18615" lon="14.613105"><ele>49.0</ele><time>2026-04-10T08:16:09.863Z</time></trkpt><trkpt lat="42.1860833" lon="14.6130467"><ele>52.0</ele><time>2026-04-10T08:16:12.863Z</time></trkpt><trkpt lat="42.1860217" lon="14.6129933"><ele>54.99999999999999</ele><time>2026-04-10T08:16:15.863Z</time></trkpt><trkpt lat="42.1859467" lon="14.6129317"><ele>58.0</ele><time>2026-04-10T08:16:18.863Z</time></trkpt><trkpt lat="42.1858783" lon="14.6128833"><ele>56.99999999999999</ele><time>2026-04-10T08:16:21.863Z</time></trkpt><trkpt lat="42.1858133" lon="14.6128167"><ele>56.0</ele><time>2026-04-10T08:16:24.863Z</time></trkpt><trkpt lat="42.18574" lon="14.6127467"><ele>55.0</ele><time>2026-04-10T08:16:27.863Z</time></trkpt><trkpt lat="42.1856667" lon="14.6126933"><ele>54.0</ele><time>2026-04-10T08:16:30.862Z</time></trkpt><trkpt lat="42.1856067" lon="14.6126283"><ele>52.99999999999999</ele><time>2026-04-10T08:16:33.863Z</time></trkpt><trkpt lat="42.1855633" lon="14.6125583"><ele>52.0</ele><time>2026-04-10T08:16:36.863Z</time></trkpt><trkpt lat="42.1855067" lon="14.61251"><ele>52.0</ele><time>2026-04-10T08:16:39.862Z</time></trkpt><trkpt lat="42.1854483" lon="14.6124733"><ele>52.0</ele><time>2026-04-10T08:16:41.863Z</time></trkpt><trkpt lat="42.1853817" lon="14.612435"><ele>52.0</ele><time>2026-04-10T08:16:43.863Z</time></trkpt><trkpt lat="42.1853217" lon="14.6123983"><ele>52.0</ele><time>2026-04-10T08:16:45.863Z</time></trkpt><trkpt lat="42.185245" lon="14.6123467"><ele>52.0</ele><time>2026-04-10T08:16:48.863Z</time></trkpt><trkpt lat="42.1851867" lon="14.6123"><ele>52.0</ele><time>2026-04-10T08:16:51.862Z</time></trkpt><trkpt lat="42.18512" lon="14.612255"><ele>52.0</ele><time>2026-04-10T08:16:54.863Z</time></trkpt><trkpt lat="42.185035" lon="14.6122033"><ele>51.99999999999999</ele><time>2026-04-10T08:16:57.862Z</time></trkpt><trkpt lat="42.1849567" lon="14.6121583"><ele>52.0</ele><time>2026-04-10T08:17:00.863Z</time></trkpt><trkpt lat="42.184875" lon="14.61211"><ele>52.0</ele><time>2026-04-10T08:17:03.863Z</time></trkpt><trkpt lat="42.184795" lon="14.61206"><ele>52.0</ele><time>2026-04-10T08:17:06.863Z</time></trkpt><trkpt lat="42.1847217" lon="14.6119983"><ele>51.99999999999999</ele><time>2026-04-10T08:17:09.862Z</time></trkpt><trkpt lat="42.184655" lon="14.6119367"><ele>52.0</ele><time>2026-04-10T08:17:12.862Z</time></trkpt><trkpt lat="42.1846017" lon="14.611865"><ele>50.99999999999999</ele><time>2026-04-10T08:17:15.862Z</time></trkpt><trkpt lat="42.184595" lon="14.6117683"><ele>50.0</ele><time>2026-04-10T08:17:19.863Z</time></trkpt><trkpt lat="42.184635" lon="14.6116733"><ele>49.0</ele><time>2026-04-10T08:17:22.863Z</time></trkpt><trkpt lat="42.1846617" lon="14.61158"><ele>48.0</ele><time>2026-04-10T08:17:24.863Z</time></trkpt><trkpt lat="42.1846867" lon="14.6114767"><ele>47.0</ele><time>2026-04-10T08:17:26.862Z</time></trkpt><trkpt lat="42.1847" lon="14.61138"><ele>46.0</ele><time>2026-04-10T08:17:28.862Z</time></trkpt><trkpt lat="42.1847117" lon="14.6112833"><ele>46.0</ele><time>2026-04-10T08:17:30.863Z</time></trkpt><trkpt lat="42.184715" lon="14.6111833"><ele>46.0</ele><time>2026-04-10T08:17:32.863Z</time></trkpt><trkpt lat="42.1847167" lon="14.6110717"><ele>46.0</ele><time>2026-04-10T08:17:35.863Z</time></trkpt><trkpt lat="42.18468" lon="14.610985"><ele>46.0</ele><time>2026-04-10T08:17:39.862Z</time></trkpt><trkpt lat="42.1846467" lon="14.6109117"><ele>46.0</ele><time>2026-04-10T08:17:45.863Z</time></trkpt><trkpt lat="42.1845283" lon="14.6108633"><ele>46.0</ele><time>2026-04-10T08:18:28.863Z</time></trkpt><trkpt lat="42.1844317" lon="14.61126"><ele>46.0</ele><time>2026-04-10T08:18:36.863Z</time></trkpt><trkpt lat="42.1843733" lon="14.6116083"><ele>46.0</ele><time>2026-04-10T08:18:38.863Z</time></trkpt><trkpt lat="42.184425" lon="14.6115183"><ele>46.0</ele><time>2026-04-10T08:18:40.863Z</time></trkpt><trkpt lat="42.1844967" lon="14.6114083"><ele>46.0</ele><time>2026-04-10T08:18:41.863Z</time></trkpt><trkpt lat="42.1845467" lon="14.61134"><ele>46.0</ele><time>2026-04-10T08:18:43.862Z</time></trkpt><trkpt lat="42.1846183" lon="14.6111933"><ele>46.0</ele><time>2026-04-10T08:18:48.863Z</time></trkpt><trkpt lat="42.184615" lon="14.6110033"><ele>46.0</ele><time>2026-04-10T08:19:04.863Z</time></trkpt><trkpt lat="42.1846517" lon="14.6109233"><ele>46.0</ele><time>2026-04-10T08:19:37.862Z</time></trkpt><trkpt lat="42.1846933" lon="14.6110133"><ele>46.0</ele><time>2026-04-10T08:20:15.862Z</time></trkpt><trkpt lat="42.184715" lon="14.6111"><ele>46.0</ele><time>2026-04-10T08:20:19.863Z</time></trkpt><trkpt lat="42.1846833" lon="14.6111933"><ele>46.0</ele><time>2026-04-10T08:20:23.863Z</time></trkpt><trkpt lat="42.1846583" lon="14.6112717"><ele>46.0</ele><time>2026-04-10T08:20:26.862Z</time></trkpt><trkpt lat="42.1846533" lon="14.6113633"><ele>46.0</ele><time>2026-04-10T08:20:35.863Z</time></trkpt><trkpt lat="42.1846783" lon="14.6114467"><ele>46.0</ele><time>2026-04-10T08:26:25.358Z</time></trkpt><trkpt lat="42.184625" lon="14.611515"><ele>46.0</ele><time>2026-04-10T08:58:18.858Z</time></trkpt><trkpt lat="42.1845933" lon="14.611595"><ele>46.0</ele><time>2026-04-10T08:58:23.858Z</time></trkpt><trkpt lat="42.1845517" lon="14.6116633"><ele>46.0</ele><time>2026-04-10T08:58:28.858Z</time></trkpt><trkpt lat="42.184525" lon="14.61175"><ele>46.0</ele><time>2026-04-10T08:58:34.857Z</time></trkpt><trkpt lat="42.1845683" lon="14.6118283"><ele>46.0</ele><time>2026-04-10T08:58:38.858Z</time></trkpt><trkpt lat="42.1846383" lon="14.6118833"><ele>46.0</ele><time>2026-04-10T08:58:41.857Z</time></trkpt><trkpt lat="42.1846983" lon="14.6119483"><ele>46.0</ele><time>2026-04-10T08:58:43.857Z</time></trkpt><trkpt lat="42.1847483" lon="14.612"><ele>46.0</ele><time>2026-04-10T08:58:45.858Z</time></trkpt><trkpt lat="42.1848183" lon="14.6120533"><ele>47.0</ele><time>2026-04-10T08:58:47.858Z</time></trkpt><trkpt lat="42.18488" lon="14.612105"><ele>48.0</ele><time>2026-04-10T08:58:49.858Z</time></trkpt><trkpt lat="42.18494" lon="14.612155"><ele>49.0</ele><time>2026-04-10T08:58:51.858Z</time></trkpt><trkpt lat="42.1849983" lon="14.61221"><ele>50.0</ele><time>2026-04-10T08:58:53.857Z</time></trkpt><trkpt lat="42.18506" lon="14.61226"><ele>50.99999999999999</ele><time>2026-04-10T08:58:55.857Z</time></trkpt><trkpt lat="42.18513" lon="14.6123033"><ele>52.0</ele><time>2026-04-10T08:58:57.857Z</time></trkpt><trkpt lat="42.185215" lon="14.6123517"><ele>52.0</ele><time>2026-04-10T08:58:59.857Z</time></trkpt><trkpt lat="42.1853017" lon="14.612405"><ele>52.0</ele><time>2026-04-10T08:59:01.858Z</time></trkpt><trkpt lat="42.1853917" lon="14.6124633"><ele>52.0</ele><time>2026-04-10T08:59:03.857Z</time></trkpt><trkpt lat="42.1854817" lon="14.6125267"><ele>52.0</ele><time>2026-04-10T08:59:05.857Z</time></trkpt><trkpt lat="42.1855683" lon="14.6125867"><ele>52.0</ele><time>2026-04-10T08:59:07.857Z</time></trkpt><trkpt lat="42.1856617" lon="14.6126317"><ele>53.2</ele><time>2026-04-10T08:59:09.858Z</time></trkpt><trkpt lat="42.18576" lon="14.6126917"><ele>54.400000000000006</ele><time>2026-04-10T08:59:11.858Z</time></trkpt><trkpt lat="42.1858467" lon="14.6127633"><ele>55.599999999999994</ele><time>2026-04-10T08:59:13.857Z</time></trkpt><trkpt lat="42.1859317" lon="14.6128267"><ele>56.8</ele><time>2026-04-10T08:59:15.858Z</time></trkpt><trkpt lat="42.1860183" lon="14.6128967"><ele>58.0</ele><time>2026-04-10T08:59:17.858Z</time></trkpt><trkpt lat="42.186105" lon="14.612955"><ele>57.99999999999999</ele><time>2026-04-10T08:59:19.858Z</time></trkpt><trkpt lat="42.18619" lon="14.6130083"><ele>58.0</ele><time>2026-04-10T08:59:21.858Z</time></trkpt><trkpt lat="42.1862583" lon="14.613065"><ele>58.0</ele><time>2026-04-10T08:59:23.857Z</time></trkpt><trkpt lat="42.186335" lon="14.613135"><ele>58.0</ele><time>2026-04-10T08:59:25.858Z</time></trkpt><trkpt lat="42.1863917" lon="14.6132"><ele>57.99999999999999</ele><time>2026-04-10T08:59:27.857Z</time></trkpt><trkpt lat="42.1864517" lon="14.6132667"><ele>58.0</ele><time>2026-04-10T08:59:29.858Z</time></trkpt><trkpt lat="42.1865167" lon="14.6133433"><ele>57.83333333333333</ele><time>2026-04-10T08:59:31.857Z</time></trkpt><trkpt lat="42.1865833" lon="14.6134117"><ele>57.666666666666664</ele><time>2026-04-10T08:59:33.857Z</time></trkpt><trkpt lat="42.1866567" lon="14.61348"><ele>57.5</ele><time>2026-04-10T08:59:35.858Z</time></trkpt><trkpt lat="42.1867283" lon="14.6135667"><ele>57.33333333333333</ele><time>2026-04-10T08:59:37.858Z</time></trkpt><trkpt lat="42.1867967" lon="14.6136467"><ele>57.166666666666664</ele><time>2026-04-10T08:59:39.858Z</time></trkpt><trkpt lat="42.1868583" lon="14.6137133"><ele>57.0</ele><time>2026-04-10T08:59:41.858Z</time></trkpt><trkpt lat="42.186925" lon="14.613785"><ele>57.0</ele><time>2026-04-10T08:59:43.857Z</time></trkpt><trkpt lat="42.1869983" lon="14.61385"><ele>57.0</ele><time>2026-04-10T08:59:45.857Z</time></trkpt><trkpt lat="42.1870767" lon="14.6139317"><ele>57.0</ele><time>2026-04-10T08:59:47.857Z</time></trkpt><trkpt lat="42.18716" lon="14.614005"><ele>57.0</ele><time>2026-04-10T08:59:49.857Z</time></trkpt><trkpt lat="42.1872417" lon="14.61407"><ele>57.0</ele><time>2026-04-10T08:59:51.858Z</time></trkpt><trkpt lat="42.1873283" lon="14.6141717"><ele>53.5</ele><time>2026-04-10T08:59:53.857Z</time></trkpt><trkpt lat="42.1874033" lon="14.61423"><ele>50.0</ele><time>2026-04-10T08:59:55.858Z</time></trkpt><trkpt lat="42.1874767" lon="14.61428"><ele>46.5</ele><time>2026-04-10T08:59:57.858Z</time></trkpt><trkpt lat="42.1875567" lon="14.61433"><ele>43.0</ele><time>2026-04-10T08:59:59.858Z</time></trkpt><trkpt lat="42.1876417" lon="14.614365"><ele>39.5</ele><time>2026-04-10T09:00:01.858Z</time></trkpt><trkpt lat="42.1877267" lon="14.614395"><ele>36.0</ele><time>2026-04-10T09:00:03.857Z</time></trkpt><trkpt lat="42.18781" lon="14.6144333"><ele>35.833333333333336</ele><time>2026-04-10T09:00:05.857Z</time></trkpt><trkpt lat="42.1878967" lon="14.6145017"><ele>35.666666666666664</ele><time>2026-04-10T09:00:07.857Z</time></trkpt><trkpt lat="42.1879717" lon="14.6145683"><ele>35.5</ele><time>2026-04-10T09:00:09.857Z</time></trkpt><trkpt lat="42.1880367" lon="14.6146433"><ele>35.33333333333333</ele><time>2026-04-10T09:00:11.856Z</time></trkpt><trkpt lat="42.1880917" lon="14.6147117"><ele>35.166666666666664</ele><time>2026-04-10T09:00:13.857Z</time></trkpt><trkpt lat="42.1881467" lon="14.6147817"><ele>35.0</ele><time>2026-04-10T09:00:15.857Z</time></trkpt><trkpt lat="42.1882067" lon="14.614845"><ele>35.0</ele><time>2026-04-10T09:00:17.856Z</time></trkpt><trkpt lat="42.1882667" lon="14.614905"><ele>35.0</ele><time>2026-04-10T09:00:19.856Z</time></trkpt><trkpt lat="42.188325" lon="14.6149717"><ele>35.0</ele><time>2026-04-10T09:00:21.857Z</time></trkpt><trkpt lat="42.188385" lon="14.6150267"><ele>35.0</ele><time>2026-04-10T09:00:23.857Z</time></trkpt><trkpt lat="42.188445" lon="14.6150833"><ele>35.0</ele><time>2026-04-10T09:00:25.856Z</time></trkpt><trkpt lat="42.1885167" lon="14.615155"><ele>35.0</ele><time>2026-04-10T09:00:27.857Z</time></trkpt><trkpt lat="42.1885917" lon="14.61523"><ele>35.0</ele><time>2026-04-10T09:00:29.856Z</time></trkpt><trkpt lat="42.188675" lon="14.6152967"><ele>35.0</ele><time>2026-04-10T09:00:31.857Z</time></trkpt><trkpt lat="42.1887533" lon="14.6153583"><ele>35.0</ele><time>2026-04-10T09:00:33.856Z</time></trkpt><trkpt lat="42.18883" lon="14.6154133"><ele>35.0</ele><time>2026-04-10T09:00:35.857Z</time></trkpt><trkpt lat="42.1889" lon="14.6154683"><ele>35.0</ele><time>2026-04-10T09:00:37.856Z</time></trkpt><trkpt lat="42.1889717" lon="14.615515"><ele>35.0</ele><time>2026-04-10T09:00:39.857Z</time></trkpt><trkpt lat="42.1890467" lon="14.615545"><ele>35.0</ele><time>2026-04-10T09:00:41.856Z</time></trkpt><trkpt lat="42.18912" lon="14.61558"><ele>35.0</ele><time>2026-04-10T09:00:43.857Z</time></trkpt><trkpt lat="42.18918" lon="14.615625"><ele>35.0</ele><time>2026-04-10T09:00:45.856Z</time></trkpt><trkpt lat="42.1892383" lon="14.6156667"><ele>35.0</ele><time>2026-04-10T09:00:47.856Z</time></trkpt><trkpt lat="42.189305" lon="14.6156983"><ele>35.0</ele><time>2026-04-10T09:00:49.857Z</time></trkpt><trkpt lat="42.189385" lon="14.6157283"><ele>35.0</ele><time>2026-04-10T09:00:51.857Z</time></trkpt><trkpt lat="42.1894717" lon="14.615765"><ele>35.0</ele><time>2026-04-10T09:00:53.856Z</time></trkpt><trkpt lat="42.189555" lon="14.615795"><ele>35.0</ele><time>2026-04-10T09:00:55.857Z</time></trkpt><trkpt lat="42.1896617" lon="14.6158317"><ele>35.0</ele><time>2026-04-10T09:00:57.857Z</time></trkpt><trkpt lat="42.18978" lon="14.6158433"><ele>35.0</ele><time>2026-04-10T09:00:59.856Z</time></trkpt><trkpt lat="42.1899033" lon="14.615815"><ele>35.0</ele><time>2026-04-10T09:01:01.857Z</time></trkpt><trkpt lat="42.1900217" lon="14.6157833"><ele>34.0</ele><time>2026-04-10T09:01:03.857Z</time></trkpt><trkpt lat="42.1900867" lon="14.6157683"><ele>33.0</ele><time>2026-04-10T09:01:04.857Z</time></trkpt><trkpt lat="42.1901517" lon="14.61576"><ele>32.0</ele><time>2026-04-10T09:01:05.856Z</time></trkpt><trkpt lat="42.19027" lon="14.6157433"><ele>31.0</ele><time>2026-04-10T09:01:07.857Z</time></trkpt><trkpt lat="42.1903883" lon="14.6157383"><ele>30.0</ele><time>2026-04-10T09:01:09.857Z</time></trkpt><trkpt lat="42.1905033" lon="14.6157483"><ele>30.0</ele><time>2026-04-10T09:01:11.857Z</time></trkpt><trkpt lat="42.1906183" lon="14.6157967"><ele>30.0</ele><time>2026-04-10T09:01:13.857Z</time></trkpt><trkpt lat="42.1907283" lon="14.615845"><ele>30.0</ele><time>2026-04-10T09:01:15.857Z</time></trkpt><trkpt lat="42.1908317" lon="14.6158733"><ele>30.0</ele><time>2026-04-10T09:01:17.857Z</time></trkpt><trkpt lat="42.1909433" lon="14.6158833"><ele>28.6</ele><time>2026-04-10T09:01:19.856Z</time></trkpt><trkpt lat="42.191045" lon="14.6158767"><ele>27.2</ele><time>2026-04-10T09:01:21.856Z</time></trkpt><trkpt lat="42.1911317" lon="14.6158783"><ele>25.799999999999997</ele><time>2026-04-10T09:01:23.857Z</time></trkpt><trkpt lat="42.1912183" lon="14.61591"><ele>24.4</ele><time>2026-04-10T09:01:25.857Z</time></trkpt><trkpt lat="42.1912933" lon="14.6160067"><ele>23.0</ele><time>2026-04-10T09:01:27.856Z</time></trkpt><trkpt lat="42.1913467" lon="14.6161267"><ele>22.4</ele><time>2026-04-10T09:01:29.857Z</time></trkpt><trkpt lat="42.1914033" lon="14.6162533"><ele>21.799999999999997</ele><time>2026-04-10T09:01:31.857Z</time></trkpt><trkpt lat="42.1914783" lon="14.6163917"><ele>21.2</ele><time>2026-04-10T09:01:33.857Z</time></trkpt><trkpt lat="42.1915167" lon="14.6164617"><ele>20.6</ele><time>2026-04-10T09:01:34.857Z</time></trkpt><trkpt lat="42.1915517" lon="14.6165333"><ele>20.0</ele><time>2026-04-10T09:01:35.856Z</time></trkpt><trkpt lat="42.191615" lon="14.6166533"><ele>20.0</ele><time>2026-04-10T09:01:37.856Z</time></trkpt><trkpt lat="42.1916917" lon="14.6167817"><ele>20.0</ele><time>2026-04-10T09:01:39.857Z</time></trkpt><trkpt lat="42.19177" lon="14.61688"><ele>20.0</ele><time>2026-04-10T09:01:41.857Z</time></trkpt><trkpt lat="42.19186" lon="14.6169767"><ele>20.0</ele><time>2026-04-10T09:01:43.857Z</time></trkpt><trkpt lat="42.1919317" lon="14.6170617"><ele>20.0</ele><time>2026-04-10T09:01:45.857Z</time></trkpt><trkpt lat="42.1920017" lon="14.61716"><ele>20.4</ele><time>2026-04-10T09:01:47.857Z</time></trkpt><trkpt lat="42.192065" lon="14.617255"><ele>20.8</ele><time>2026-04-10T09:01:49.856Z</time></trkpt><trkpt lat="42.1921317" lon="14.61735"><ele>21.200000000000003</ele><time>2026-04-10T09:01:51.856Z</time></trkpt><trkpt lat="42.1922067" lon="14.6174317"><ele>21.6</ele><time>2026-04-10T09:01:53.856Z</time></trkpt><trkpt lat="42.1922933" lon="14.6174867"><ele>22.0</ele><time>2026-04-10T09:01:55.856Z</time></trkpt><trkpt lat="42.1923933" lon="14.6175367"><ele>22.0</ele><time>2026-04-10T09:01:57.857Z</time></trkpt><trkpt lat="42.1925" lon="14.6175467"><ele>22.0</ele><time>2026-04-10T09:01:59.857Z</time></trkpt><trkpt lat="42.1926083" lon="14.6175367"><ele>22.0</ele><time>2026-04-10T09:02:01.857Z</time></trkpt><trkpt lat="42.19271" lon="14.617495"><ele>22.0</ele><time>2026-04-10T09:02:03.857Z</time></trkpt><trkpt lat="42.1928067" lon="14.6174333"><ele>22.0</ele><time>2026-04-10T09:02:05.857Z</time></trkpt><trkpt lat="42.1929017" lon="14.6173683"><ele>22.0</ele><time>2026-04-10T09:02:07.856Z</time></trkpt><trkpt lat="42.1930017" lon="14.6173167"><ele>22.0</ele><time>2026-04-10T09:02:09.857Z</time></trkpt><trkpt lat="42.193115" lon="14.6172817"><ele>22.0</ele><time>2026-04-10T09:02:11.857Z</time></trkpt><trkpt lat="42.1932283" lon="14.617235"><ele>22.0</ele><time>2026-04-10T09:02:13.857Z</time></trkpt><trkpt lat="42.1933367" lon="14.6171917"><ele>21.200000000000003</ele><time>2026-04-10T09:02:15.856Z</time></trkpt><trkpt lat="42.1934483" lon="14.6171817"><ele>20.400000000000002</ele><time>2026-04-10T09:02:17.857Z</time></trkpt><trkpt lat="42.1935483" lon="14.617225"><ele>19.6</ele><time>2026-04-10T09:02:19.857Z</time></trkpt><trkpt lat="42.19362" lon="14.61733"><ele>18.8</ele><time>2026-04-10T09:02:21.857Z</time></trkpt><trkpt lat="42.1936533" lon="14.6174517"><ele>18.0</ele><time>2026-04-10T09:02:23.856Z</time></trkpt><trkpt lat="42.193665" lon="14.6175933"><ele>18.0</ele><time>2026-04-10T09:02:25.857Z</time></trkpt><trkpt lat="42.193675" lon="14.6177417"><ele>18.0</ele><time>2026-04-10T09:02:27.857Z</time></trkpt><trkpt lat="42.1936833" lon="14.6178883"><ele>18.0</ele><time>2026-04-10T09:02:29.857Z</time></trkpt><trkpt lat="42.1936933" lon="14.61802"><ele>18.0</ele><time>2026-04-10T09:02:31.856Z</time></trkpt><trkpt lat="42.1937033" lon="14.6181617"><ele>18.0</ele><time>2026-04-10T09:02:33.856Z</time></trkpt><trkpt lat="42.19372" lon="14.618305"><ele>19.8</ele><time>2026-04-10T09:02:35.856Z</time></trkpt><trkpt lat="42.1937333" lon="14.61845"><ele>21.6</ele><time>2026-04-10T09:02:37.857Z</time></trkpt><trkpt lat="42.1937517" lon="14.6185983"><ele>23.400000000000002</ele><time>2026-04-10T09:02:39.856Z</time></trkpt><trkpt lat="42.1937717" lon="14.6187433"><ele>25.200000000000003</ele><time>2026-04-10T09:02:41.856Z</time></trkpt><trkpt lat="42.193805" lon="14.61888"><ele>27.0</ele><time>2026-04-10T09:02:43.856Z</time></trkpt><trkpt lat="42.1938317" lon="14.619005"><ele>28.400000000000002</ele><time>2026-04-10T09:02:45.856Z</time></trkpt><trkpt lat="42.193865" lon="14.6191267"><ele>29.800000000000004</ele><time>2026-04-10T09:02:47.857Z</time></trkpt><trkpt lat="42.1939" lon="14.61926"><ele>31.2</ele><time>2026-04-10T09:02:49.856Z</time></trkpt><trkpt lat="42.1939317" lon="14.6193867"><ele>32.6</ele><time>2026-04-10T09:02:51.857Z</time></trkpt><trkpt lat="42.19397" lon="14.6195133"><ele>34.0</ele><time>2026-04-10T09:02:53.856Z</time></trkpt><trkpt lat="42.194015" lon="14.6196467"><ele>29.8</ele><time>2026-04-10T09:02:55.856Z</time></trkpt><trkpt lat="42.19405" lon="14.6197717"><ele>25.599999999999998</ele><time>2026-04-10T09:02:57.857Z</time></trkpt><trkpt lat="42.1940833" lon="14.6198967"><ele>21.4</ele><time>2026-04-10T09:02:59.857Z</time></trkpt><trkpt lat="42.19412" lon="14.620035"><ele>17.2</ele><time>2026-04-10T09:03:01.857Z</time></trkpt><trkpt lat="42.19416" lon="14.6201733"><ele>13.0</ele><time>2026-04-10T09:03:03.857Z</time></trkpt><trkpt lat="42.194195" lon="14.6203133"><ele>13.0</ele><time>2026-04-10T09:03:05.857Z</time></trkpt><trkpt lat="42.1942267" lon="14.6204517"><ele>13.0</ele><time>2026-04-10T09:03:07.857Z</time></trkpt><trkpt lat="42.1942617" lon="14.6205933"><ele>13.0</ele><time>2026-04-10T09:03:09.857Z</time></trkpt><trkpt lat="42.194305" lon="14.62073"><ele>13.0</ele><time>2026-04-10T09:03:11.857Z</time></trkpt><trkpt lat="42.19435" lon="14.6208683"><ele>13.0</ele><time>2026-04-10T09:03:13.856Z</time></trkpt><trkpt lat="42.1943883" lon="14.6210033"><ele>12.999999999999998</ele><time>2026-04-10T09:03:15.856Z</time></trkpt><trkpt lat="42.194425" lon="14.6211383"><ele>13.0</ele><time>2026-04-10T09:03:17.857Z</time></trkpt><trkpt lat="42.194455" lon="14.6212467"><ele>13.0</ele><time>2026-04-10T09:03:19.857Z</time></trkpt><trkpt lat="42.1944167" lon="14.6213383"><ele>13.0</ele><time>2026-04-10T09:03:24.856Z</time></trkpt><trkpt lat="42.194365" lon="14.6214017"><ele>12.999999999999998</ele><time>2026-04-10T09:03:28.857Z</time></trkpt><trkpt lat="42.1943417" lon="14.6214817"><ele>13.0</ele><time>2026-04-10T09:03:32.857Z</time></trkpt><trkpt lat="42.194385" lon="14.6215467"><ele>13.142857142857142</ele><time>2026-04-10T09:03:36.856Z</time></trkpt><trkpt lat="42.1944317" lon="14.6216217"><ele>13.285714285714286</ele><time>2026-04-10T09:03:40.857Z</time></trkpt><trkpt lat="42.1944733" lon="14.6216933"><ele>13.428571428571429</ele><time>2026-04-10T09:03:43.857Z</time></trkpt><trkpt lat="42.1945183" lon="14.6217783"><ele>13.571428571428571</ele><time>2026-04-10T09:03:46.856Z</time></trkpt><trkpt lat="42.19457" lon="14.62183"><ele>13.714285714285715</ele><time>2026-04-10T09:03:49.857Z</time></trkpt><trkpt lat="42.194615" lon="14.6219217"><ele>13.857142857142858</ele><time>2026-04-10T09:03:52.856Z</time></trkpt><trkpt lat="42.1946533" lon="14.6220033"><ele>14.0</ele><time>2026-04-10T09:03:54.857Z</time></trkpt><trkpt lat="42.1946917" lon="14.622085"><ele>13.333333333333334</ele><time>2026-04-10T09:03:56.857Z</time></trkpt><trkpt lat="42.1947417" lon="14.62219"><ele>12.666666666666668</ele><time>2026-04-10T09:03:59.857Z</time></trkpt><trkpt lat="42.1947933" lon="14.6222617"><ele>12.0</ele><time>2026-04-10T09:04:02.857Z</time></trkpt><trkpt lat="42.194845" lon="14.6223133"><ele>11.333333333333334</ele><time>2026-04-10T09:04:05.857Z</time></trkpt><trkpt lat="42.194915" lon="14.6222467"><ele>10.666666666666668</ele><time>2026-04-10T09:04:10.857Z</time></trkpt><trkpt lat="42.1949833" lon="14.6222333"><ele>10.0</ele><time>2026-04-10T09:04:13.856Z</time></trkpt><trkpt lat="42.1950267" lon="14.6222983"><ele>10.0</ele><time>2026-04-10T09:04:16.857Z</time></trkpt><trkpt lat="42.195085" lon="14.6223467"><ele>10.0</ele><time>2026-04-10T09:04:18.857Z</time></trkpt><trkpt lat="42.195135" lon="14.6224233"><ele>10.0</ele><time>2026-04-10T09:04:20.857Z</time></trkpt><trkpt lat="42.1951717" lon="14.6225017"><ele>10.0</ele><time>2026-04-10T09:04:21.857Z</time></trkpt><trkpt lat="42.1952333" lon="14.6226333"><ele>10.0</ele><time>2026-04-10T09:04:23.857Z</time></trkpt><trkpt lat="42.1952883" lon="14.6227683"><ele>10.0</ele><time>2026-04-10T09:04:25.856Z</time></trkpt><trkpt lat="42.1953317" lon="14.6228967"><ele>10.6</ele><time>2026-04-10T09:04:27.857Z</time></trkpt><trkpt lat="42.1953633" lon="14.623025"><ele>11.2</ele><time>2026-04-10T09:04:29.857Z</time></trkpt><trkpt lat="42.19539" lon="14.6231483"><ele>11.8</ele><time>2026-04-10T09:04:31.857Z</time></trkpt><trkpt lat="42.195415" lon="14.6232683"><ele>12.4</ele><time>2026-04-10T09:04:33.857Z</time></trkpt><trkpt lat="42.1954417" lon="14.6233867"><ele>13.0</ele><time>2026-04-10T09:04:35.857Z</time></trkpt><trkpt lat="42.195475" lon="14.623515"><ele>13.0</ele><time>2026-04-10T09:04:37.857Z</time></trkpt><trkpt lat="42.195495" lon="14.6236467"><ele>13.0</ele><time>2026-04-10T09:04:39.857Z</time></trkpt><trkpt lat="42.1955117" lon="14.623765"><ele>13.0</ele><time>2026-04-10T09:04:41.857Z</time></trkpt><trkpt lat="42.1955317" lon="14.6239067"><ele>13.0</ele><time>2026-04-10T09:04:43.856Z</time></trkpt><trkpt lat="42.19555" lon="14.62399"><ele>13.0</ele><time>2026-04-10T09:04:44.857Z</time></trkpt><trkpt lat="42.1955883" lon="14.6241317"><ele>12.75</ele><time>2026-04-10T09:04:46.857Z</time></trkpt><trkpt lat="42.195625" lon="14.6242917"><ele>12.5</ele><time>2026-04-10T09:04:48.856Z</time></trkpt><trkpt lat="42.1956567" lon="14.6244617"><ele>12.25</ele><time>2026-04-10T09:04:50.856Z</time></trkpt><trkpt lat="42.1956833" lon="14.6246167"><ele>12.0</ele><time>2026-04-10T09:04:52.857Z</time></trkpt><trkpt lat="42.195695" lon="14.6247583"><ele>11.4</ele><time>2026-04-10T09:04:54.857Z</time></trkpt><trkpt lat="42.1957017" lon="14.624895"><ele>10.799999999999999</ele><time>2026-04-10T09:04:56.856Z</time></trkpt><trkpt lat="42.1957033" lon="14.62504"><ele>10.2</ele><time>2026-04-10T09:04:58.857Z</time></trkpt><trkpt lat="42.1957033" lon="14.6251867"><ele>9.6</ele><time>2026-04-10T09:05:00.857Z</time></trkpt><trkpt lat="42.1957033" lon="14.6253367"><ele>9.0</ele><time>2026-04-10T09:05:02.856Z</time></trkpt><trkpt lat="42.1957067" lon="14.6254783"><ele>9.0</ele><time>2026-04-10T09:05:04.857Z</time></trkpt><trkpt lat="42.19571" lon="14.625625"><ele>9.0</ele><time>2026-04-10T09:05:06.857Z</time></trkpt><trkpt lat="42.19571" lon="14.6257667"><ele>9.0</ele><time>2026-04-10T09:05:08.856Z</time></trkpt><trkpt lat="42.1957" lon="14.6259117"><ele>9.0</ele><time>2026-04-10T09:05:10.857Z</time></trkpt><trkpt lat="42.1956617" lon="14.62605"><ele>9.0</ele><time>2026-04-10T09:05:12.857Z</time></trkpt><trkpt lat="42.195595" lon="14.6261517"><ele>9.0</ele><time>2026-04-10T09:05:14.857Z</time></trkpt><trkpt lat="42.1955217" lon="14.626245"><ele>9.0</ele><time>2026-04-10T09:05:16.856Z</time></trkpt><trkpt lat="42.195455" lon="14.62634"><ele>9.0</ele><time>2026-04-10T09:05:18.857Z</time></trkpt><trkpt lat="42.1953917" lon="14.62644"><ele>9.0</ele><time>2026-04-10T09:05:20.857Z</time></trkpt><trkpt lat="42.1953433" lon="14.6265317"><ele>9.0</ele><time>2026-04-10T09:05:22.856Z</time></trkpt><trkpt lat="42.195305" lon="14.626615"><ele>9.000000000000002</ele><time>2026-04-10T09:05:24.856Z</time></trkpt><trkpt lat="42.195275" lon="14.6266917"><ele>9.0</ele><time>2026-04-10T09:05:26.856Z</time></trkpt><trkpt lat="42.1952517" lon="14.62678"><ele>9.0</ele><time>2026-04-10T09:05:28.856Z</time></trkpt><trkpt lat="42.19524" lon="14.6268817"><ele>9.0</ele><time>2026-04-10T09:05:30.857Z</time></trkpt><trkpt lat="42.1952333" lon="14.6269817"><ele>9.0</ele><time>2026-04-10T09:05:32.857Z</time></trkpt><trkpt lat="42.1952367" lon="14.6270733"><ele>9.000000000000002</ele><time>2026-04-10T09:05:34.857Z</time></trkpt><trkpt lat="42.1952417" lon="14.627195"><ele>9.0</ele><time>2026-04-10T09:05:37.857Z</time></trkpt><trkpt lat="42.1952467" lon="14.62729"><ele>9.0</ele><time>2026-04-10T09:05:39.857Z</time></trkpt><trkpt lat="42.1952633" lon="14.6273867"><ele>9.0</ele><time>2026-04-10T09:05:41.857Z</time></trkpt><trkpt lat="42.1952933" lon="14.6275"><ele>9.0</ele><time>2026-04-10T09:05:43.857Z</time></trkpt><trkpt lat="42.195355" lon="14.62764"><ele>9.0</ele><time>2026-04-10T09:05:45.857Z</time></trkpt><trkpt lat="42.1954167" lon="14.627775"><ele>9.0</ele><time>2026-04-10T09:05:47.857Z</time></trkpt><trkpt lat="42.1954717" lon="14.62789"><ele>8.8</ele><time>2026-04-10T09:05:49.857Z</time></trkpt><trkpt lat="42.195555" lon="14.6280233"><ele>8.600000000000001</ele><time>2026-04-10T09:05:51.857Z</time></trkpt><trkpt lat="42.1956183" lon="14.6281467"><ele>8.4</ele><time>2026-04-10T09:05:53.857Z</time></trkpt><trkpt lat="42.195665" lon="14.6282467"><ele>8.200000000000001</ele><time>2026-04-10T09:05:55.857Z</time></trkpt><trkpt lat="42.1957117" lon="14.6283517"><ele>8.0</ele><time>2026-04-10T09:05:57.857Z</time></trkpt><trkpt lat="42.195755" lon="14.6284533"><ele>7.333333333333333</ele><time>2026-04-10T09:05:59.856Z</time></trkpt><trkpt lat="42.1957917" lon="14.6285567"><ele>6.666666666666666</ele><time>2026-04-10T09:06:01.857Z</time></trkpt><trkpt lat="42.1958267" lon="14.6286583"><ele>6.0</ele><time>2026-04-10T09:06:03.857Z</time></trkpt><trkpt lat="42.19586" lon="14.6287517"><ele>5.333333333333333</ele><time>2026-04-10T09:06:05.856Z</time></trkpt><trkpt lat="42.1959083" lon="14.628835"><ele>4.666666666666666</ele><time>2026-04-10T09:06:07.857Z</time></trkpt><trkpt lat="42.1959567" lon="14.6289133"><ele>4.0</ele><time>2026-04-10T09:06:09.856Z</time></trkpt><trkpt lat="42.1960033" lon="14.6289933"><ele>3.9999999999999996</ele><time>2026-04-10T09:06:11.857Z</time></trkpt><trkpt lat="42.1960483" lon="14.6290783"><ele>4.0</ele><time>2026-04-10T09:06:13.857Z</time></trkpt><trkpt lat="42.196065" lon="14.629175"><ele>4.0</ele><time>2026-04-10T09:06:15.856Z</time></trkpt><trkpt lat="42.196035" lon="14.6292767"><ele>4.0</ele><time>2026-04-10T09:06:17.856Z</time></trkpt><trkpt lat="42.1959967" lon="14.6293683"><ele>3.9999999999999996</ele><time>2026-04-10T09:06:19.856Z</time></trkpt><trkpt lat="42.19595" lon="14.6294683"><ele>4.0</ele><time>2026-04-10T09:06:21.856Z</time></trkpt><trkpt lat="42.1959083" lon="14.6295817"><ele>3.833333333333333</ele><time>2026-04-10T09:06:23.857Z</time></trkpt><trkpt lat="42.19587" lon="14.6296967"><ele>3.6666666666666665</ele><time>2026-04-10T09:06:25.857Z</time></trkpt><trkpt lat="42.1958383" lon="14.6298133"><ele>3.5</ele><time>2026-04-10T09:06:27.857Z</time></trkpt><trkpt lat="42.1958067" lon="14.6299267"><ele>3.333333333333333</ele><time>2026-04-10T09:06:29.857Z</time></trkpt><trkpt lat="42.1957717" lon="14.6300183"><ele>3.1666666666666665</ele><time>2026-04-10T09:06:31.857Z</time></trkpt><trkpt lat="42.195735" lon="14.63012"><ele>3.0</ele><time>2026-04-10T09:06:33.857Z</time></trkpt><trkpt lat="42.1957017" lon="14.63023"><ele>2.8333333333333335</ele><time>2026-04-10T09:06:35.857Z</time></trkpt><trkpt lat="42.1956717" lon="14.6303467"><ele>2.6666666666666665</ele><time>2026-04-10T09:06:37.857Z</time></trkpt><trkpt lat="42.1956433" lon="14.6304533"><ele>2.5</ele><time>2026-04-10T09:06:39.857Z</time></trkpt><trkpt lat="42.19561" lon="14.630555"><ele>2.333333333333333</ele><time>2026-04-10T09:06:41.856Z</time></trkpt><trkpt lat="42.19558" lon="14.6306667"><ele>2.1666666666666665</ele><time>2026-04-10T09:06:43.856Z</time></trkpt><trkpt lat="42.19555" lon="14.630765"><ele>2.0</ele><time>2026-04-10T09:06:45.857Z</time></trkpt><trkpt lat="42.19552" lon="14.6308667"><ele>2.333333333333333</ele><time>2026-04-10T09:06:47.857Z</time></trkpt><trkpt lat="42.19549" lon="14.63097"><ele>2.6666666666666665</ele><time>2026-04-10T09:06:49.857Z</time></trkpt><trkpt lat="42.1954617" lon="14.6310817"><ele>3.0</ele><time>2026-04-10T09:06:51.856Z</time></trkpt><trkpt lat="42.1954333" lon="14.631185"><ele>3.333333333333333</ele><time>2026-04-10T09:06:53.857Z</time></trkpt><trkpt lat="42.1954067" lon="14.6312917"><ele>3.6666666666666665</ele><time>2026-04-10T09:06:55.857Z</time></trkpt><trkpt lat="42.1953833" lon="14.6314017"><ele>4.0</ele><time>2026-04-10T09:06:57.857Z</time></trkpt><trkpt lat="42.19535" lon="14.631515"><ele>3.9999999999999996</ele><time>2026-04-10T09:06:59.857Z</time></trkpt><trkpt lat="42.1953183" lon="14.631625"><ele>4.0</ele><time>2026-04-10T09:07:01.856Z</time></trkpt><trkpt lat="42.1952833" lon="14.6317283"><ele>4.0</ele><time>2026-04-10T09:07:03.857Z</time></trkpt><trkpt lat="42.1952517" lon="14.6318333"><ele>4.0</ele><time>2026-04-10T09:07:05.857Z</time></trkpt><trkpt lat="42.195225" lon="14.6319317"><ele>3.9999999999999996</ele><time>2026-04-10T09:07:07.857Z</time></trkpt><trkpt lat="42.1952017" lon="14.6320267"><ele>4.0</ele><time>2026-04-10T09:07:09.857Z</time></trkpt><trkpt lat="42.19518" lon="14.6321133"><ele>4.142857142857142</ele><time>2026-04-10T09:07:11.857Z</time></trkpt><trkpt lat="42.1951583" lon="14.6321967"><ele>4.285714285714286</ele><time>2026-04-10T09:07:13.857Z</time></trkpt><trkpt lat="42.19513" lon="14.6322867"><ele>4.428571428571429</ele><time>2026-04-10T09:07:15.856Z</time></trkpt><trkpt lat="42.1951017" lon="14.6323833"><ele>4.571428571428571</ele><time>2026-04-10T09:07:17.857Z</time></trkpt><trkpt lat="42.1950733" lon="14.6324783"><ele>4.714285714285714</ele><time>2026-04-10T09:07:19.856Z</time></trkpt><trkpt lat="42.1950533" lon="14.6325733"><ele>4.857142857142857</ele><time>2026-04-10T09:07:21.856Z</time></trkpt><trkpt lat="42.1950267" lon="14.6326717"><ele>5.0</ele><time>2026-04-10T09:07:23.856Z</time></trkpt><trkpt lat="42.1950017" lon="14.63277"><ele>4.5</ele><time>2026-04-10T09:07:25.856Z</time></trkpt><trkpt lat="42.194975" lon="14.6328667"><ele>4.0</ele><time>2026-04-10T09:07:27.856Z</time></trkpt><trkpt lat="42.194945" lon="14.632965"><ele>3.5</ele><time>2026-04-10T09:07:29.857Z</time></trkpt><trkpt lat="42.1949167" lon="14.6330683"><ele>3.0</ele><time>2026-04-10T09:07:31.856Z</time></trkpt><trkpt lat="42.19489" lon="14.6331683"><ele>2.5</ele><time>2026-04-10T09:07:33.857Z</time></trkpt><trkpt lat="42.194865" lon="14.6332583"><ele>2.0</ele><time>2026-04-10T09:07:35.856Z</time></trkpt><trkpt lat="42.1948383" lon="14.6333433"><ele>2.333333333333333</ele><time>2026-04-10T09:07:37.856Z</time></trkpt><trkpt lat="42.1948083" lon="14.6334567"><ele>2.6666666666666665</ele><time>2026-04-10T09:07:40.856Z</time></trkpt><trkpt lat="42.19478" lon="14.63357"><ele>3.0</ele><time>2026-04-10T09:07:43.856Z</time></trkpt><trkpt lat="42.1947533" lon="14.6336583"><ele>3.333333333333333</ele><time>2026-04-10T09:07:45.857Z</time></trkpt><trkpt lat="42.1947283" lon="14.633755"><ele>3.6666666666666665</ele><time>2026-04-10T09:07:47.857Z</time></trkpt><trkpt lat="42.1947017" lon="14.6338467"><ele>4.0</ele><time>2026-04-10T09:07:49.856Z</time></trkpt><trkpt lat="42.194675" lon="14.63393"><ele>3.9999999999999996</ele><time>2026-04-10T09:07:51.856Z</time></trkpt><trkpt lat="42.1946417" lon="14.6340117"><ele>4.0</ele><time>2026-04-10T09:07:53.856Z</time></trkpt><trkpt lat="42.1945967" lon="14.6341"><ele>4.0</ele><time>2026-04-10T09:07:55.856Z</time></trkpt><trkpt lat="42.1945583" lon="14.6341967"><ele>4.0</ele><time>2026-04-10T09:07:57.857Z</time></trkpt><trkpt lat="42.1945283" lon="14.6343"><ele>3.9999999999999996</ele><time>2026-04-10T09:07:59.857Z</time></trkpt><trkpt lat="42.1945" lon="14.6344033"><ele>4.0</ele><time>2026-04-10T09:08:01.857Z</time></trkpt><trkpt lat="42.19447" lon="14.634505"><ele>3.6666666666666665</ele><time>2026-04-10T09:08:03.857Z</time></trkpt><trkpt lat="42.1944433" lon="14.6346167"><ele>3.333333333333333</ele><time>2026-04-10T09:08:05.856Z</time></trkpt><trkpt lat="42.1944183" lon="14.634725"><ele>3.0</ele><time>2026-04-10T09:08:07.857Z</time></trkpt><trkpt lat="42.1943883" lon="14.63483"><ele>2.6666666666666665</ele><time>2026-04-10T09:08:09.857Z</time></trkpt><trkpt lat="42.1943583" lon="14.634935"><ele>2.333333333333333</ele><time>2026-04-10T09:08:11.856Z</time></trkpt><trkpt lat="42.194325" lon="14.6350267"><ele>2.0</ele><time>2026-04-10T09:08:13.857Z</time></trkpt><trkpt lat="42.1942817" lon="14.63515"><ele>1.9999999999999998</ele><time>2026-04-10T09:08:15.857Z</time></trkpt><trkpt lat="42.19425" lon="14.6352467"><ele>2.0</ele><time>2026-04-10T09:08:17.857Z</time></trkpt><trkpt lat="42.194225" lon="14.63534"><ele>2.0</ele><time>2026-04-10T09:08:19.857Z</time></trkpt><trkpt lat="42.1941967" lon="14.63544"><ele>2.0</ele><time>2026-04-10T09:08:21.857Z</time></trkpt><trkpt lat="42.1941667" lon="14.6355383"><ele>1.9999999999999998</ele><time>2026-04-10T09:08:23.856Z</time></trkpt><trkpt lat="42.1941367" lon="14.6356417"><ele>2.0</ele><time>2026-04-10T09:08:25.856Z</time></trkpt><trkpt lat="42.1941117" lon="14.6357333"><ele>1.9999999999999998</ele><time>2026-04-10T09:08:27.856Z</time></trkpt><trkpt lat="42.1940867" lon="14.6358267"><ele>2.0</ele><time>2026-04-10T09:08:29.856Z</time></trkpt><trkpt lat="42.19406" lon="14.6359233"><ele>2.0</ele><time>2026-04-10T09:08:31.857Z</time></trkpt><trkpt lat="42.1940367" lon="14.636025"><ele>2.0</ele><time>2026-04-10T09:08:33.857Z</time></trkpt><trkpt lat="42.1940083" lon="14.636135"><ele>1.9999999999999998</ele><time>2026-04-10T09:08:35.856Z</time></trkpt><trkpt lat="42.193985" lon="14.63623"><ele>2.0</ele><time>2026-04-10T09:08:37.856Z</time></trkpt><trkpt lat="42.1939583" lon="14.6363183"><ele>1.9999999999999998</ele><time>2026-04-10T09:08:39.856Z</time></trkpt><trkpt lat="42.1939333" lon="14.636415"><ele>2.0</ele><time>2026-04-10T09:08:41.857Z</time></trkpt><trkpt lat="42.19391" lon="14.636505"><ele>2.0</ele><time>2026-04-10T09:08:43.857Z</time></trkpt><trkpt lat="42.19388" lon="14.636605"><ele>2.0</ele><time>2026-04-10T09:08:45.857Z</time></trkpt><trkpt lat="42.19385" lon="14.6367083"><ele>1.9999999999999998</ele><time>2026-04-10T09:08:47.857Z</time></trkpt><trkpt lat="42.193825" lon="14.6368083"><ele>2.0</ele><time>2026-04-10T09:08:49.857Z</time></trkpt><trkpt lat="42.1937983" lon="14.63691"><ele>1.857142857142857</ele><time>2026-04-10T09:08:51.857Z</time></trkpt><trkpt lat="42.19378" lon="14.6369967"><ele>1.714285714285714</ele><time>2026-04-10T09:08:53.856Z</time></trkpt><trkpt lat="42.193755" lon="14.63708"><ele>1.5714285714285714</ele><time>2026-04-10T09:08:55.856Z</time></trkpt><trkpt lat="42.1937267" lon="14.63717"><ele>1.4285714285714284</ele><time>2026-04-10T09:08:57.857Z</time></trkpt><trkpt lat="42.1936967" lon="14.63727"><ele>1.2857142857142856</ele><time>2026-04-10T09:08:59.857Z</time></trkpt><trkpt lat="42.1936717" lon="14.6373667"><ele>1.1428571428571428</ele><time>2026-04-10T09:09:01.857Z</time></trkpt><trkpt lat="42.193645" lon="14.6374617"><ele>1.0</ele><time>2026-04-10T09:09:03.857Z</time></trkpt><trkpt lat="42.19362" lon="14.6375483"><ele>1.0</ele><time>2026-04-10T09:09:05.857Z</time></trkpt><trkpt lat="42.1936017" lon="14.63763"><ele>0.9999999999999999</ele><time>2026-04-10T09:09:07.857Z</time></trkpt><trkpt lat="42.19358" lon="14.6377117"><ele>1.0</ele><time>2026-04-10T09:09:09.857Z</time></trkpt><trkpt lat="42.193545" lon="14.63783"><ele>1.0</ele><time>2026-04-10T09:09:12.857Z</time></trkpt><trkpt lat="42.1935217" lon="14.63791"><ele>0.9999999999999999</ele><time>2026-04-10T09:09:14.857Z</time></trkpt><trkpt lat="42.1934783" lon="14.6380233"><ele>1.0</ele><time>2026-04-10T09:09:17.856Z</time></trkpt><trkpt lat="42.19345" lon="14.6381067"><ele>1.0</ele><time>2026-04-10T09:09:19.857Z</time></trkpt><trkpt lat="42.193425" lon="14.6381883"><ele>0.9999999999999999</ele><time>2026-04-10T09:09:21.857Z</time></trkpt><trkpt lat="42.193395" lon="14.6383033"><ele>1.0</ele><time>2026-04-10T09:09:24.857Z</time></trkpt><trkpt lat="42.1933633" lon="14.63841"><ele>1.0</ele><time>2026-04-10T09:09:27.857Z</time></trkpt><trkpt lat="42.1933383" lon="14.6384883"><ele>1.0</ele><time>2026-04-10T09:09:29.856Z</time></trkpt><trkpt lat="42.193315" lon="14.638575"><ele>0.9999999999999999</ele><time>2026-04-10T09:09:31.856Z</time></trkpt><trkpt lat="42.1932883" lon="14.6386717"><ele>1.0</ele><time>2026-04-10T09:09:33.857Z</time></trkpt><trkpt lat="42.1932533" lon="14.63877"><ele>0.9999999999999999</ele><time>2026-04-10T09:09:35.857Z</time></trkpt><trkpt lat="42.193215" lon="14.63887"><ele>1.0</ele><time>2026-04-10T09:09:37.856Z</time></trkpt><trkpt lat="42.19318" lon="14.638975"><ele>1.0</ele><time>2026-04-10T09:09:39.856Z</time></trkpt><trkpt lat="42.1931517" lon="14.6390867"><ele>1.0</ele><time>2026-04-10T09:09:41.857Z</time></trkpt><trkpt lat="42.1931267" lon="14.6392017"><ele>0.9999999999999999</ele><time>2026-04-10T09:09:43.857Z</time></trkpt><trkpt lat="42.1930983" lon="14.6393217"><ele>1.0</ele><time>2026-04-10T09:09:45.857Z</time></trkpt><trkpt lat="42.1930667" lon="14.63944"><ele>0.6000000000000001</ele><time>2026-04-10T09:09:47.857Z</time></trkpt><trkpt lat="42.1930383" lon="14.6395567"><ele>0.20000000000000007</ele><time>2026-04-10T09:09:49.856Z</time></trkpt><trkpt lat="42.19301" lon="14.6396733"><ele>-0.20000000000000007</ele><time>2026-04-10T09:09:51.856Z</time></trkpt><trkpt lat="42.1929833" lon="14.6397933"><ele>-0.6000000000000001</ele><time>2026-04-10T09:09:53.856Z</time></trkpt><trkpt lat="42.1929517" lon="14.6399133"><ele>-1.0</ele><time>2026-04-10T09:09:55.856Z</time></trkpt><trkpt lat="42.19292" lon="14.64003"><ele>-0.9999999999999999</ele><time>2026-04-10T09:09:57.857Z</time></trkpt><trkpt lat="42.1928917" lon="14.640145"><ele>-1.0</ele><time>2026-04-10T09:09:59.857Z</time></trkpt><trkpt lat="42.19286" lon="14.64026"><ele>-1.0</ele><time>2026-04-10T09:10:01.856Z</time></trkpt><trkpt lat="42.1928283" lon="14.6403733"><ele>-1.0</ele><time>2026-04-10T09:10:03.856Z</time></trkpt><trkpt lat="42.1928" lon="14.64048"><ele>-0.9999999999999999</ele><time>2026-04-10T09:10:05.857Z</time></trkpt><trkpt lat="42.192775" lon="14.6405783"><ele>-1.0</ele><time>2026-04-10T09:10:07.856Z</time></trkpt><trkpt lat="42.19275" lon="14.640675"><ele>-0.8333333333333333</ele><time>2026-04-10T09:10:09.857Z</time></trkpt><trkpt lat="42.1927233" lon="14.6407767"><ele>-0.6666666666666666</ele><time>2026-04-10T09:10:11.856Z</time></trkpt><trkpt lat="42.1927033" lon="14.6408717"><ele>-0.5</ele><time>2026-04-10T09:10:13.857Z</time></trkpt><trkpt lat="42.19268" lon="14.640955"><ele>-0.3333333333333333</ele><time>2026-04-10T09:10:15.856Z</time></trkpt><trkpt lat="42.1926483" lon="14.64106"><ele>-0.16666666666666666</ele><time>2026-04-10T09:10:18.856Z</time></trkpt><trkpt lat="42.1926717" lon="14.641145"><ele>0.0</ele><time>2026-04-10T09:11:53.858Z</time></trkpt><trkpt lat="42.1926383" lon="14.6412517"><ele>0.0</ele><time>2026-04-10T09:13:13.858Z</time></trkpt><trkpt lat="42.1926133" lon="14.6413667"><ele>0.0</ele><time>2026-04-10T09:13:16.858Z</time></trkpt><trkpt lat="42.1925883" lon="14.6414533"><ele>0.0</ele><time>2026-04-10T09:13:18.858Z</time></trkpt><trkpt lat="42.1925667" lon="14.6415483"><ele>0.0</ele><time>2026-04-10T09:13:20.857Z</time></trkpt><trkpt lat="42.1925433" lon="14.6416483"><ele>0.0</ele><time>2026-04-10T09:13:22.857Z</time></trkpt><trkpt lat="42.19252" lon="14.64175"><ele>0.0</ele><time>2026-04-10T09:13:24.858Z</time></trkpt><trkpt lat="42.19249" lon="14.64185"><ele>0.0</ele><time>2026-04-10T09:13:26.858Z</time></trkpt><trkpt lat="42.19246" lon="14.6419533"><ele>0.0</ele><time>2026-04-10T09:13:28.857Z</time></trkpt><trkpt lat="42.1924333" lon="14.642065"><ele>0.0</ele><time>2026-04-10T09:13:30.858Z</time></trkpt><trkpt lat="42.192405" lon="14.6421767"><ele>0.0</ele><time>2026-04-10T09:13:32.858Z</time></trkpt><trkpt lat="42.1923767" lon="14.6422867"><ele>0.0</ele><time>2026-04-10T09:13:34.858Z</time></trkpt><trkpt lat="42.19234" lon="14.64239"><ele>0.0</ele><time>2026-04-10T09:13:36.857Z</time></trkpt><trkpt lat="42.192295" lon="14.6424833"><ele>0.0</ele><time>2026-04-10T09:13:38.858Z</time></trkpt><trkpt lat="42.1922333" lon="14.64256"><ele>0.0</ele><time>2026-04-10T09:13:40.858Z</time></trkpt><trkpt lat="42.192165" lon="14.6426333"><ele>0.0</ele><time>2026-04-10T09:13:42.858Z</time></trkpt><trkpt lat="42.1921" lon="14.6427167"><ele>0.0</ele><time>2026-04-10T09:13:44.858Z</time></trkpt><trkpt lat="42.1920367" lon="14.642805"><ele>0.0</ele><time>2026-04-10T09:13:46.857Z</time></trkpt><trkpt lat="42.191975" lon="14.6428933"><ele>0.0</ele><time>2026-04-10T09:13:48.858Z</time></trkpt><trkpt lat="42.191915" lon="14.64298"><ele>0.0</ele><time>2026-04-10T09:13:50.858Z</time></trkpt><trkpt lat="42.1918517" lon="14.6430683"><ele>0.0</ele><time>2026-04-10T09:13:52.857Z</time></trkpt><trkpt lat="42.1917833" lon="14.64315"><ele>0.0</ele><time>2026-04-10T09:13:54.857Z</time></trkpt><trkpt lat="42.19171" lon="14.6432217"><ele>0.0</ele><time>2026-04-10T09:13:56.858Z</time></trkpt><trkpt lat="42.1916383" lon="14.643295"><ele>0.0</ele><time>2026-04-10T09:13:58.858Z</time></trkpt><trkpt lat="42.19157" lon="14.6433767"><ele>0.0</ele><time>2026-04-10T09:14:00.857Z</time></trkpt><trkpt lat="42.191515" lon="14.64346"><ele>0.0</ele><time>2026-04-10T09:14:02.858Z</time></trkpt><trkpt lat="42.1914583" lon="14.6435617"><ele>0.0</ele><time>2026-04-10T09:14:04.858Z</time></trkpt><trkpt lat="42.1914033" lon="14.6436517"><ele>0.0</ele><time>2026-04-10T09:14:06.857Z</time></trkpt><trkpt lat="42.191355" lon="14.64374"><ele>0.0</ele><time>2026-04-10T09:14:08.858Z</time></trkpt><trkpt lat="42.19131" lon="14.643835"><ele>0.0</ele><time>2026-04-10T09:14:10.858Z</time></trkpt><trkpt lat="42.1912617" lon="14.6439317"><ele>0.3333333333333333</ele><time>2026-04-10T09:14:12.858Z</time></trkpt><trkpt lat="42.1912117" lon="14.644025"><ele>0.6666666666666666</ele><time>2026-04-10T09:14:14.857Z</time></trkpt><trkpt lat="42.1911567" lon="14.6441183"><ele>1.0</ele><time>2026-04-10T09:14:16.858Z</time></trkpt><trkpt lat="42.1911017" lon="14.64421"><ele>1.3333333333333333</ele><time>2026-04-10T09:14:18.858Z</time></trkpt><trkpt lat="42.1910367" lon="14.6442767"><ele>1.6666666666666665</ele><time>2026-04-10T09:14:20.858Z</time></trkpt><trkpt lat="42.1909583" lon="14.6443317"><ele>2.0</ele><time>2026-04-10T09:14:22.858Z</time></trkpt><trkpt lat="42.1908733" lon="14.6443733"><ele>1.9999999999999998</ele><time>2026-04-10T09:14:24.858Z</time></trkpt><trkpt lat="42.19079" lon="14.64441"><ele>2.0</ele><time>2026-04-10T09:14:26.858Z</time></trkpt><trkpt lat="42.1907067" lon="14.6444383"><ele>2.0</ele><time>2026-04-10T09:14:28.858Z</time></trkpt><trkpt lat="42.1906233" lon="14.644465"><ele>2.0</ele><time>2026-04-10T09:14:30.857Z</time></trkpt><trkpt lat="42.190535" lon="14.644495"><ele>1.9999999999999998</ele><time>2026-04-10T09:14:32.858Z</time></trkpt><trkpt lat="42.19045" lon="14.64453"><ele>2.0</ele><time>2026-04-10T09:14:34.858Z</time></trkpt><trkpt lat="42.1903767" lon="14.6445617"><ele>2.1666666666666665</ele><time>2026-04-10T09:14:36.857Z</time></trkpt><trkpt lat="42.1903133" lon="14.644595"><ele>2.333333333333333</ele><time>2026-04-10T09:14:38.858Z</time></trkpt><trkpt lat="42.1902367" lon="14.64466"><ele>2.5</ele><time>2026-04-10T09:14:41.858Z</time></trkpt><trkpt lat="42.1901983" lon="14.64475"><ele>2.6666666666666665</ele><time>2026-04-10T09:14:44.858Z</time></trkpt><trkpt lat="42.190155" lon="14.6448567"><ele>2.8333333333333335</ele><time>2026-04-10T09:14:47.857Z</time></trkpt><trkpt lat="42.1901283" lon="14.6449717"><ele>3.0</ele><time>2026-04-10T09:14:50.858Z</time></trkpt><trkpt lat="42.1900983" lon="14.6450783"><ele>3.0</ele><time>2026-04-10T09:14:53.858Z</time></trkpt><trkpt lat="42.1900633" lon="14.6451917"><ele>3.0</ele><time>2026-04-10T09:14:56.858Z</time></trkpt><trkpt lat="42.1900233" lon="14.6452967"><ele>3.0</ele><time>2026-04-10T09:14:59.857Z</time></trkpt><trkpt lat="42.1899767" lon="14.6453933"><ele>3.0</ele><time>2026-04-10T09:15:02.857Z</time></trkpt><trkpt lat="42.18993" lon="14.6454883"><ele>3.0</ele><time>2026-04-10T09:15:05.858Z</time></trkpt><trkpt lat="42.18989" lon="14.6455867"><ele>3.0</ele><time>2026-04-10T09:15:08.857Z</time></trkpt><trkpt lat="42.1898583" lon="14.6456833"><ele>3.0</ele><time>2026-04-10T09:15:11.858Z</time></trkpt><trkpt lat="42.1898317" lon="14.6457617"><ele>3.0</ele><time>2026-04-10T09:15:13.857Z</time></trkpt><trkpt lat="42.1897967" lon="14.6458733"><ele>3.0</ele><time>2026-04-10T09:15:16.858Z</time></trkpt><trkpt lat="42.1897717" lon="14.645985"><ele>3.0</ele><time>2026-04-10T09:15:19.858Z</time></trkpt><trkpt lat="42.1897533" lon="14.646105"><ele>3.0</ele><time>2026-04-10T09:15:22.858Z</time></trkpt><trkpt lat="42.1897517" lon="14.6461917"><ele>3.0</ele><time>2026-04-10T09:15:24.858Z</time></trkpt><trkpt lat="42.18975" lon="14.646285"><ele>3.1428571428571423</ele><time>2026-04-10T09:15:26.858Z</time></trkpt><trkpt lat="42.1897517" lon="14.6463783"><ele>3.2857142857142856</ele><time>2026-04-10T09:15:28.857Z</time></trkpt><trkpt lat="42.1897367" lon="14.6464767"><ele>3.4285714285714284</ele><time>2026-04-10T09:15:30.857Z</time></trkpt><trkpt lat="42.1897233" lon="14.6465783"><ele>3.571428571428571</ele><time>2026-04-10T09:15:32.857Z</time></trkpt><trkpt lat="42.1897183" lon="14.6466817"><ele>3.714285714285714</ele><time>2026-04-10T09:15:34.858Z</time></trkpt><trkpt lat="42.189715" lon="14.646775"><ele>3.8571428571428568</ele><time>2026-04-10T09:15:36.858Z</time></trkpt><trkpt lat="42.1897117" lon="14.6468717"><ele>4.0</ele><time>2026-04-10T09:15:38.858Z</time></trkpt><trkpt lat="42.1897017" lon="14.64697"><ele>3.9999999999999996</ele><time>2026-04-10T09:15:40.858Z</time></trkpt><trkpt lat="42.1896933" lon="14.6470717"><ele>4.0</ele><time>2026-04-10T09:15:42.858Z</time></trkpt><trkpt lat="42.18969" lon="14.6471733"><ele>4.0</ele><time>2026-04-10T09:15:44.858Z</time></trkpt><trkpt lat="42.18969" lon="14.6472767"><ele>4.0</ele><time>2026-04-10T09:15:46.858Z</time></trkpt><trkpt lat="42.1896933" lon="14.6473933"><ele>3.9999999999999996</ele><time>2026-04-10T09:15:48.858Z</time></trkpt><trkpt lat="42.1896917" lon="14.6474917"><ele>4.0</ele><time>2026-04-10T09:15:50.858Z</time></trkpt><trkpt lat="42.189685" lon="14.6475883"><ele>4.0</ele><time>2026-04-10T09:15:52.858Z</time></trkpt><trkpt lat="42.1896783" lon="14.6476833"><ele>3.9999999999999996</ele><time>2026-04-10T09:15:54.857Z</time></trkpt><trkpt lat="42.1896783" lon="14.6477867"><ele>4.0</ele><time>2026-04-10T09:15:56.858Z</time></trkpt><trkpt lat="42.1896817" lon="14.64789"><ele>4.0</ele><time>2026-04-10T09:15:58.858Z</time></trkpt><trkpt lat="42.1896883" lon="14.6479917"><ele>3.9999999999999996</ele><time>2026-04-10T09:16:00.858Z</time></trkpt><trkpt lat="42.1897" lon="14.6480883"><ele>4.0</ele><time>2026-04-10T09:16:02.858Z</time></trkpt><trkpt lat="42.189705" lon="14.64819"><ele>4.0</ele><time>2026-04-10T09:16:04.858Z</time></trkpt><trkpt lat="42.1897" lon="14.6483017"><ele>4.5</ele><time>2026-04-10T09:16:06.858Z</time></trkpt><trkpt lat="42.1896967" lon="14.6484033"><ele>5.0</ele><time>2026-04-10T09:16:08.858Z</time></trkpt><trkpt lat="42.18969" lon="14.6485033"><ele>5.5</ele><time>2026-04-10T09:16:10.857Z</time></trkpt><trkpt lat="42.1896833" lon="14.6486017"><ele>6.0</ele><time>2026-04-10T09:16:12.858Z</time></trkpt><trkpt lat="42.1896783" lon="14.6487033"><ele>6.500000000000001</ele><time>2026-04-10T09:16:14.858Z</time></trkpt><trkpt lat="42.1896733" lon="14.6488117"><ele>7.0</ele><time>2026-04-10T09:16:16.858Z</time></trkpt><trkpt lat="42.1896667" lon="14.6489167"><ele>7.571428571428571</ele><time>2026-04-10T09:16:18.857Z</time></trkpt><trkpt lat="42.1896617" lon="14.649025"><ele>8.142857142857142</ele><time>2026-04-10T09:16:20.857Z</time></trkpt><trkpt lat="42.1896567" lon="14.64914"><ele>8.714285714285715</ele><time>2026-04-10T09:16:22.857Z</time></trkpt><trkpt lat="42.1896533" lon="14.6492433"><ele>9.285714285714285</ele><time>2026-04-10T09:16:24.857Z</time></trkpt><trkpt lat="42.18965" lon="14.64934"><ele>9.857142857142858</ele><time>2026-04-10T09:16:26.858Z</time></trkpt><trkpt lat="42.1896433" lon="14.64943"><ele>10.428571428571429</ele><time>2026-04-10T09:16:28.857Z</time></trkpt><trkpt lat="42.18961" lon="14.6495033"><ele>11.0</ele><time>2026-04-10T09:16:30.858Z</time></trkpt><trkpt lat="42.1895517" lon="14.6495633"><ele>12.571428571428571</ele><time>2026-04-10T09:16:32.858Z</time></trkpt><trkpt lat="42.1894917" lon="14.649595"><ele>14.142857142857142</ele><time>2026-04-10T09:16:34.858Z</time></trkpt><trkpt lat="42.18942" lon="14.6496533"><ele>15.714285714285715</ele><time>2026-04-10T09:16:37.857Z</time></trkpt><trkpt lat="42.1893617" lon="14.64972"><ele>17.285714285714285</ele><time>2026-04-10T09:16:40.857Z</time></trkpt><trkpt lat="42.1893367" lon="14.6498133"><ele>18.857142857142858</ele><time>2026-04-10T09:16:43.858Z</time></trkpt><trkpt lat="42.1893367" lon="14.6499217"><ele>20.42857142857143</ele><time>2026-04-10T09:16:46.858Z</time></trkpt><trkpt lat="42.1893117" lon="14.6500083"><ele>22.0</ele><time>2026-04-10T09:16:50.858Z</time></trkpt><trkpt lat="42.189265" lon="14.650075"><ele>22.0</ele><time>2026-04-10T09:16:55.858Z</time></trkpt><trkpt lat="42.189245" lon="14.6501667"><ele>22.0</ele><time>2026-04-10T09:17:00.858Z</time></trkpt><trkpt lat="42.189215" lon="14.6502517"><ele>22.0</ele><time>2026-04-10T09:17:04.858Z</time></trkpt><trkpt lat="42.1891833" lon="14.65035"><ele>22.0</ele><time>2026-04-10T09:17:08.857Z</time></trkpt><trkpt lat="42.1891467" lon="14.65045"><ele>22.0</ele><time>2026-04-10T09:17:11.857Z</time></trkpt><trkpt lat="42.1891117" lon="14.6505533"><ele>22.0</ele><time>2026-04-10T09:17:14.857Z</time></trkpt><trkpt lat="42.1890833" lon="14.65065"><ele>23.0</ele><time>2026-04-10T09:17:18.857Z</time></trkpt><trkpt lat="42.18906" lon="14.6507433"><ele>24.0</ele><time>2026-04-10T09:17:21.858Z</time></trkpt><trkpt lat="42.189035" lon="14.6508333"><ele>25.0</ele><time>2026-04-10T09:17:23.858Z</time></trkpt><trkpt lat="42.1889917" lon="14.6509433"><ele>26.0</ele><time>2026-04-10T09:17:26.857Z</time></trkpt><trkpt lat="42.18896" lon="14.65102"><ele>27.000000000000004</ele><time>2026-04-10T09:17:28.858Z</time></trkpt><trkpt lat="42.188915" lon="14.6510967"><ele>28.0</ele><time>2026-04-10T09:17:31.857Z</time></trkpt><trkpt lat="42.1888767" lon="14.6511867"><ele>31.333333333333336</ele><time>2026-04-10T09:17:34.858Z</time></trkpt><trkpt lat="42.1888267" lon="14.6512883"><ele>34.66666666666667</ele><time>2026-04-10T09:17:37.858Z</time></trkpt><trkpt lat="42.1888" lon="14.6513683"><ele>38.0</ele><time>2026-04-10T09:17:39.858Z</time></trkpt><trkpt lat="42.1887817" lon="14.6514917"><ele>41.333333333333336</ele><time>2026-04-10T09:17:42.857Z</time></trkpt><trkpt lat="42.188775" lon="14.6515933"><ele>44.666666666666664</ele><time>2026-04-10T09:17:44.858Z</time></trkpt><trkpt lat="42.188755" lon="14.651695"><ele>48.0</ele><time>2026-04-10T09:17:46.858Z</time></trkpt><trkpt lat="42.1887383" lon="14.6518117"><ele>48.0</ele><time>2026-04-10T09:17:49.858Z</time></trkpt><trkpt lat="42.188715" lon="14.651915"><ele>48.0</ele><time>2026-04-10T09:17:51.858Z</time></trkpt><trkpt lat="42.1886983" lon="14.6520167"><ele>48.0</ele><time>2026-04-10T09:17:53.857Z</time></trkpt><trkpt lat="42.1886683" lon="14.652145"><ele>48.0</ele><time>2026-04-10T09:17:55.858Z</time></trkpt><trkpt lat="42.1886467" lon="14.652255"><ele>48.0</ele><time>2026-04-10T09:17:57.858Z</time></trkpt><trkpt lat="42.1886067" lon="14.6523683"><ele>48.0</ele><time>2026-04-10T09:17:59.858Z</time></trkpt><trkpt lat="42.188565" lon="14.65247"><ele>47.166666666666664</ele><time>2026-04-10T09:18:01.857Z</time></trkpt><trkpt lat="42.1885283" lon="14.6525733"><ele>46.333333333333336</ele><time>2026-04-10T09:18:03.858Z</time></trkpt><trkpt lat="42.1884917" lon="14.6526917"><ele>45.5</ele><time>2026-04-10T09:18:06.858Z</time></trkpt><trkpt lat="42.1884717" lon="14.6527833"><ele>44.66666666666667</ele><time>2026-04-10T09:18:08.857Z</time></trkpt><trkpt lat="42.1884217" lon="14.6528533"><ele>43.833333333333336</ele><time>2026-04-10T09:18:10.858Z</time></trkpt><trkpt lat="42.1883633" lon="14.6529283"><ele>43.0</ele><time>2026-04-10T09:18:13.858Z</time></trkpt><trkpt lat="42.188305" lon="14.6529783"><ele>44.00000000000001</ele><time>2026-04-10T09:18:15.857Z</time></trkpt><trkpt lat="42.188235" lon="14.653055"><ele>45.0</ele><time>2026-04-10T09:18:18.858Z</time></trkpt><trkpt lat="42.1881933" lon="14.653125"><ele>46.0</ele><time>2026-04-10T09:18:21.857Z</time></trkpt><trkpt lat="42.1881467" lon="14.65319"><ele>47.0</ele><time>2026-04-10T09:18:23.857Z</time></trkpt><trkpt lat="42.188105" lon="14.6532917"><ele>48.0</ele><time>2026-04-10T09:18:26.858Z</time></trkpt><trkpt lat="42.1880733" lon="14.6533667"><ele>49.00000000000001</ele><time>2026-04-10T09:18:28.858Z</time></trkpt><trkpt lat="42.1880233" lon="14.65343"><ele>50.0</ele><time>2026-04-10T09:18:31.857Z</time></trkpt><trkpt lat="42.1879567" lon="14.6534983"><ele>50.00000000000001</ele><time>2026-04-10T09:18:34.857Z</time></trkpt><trkpt lat="42.187875" lon="14.65354"><ele>50.0</ele><time>2026-04-10T09:18:36.858Z</time></trkpt><trkpt lat="42.1878183" lon="14.6535833"><ele>50.0</ele><time>2026-04-10T09:18:38.857Z</time></trkpt><trkpt lat="42.187755" lon="14.6536417"><ele>50.0</ele><time>2026-04-10T09:18:40.858Z</time></trkpt><trkpt lat="42.1876917" lon="14.653735"><ele>50.00000000000001</ele><time>2026-04-10T09:18:42.857Z</time></trkpt><trkpt lat="42.1876483" lon="14.65381"><ele>50.0</ele><time>2026-04-10T09:18:44.858Z</time></trkpt><trkpt lat="42.1876" lon="14.6538733"><ele>50.42857142857143</ele><time>2026-04-10T09:18:46.858Z</time></trkpt><trkpt lat="42.1875383" lon="14.6539333"><ele>50.85714285714286</ele><time>2026-04-10T09:18:48.858Z</time></trkpt><trkpt lat="42.1874833" lon="14.6540067"><ele>51.28571428571429</ele><time>2026-04-10T09:18:50.857Z</time></trkpt><trkpt lat="42.18744" lon="14.654075"><ele>51.714285714285715</ele><time>2026-04-10T09:18:52.858Z</time></trkpt><trkpt lat="42.1874" lon="14.6541467"><ele>52.14285714285714</ele><time>2026-04-10T09:18:54.858Z</time></trkpt><trkpt lat="42.18737" lon="14.6542367"><ele>52.57142857142858</ele><time>2026-04-10T09:18:56.858Z</time></trkpt><trkpt lat="42.1873367" lon="14.6543367"><ele>53.0</ele><time>2026-04-10T09:18:58.857Z</time></trkpt><trkpt lat="42.187295" lon="14.6544417"><ele>52.66666666666667</ele><time>2026-04-10T09:19:00.858Z</time></trkpt><trkpt lat="42.1872517" lon="14.6545317"><ele>52.333333333333336</ele><time>2026-04-10T09:19:02.858Z</time></trkpt><trkpt lat="42.18721" lon="14.65462"><ele>52.0</ele><time>2026-04-10T09:19:04.858Z</time></trkpt><trkpt lat="42.187165" lon="14.6547033"><ele>51.66666666666667</ele><time>2026-04-10T09:19:06.858Z</time></trkpt><trkpt lat="42.1871017" lon="14.6547817"><ele>51.333333333333336</ele><time>2026-04-10T09:19:08.857Z</time></trkpt><trkpt lat="42.1870233" lon="14.654835"><ele>51.0</ele><time>2026-04-10T09:19:10.858Z</time></trkpt><trkpt lat="42.1869417" lon="14.65485"><ele>51.0</ele><time>2026-04-10T09:19:12.858Z</time></trkpt><trkpt lat="42.1868633" lon="14.6548483"><ele>51.0</ele><time>2026-04-10T09:19:14.858Z</time></trkpt><trkpt lat="42.1867933" lon="14.65483"><ele>51.0</ele><time>2026-04-10T09:19:16.858Z</time></trkpt><trkpt lat="42.1867317" lon="14.6547417"><ele>51.0</ele><time>2026-04-10T09:19:19.858Z</time></trkpt><trkpt lat="42.186685" lon="14.65464"><ele>51.0</ele><time>2026-04-10T09:19:22.858Z</time></trkpt><trkpt lat="42.186635" lon="14.6545283"><ele>51.0</ele><time>2026-04-10T09:19:25.857Z</time></trkpt><trkpt lat="42.1865983" lon="14.6544533"><ele>51.285714285714285</ele><time>2026-04-10T09:19:27.858Z</time></trkpt><trkpt lat="42.1865633" lon="14.654375"><ele>51.57142857142857</ele><time>2026-04-10T09:19:29.857Z</time></trkpt><trkpt lat="42.1865233" lon="14.654295"><ele>51.85714285714286</ele><time>2026-04-10T09:19:31.858Z</time></trkpt><trkpt lat="42.1864867" lon="14.654215"><ele>52.14285714285714</ele><time>2026-04-10T09:19:33.858Z</time></trkpt><trkpt lat="42.186445" lon="14.6541283"><ele>52.42857142857142</ele><time>2026-04-10T09:19:35.857Z</time></trkpt><trkpt lat="42.1864017" lon="14.6540417"><ele>52.714285714285715</ele><time>2026-04-10T09:19:37.858Z</time></trkpt><trkpt lat="42.1863617" lon="14.6539533"><ele>53.0</ele><time>2026-04-10T09:19:39.858Z</time></trkpt><trkpt lat="42.1863267" lon="14.65387"><ele>53.0</ele><time>2026-04-10T09:19:41.858Z</time></trkpt><trkpt lat="42.1862917" lon="14.6537883"><ele>53.0</ele><time>2026-04-10T09:19:43.857Z</time></trkpt><trkpt lat="42.1862583" lon="14.6537033"><ele>53.0</ele><time>2026-04-10T09:19:45.857Z</time></trkpt><trkpt lat="42.186225" lon="14.6536183"><ele>53.0</ele><time>2026-04-10T09:19:47.858Z</time></trkpt><trkpt lat="42.1861933" lon="14.6535333"><ele>53.0</ele><time>2026-04-10T09:19:49.857Z</time></trkpt><trkpt lat="42.18616" lon="14.6534433"><ele>53.0</ele><time>2026-04-10T09:19:51.857Z</time></trkpt><trkpt lat="42.1861333" lon="14.65335"><ele>53.0</ele><time>2026-04-10T09:19:53.857Z</time></trkpt><trkpt lat="42.1861083" lon="14.65326"><ele>53.142857142857146</ele><time>2026-04-10T09:19:55.857Z</time></trkpt><trkpt lat="42.18608" lon="14.653175"><ele>53.285714285714285</ele><time>2026-04-10T09:19:57.858Z</time></trkpt><trkpt lat="42.1860367" lon="14.65311"><ele>53.42857142857143</ele><time>2026-04-10T09:19:59.858Z</time></trkpt><trkpt lat="42.1859717" lon="14.653125"><ele>53.57142857142857</ele><time>2026-04-10T09:20:02.857Z</time></trkpt><trkpt lat="42.185915" lon="14.6532067"><ele>53.71428571428571</ele><time>2026-04-10T09:20:05.858Z</time></trkpt><trkpt lat="42.1858583" lon="14.6532883"><ele>53.857142857142854</ele><time>2026-04-10T09:20:08.858Z</time></trkpt><trkpt lat="42.1858117" lon="14.653355"><ele>54.0</ele><time>2026-04-10T09:20:10.857Z</time></trkpt><trkpt lat="42.1857583" lon="14.6534167"><ele>54.0</ele><time>2026-04-10T09:20:12.857Z</time></trkpt><trkpt lat="42.1856967" lon="14.653475"><ele>54.0</ele><time>2026-04-10T09:20:14.857Z</time></trkpt><trkpt lat="42.1856317" lon="14.6535183"><ele>54.0</ele><time>2026-04-10T09:20:16.858Z</time></trkpt><trkpt lat="42.1855667" lon="14.6535733"><ele>54.0</ele><time>2026-04-10T09:20:18.858Z</time></trkpt><trkpt lat="42.1855" lon="14.6536233"><ele>54.0</ele><time>2026-04-10T09:20:20.858Z</time></trkpt><trkpt lat="42.1854367" lon="14.6536683"><ele>54.0</ele><time>2026-04-10T09:20:22.858Z</time></trkpt><trkpt lat="42.1853733" lon="14.6537183"><ele>54.0</ele><time>2026-04-10T09:20:24.857Z</time></trkpt><trkpt lat="42.185315" lon="14.65377"><ele>53.857142857142854</ele><time>2026-04-10T09:20:26.857Z</time></trkpt><trkpt lat="42.1852467" lon="14.6538167"><ele>53.71428571428571</ele><time>2026-04-10T09:20:28.857Z</time></trkpt><trkpt lat="42.1851783" lon="14.65387"><ele>53.57142857142857</ele><time>2026-04-10T09:20:30.857Z</time></trkpt><trkpt lat="42.1851167" lon="14.6539233"><ele>53.42857142857143</ele><time>2026-04-10T09:20:32.858Z</time></trkpt><trkpt lat="42.1850617" lon="14.6539683"><ele>53.285714285714285</ele><time>2026-04-10T09:20:34.857Z</time></trkpt><trkpt lat="42.1850033" lon="14.6540133"><ele>53.142857142857146</ele><time>2026-04-10T09:20:36.857Z</time></trkpt><trkpt lat="42.1849483" lon="14.6540633"><ele>53.0</ele><time>2026-04-10T09:20:38.857Z</time></trkpt><trkpt lat="42.184885" lon="14.6541083"><ele>53.142857142857146</ele><time>2026-04-10T09:20:40.857Z</time></trkpt><trkpt lat="42.1848233" lon="14.6541533"><ele>53.285714285714285</ele><time>2026-04-10T09:20:42.857Z</time></trkpt><trkpt lat="42.1847583" lon="14.65421"><ele>53.42857142857143</ele><time>2026-04-10T09:20:44.858Z</time></trkpt><trkpt lat="42.184695" lon="14.6542617"><ele>53.57142857142857</ele><time>2026-04-10T09:20:46.857Z</time></trkpt><trkpt lat="42.1846333" lon="14.65432"><ele>53.71428571428571</ele><time>2026-04-10T09:20:48.857Z</time></trkpt><trkpt lat="42.1845717" lon="14.654375"><ele>53.857142857142854</ele><time>2026-04-10T09:20:50.858Z</time></trkpt><trkpt lat="42.18451" lon="14.6544267"><ele>54.0</ele><time>2026-04-10T09:20:52.857Z</time></trkpt><trkpt lat="42.1844483" lon="14.6544717"><ele>54.0</ele><time>2026-04-10T09:20:54.858Z</time></trkpt><trkpt lat="42.1843667" lon="14.654535"><ele>54.0</ele><time>2026-04-10T09:20:57.857Z</time></trkpt><trkpt lat="42.1842917" lon="14.6545917"><ele>54.0</ele><time>2026-04-10T09:21:00.857Z</time></trkpt><trkpt lat="42.1842333" lon="14.6546383"><ele>54.0</ele><time>2026-04-10T09:21:02.858Z</time></trkpt><trkpt lat="42.18418" lon="14.6546917"><ele>54.0</ele><time>2026-04-10T09:21:04.857Z</time></trkpt><trkpt lat="42.1841" lon="14.65476"><ele>54.0</ele><time>2026-04-10T09:21:07.858Z</time></trkpt><trkpt lat="42.184045" lon="14.6548017"><ele>53.857142857142854</ele><time>2026-04-10T09:21:09.858Z</time></trkpt><trkpt lat="42.1839867" lon="14.65485"><ele>53.71428571428571</ele><time>2026-04-10T09:21:11.858Z</time></trkpt><trkpt lat="42.183935" lon="14.6549"><ele>53.57142857142857</ele><time>2026-04-10T09:21:13.858Z</time></trkpt><trkpt lat="42.1838767" lon="14.6549517"><ele>53.42857142857143</ele><time>2026-04-10T09:21:15.858Z</time></trkpt><trkpt lat="42.1838083" lon="14.655"><ele>53.285714285714285</ele><time>2026-04-10T09:21:17.857Z</time></trkpt><trkpt lat="42.18374" lon="14.6550483"><ele>53.142857142857146</ele><time>2026-04-10T09:21:19.858Z</time></trkpt><trkpt lat="42.1836733" lon="14.6551067"><ele>53.0</ele><time>2026-04-10T09:21:21.857Z</time></trkpt><trkpt lat="42.1836033" lon="14.655155"><ele>53.0</ele><time>2026-04-10T09:21:23.858Z</time></trkpt><trkpt lat="42.1835383" lon="14.6552117"><ele>53.0</ele><time>2026-04-10T09:21:25.858Z</time></trkpt><trkpt lat="42.183475" lon="14.6552717"><ele>53.0</ele><time>2026-04-10T09:21:27.858Z</time></trkpt><trkpt lat="42.183415" lon="14.65532"><ele>53.0</ele><time>2026-04-10T09:21:29.858Z</time></trkpt><trkpt lat="42.1833583" lon="14.655365"><ele>53.0</ele><time>2026-04-10T09:21:31.858Z</time></trkpt><trkpt lat="42.1832983" lon="14.6554133"><ele>53.0</ele><time>2026-04-10T09:21:33.858Z</time></trkpt><trkpt lat="42.1832383" lon="14.6554633"><ele>53.0</ele><time>2026-04-10T09:21:35.858Z</time></trkpt><trkpt lat="42.1831717" lon="14.6555133"><ele>53.142857142857146</ele><time>2026-04-10T09:21:37.858Z</time></trkpt><trkpt lat="42.18311" lon="14.655565"><ele>53.285714285714285</ele><time>2026-04-10T09:21:39.858Z</time></trkpt><trkpt lat="42.18305" lon="14.65562"><ele>53.42857142857143</ele><time>2026-04-10T09:21:41.858Z</time></trkpt><trkpt lat="42.1829883" lon="14.6556667"><ele>53.57142857142857</ele><time>2026-04-10T09:21:43.858Z</time></trkpt><trkpt lat="42.1829217" lon="14.65571"><ele>53.71428571428571</ele><time>2026-04-10T09:21:45.857Z</time></trkpt><trkpt lat="42.1828583" lon="14.65577"><ele>53.857142857142854</ele><time>2026-04-10T09:21:47.858Z</time></trkpt><trkpt lat="42.1827867" lon="14.6558217"><ele>54.0</ele><time>2026-04-10T09:21:49.857Z</time></trkpt><trkpt lat="42.1827183" lon="14.6558733"><ele>54.0</ele><time>2026-04-10T09:21:51.858Z</time></trkpt><trkpt lat="42.1826483" lon="14.6559383"><ele>54.0</ele><time>2026-04-10T09:21:53.858Z</time></trkpt><trkpt lat="42.1825783" lon="14.6560067"><ele>54.0</ele><time>2026-04-10T09:21:55.857Z</time></trkpt><trkpt lat="42.1825133" lon="14.656075"><ele>54.0</ele><time>2026-04-10T09:21:57.858Z</time></trkpt><trkpt lat="42.18245" lon="14.6561467"><ele>54.0</ele><time>2026-04-10T09:21:59.857Z</time></trkpt><trkpt lat="42.1823867" lon="14.6562117"><ele>54.0</ele><time>2026-04-10T09:22:01.857Z</time></trkpt><trkpt lat="42.1823233" lon="14.6562733"><ele>54.166666666666664</ele><time>2026-04-10T09:22:03.858Z</time></trkpt><trkpt lat="42.1822617" lon="14.6563417"><ele>54.33333333333333</ele><time>2026-04-10T09:22:05.858Z</time></trkpt><trkpt lat="42.1821983" lon="14.6564083"><ele>54.5</ele><time>2026-04-10T09:22:07.858Z</time></trkpt><trkpt lat="42.1821317" lon="14.6564783"><ele>54.666666666666664</ele><time>2026-04-10T09:22:09.857Z</time></trkpt><trkpt lat="42.1820633" lon="14.6565533"><ele>54.83333333333333</ele><time>2026-04-10T09:22:11.857Z</time></trkpt><trkpt lat="42.182" lon="14.6566217"><ele>55.0</ele><time>2026-04-10T09:22:13.858Z</time></trkpt><trkpt lat="42.1819367" lon="14.65669"><ele>54.99999999999999</ele><time>2026-04-10T09:22:15.858Z</time></trkpt><trkpt lat="42.1818683" lon="14.65676"><ele>55.0</ele><time>2026-04-10T09:22:17.858Z</time></trkpt><trkpt lat="42.1818033" lon="14.65683"><ele>55.0</ele><time>2026-04-10T09:22:19.858Z</time></trkpt><trkpt lat="42.1817383" lon="14.6569"><ele>55.0</ele><time>2026-04-10T09:22:21.858Z</time></trkpt><trkpt lat="42.18167" lon="14.656975"><ele>54.99999999999999</ele><time>2026-04-10T09:22:23.858Z</time></trkpt><trkpt lat="42.1816017" lon="14.6570483"><ele>55.0</ele><time>2026-04-10T09:22:25.858Z</time></trkpt><trkpt lat="42.1815383" lon="14.65712"><ele>54.99999999999999</ele><time>2026-04-10T09:22:27.858Z</time></trkpt><trkpt lat="42.181475" lon="14.6571917"><ele>55.0</ele><time>2026-04-10T09:22:29.857Z</time></trkpt><trkpt lat="42.1814033" lon="14.6572717"><ele>55.0</ele><time>2026-04-10T09:22:31.858Z</time></trkpt><trkpt lat="42.181335" lon="14.6573483"><ele>55.0</ele><time>2026-04-10T09:22:33.858Z</time></trkpt><trkpt lat="42.181265" lon="14.6574233"><ele>54.99999999999999</ele><time>2026-04-10T09:22:35.858Z</time></trkpt><trkpt lat="42.1811967" lon="14.6574983"><ele>55.0</ele><time>2026-04-10T09:22:37.857Z</time></trkpt><trkpt lat="42.1811233" lon="14.6575767"><ele>55.0</ele><time>2026-04-10T09:22:39.858Z</time></trkpt><trkpt lat="42.18105" lon="14.65765"><ele>55.0</ele><time>2026-04-10T09:22:41.858Z</time></trkpt><trkpt lat="42.18098" lon="14.6577267"><ele>55.0</ele><time>2026-04-10T09:22:43.858Z</time></trkpt><trkpt lat="42.1809083" lon="14.657795"><ele>55.0</ele><time>2026-04-10T09:22:45.858Z</time></trkpt><trkpt lat="42.1808333" lon="14.65786"><ele>55.0</ele><time>2026-04-10T09:22:47.857Z</time></trkpt><trkpt lat="42.1807483" lon="14.6579217"><ele>54.8</ele><time>2026-04-10T09:22:49.857Z</time></trkpt><trkpt lat="42.180665" lon="14.6579817"><ele>54.6</ele><time>2026-04-10T09:22:51.858Z</time></trkpt><trkpt lat="42.18058" lon="14.6580467"><ele>54.400000000000006</ele><time>2026-04-10T09:22:53.858Z</time></trkpt><trkpt lat="42.1804967" lon="14.658115"><ele>54.2</ele><time>2026-04-10T09:22:55.858Z</time></trkpt><trkpt lat="42.1804183" lon="14.6581917"><ele>54.0</ele><time>2026-04-10T09:22:57.858Z</time></trkpt><trkpt lat="42.1803467" lon="14.6582783"><ele>54.0</ele><time>2026-04-10T09:22:59.857Z</time></trkpt><trkpt lat="42.18027" lon="14.6583783"><ele>54.00000000000001</ele><time>2026-04-10T09:23:01.858Z</time></trkpt><trkpt lat="42.180205" lon="14.6584817"><ele>54.00000000000001</ele><time>2026-04-10T09:23:03.857Z</time></trkpt><trkpt lat="42.180145" lon="14.6585917"><ele>54.0</ele><time>2026-04-10T09:23:05.857Z</time></trkpt><trkpt lat="42.1800833" lon="14.6587"><ele>54.0</ele><time>2026-04-10T09:23:07.858Z</time></trkpt><trkpt lat="42.1800233" lon="14.65881"><ele>53.800000000000004</ele><time>2026-04-10T09:23:09.858Z</time></trkpt><trkpt lat="42.1799633" lon="14.6589183"><ele>53.60000000000001</ele><time>2026-04-10T09:23:11.858Z</time></trkpt><trkpt lat="42.1799" lon="14.6590283"><ele>53.4</ele><time>2026-04-10T09:23:13.857Z</time></trkpt><trkpt lat="42.1798433" lon="14.65913"><ele>53.2</ele><time>2026-04-10T09:23:15.858Z</time></trkpt><trkpt lat="42.1797833" lon="14.6592383"><ele>53.0</ele><time>2026-04-10T09:23:17.857Z</time></trkpt><trkpt lat="42.1797233" lon="14.6593433"><ele>52.8</ele><time>2026-04-10T09:23:19.857Z</time></trkpt><trkpt lat="42.1796667" lon="14.65945"><ele>52.599999999999994</ele><time>2026-04-10T09:23:21.858Z</time></trkpt><trkpt lat="42.1796083" lon="14.6595583"><ele>52.400000000000006</ele><time>2026-04-10T09:23:23.858Z</time></trkpt><trkpt lat="42.1795483" lon="14.6596617"><ele>52.2</ele><time>2026-04-10T09:23:25.858Z</time></trkpt><trkpt lat="42.179485" lon="14.6597633"><ele>52.0</ele><time>2026-04-10T09:23:27.857Z</time></trkpt><trkpt lat="42.1794267" lon="14.6598633"><ele>51.6</ele><time>2026-04-10T09:23:29.857Z</time></trkpt><trkpt lat="42.17937" lon="14.6599767"><ele>51.2</ele><time>2026-04-10T09:23:31.858Z</time></trkpt><trkpt lat="42.1793067" lon="14.66008"><ele>50.8</ele><time>2026-04-10T09:23:33.857Z</time></trkpt><trkpt lat="42.1792433" lon="14.6601867"><ele>50.4</ele><time>2026-04-10T09:23:35.858Z</time></trkpt><trkpt lat="42.1791783" lon="14.660295"><ele>50.0</ele><time>2026-04-10T09:23:37.858Z</time></trkpt><trkpt lat="42.1791167" lon="14.6604067"><ele>50.0</ele><time>2026-04-10T09:23:39.857Z</time></trkpt><trkpt lat="42.1790567" lon="14.660515"><ele>50.0</ele><time>2026-04-10T09:23:41.857Z</time></trkpt><trkpt lat="42.1789983" lon="14.6606233"><ele>50.0</ele><time>2026-04-10T09:23:43.858Z</time></trkpt><trkpt lat="42.1789417" lon="14.660735"><ele>50.0</ele><time>2026-04-10T09:23:45.858Z</time></trkpt><trkpt lat="42.178895" lon="14.66085"><ele>50.0</ele><time>2026-04-10T09:23:47.858Z</time></trkpt><trkpt lat="42.1788533" lon="14.6609667"><ele>50.0</ele><time>2026-04-10T09:23:49.858Z</time></trkpt><trkpt lat="42.17882" lon="14.66109"><ele>50.0</ele><time>2026-04-10T09:23:51.858Z</time></trkpt><trkpt lat="42.1787983" lon="14.6612117"><ele>50.0</ele><time>2026-04-10T09:23:53.857Z</time></trkpt><trkpt lat="42.1787767" lon="14.661335"><ele>50.0</ele><time>2026-04-10T09:23:55.858Z</time></trkpt><trkpt lat="42.178755" lon="14.661455"><ele>50.0</ele><time>2026-04-10T09:23:57.858Z</time></trkpt><trkpt lat="42.178735" lon="14.6615733"><ele>50.2</ele><time>2026-04-10T09:23:59.858Z</time></trkpt><trkpt lat="42.178715" lon="14.6616883"><ele>50.4</ele><time>2026-04-10T09:24:01.858Z</time></trkpt><trkpt lat="42.1786917" lon="14.6618067"><ele>50.599999999999994</ele><time>2026-04-10T09:24:03.858Z</time></trkpt><trkpt lat="42.1786633" lon="14.6619283"><ele>50.8</ele><time>2026-04-10T09:24:05.858Z</time></trkpt><trkpt lat="42.1786483" lon="14.66206"><ele>51.0</ele><time>2026-04-10T09:24:07.858Z</time></trkpt><trkpt lat="42.1786317" lon="14.6621933"><ele>50.599999999999994</ele><time>2026-04-10T09:24:09.858Z</time></trkpt><trkpt lat="42.1786117" lon="14.6623267"><ele>50.2</ele><time>2026-04-10T09:24:11.857Z</time></trkpt><trkpt lat="42.17859" lon="14.6624417"><ele>49.8</ele><time>2026-04-10T09:24:13.858Z</time></trkpt><trkpt lat="42.1785633" lon="14.6625533"><ele>49.400000000000006</ele><time>2026-04-10T09:24:15.858Z</time></trkpt><trkpt lat="42.1785367" lon="14.6626633"><ele>49.0</ele><time>2026-04-10T09:24:17.857Z</time></trkpt><trkpt lat="42.1784983" lon="14.6627717"><ele>48.83333333333333</ele><time>2026-04-10T09:24:19.858Z</time></trkpt><trkpt lat="42.178455" lon="14.6628717"><ele>48.666666666666664</ele><time>2026-04-10T09:24:21.858Z</time></trkpt><trkpt lat="42.1784133" lon="14.662965"><ele>48.5</ele><time>2026-04-10T09:24:23.857Z</time></trkpt><trkpt lat="42.1783683" lon="14.66306"><ele>48.33333333333333</ele><time>2026-04-10T09:24:25.858Z</time></trkpt><trkpt lat="42.17832" lon="14.663155"><ele>48.166666666666664</ele><time>2026-04-10T09:24:27.858Z</time></trkpt><trkpt lat="42.17827" lon="14.6632433"><ele>48.0</ele><time>2026-04-10T09:24:29.858Z</time></trkpt><trkpt lat="42.1782217" lon="14.6633367"><ele>48.0</ele><time>2026-04-10T09:24:31.858Z</time></trkpt><trkpt lat="42.1781733" lon="14.6634367"><ele>48.0</ele><time>2026-04-10T09:24:33.857Z</time></trkpt><trkpt lat="42.1781267" lon="14.66353"><ele>48.0</ele><time>2026-04-10T09:24:35.858Z</time></trkpt><trkpt lat="42.178085" lon="14.6636217"><ele>48.0</ele><time>2026-04-10T09:24:37.858Z</time></trkpt><trkpt lat="42.1780317" lon="14.66371"><ele>48.0</ele><time>2026-04-10T09:24:39.857Z</time></trkpt><trkpt lat="42.1779833" lon="14.6638"><ele>48.0</ele><time>2026-04-10T09:24:41.858Z</time></trkpt><trkpt lat="42.1779433" lon="14.66389"><ele>48.0</ele><time>2026-04-10T09:24:43.857Z</time></trkpt><trkpt lat="42.1778917" lon="14.6639933"><ele>48.0</ele><time>2026-04-10T09:24:45.858Z</time></trkpt><trkpt lat="42.1778467" lon="14.6641017"><ele>48.0</ele><time>2026-04-10T09:24:47.858Z</time></trkpt><trkpt lat="42.177805" lon="14.6642033"><ele>48.0</ele><time>2026-04-10T09:24:49.858Z</time></trkpt><trkpt lat="42.1777717" lon="14.6643033"><ele>48.0</ele><time>2026-04-10T09:24:51.858Z</time></trkpt><trkpt lat="42.17773" lon="14.664395"><ele>48.0</ele><time>2026-04-10T09:24:53.857Z</time></trkpt><trkpt lat="42.1776683" lon="14.6644817"><ele>47.833333333333336</ele><time>2026-04-10T09:24:55.858Z</time></trkpt><trkpt lat="42.177605" lon="14.6645667"><ele>47.666666666666664</ele><time>2026-04-10T09:24:57.858Z</time></trkpt><trkpt lat="42.1775517" lon="14.6646567"><ele>47.5</ele><time>2026-04-10T09:24:59.857Z</time></trkpt><trkpt lat="42.1774883" lon="14.6647333"><ele>47.33333333333333</ele><time>2026-04-10T09:25:01.858Z</time></trkpt><trkpt lat="42.177425" lon="14.6648117"><ele>47.166666666666664</ele><time>2026-04-10T09:25:03.857Z</time></trkpt><trkpt lat="42.1773733" lon="14.664875"><ele>47.0</ele><time>2026-04-10T09:25:05.857Z</time></trkpt><trkpt lat="42.177325" lon="14.664935"><ele>47.33333333333333</ele><time>2026-04-10T09:25:07.858Z</time></trkpt><trkpt lat="42.1772683" lon="14.664995"><ele>47.666666666666664</ele><time>2026-04-10T09:25:09.857Z</time></trkpt><trkpt lat="42.1772133" lon="14.665045"><ele>48.0</ele><time>2026-04-10T09:25:11.858Z</time></trkpt><trkpt lat="42.17714" lon="14.6651317"><ele>48.33333333333333</ele><time>2026-04-10T09:25:14.858Z</time></trkpt><trkpt lat="42.177075" lon="14.66519"><ele>48.666666666666664</ele><time>2026-04-10T09:25:16.857Z</time></trkpt><trkpt lat="42.17702" lon="14.6652467"><ele>49.0</ele><time>2026-04-10T09:25:18.858Z</time></trkpt><trkpt lat="42.17695" lon="14.6653117"><ele>49.0</ele><time>2026-04-10T09:25:20.858Z</time></trkpt><trkpt lat="42.1768833" lon="14.6653933"><ele>49.0</ele><time>2026-04-10T09:25:22.858Z</time></trkpt><trkpt lat="42.1768" lon="14.6654867"><ele>49.0</ele><time>2026-04-10T09:25:24.857Z</time></trkpt><trkpt lat="42.1767283" lon="14.6655633"><ele>49.0</ele><time>2026-04-10T09:25:26.858Z</time></trkpt><trkpt lat="42.1766567" lon="14.6656467"><ele>49.0</ele><time>2026-04-10T09:25:28.857Z</time></trkpt><trkpt lat="42.1765933" lon="14.6657267"><ele>48.99999999999999</ele><time>2026-04-10T09:25:30.858Z</time></trkpt><trkpt lat="42.1765283" lon="14.66581"><ele>49.0</ele><time>2026-04-10T09:25:32.858Z</time></trkpt><trkpt lat="42.1764583" lon="14.6658933"><ele>49.0</ele><time>2026-04-10T09:25:34.858Z</time></trkpt><trkpt lat="42.17639" lon="14.665965"><ele>49.0</ele><time>2026-04-10T09:25:36.857Z</time></trkpt><trkpt lat="42.17632" lon="14.666035"><ele>48.99999999999999</ele><time>2026-04-10T09:25:38.857Z</time></trkpt><trkpt lat="42.17625" lon="14.666095"><ele>49.0</ele><time>2026-04-10T09:25:40.857Z</time></trkpt><trkpt lat="42.1761883" lon="14.6661433"><ele>48.49999999999999</ele><time>2026-04-10T09:25:42.857Z</time></trkpt><trkpt lat="42.1761333" lon="14.666185"><ele>48.0</ele><time>2026-04-10T09:25:46.857Z</time></trkpt><trkpt lat="42.17607" lon="14.6662283"><ele>47.5</ele><time>2026-04-10T09:25:50.858Z</time></trkpt><trkpt lat="42.1760017" lon="14.66628"><ele>47.0</ele><time>2026-04-10T09:25:53.857Z</time></trkpt><trkpt lat="42.17592" lon="14.6663383"><ele>46.5</ele><time>2026-04-10T09:25:56.858Z</time></trkpt><trkpt lat="42.1758417" lon="14.6663867"><ele>46.0</ele><time>2026-04-10T09:25:58.858Z</time></trkpt><trkpt lat="42.1757517" lon="14.6664483"><ele>45.5</ele><time>2026-04-10T09:26:00.858Z</time></trkpt><trkpt lat="42.17566" lon="14.666515"><ele>45.0</ele><time>2026-04-10T09:26:02.857Z</time></trkpt><trkpt lat="42.1755583" lon="14.6666117"><ele>44.5</ele><time>2026-04-10T09:26:04.858Z</time></trkpt><trkpt lat="42.1755033" lon="14.6666617"><ele>44.0</ele><time>2026-04-10T09:26:05.858Z</time></trkpt><trkpt lat="42.1754467" lon="14.6667167"><ele>43.5</ele><time>2026-04-10T09:26:06.858Z</time></trkpt><trkpt lat="42.175395" lon="14.666775"><ele>43.0</ele><time>2026-04-10T09:26:07.858Z</time></trkpt><trkpt lat="42.1753417" lon="14.6668383"><ele>43.0</ele><time>2026-04-10T09:26:08.858Z</time></trkpt><trkpt lat="42.1752883" lon="14.6669017"><ele>43.0</ele><time>2026-04-10T09:26:09.858Z</time></trkpt><trkpt lat="42.17523" lon="14.6669667"><ele>43.0</ele><time>2026-04-10T09:26:10.857Z</time></trkpt><trkpt lat="42.17517" lon="14.667035"><ele>43.0</ele><time>2026-04-10T09:26:11.857Z</time></trkpt><trkpt lat="42.17511" lon="14.667095"><ele>43.0</ele><time>2026-04-10T09:26:12.858Z</time></trkpt><trkpt lat="42.1750483" lon="14.66716"><ele>43.0</ele><time>2026-04-10T09:26:13.858Z</time></trkpt><trkpt lat="42.174985" lon="14.6672267"><ele>42.66666666666667</ele><time>2026-04-10T09:26:14.857Z</time></trkpt><trkpt lat="42.1749283" lon="14.6672933"><ele>42.333333333333336</ele><time>2026-04-10T09:26:15.858Z</time></trkpt><trkpt lat="42.1748783" lon="14.6673633"><ele>42.0</ele><time>2026-04-10T09:26:16.857Z</time></trkpt><trkpt lat="42.1748317" lon="14.6674267"><ele>41.666666666666664</ele><time>2026-04-10T09:26:17.858Z</time></trkpt><trkpt lat="42.174785" lon="14.6674867"><ele>41.33333333333333</ele><time>2026-04-10T09:26:18.857Z</time></trkpt><trkpt lat="42.1747083" lon="14.6675767"><ele>41.0</ele><time>2026-04-10T09:26:20.857Z</time></trkpt><trkpt lat="42.17464" lon="14.6676533"><ele>41.666666666666664</ele><time>2026-04-10T09:26:22.857Z</time></trkpt><trkpt lat="42.1745833" lon="14.66772"><ele>42.33333333333333</ele><time>2026-04-10T09:26:24.858Z</time></trkpt><trkpt lat="42.1745217" lon="14.6677867"><ele>43.0</ele><time>2026-04-10T09:26:26.858Z</time></trkpt><trkpt lat="42.1744683" lon="14.6678517"><ele>43.666666666666664</ele><time>2026-04-10T09:26:28.858Z</time></trkpt><trkpt lat="42.174415" lon="14.6679233"><ele>44.333333333333336</ele><time>2026-04-10T09:26:30.857Z</time></trkpt><trkpt lat="42.1743617" lon="14.6680267"><ele>45.0</ele><time>2026-04-10T09:26:33.858Z</time></trkpt><trkpt lat="42.1743267" lon="14.6681483"><ele>45.333333333333336</ele><time>2026-04-10T09:26:36.857Z</time></trkpt><trkpt lat="42.1743" lon="14.668275"><ele>45.666666666666664</ele><time>2026-04-10T09:26:39.858Z</time></trkpt><trkpt lat="42.1742883" lon="14.6683617"><ele>46.0</ele><time>2026-04-10T09:26:41.858Z</time></trkpt><trkpt lat="42.1742767" lon="14.668455"><ele>46.33333333333333</ele><time>2026-04-10T09:26:43.857Z</time></trkpt><trkpt lat="42.1742683" lon="14.6685417"><ele>46.666666666666664</ele><time>2026-04-10T09:26:45.858Z</time></trkpt><trkpt lat="42.1742667" lon="14.6686367"><ele>47.0</ele><time>2026-04-10T09:26:47.857Z</time></trkpt><trkpt lat="42.174245" lon="14.6687583"><ele>47.166666666666664</ele><time>2026-04-10T09:26:50.857Z</time></trkpt><trkpt lat="42.1742367" lon="14.668855"><ele>47.33333333333333</ele><time>2026-04-10T09:26:52.858Z</time></trkpt><trkpt lat="42.1742233" lon="14.6689433"><ele>47.5</ele><time>2026-04-10T09:26:54.859Z</time></trkpt><trkpt lat="42.1741867" lon="14.6690617"><ele>47.666666666666664</ele><time>2026-04-10T09:26:57.858Z</time></trkpt><trkpt lat="42.1741633" lon="14.6691617"><ele>47.833333333333336</ele><time>2026-04-10T09:26:59.859Z</time></trkpt><trkpt lat="42.1741333" lon="14.6692633"><ele>48.0</ele><time>2026-04-10T09:27:01.859Z</time></trkpt><trkpt lat="42.1741" lon="14.6693583"><ele>48.0</ele><time>2026-04-10T09:27:03.859Z</time></trkpt><trkpt lat="42.1740667" lon="14.6694617"><ele>48.0</ele><time>2026-04-10T09:27:05.859Z</time></trkpt><trkpt lat="42.1740267" lon="14.6695617"><ele>48.0</ele><time>2026-04-10T09:27:07.859Z</time></trkpt><trkpt lat="42.17399" lon="14.6696583"><ele>48.0</ele><time>2026-04-10T09:27:09.858Z</time></trkpt><trkpt lat="42.1739467" lon="14.6697567"><ele>48.0</ele><time>2026-04-10T09:27:11.858Z</time></trkpt><trkpt lat="42.1739117" lon="14.6698517"><ele>48.0</ele><time>2026-04-10T09:27:13.858Z</time></trkpt><trkpt lat="42.1738733" lon="14.66996"><ele>48.0</ele><time>2026-04-10T09:27:15.858Z</time></trkpt><trkpt lat="42.17383" lon="14.6700683"><ele>48.0</ele><time>2026-04-10T09:27:17.859Z</time></trkpt><trkpt lat="42.1737833" lon="14.670175"><ele>48.0</ele><time>2026-04-10T09:27:19.858Z</time></trkpt><trkpt lat="42.173735" lon="14.6702767"><ele>48.0</ele><time>2026-04-10T09:27:21.859Z</time></trkpt><trkpt lat="42.173695" lon="14.6703767"><ele>48.0</ele><time>2026-04-10T09:27:23.858Z</time></trkpt><trkpt lat="42.1736483" lon="14.670485"><ele>47.8</ele><time>2026-04-10T09:27:25.859Z</time></trkpt><trkpt lat="42.1736033" lon="14.670595"><ele>47.599999999999994</ele><time>2026-04-10T09:27:27.859Z</time></trkpt><trkpt lat="42.17356" lon="14.6707083"><ele>47.400000000000006</ele><time>2026-04-10T09:27:29.858Z</time></trkpt><trkpt lat="42.1735117" lon="14.67082"><ele>47.2</ele><time>2026-04-10T09:27:31.859Z</time></trkpt><trkpt lat="42.1734583" lon="14.6709367"><ele>47.0</ele><time>2026-04-10T09:27:33.859Z</time></trkpt><trkpt lat="42.1734033" lon="14.6710617"><ele>46.400000000000006</ele><time>2026-04-10T09:27:35.859Z</time></trkpt><trkpt lat="42.1733417" lon="14.6711933"><ele>45.800000000000004</ele><time>2026-04-10T09:27:37.859Z</time></trkpt><trkpt lat="42.1732883" lon="14.6713467"><ele>45.2</ele><time>2026-04-10T09:27:39.859Z</time></trkpt><trkpt lat="42.17323" lon="14.6715"><ele>44.6</ele><time>2026-04-10T09:27:41.859Z</time></trkpt><trkpt lat="42.1731967" lon="14.6715833"><ele>44.0</ele><time>2026-04-10T09:27:42.859Z</time></trkpt><trkpt lat="42.1731633" lon="14.671665"><ele>44.0</ele><time>2026-04-10T09:27:43.858Z</time></trkpt><trkpt lat="42.1731267" lon="14.671745"><ele>44.0</ele><time>2026-04-10T09:27:44.859Z</time></trkpt><trkpt lat="42.1730933" lon="14.6718317"><ele>44.0</ele><time>2026-04-10T09:27:45.859Z</time></trkpt><trkpt lat="42.173055" lon="14.6719233"><ele>44.0</ele><time>2026-04-10T09:27:46.859Z</time></trkpt><trkpt lat="42.173015" lon="14.672015"><ele>44.0</ele><time>2026-04-10T09:27:47.859Z</time></trkpt><trkpt lat="42.1729717" lon="14.6721033"><ele>44.0</ele><time>2026-04-10T09:27:48.859Z</time></trkpt><trkpt lat="42.1729317" lon="14.6721833"><ele>44.0</ele><time>2026-04-10T09:27:49.859Z</time></trkpt><trkpt lat="42.1728967" lon="14.6722583"><ele>44.0</ele><time>2026-04-10T09:27:50.859Z</time></trkpt><trkpt lat="42.17283" lon="14.6723983"><ele>44.0</ele><time>2026-04-10T09:27:52.859Z</time></trkpt><trkpt lat="42.1727767" lon="14.6725433"><ele>44.0</ele><time>2026-04-10T09:27:54.859Z</time></trkpt><trkpt lat="42.172725" lon="14.672665"><ele>44.0</ele><time>2026-04-10T09:27:56.859Z</time></trkpt><trkpt lat="42.172665" lon="14.67277"><ele>44.0</ele><time>2026-04-10T09:27:58.859Z</time></trkpt><trkpt lat="42.1726067" lon="14.6728717"><ele>44.0</ele><time>2026-04-10T09:28:00.859Z</time></trkpt><trkpt lat="42.1725483" lon="14.67295"><ele>44.0</ele><time>2026-04-10T09:28:02.858Z</time></trkpt><trkpt lat="42.1724867" lon="14.6730283"><ele>44.0</ele><time>2026-04-10T09:28:04.859Z</time></trkpt><trkpt lat="42.1724267" lon="14.6731033"><ele>44.0</ele><time>2026-04-10T09:28:06.859Z</time></trkpt><trkpt lat="42.1723667" lon="14.6731817"><ele>44.0</ele><time>2026-04-10T09:28:08.859Z</time></trkpt><trkpt lat="42.1723067" lon="14.673255"><ele>44.0</ele><time>2026-04-10T09:28:10.859Z</time></trkpt><trkpt lat="42.17225" lon="14.673325"><ele>44.142857142857146</ele><time>2026-04-10T09:28:12.859Z</time></trkpt><trkpt lat="42.1722017" lon="14.6733917"><ele>44.285714285714285</ele><time>2026-04-10T09:28:14.858Z</time></trkpt><trkpt lat="42.1721533" lon="14.6734633"><ele>44.42857142857143</ele><time>2026-04-10T09:28:16.859Z</time></trkpt><trkpt lat="42.1720983" lon="14.67353"><ele>44.57142857142857</ele><time>2026-04-10T09:28:18.859Z</time></trkpt><trkpt lat="42.172055" lon="14.6736117"><ele>44.714285714285715</ele><time>2026-04-10T09:28:20.858Z</time></trkpt><trkpt lat="42.172015" lon="14.67369"><ele>44.857142857142854</ele><time>2026-04-10T09:28:22.859Z</time></trkpt><trkpt lat="42.17197" lon="14.6737717"><ele>45.0</ele><time>2026-04-10T09:28:24.859Z</time></trkpt><trkpt lat="42.1719283" lon="14.673855"><ele>45.285714285714285</ele><time>2026-04-10T09:28:26.859Z</time></trkpt><trkpt lat="42.1718867" lon="14.67393"><ele>45.57142857142858</ele><time>2026-04-10T09:28:28.858Z</time></trkpt><trkpt lat="42.1718417" lon="14.67402"><ele>45.85714285714286</ele><time>2026-04-10T09:28:30.858Z</time></trkpt><trkpt lat="42.1717983" lon="14.6741017"><ele>46.14285714285714</ele><time>2026-04-10T09:28:32.859Z</time></trkpt><trkpt lat="42.1717567" lon="14.67418"><ele>46.42857142857143</ele><time>2026-04-10T09:28:34.858Z</time></trkpt><trkpt lat="42.1717167" lon="14.6742667"><ele>46.714285714285715</ele><time>2026-04-10T09:28:36.859Z</time></trkpt><trkpt lat="42.17168" lon="14.67435"><ele>47.0</ele><time>2026-04-10T09:28:38.859Z</time></trkpt><trkpt lat="42.171635" lon="14.67443"><ele>46.857142857142854</ele><time>2026-04-10T09:28:40.858Z</time></trkpt><trkpt lat="42.1715967" lon="14.6745117"><ele>46.71428571428571</ele><time>2026-04-10T09:28:42.859Z</time></trkpt><trkpt lat="42.1715533" lon="14.6745933"><ele>46.57142857142857</ele><time>2026-04-10T09:28:44.858Z</time></trkpt><trkpt lat="42.1715067" lon="14.6746667"><ele>46.42857142857143</ele><time>2026-04-10T09:28:46.859Z</time></trkpt><trkpt lat="42.1714567" lon="14.6747317"><ele>46.285714285714285</ele><time>2026-04-10T09:28:48.858Z</time></trkpt><trkpt lat="42.171405" lon="14.6747967"><ele>46.142857142857146</ele><time>2026-04-10T09:28:50.858Z</time></trkpt><trkpt lat="42.1713517" lon="14.6748467"><ele>46.0</ele><time>2026-04-10T09:28:52.858Z</time></trkpt><trkpt lat="42.1712917" lon="14.6749017"><ele>46.4</ele><time>2026-04-10T09:28:54.858Z</time></trkpt><trkpt lat="42.1712433" lon="14.6750033"><ele>46.8</ele><time>2026-04-10T09:28:57.859Z</time></trkpt><trkpt lat="42.1713017" lon="14.6751133"><ele>47.199999999999996</ele><time>2026-04-10T09:29:00.858Z</time></trkpt><trkpt lat="42.1713817" lon="14.6751733"><ele>47.599999999999994</ele><time>2026-04-10T09:29:02.859Z</time></trkpt><trkpt lat="42.1714767" lon="14.6752417"><ele>48.0</ele><time>2026-04-10T09:29:04.859Z</time></trkpt><trkpt lat="42.17157" lon="14.675305"><ele>47.2</ele><time>2026-04-10T09:29:06.859Z</time></trkpt><trkpt lat="42.17166" lon="14.6753683"><ele>46.4</ele><time>2026-04-10T09:29:08.859Z</time></trkpt><trkpt lat="42.17175" lon="14.6754383"><ele>45.6</ele><time>2026-04-10T09:29:10.858Z</time></trkpt><trkpt lat="42.1718317" lon="14.6755083"><ele>44.800000000000004</ele><time>2026-04-10T09:29:12.859Z</time></trkpt><trkpt lat="42.1719217" lon="14.6755733"><ele>44.0</ele><time>2026-04-10T09:29:14.859Z</time></trkpt><trkpt lat="42.1720083" lon="14.6756383"><ele>44.0</ele><time>2026-04-10T09:29:16.859Z</time></trkpt><trkpt lat="42.1721033" lon="14.675705"><ele>44.0</ele><time>2026-04-10T09:29:18.859Z</time></trkpt><trkpt lat="42.1721933" lon="14.6757617"><ele>44.0</ele><time>2026-04-10T09:29:20.859Z</time></trkpt><trkpt lat="42.1722883" lon="14.6758317"><ele>44.0</ele><time>2026-04-10T09:29:22.859Z</time></trkpt><trkpt lat="42.1723817" lon="14.6759033"><ele>44.0</ele><time>2026-04-10T09:29:24.858Z</time></trkpt><trkpt lat="42.172475" lon="14.6759633"><ele>43.800000000000004</ele><time>2026-04-10T09:29:26.859Z</time></trkpt><trkpt lat="42.1725633" lon="14.676025"><ele>43.6</ele><time>2026-04-10T09:29:28.859Z</time></trkpt><trkpt lat="42.172655" lon="14.676085"><ele>43.4</ele><time>2026-04-10T09:29:30.858Z</time></trkpt><trkpt lat="42.1727433" lon="14.6761517"><ele>43.2</ele><time>2026-04-10T09:29:32.859Z</time></trkpt><trkpt lat="42.1728367" lon="14.6762133"><ele>43.0</ele><time>2026-04-10T09:29:34.859Z</time></trkpt><trkpt lat="42.1729267" lon="14.6762717"><ele>42.599999999999994</ele><time>2026-04-10T09:29:36.859Z</time></trkpt><trkpt lat="42.173015" lon="14.6763383"><ele>42.199999999999996</ele><time>2026-04-10T09:29:38.858Z</time></trkpt><trkpt lat="42.173115" lon="14.676405"><ele>41.8</ele><time>2026-04-10T09:29:40.859Z</time></trkpt><trkpt lat="42.173215" lon="14.6764683"><ele>41.4</ele><time>2026-04-10T09:29:42.859Z</time></trkpt><trkpt lat="42.17331" lon="14.6765367"><ele>41.0</ele><time>2026-04-10T09:29:44.859Z</time></trkpt><trkpt lat="42.1733983" lon="14.6765917"><ele>41.0</ele><time>2026-04-10T09:29:46.859Z</time></trkpt><trkpt lat="42.1734817" lon="14.6766283"><ele>41.0</ele><time>2026-04-10T09:29:48.859Z</time></trkpt><trkpt lat="42.17358" lon="14.676695"><ele>41.0</ele><time>2026-04-10T09:29:50.859Z</time></trkpt><trkpt lat="42.173635" lon="14.6767417"><ele>41.0</ele><time>2026-04-10T09:29:51.859Z</time></trkpt><trkpt lat="42.1736917" lon="14.6767883"><ele>41.0</ele><time>2026-04-10T09:29:52.858Z</time></trkpt><trkpt lat="42.1737467" lon="14.6768367"><ele>41.0</ele><time>2026-04-10T09:29:53.859Z</time></trkpt><trkpt lat="42.1738467" lon="14.6769317"><ele>41.0</ele><time>2026-04-10T09:29:55.858Z</time></trkpt><trkpt lat="42.1739383" lon="14.677005"><ele>41.0</ele><time>2026-04-10T09:29:57.859Z</time></trkpt><trkpt lat="42.174025" lon="14.6770783"><ele>41.0</ele><time>2026-04-10T09:29:59.859Z</time></trkpt><trkpt lat="42.1741067" lon="14.6771383"><ele>41.0</ele><time>2026-04-10T09:30:01.859Z</time></trkpt><trkpt lat="42.174185" lon="14.6772017"><ele>41.0</ele><time>2026-04-10T09:30:03.858Z</time></trkpt><trkpt lat="42.1742583" lon="14.6772617"><ele>40.599999999999994</ele><time>2026-04-10T09:30:05.858Z</time></trkpt><trkpt lat="42.1743333" lon="14.6773267"><ele>40.199999999999996</ele><time>2026-04-10T09:30:07.858Z</time></trkpt><trkpt lat="42.1744083" lon="14.67739"><ele>39.8</ele><time>2026-04-10T09:30:09.859Z</time></trkpt><trkpt lat="42.1744967" lon="14.67744"><ele>39.4</ele><time>2026-04-10T09:30:11.858Z</time></trkpt><trkpt lat="42.1745917" lon="14.67748"><ele>39.0</ele><time>2026-04-10T09:30:13.858Z</time></trkpt><trkpt lat="42.17468" lon="14.6775033"><ele>39.0</ele><time>2026-04-10T09:30:15.858Z</time></trkpt><trkpt lat="42.1747633" lon="14.6775133"><ele>39.0</ele><time>2026-04-10T09:30:17.858Z</time></trkpt><trkpt lat="42.17484" lon="14.6775233"><ele>39.0</ele><time>2026-04-10T09:30:19.858Z</time></trkpt><trkpt lat="42.1749117" lon="14.6775283"><ele>39.0</ele><time>2026-04-10T09:30:21.858Z</time></trkpt><trkpt lat="42.175005" lon="14.6775283"><ele>39.0</ele><time>2026-04-10T09:30:24.858Z</time></trkpt><trkpt lat="42.1750683" lon="14.67753"><ele>39.0</ele><time>2026-04-10T09:30:26.858Z</time></trkpt><trkpt lat="42.175135" lon="14.6775367"><ele>38.833333333333336</ele><time>2026-04-10T09:30:28.859Z</time></trkpt><trkpt lat="42.175205" lon="14.6775317"><ele>38.666666666666664</ele><time>2026-04-10T09:30:30.859Z</time></trkpt><trkpt lat="42.1752783" lon="14.6775133"><ele>38.5</ele><time>2026-04-10T09:30:32.859Z</time></trkpt><trkpt lat="42.1753533" lon="14.6774983"><ele>38.33333333333333</ele><time>2026-04-10T09:30:34.859Z</time></trkpt><trkpt lat="42.1754183" lon="14.6774633"><ele>38.166666666666664</ele><time>2026-04-10T09:30:36.859Z</time></trkpt><trkpt lat="42.1754983" lon="14.6774133"><ele>38.0</ele><time>2026-04-10T09:30:38.859Z</time></trkpt><trkpt lat="42.17558" lon="14.6773867"><ele>38.0</ele><time>2026-04-10T09:30:40.859Z</time></trkpt><trkpt lat="42.17566" lon="14.6774333"><ele>38.0</ele><time>2026-04-10T09:30:43.859Z</time></trkpt><trkpt lat="42.1756667" lon="14.6775517"><ele>38.0</ele><time>2026-04-10T09:30:46.858Z</time></trkpt><trkpt lat="42.17566" lon="14.6776583"><ele>38.0</ele><time>2026-04-10T09:30:48.859Z</time></trkpt><trkpt lat="42.1756517" lon="14.6777683"><ele>38.0</ele><time>2026-04-10T09:30:50.859Z</time></trkpt><trkpt lat="42.17564" lon="14.67789"><ele>38.0</ele><time>2026-04-10T09:30:52.859Z</time></trkpt><trkpt lat="42.17562" lon="14.6780067"><ele>37.83333333333333</ele><time>2026-04-10T09:30:54.858Z</time></trkpt><trkpt lat="42.1756033" lon="14.6781033"><ele>37.666666666666664</ele><time>2026-04-10T09:30:56.858Z</time></trkpt><trkpt lat="42.175585" lon="14.6781917"><ele>37.5</ele><time>2026-04-10T09:30:58.859Z</time></trkpt><trkpt lat="42.1755533" lon="14.6782833"><ele>37.333333333333336</ele><time>2026-04-10T09:31:00.859Z</time></trkpt><trkpt lat="42.175505" lon="14.6783683"><ele>37.16666666666667</ele><time>2026-04-10T09:31:02.859Z</time></trkpt><trkpt lat="42.1754517" lon="14.678455"><ele>37.0</ele><time>2026-04-10T09:31:04.859Z</time></trkpt><trkpt lat="42.1753883" lon="14.6785383"><ele>37.0</ele><time>2026-04-10T09:31:06.858Z</time></trkpt><trkpt lat="42.17534" lon="14.678625"><ele>37.0</ele><time>2026-04-10T09:31:08.858Z</time></trkpt><trkpt lat="42.1752883" lon="14.6787083"><ele>37.0</ele><time>2026-04-10T09:31:10.859Z</time></trkpt><trkpt lat="42.1752417" lon="14.6787917"><ele>37.0</ele><time>2026-04-10T09:31:12.858Z</time></trkpt><trkpt lat="42.1751967" lon="14.6788767"><ele>37.0</ele><time>2026-04-10T09:31:14.859Z</time></trkpt><trkpt lat="42.1751567" lon="14.678975"><ele>37.0</ele><time>2026-04-10T09:31:16.859Z</time></trkpt><trkpt lat="42.1751283" lon="14.6790867"><ele>37.0</ele><time>2026-04-10T09:31:18.859Z</time></trkpt><trkpt lat="42.1751167" lon="14.6791967"><ele>37.0</ele><time>2026-04-10T09:31:20.859Z</time></trkpt><trkpt lat="42.1751333" lon="14.6792983"><ele>37.0</ele><time>2026-04-10T09:31:22.859Z</time></trkpt><trkpt lat="42.175175" lon="14.6793933"><ele>37.0</ele><time>2026-04-10T09:31:24.859Z</time></trkpt><trkpt lat="42.17523" lon="14.67948"><ele>37.0</ele><time>2026-04-10T09:31:26.858Z</time></trkpt><trkpt lat="42.1752933" lon="14.6795733"><ele>37.0</ele><time>2026-04-10T09:31:28.859Z</time></trkpt><trkpt lat="42.1753633" lon="14.67967"><ele>36.800000000000004</ele><time>2026-04-10T09:31:30.859Z</time></trkpt><trkpt lat="42.17543" lon="14.6797667"><ele>36.6</ele><time>2026-04-10T09:31:32.858Z</time></trkpt><trkpt lat="42.1754933" lon="14.679855"><ele>36.400000000000006</ele><time>2026-04-10T09:31:34.859Z</time></trkpt><trkpt lat="42.1755567" lon="14.679945"><ele>36.2</ele><time>2026-04-10T09:31:36.858Z</time></trkpt><trkpt lat="42.17562" lon="14.6800433"><ele>36.0</ele><time>2026-04-10T09:31:38.858Z</time></trkpt><trkpt lat="42.1756883" lon="14.6801333"><ele>36.0</ele><time>2026-04-10T09:31:40.858Z</time></trkpt><trkpt lat="42.1757533" lon="14.6802233"><ele>36.0</ele><time>2026-04-10T09:31:42.859Z</time></trkpt><trkpt lat="42.1758217" lon="14.6803067"><ele>36.0</ele><time>2026-04-10T09:31:44.858Z</time></trkpt><trkpt lat="42.1758917" lon="14.6803967"><ele>36.0</ele><time>2026-04-10T09:31:46.859Z</time></trkpt><trkpt lat="42.175955" lon="14.6804867"><ele>36.0</ele><time>2026-04-10T09:31:48.858Z</time></trkpt><trkpt lat="42.1760183" lon="14.6805733"><ele>35.5</ele><time>2026-04-10T09:31:50.859Z</time></trkpt><trkpt lat="42.17607" lon="14.68066"><ele>35.0</ele><time>2026-04-10T09:31:52.858Z</time></trkpt><trkpt lat="42.1761117" lon="14.6807583"><ele>34.5</ele><time>2026-04-10T09:31:54.859Z</time></trkpt><trkpt lat="42.176155" lon="14.680865"><ele>34.0</ele><time>2026-04-10T09:31:56.858Z</time></trkpt><trkpt lat="42.1761817" lon="14.680975"><ele>33.5</ele><time>2026-04-10T09:31:58.859Z</time></trkpt><trkpt lat="42.176215" lon="14.6810933"><ele>33.0</ele><time>2026-04-10T09:32:00.859Z</time></trkpt><trkpt lat="42.1762533" lon="14.681195"><ele>32.833333333333336</ele><time>2026-04-10T09:32:02.859Z</time></trkpt><trkpt lat="42.1762883" lon="14.68129"><ele>32.666666666666664</ele><time>2026-04-10T09:32:04.859Z</time></trkpt><trkpt lat="42.1763483" lon="14.681345"><ele>32.5</ele><time>2026-04-10T09:32:06.859Z</time></trkpt><trkpt lat="42.1764233" lon="14.68136"><ele>32.33333333333333</ele><time>2026-04-10T09:32:08.859Z</time></trkpt><trkpt lat="42.1765017" lon="14.6814"><ele>32.166666666666664</ele><time>2026-04-10T09:32:10.859Z</time></trkpt><trkpt lat="42.1765817" lon="14.681455"><ele>32.0</ele><time>2026-04-10T09:32:12.859Z</time></trkpt><trkpt lat="42.1766517" lon="14.6815067"><ele>31.999999999999996</ele><time>2026-04-10T09:32:14.858Z</time></trkpt><trkpt lat="42.1767017" lon="14.6815617"><ele>32.0</ele><time>2026-04-10T09:32:16.859Z</time></trkpt><trkpt lat="42.176685" lon="14.6816683"><ele>32.0</ele><time>2026-04-10T09:32:19.859Z</time></trkpt><trkpt lat="42.1766517" lon="14.6817633"><ele>32.0</ele><time>2026-04-10T09:32:21.858Z</time></trkpt><trkpt lat="42.1766283" lon="14.6818667"><ele>31.999999999999996</ele><time>2026-04-10T09:32:23.859Z</time></trkpt><trkpt lat="42.1765983" lon="14.6819767"><ele>32.0</ele><time>2026-04-10T09:32:25.858Z</time></trkpt><trkpt lat="42.1765633" lon="14.6820717"><ele>31.166666666666664</ele><time>2026-04-10T09:32:27.859Z</time></trkpt><trkpt lat="42.1765383" lon="14.6821767"><ele>30.333333333333332</ele><time>2026-04-10T09:32:29.859Z</time></trkpt><trkpt lat="42.1765417" lon="14.682285"><ele>29.5</ele><time>2026-04-10T09:32:31.858Z</time></trkpt><trkpt lat="42.1765683" lon="14.682385"><ele>28.666666666666664</ele><time>2026-04-10T09:32:33.858Z</time></trkpt><trkpt lat="42.1766367" lon="14.6824617"><ele>27.833333333333332</ele><time>2026-04-10T09:32:35.859Z</time></trkpt><trkpt lat="42.1767183" lon="14.6825217"><ele>27.0</ele><time>2026-04-10T09:32:37.858Z</time></trkpt><trkpt lat="42.1768067" lon="14.6825683"><ele>27.0</ele><time>2026-04-10T09:32:39.858Z</time></trkpt><trkpt lat="42.1768933" lon="14.6826067"><ele>27.000000000000004</ele><time>2026-04-10T09:32:41.858Z</time></trkpt><trkpt lat="42.1769833" lon="14.682635"><ele>27.000000000000004</ele><time>2026-04-10T09:32:43.859Z</time></trkpt><trkpt lat="42.17707" lon="14.6826567"><ele>27.0</ele><time>2026-04-10T09:32:45.858Z</time></trkpt><trkpt lat="42.1771617" lon="14.6826867"><ele>27.0</ele><time>2026-04-10T09:32:47.859Z</time></trkpt><trkpt lat="42.177255" lon="14.6827067"><ele>27.0</ele><time>2026-04-10T09:32:49.859Z</time></trkpt><trkpt lat="42.177345" lon="14.682725"><ele>27.000000000000004</ele><time>2026-04-10T09:32:51.859Z</time></trkpt><trkpt lat="42.1774383" lon="14.68274"><ele>27.000000000000004</ele><time>2026-04-10T09:32:53.858Z</time></trkpt><trkpt lat="42.177535" lon="14.6827533"><ele>27.0</ele><time>2026-04-10T09:32:55.858Z</time></trkpt><trkpt lat="42.1776417" lon="14.6827717"><ele>27.0</ele><time>2026-04-10T09:32:57.858Z</time></trkpt><trkpt lat="42.1777533" lon="14.6828017"><ele>26.400000000000002</ele><time>2026-04-10T09:32:59.859Z</time></trkpt><trkpt lat="42.17786" lon="14.68282"><ele>25.800000000000004</ele><time>2026-04-10T09:33:01.859Z</time></trkpt><trkpt lat="42.177965" lon="14.6828383"><ele>25.2</ele><time>2026-04-10T09:33:03.859Z</time></trkpt><trkpt lat="42.1780583" lon="14.6828567"><ele>24.6</ele><time>2026-04-10T09:33:05.859Z</time></trkpt><trkpt lat="42.178145" lon="14.682875"><ele>24.0</ele><time>2026-04-10T09:33:07.859Z</time></trkpt><trkpt lat="42.1782283" lon="14.6828867"><ele>24.0</ele><time>2026-04-10T09:33:09.858Z</time></trkpt><trkpt lat="42.1783133" lon="14.6829017"><ele>24.0</ele><time>2026-04-10T09:33:11.859Z</time></trkpt><trkpt lat="42.1784017" lon="14.6829183"><ele>24.0</ele><time>2026-04-10T09:33:13.859Z</time></trkpt><trkpt lat="42.1784983" lon="14.6829483"><ele>24.0</ele><time>2026-04-10T09:33:15.858Z</time></trkpt><trkpt lat="42.1785983" lon="14.6829583"><ele>24.0</ele><time>2026-04-10T09:33:17.858Z</time></trkpt><trkpt lat="42.1786833" lon="14.6829833"><ele>24.0</ele><time>2026-04-10T09:33:19.858Z</time></trkpt><trkpt lat="42.1787633" lon="14.6830017"><ele>24.0</ele><time>2026-04-10T09:33:21.858Z</time></trkpt><trkpt lat="42.178845" lon="14.6830167"><ele>24.0</ele><time>2026-04-10T09:33:23.859Z</time></trkpt><trkpt lat="42.178915" lon="14.6830317"><ele>24.0</ele><time>2026-04-10T09:33:25.858Z</time></trkpt><trkpt lat="42.1789833" lon="14.68305"><ele>24.0</ele><time>2026-04-10T09:33:27.859Z</time></trkpt><trkpt lat="42.1790483" lon="14.68307"><ele>24.0</ele><time>2026-04-10T09:33:29.858Z</time></trkpt><trkpt lat="42.179115" lon="14.6831333"><ele>23.166666666666668</ele><time>2026-04-10T09:33:32.859Z</time></trkpt><trkpt lat="42.1791417" lon="14.6832583"><ele>22.333333333333332</ele><time>2026-04-10T09:33:35.859Z</time></trkpt><trkpt lat="42.179145" lon="14.6833533"><ele>21.5</ele><time>2026-04-10T09:33:37.859Z</time></trkpt><trkpt lat="42.179155" lon="14.6834583"><ele>20.666666666666664</ele><time>2026-04-10T09:33:39.858Z</time></trkpt><trkpt lat="42.179155" lon="14.6835717"><ele>19.833333333333332</ele><time>2026-04-10T09:33:41.859Z</time></trkpt><trkpt lat="42.179125" lon="14.6836883"><ele>19.0</ele><time>2026-04-10T09:33:43.859Z</time></trkpt><trkpt lat="42.17908" lon="14.6837717"><ele>18.5</ele><time>2026-04-10T09:33:45.858Z</time></trkpt><trkpt lat="42.1790183" lon="14.6838483"><ele>18.0</ele><time>2026-04-10T09:33:47.858Z</time></trkpt><trkpt lat="42.178955" lon="14.6839233"><ele>17.5</ele><time>2026-04-10T09:33:49.858Z</time></trkpt><trkpt lat="42.178895" lon="14.6839933"><ele>17.0</ele><time>2026-04-10T09:33:51.859Z</time></trkpt><trkpt lat="42.178825" lon="14.6840783"><ele>16.5</ele><time>2026-04-10T09:33:54.859Z</time></trkpt><trkpt lat="42.1787617" lon="14.6841467"><ele>16.0</ele><time>2026-04-10T09:33:56.858Z</time></trkpt><trkpt lat="42.1786733" lon="14.6842167"><ele>16.0</ele><time>2026-04-10T09:33:58.858Z</time></trkpt><trkpt lat="42.1785733" lon="14.6842817"><ele>16.0</ele><time>2026-04-10T09:34:00.859Z</time></trkpt><trkpt lat="42.1784667" lon="14.6843267"><ele>16.0</ele><time>2026-04-10T09:34:02.858Z</time></trkpt><trkpt lat="42.1783767" lon="14.6843533"><ele>16.0</ele><time>2026-04-10T09:34:04.858Z</time></trkpt><trkpt lat="42.1783033" lon="14.68438"><ele>16.0</ele><time>2026-04-10T09:34:06.858Z</time></trkpt><trkpt lat="42.1782267" lon="14.6844133"><ele>15.333333333333332</ele><time>2026-04-10T09:34:08.859Z</time></trkpt><trkpt lat="42.1781383" lon="14.6844317"><ele>14.666666666666666</ele><time>2026-04-10T09:34:10.859Z</time></trkpt><trkpt lat="42.1780483" lon="14.684445"><ele>14.0</ele><time>2026-04-10T09:34:12.859Z</time></trkpt><trkpt lat="42.177965" lon="14.6844617"><ele>13.333333333333332</ele><time>2026-04-10T09:34:14.859Z</time></trkpt><trkpt lat="42.1778867" lon="14.6844717"><ele>12.666666666666666</ele><time>2026-04-10T09:34:16.859Z</time></trkpt><trkpt lat="42.1778183" lon="14.6844983"><ele>12.0</ele><time>2026-04-10T09:34:18.858Z</time></trkpt><trkpt lat="42.177755" lon="14.68452"><ele>12.0</ele><time>2026-04-10T09:34:20.859Z</time></trkpt><trkpt lat="42.1776983" lon="14.6845683"><ele>12.0</ele><time>2026-04-10T09:34:22.859Z</time></trkpt><trkpt lat="42.17766" lon="14.6846717"><ele>12.0</ele><time>2026-04-10T09:34:25.859Z</time></trkpt><trkpt lat="42.1776333" lon="14.6847733"><ele>12.0</ele><time>2026-04-10T09:34:28.859Z</time></trkpt><trkpt lat="42.177615" lon="14.6848717"><ele>12.0</ele><time>2026-04-10T09:34:31.859Z</time></trkpt><trkpt lat="42.1776417" lon="14.68498"><ele>12.0</ele><time>2026-04-10T09:34:34.859Z</time></trkpt><trkpt lat="42.1777" lon="14.6850383"><ele>12.0</ele><time>2026-04-10T09:34:36.859Z</time></trkpt><trkpt lat="42.1777683" lon="14.6851033"><ele>12.0</ele><time>2026-04-10T09:34:38.859Z</time></trkpt><trkpt lat="42.1778367" lon="14.6851717"><ele>12.0</ele><time>2026-04-10T09:34:40.858Z</time></trkpt><trkpt lat="42.17791" lon="14.685235"><ele>12.0</ele><time>2026-04-10T09:34:42.859Z</time></trkpt><trkpt lat="42.1779833" lon="14.6853"><ele>12.0</ele><time>2026-04-10T09:34:44.859Z</time></trkpt><trkpt lat="42.1780533" lon="14.6853617"><ele>12.0</ele><time>2026-04-10T09:34:46.859Z</time></trkpt><trkpt lat="42.1781117" lon="14.6854167"><ele>12.285714285714285</ele><time>2026-04-10T09:34:48.858Z</time></trkpt><trkpt lat="42.1781817" lon="14.6854717"><ele>12.571428571428571</ele><time>2026-04-10T09:34:51.858Z</time></trkpt><trkpt lat="42.1782367" lon="14.6855133"><ele>12.857142857142858</ele><time>2026-04-10T09:34:55.859Z</time></trkpt><trkpt lat="42.17829" lon="14.6855783"><ele>13.142857142857142</ele><time>2026-04-10T09:35:00.858Z</time></trkpt><trkpt lat="42.1783383" lon="14.6856383"><ele>13.428571428571429</ele><time>2026-04-10T09:35:03.859Z</time></trkpt><trkpt lat="42.1783967" lon="14.6856983"><ele>13.714285714285714</ele><time>2026-04-10T09:35:06.859Z</time></trkpt><trkpt lat="42.1784567" lon="14.6857567"><ele>14.0</ele><time>2026-04-10T09:35:09.859Z</time></trkpt><trkpt lat="42.1785267" lon="14.6858117"><ele>14.833333333333334</ele><time>2026-04-10T09:35:12.859Z</time></trkpt><trkpt lat="42.1786" lon="14.6858633"><ele>15.666666666666668</ele><time>2026-04-10T09:35:15.859Z</time></trkpt><trkpt lat="42.1786733" lon="14.6859267"><ele>16.5</ele><time>2026-04-10T09:35:18.858Z</time></trkpt><trkpt lat="42.1787383" lon="14.68598"><ele>17.333333333333332</ele><time>2026-04-10T09:35:21.859Z</time></trkpt><trkpt lat="42.1788" lon="14.6860383"><ele>18.166666666666664</ele><time>2026-04-10T09:35:24.859Z</time></trkpt><trkpt lat="42.17886" lon="14.6861017"><ele>19.0</ele><time>2026-04-10T09:35:27.859Z</time></trkpt><trkpt lat="42.1789167" lon="14.6861583"><ele>19.0</ele><time>2026-04-10T09:35:30.858Z</time></trkpt><trkpt lat="42.1789683" lon="14.6862383"><ele>19.0</ele><time>2026-04-10T09:35:33.859Z</time></trkpt><trkpt lat="42.1790083" lon="14.6863217"><ele>19.0</ele><time>2026-04-10T09:35:36.859Z</time></trkpt><trkpt lat="42.1790333" lon="14.68641"><ele>19.0</ele><time>2026-04-10T09:35:39.859Z</time></trkpt><trkpt lat="42.179065" lon="14.6865033"><ele>19.0</ele><time>2026-04-10T09:35:42.858Z</time></trkpt><trkpt lat="42.179095" lon="14.6866"><ele>19.0</ele><time>2026-04-10T09:35:45.859Z</time></trkpt><trkpt lat="42.1791133" lon="14.6867033"><ele>18.57142857142857</ele><time>2026-04-10T09:35:48.858Z</time></trkpt><trkpt lat="42.17913" lon="14.6867933"><ele>18.142857142857146</ele><time>2026-04-10T09:35:51.859Z</time></trkpt><trkpt lat="42.179145" lon="14.6868767"><ele>17.714285714285715</ele><time>2026-04-10T09:35:54.858Z</time></trkpt><trkpt lat="42.1791633" lon="14.6869617"><ele>17.285714285714285</ele><time>2026-04-10T09:35:57.859Z</time></trkpt><trkpt lat="42.1791683" lon="14.6870467"><ele>16.857142857142854</ele><time>2026-04-10T09:36:00.858Z</time></trkpt><trkpt lat="42.1791667" lon="14.6871533"><ele>16.428571428571427</ele><time>2026-04-10T09:36:04.858Z</time></trkpt><trkpt lat="42.1791533" lon="14.6872567"><ele>16.0</ele><time>2026-04-10T09:36:08.859Z</time></trkpt><trkpt lat="42.179135" lon="14.68734"><ele>16.0</ele><time>2026-04-10T09:36:11.859Z</time></trkpt><trkpt lat="42.1791083" lon="14.687425"><ele>15.999999999999998</ele><time>2026-04-10T09:36:14.859Z</time></trkpt><trkpt lat="42.1790667" lon="14.68751"><ele>16.0</ele><time>2026-04-10T09:36:18.858Z</time></trkpt><trkpt lat="42.1790083" lon="14.68758"><ele>16.0</ele><time>2026-04-10T09:36:22.859Z</time></trkpt><trkpt lat="42.1789467" lon="14.687615"><ele>15.999999999999998</ele><time>2026-04-10T09:36:26.859Z</time></trkpt><trkpt lat="42.1788683" lon="14.68763"><ele>16.0</ele><time>2026-04-10T09:36:30.859Z</time></trkpt><trkpt lat="42.1787933" lon="14.6876367"><ele>16.0</ele><time>2026-04-10T09:36:34.858Z</time></trkpt><trkpt lat="42.1787267" lon="14.687625"><ele>15.285714285714285</ele><time>2026-04-10T09:36:37.859Z</time></trkpt><trkpt lat="42.1786483" lon="14.6876383"><ele>14.57142857142857</ele><time>2026-04-10T09:36:41.859Z</time></trkpt><trkpt lat="42.1785783" lon="14.6876483"><ele>13.857142857142858</ele><time>2026-04-10T09:36:44.858Z</time></trkpt><trkpt lat="42.1784983" lon="14.6876617"><ele>13.142857142857142</ele><time>2026-04-10T09:36:48.859Z</time></trkpt><trkpt lat="42.178435" lon="14.687685"><ele>12.428571428571427</ele><time>2026-04-10T09:36:51.859Z</time></trkpt><trkpt lat="42.1783667" lon="14.6877167"><ele>11.714285714285715</ele><time>2026-04-10T09:36:54.859Z</time></trkpt><trkpt lat="42.1782967" lon="14.6877517"><ele>11.0</ele><time>2026-04-10T09:36:57.859Z</time></trkpt><trkpt lat="42.17822" lon="14.6877933"><ele>14.0</ele><time>2026-04-10T09:37:00.859Z</time></trkpt><trkpt lat="42.178135" lon="14.6878483"><ele>17.0</ele><time>2026-04-10T09:37:03.858Z</time></trkpt><trkpt lat="42.1780733" lon="14.6878867"><ele>20.0</ele><time>2026-04-10T09:37:05.859Z</time></trkpt><trkpt lat="42.1780133" lon="14.6879317"><ele>23.0</ele><time>2026-04-10T09:37:07.858Z</time></trkpt><trkpt lat="42.1779483" lon="14.6879883"><ele>25.999999999999996</ele><time>2026-04-10T09:37:09.858Z</time></trkpt><trkpt lat="42.1778833" lon="14.6880567"><ele>29.0</ele><time>2026-04-10T09:37:11.859Z</time></trkpt><trkpt lat="42.177825" lon="14.6881267"><ele>28.999999999999996</ele><time>2026-04-10T09:37:13.859Z</time></trkpt><trkpt lat="42.1777683" lon="14.6882033"><ele>29.0</ele><time>2026-04-10T09:37:15.859Z</time></trkpt><trkpt lat="42.177715" lon="14.688275"><ele>29.0</ele><time>2026-04-10T09:37:17.858Z</time></trkpt><trkpt lat="42.1776517" lon="14.6883517"><ele>29.0</ele><time>2026-04-10T09:37:19.859Z</time></trkpt><trkpt lat="42.177595" lon="14.68842"><ele>28.999999999999996</ele><time>2026-04-10T09:37:21.858Z</time></trkpt><trkpt lat="42.177545" lon="14.6884967"><ele>29.0</ele><time>2026-04-10T09:37:23.858Z</time></trkpt><trkpt lat="42.177495" lon="14.6885767"><ele>29.42857142857143</ele><time>2026-04-10T09:37:25.858Z</time></trkpt><trkpt lat="42.1774483" lon="14.688665"><ele>29.857142857142858</ele><time>2026-04-10T09:37:27.858Z</time></trkpt><trkpt lat="42.1774" lon="14.688745"><ele>30.285714285714285</ele><time>2026-04-10T09:37:29.859Z</time></trkpt><trkpt lat="42.1773533" lon="14.6888233"><ele>30.714285714285715</ele><time>2026-04-10T09:37:31.859Z</time></trkpt><trkpt lat="42.1773" lon="14.68888"><ele>31.14285714285714</ele><time>2026-04-10T09:37:33.858Z</time></trkpt><trkpt lat="42.17724" lon="14.6889317"><ele>31.57142857142857</ele><time>2026-04-10T09:37:35.859Z</time></trkpt><trkpt lat="42.17718" lon="14.68897"><ele>32.0</ele><time>2026-04-10T09:37:37.858Z</time></trkpt><trkpt lat="42.1771167" lon="14.689"><ele>31.999999999999996</ele><time>2026-04-10T09:37:39.859Z</time></trkpt><trkpt lat="42.17705" lon="14.6890017"><ele>32.0</ele><time>2026-04-10T09:37:41.859Z</time></trkpt><trkpt lat="42.176975" lon="14.689"><ele>32.0</ele><time>2026-04-10T09:37:43.859Z</time></trkpt><trkpt lat="42.1769033" lon="14.68901"><ele>32.0</ele><time>2026-04-10T09:37:45.858Z</time></trkpt><trkpt lat="42.1768317" lon="14.6890233"><ele>31.999999999999996</ele><time>2026-04-10T09:37:47.859Z</time></trkpt><trkpt lat="42.1767383" lon="14.6890567"><ele>32.0</ele><time>2026-04-10T09:37:50.858Z</time></trkpt><trkpt lat="42.1766783" lon="14.6890983"><ele>31.999999999999996</ele><time>2026-04-10T09:37:52.859Z</time></trkpt><trkpt lat="42.1766117" lon="14.6891767"><ele>32.0</ele><time>2026-04-10T09:37:55.858Z</time></trkpt><trkpt lat="42.1765683" lon="14.689245"><ele>32.0</ele><time>2026-04-10T09:37:57.859Z</time></trkpt><trkpt lat="42.1765283" lon="14.6893183"><ele>32.0</ele><time>2026-04-10T09:37:59.859Z</time></trkpt><trkpt lat="42.1764883" lon="14.689405"><ele>31.999999999999996</ele><time>2026-04-10T09:38:01.859Z</time></trkpt><trkpt lat="42.1764483" lon="14.6895"><ele>32.0</ele><time>2026-04-10T09:38:03.859Z</time></trkpt><trkpt lat="42.1764083" lon="14.6896017"><ele>32.33333333333333</ele><time>2026-04-10T09:38:05.858Z</time></trkpt><trkpt lat="42.1763767" lon="14.68971"><ele>32.666666666666664</ele><time>2026-04-10T09:38:07.858Z</time></trkpt><trkpt lat="42.1763417" lon="14.68982"><ele>33.0</ele><time>2026-04-10T09:38:09.859Z</time></trkpt><trkpt lat="42.1763067" lon="14.6899317"><ele>33.333333333333336</ele><time>2026-04-10T09:38:11.858Z</time></trkpt><trkpt lat="42.1762733" lon="14.6900417"><ele>33.66666666666667</ele><time>2026-04-10T09:38:13.859Z</time></trkpt><trkpt lat="42.17624" lon="14.690155"><ele>34.0</ele><time>2026-04-10T09:38:15.859Z</time></trkpt><trkpt lat="42.1762033" lon="14.690265"><ele>34.16666666666667</ele><time>2026-04-10T09:38:17.858Z</time></trkpt><trkpt lat="42.1761683" lon="14.6903667"><ele>34.333333333333336</ele><time>2026-04-10T09:38:19.859Z</time></trkpt><trkpt lat="42.17613" lon="14.6904767"><ele>34.5</ele><time>2026-04-10T09:38:21.858Z</time></trkpt><trkpt lat="42.1760917" lon="14.6905917"><ele>34.666666666666664</ele><time>2026-04-10T09:38:23.859Z</time></trkpt><trkpt lat="42.1760567" lon="14.6907017"><ele>34.83333333333333</ele><time>2026-04-10T09:38:25.859Z</time></trkpt><trkpt lat="42.176025" lon="14.6908133"><ele>35.0</ele><time>2026-04-10T09:38:27.859Z</time></trkpt><trkpt lat="42.17599" lon="14.6909317"><ele>35.0</ele><time>2026-04-10T09:38:29.859Z</time></trkpt><trkpt lat="42.175955" lon="14.691045"><ele>35.0</ele><time>2026-04-10T09:38:31.858Z</time></trkpt><trkpt lat="42.175915" lon="14.6911533"><ele>35.0</ele><time>2026-04-10T09:38:33.858Z</time></trkpt><trkpt lat="42.175875" lon="14.6912383"><ele>35.0</ele><time>2026-04-10T09:38:35.859Z</time></trkpt><trkpt lat="42.1758133" lon="14.6912983"><ele>35.0</ele><time>2026-04-10T09:38:37.858Z</time></trkpt><trkpt lat="42.17576" lon="14.691395"><ele>35.0</ele><time>2026-04-10T09:38:40.859Z</time></trkpt><trkpt lat="42.175755" lon="14.6914867"><ele>35.0</ele><time>2026-04-10T09:38:42.859Z</time></trkpt><trkpt lat="42.1757367" lon="14.6915817"><ele>35.0</ele><time>2026-04-10T09:38:44.859Z</time></trkpt><trkpt lat="42.1757117" lon="14.691675"><ele>35.0</ele><time>2026-04-10T09:38:46.859Z</time></trkpt><trkpt lat="42.1756817" lon="14.6917617"><ele>35.0</ele><time>2026-04-10T09:38:48.859Z</time></trkpt><trkpt lat="42.1756467" lon="14.69184"><ele>35.0</ele><time>2026-04-10T09:38:50.859Z</time></trkpt><trkpt lat="42.175615" lon="14.6919217"><ele>35.0</ele><time>2026-04-10T09:38:52.858Z</time></trkpt><trkpt lat="42.1755717" lon="14.6920183"><ele>35.0</ele><time>2026-04-10T09:38:54.858Z</time></trkpt><trkpt lat="42.1755283" lon="14.6921267"><ele>35.0</ele><time>2026-04-10T09:38:56.859Z</time></trkpt><trkpt lat="42.175485" lon="14.69223"><ele>35.0</ele><time>2026-04-10T09:38:58.858Z</time></trkpt><trkpt lat="42.175435" lon="14.69233"><ele>35.0</ele><time>2026-04-10T09:39:00.859Z</time></trkpt><trkpt lat="42.1753883" lon="14.6924267"><ele>35.0</ele><time>2026-04-10T09:39:02.859Z</time></trkpt><trkpt lat="42.17533" lon="14.69252"><ele>35.0</ele><time>2026-04-10T09:39:04.859Z</time></trkpt><trkpt lat="42.1752633" lon="14.69261"><ele>35.0</ele><time>2026-04-10T09:39:06.859Z</time></trkpt><trkpt lat="42.1751983" lon="14.6926967"><ele>35.0</ele><time>2026-04-10T09:39:08.859Z</time></trkpt><trkpt lat="42.1751367" lon="14.6927767"><ele>35.0</ele><time>2026-04-10T09:39:10.859Z</time></trkpt><trkpt lat="42.17508" lon="14.6928533"><ele>35.0</ele><time>2026-04-10T09:39:12.859Z</time></trkpt><trkpt lat="42.1750233" lon="14.6929183"><ele>35.0</ele><time>2026-04-10T09:39:14.859Z</time></trkpt><trkpt lat="42.174965" lon="14.6929883"><ele>35.0</ele><time>2026-04-10T09:39:16.859Z</time></trkpt><trkpt lat="42.1748983" lon="14.6930467"><ele>35.0</ele><time>2026-04-10T09:39:18.859Z</time></trkpt><trkpt lat="42.1748217" lon="14.693105"><ele>34.83333333333333</ele><time>2026-04-10T09:39:20.859Z</time></trkpt><trkpt lat="42.1747517" lon="14.6931633"><ele>34.666666666666664</ele><time>2026-04-10T09:39:22.858Z</time></trkpt><trkpt lat="42.17469" lon="14.693215"><ele>34.5</ele><time>2026-04-10T09:39:24.859Z</time></trkpt><trkpt lat="42.17463" lon="14.6932783"><ele>34.333333333333336</ele><time>2026-04-10T09:39:26.859Z</time></trkpt><trkpt lat="42.1745733" lon="14.6933233"><ele>34.16666666666667</ele><time>2026-04-10T09:39:28.858Z</time></trkpt><trkpt lat="42.1744967" lon="14.693395"><ele>34.0</ele><time>2026-04-10T09:39:31.859Z</time></trkpt><trkpt lat="42.17444" lon="14.6934433"><ele>34.0</ele><time>2026-04-10T09:39:33.859Z</time></trkpt><trkpt lat="42.1743817" lon="14.6935117"><ele>34.0</ele><time>2026-04-10T09:39:35.858Z</time></trkpt><trkpt lat="42.1743417" lon="14.693595"><ele>34.0</ele><time>2026-04-10T09:39:37.859Z</time></trkpt><trkpt lat="42.1743817" lon="14.6937017"><ele>34.0</ele><time>2026-04-10T09:39:40.859Z</time></trkpt><trkpt lat="42.17446" lon="14.6937517"><ele>34.0</ele><time>2026-04-10T09:39:42.858Z</time></trkpt><trkpt lat="42.1745133" lon="14.693835"><ele>34.0</ele><time>2026-04-10T09:39:44.859Z</time></trkpt><trkpt lat="42.1745533" lon="14.693925"><ele>33.99999999999999</ele><time>2026-04-10T09:39:46.859Z</time></trkpt><trkpt lat="42.1746133" lon="14.693995"><ele>34.0</ele><time>2026-04-10T09:39:49.858Z</time></trkpt><trkpt lat="42.1746883" lon="14.69401"><ele>34.0</ele><time>2026-04-10T09:39:52.858Z</time></trkpt><trkpt lat="42.1747517" lon="14.6940533"><ele>34.0</ele><time>2026-04-10T09:39:54.859Z</time></trkpt><trkpt lat="42.17481" lon="14.694105"><ele>34.0</ele><time>2026-04-10T09:39:56.859Z</time></trkpt><trkpt lat="42.1748667" lon="14.69416"><ele>33.99999999999999</ele><time>2026-04-10T09:39:58.859Z</time></trkpt><trkpt lat="42.174915" lon="14.6942367"><ele>34.0</ele><time>2026-04-10T09:40:00.858Z</time></trkpt><trkpt lat="42.1749283" lon="14.6943733"><ele>33.833333333333336</ele><time>2026-04-10T09:40:03.859Z</time></trkpt><trkpt lat="42.174925" lon="14.6944867"><ele>33.66666666666667</ele><time>2026-04-10T09:40:05.858Z</time></trkpt><trkpt lat="42.1749083" lon="14.6945767"><ele>33.5</ele><time>2026-04-10T09:40:07.859Z</time></trkpt><trkpt lat="42.1748783" lon="14.694685"><ele>33.333333333333336</ele><time>2026-04-10T09:40:09.858Z</time></trkpt><trkpt lat="42.17485" lon="14.6947933"><ele>33.166666666666664</ele><time>2026-04-10T09:40:11.858Z</time></trkpt><trkpt lat="42.1748167" lon="14.6949017"><ele>33.0</ele><time>2026-04-10T09:40:13.859Z</time></trkpt><trkpt lat="42.1747833" lon="14.6950017"><ele>33.0</ele><time>2026-04-10T09:40:15.858Z</time></trkpt><trkpt lat="42.1747483" lon="14.6951067"><ele>33.0</ele><time>2026-04-10T09:40:17.858Z</time></trkpt><trkpt lat="42.1747083" lon="14.6952067"><ele>33.0</ele><time>2026-04-10T09:40:19.859Z</time></trkpt><trkpt lat="42.1746733" lon="14.6952983"><ele>33.0</ele><time>2026-04-10T09:40:21.858Z</time></trkpt><trkpt lat="42.174635" lon="14.6954"><ele>33.0</ele><time>2026-04-10T09:40:24.859Z</time></trkpt><trkpt lat="42.1745983" lon="14.6955067"><ele>33.0</ele><time>2026-04-10T09:40:27.859Z</time></trkpt><trkpt lat="42.17456" lon="14.6956"><ele>32.857142857142854</ele><time>2026-04-10T09:40:29.859Z</time></trkpt><trkpt lat="42.1745283" lon="14.6956867"><ele>32.714285714285715</ele><time>2026-04-10T09:40:31.858Z</time></trkpt><trkpt lat="42.174495" lon="14.6957717"><ele>32.57142857142857</ele><time>2026-04-10T09:40:33.859Z</time></trkpt><trkpt lat="42.1744617" lon="14.6958617"><ele>32.42857142857143</ele><time>2026-04-10T09:40:35.859Z</time></trkpt><trkpt lat="42.17442" lon="14.6959517"><ele>32.285714285714285</ele><time>2026-04-10T09:40:37.858Z</time></trkpt><trkpt lat="42.1743967" lon="14.6960367"><ele>32.14285714285714</ele><time>2026-04-10T09:40:39.858Z</time></trkpt><trkpt lat="42.174375" lon="14.696135"><ele>32.0</ele><time>2026-04-10T09:40:41.859Z</time></trkpt><trkpt lat="42.1743483" lon="14.6962267"><ele>31.400000000000002</ele><time>2026-04-10T09:40:43.859Z</time></trkpt><trkpt lat="42.1743583" lon="14.69644"><ele>30.800000000000004</ele><time>2026-04-10T09:40:44.858Z</time></trkpt><trkpt lat="42.1742933" lon="14.6964583"><ele>30.2</ele><time>2026-04-10T09:40:48.215Z</time></trkpt><trkpt lat="42.17425" lon="14.6965283"><ele>29.6</ele><time>2026-04-10T09:40:50.359Z</time></trkpt><trkpt lat="42.1742067" lon="14.696655"><ele>29.0</ele><time>2026-04-10T09:40:52.858Z</time></trkpt><trkpt lat="42.1741817" lon="14.6967717"><ele>28.999999999999996</ele><time>2026-04-10T09:40:54.859Z</time></trkpt><trkpt lat="42.1741583" lon="14.69687"><ele>29.0</ele><time>2026-04-10T09:40:56.858Z</time></trkpt><trkpt lat="42.1740883" lon="14.6969667"><ele>29.0</ele><time>2026-04-10T09:40:59.859Z</time></trkpt><trkpt lat="42.1740533" lon="14.6970467"><ele>29.0</ele><time>2026-04-10T09:41:01.858Z</time></trkpt><trkpt lat="42.174015" lon="14.697135"><ele>28.999999999999996</ele><time>2026-04-10T09:41:03.859Z</time></trkpt><trkpt lat="42.173985" lon="14.6972183"><ele>29.0</ele><time>2026-04-10T09:41:05.859Z</time></trkpt><trkpt lat="42.1739733" lon="14.6973433"><ele>30.0</ele><time>2026-04-10T09:41:08.859Z</time></trkpt><trkpt lat="42.173975" lon="14.6974533"><ele>31.0</ele><time>2026-04-10T09:41:10.859Z</time></trkpt><trkpt lat="42.1739517" lon="14.697575"><ele>32.0</ele><time>2026-04-10T09:41:12.858Z</time></trkpt><trkpt lat="42.17391" lon="14.6976917"><ele>33.0</ele><time>2026-04-10T09:41:14.858Z</time></trkpt><trkpt lat="42.173875" lon="14.69781"><ele>34.0</ele><time>2026-04-10T09:41:16.858Z</time></trkpt><trkpt lat="42.1738383" lon="14.6979217"><ele>34.0</ele><time>2026-04-10T09:41:18.859Z</time></trkpt><trkpt lat="42.1737983" lon="14.698035"><ele>34.0</ele><time>2026-04-10T09:41:20.859Z</time></trkpt><trkpt lat="42.1737633" lon="14.6981367"><ele>34.0</ele><time>2026-04-10T09:41:22.859Z</time></trkpt><trkpt lat="42.173725" lon="14.698235"><ele>34.0</ele><time>2026-04-10T09:41:24.858Z</time></trkpt><trkpt lat="42.17369" lon="14.6983233"><ele>34.0</ele><time>2026-04-10T09:41:26.859Z</time></trkpt><trkpt lat="42.1736667" lon="14.6984117"><ele>34.0</ele><time>2026-04-10T09:41:28.859Z</time></trkpt><trkpt lat="42.1736683" lon="14.6984967"><ele>34.0</ele><time>2026-04-10T09:41:30.858Z</time></trkpt><trkpt lat="42.1737283" lon="14.6985617"><ele>34.0</ele><time>2026-04-10T09:41:33.859Z</time></trkpt><trkpt lat="42.1737883" lon="14.6986083"><ele>34.0</ele><time>2026-04-10T09:41:36.859Z</time></trkpt><trkpt lat="42.1738517" lon="14.6986583"><ele>34.0</ele><time>2026-04-10T09:41:39.859Z</time></trkpt><trkpt lat="42.1738783" lon="14.6987483"><ele>34.0</ele><time>2026-04-10T09:41:42.858Z</time></trkpt><trkpt lat="42.1738583" lon="14.698865"><ele>34.0</ele><time>2026-04-10T09:41:45.858Z</time></trkpt><trkpt lat="42.1738133" lon="14.698965"><ele>33.857142857142854</ele><time>2026-04-10T09:41:48.858Z</time></trkpt><trkpt lat="42.1737633" lon="14.699055"><ele>33.714285714285715</ele><time>2026-04-10T09:41:51.859Z</time></trkpt><trkpt lat="42.173715" lon="14.6991533"><ele>33.57142857142857</ele><time>2026-04-10T09:41:54.859Z</time></trkpt><trkpt lat="42.1736817" lon="14.6992317"><ele>33.42857142857143</ele><time>2026-04-10T09:41:56.859Z</time></trkpt><trkpt lat="42.1736633" lon="14.6993183"><ele>33.285714285714285</ele><time>2026-04-10T09:41:58.858Z</time></trkpt><trkpt lat="42.1736483" lon="14.69941"><ele>33.14285714285714</ele><time>2026-04-10T09:42:00.858Z</time></trkpt><trkpt lat="42.1736417" lon="14.6994983"><ele>33.0</ele><time>2026-04-10T09:42:02.859Z</time></trkpt><trkpt lat="42.1736317" lon="14.6996033"><ele>32.0</ele><time>2026-04-10T09:42:04.859Z</time></trkpt><trkpt lat="42.173615" lon="14.6996933"><ele>31.0</ele><time>2026-04-10T09:42:06.859Z</time></trkpt><trkpt lat="42.1735633" lon="14.6997983"><ele>30.0</ele><time>2026-04-10T09:42:09.859Z</time></trkpt><trkpt lat="42.1735133" lon="14.699865"><ele>29.0</ele><time>2026-04-10T09:42:11.859Z</time></trkpt><trkpt lat="42.1734517" lon="14.6999283"><ele>28.0</ele><time>2026-04-10T09:42:13.859Z</time></trkpt><trkpt lat="42.1733967" lon="14.6999917"><ele>27.0</ele><time>2026-04-10T09:42:15.859Z</time></trkpt><trkpt lat="42.173345" lon="14.700065"><ele>27.0</ele><time>2026-04-10T09:42:17.859Z</time></trkpt><trkpt lat="42.1733067" lon="14.700175"><ele>27.0</ele><time>2026-04-10T09:42:20.859Z</time></trkpt><trkpt lat="42.1732817" lon="14.7002533"><ele>27.0</ele><time>2026-04-10T09:42:22.859Z</time></trkpt><trkpt lat="42.17325" lon="14.70033"><ele>27.0</ele><time>2026-04-10T09:42:24.858Z</time></trkpt><trkpt lat="42.17322" lon="14.7004067"><ele>27.0</ele><time>2026-04-10T09:42:26.859Z</time></trkpt><trkpt lat="42.1731833" lon="14.7005183"><ele>27.0</ele><time>2026-04-10T09:42:29.859Z</time></trkpt><trkpt lat="42.1731383" lon="14.7006183"><ele>27.333333333333332</ele><time>2026-04-10T09:42:32.859Z</time></trkpt><trkpt lat="42.1731067" lon="14.70073"><ele>27.666666666666664</ele><time>2026-04-10T09:42:35.859Z</time></trkpt><trkpt lat="42.1730783" lon="14.7008483"><ele>28.0</ele><time>2026-04-10T09:42:38.859Z</time></trkpt><trkpt lat="42.1730517" lon="14.7009333"><ele>28.333333333333332</ele><time>2026-04-10T09:42:40.859Z</time></trkpt><trkpt lat="42.1730233" lon="14.7010133"><ele>28.666666666666664</ele><time>2026-04-10T09:42:42.858Z</time></trkpt><trkpt lat="42.1729767" lon="14.7011083"><ele>29.0</ele><time>2026-04-10T09:42:45.859Z</time></trkpt><trkpt lat="42.1729317" lon="14.7012117"><ele>28.999999999999996</ele><time>2026-04-10T09:42:48.859Z</time></trkpt><trkpt lat="42.1728833" lon="14.70131"><ele>29.0</ele><time>2026-04-10T09:42:51.858Z</time></trkpt><trkpt lat="42.1728367" lon="14.7014017"><ele>29.0</ele><time>2026-04-10T09:42:54.858Z</time></trkpt><trkpt lat="42.1727833" lon="14.70147"><ele>29.0</ele><time>2026-04-10T09:42:57.858Z</time></trkpt><trkpt lat="42.1727283" lon="14.7015117"><ele>28.999999999999996</ele><time>2026-04-10T09:43:01.859Z</time></trkpt><trkpt lat="42.1726833" lon="14.7015883"><ele>29.0</ele><time>2026-04-10T09:43:05.858Z</time></trkpt><trkpt lat="42.1726467" lon="14.70168"><ele>29.000000000000004</ele><time>2026-04-10T09:43:09.859Z</time></trkpt><trkpt lat="42.17263" lon="14.701765"><ele>29.0</ele><time>2026-04-10T09:43:13.859Z</time></trkpt><trkpt lat="42.1726217" lon="14.70186"><ele>29.000000000000004</ele><time>2026-04-10T09:43:17.859Z</time></trkpt><trkpt lat="42.17262" lon="14.7019617"><ele>29.000000000000004</ele><time>2026-04-10T09:43:20.858Z</time></trkpt><trkpt lat="42.1726217" lon="14.7020567"><ele>29.0</ele><time>2026-04-10T09:43:23.859Z</time></trkpt><trkpt lat="42.17261" lon="14.7021533"><ele>29.000000000000004</ele><time>2026-04-10T09:43:26.858Z</time></trkpt><trkpt lat="42.1725983" lon="14.7022483"><ele>29.000000000000004</ele><time>2026-04-10T09:43:29.858Z</time></trkpt><trkpt lat="42.172585" lon="14.7023567"><ele>27.2</ele><time>2026-04-10T09:43:33.858Z</time></trkpt><trkpt lat="42.1725583" lon="14.7024467"><ele>25.4</ele><time>2026-04-10T09:43:37.859Z</time></trkpt><trkpt lat="42.17254" lon="14.7025433"><ele>23.6</ele><time>2026-04-10T09:43:42.859Z</time></trkpt><trkpt lat="42.1725717" lon="14.702725"><ele>21.8</ele><time>2026-04-10T09:59:59.859Z</time></trkpt><trkpt lat="42.1726067" lon="14.7028617"><ele>20.0</ele><time>2026-04-10T10:00:06.859Z</time></trkpt><trkpt lat="42.1726467" lon="14.7029483"><ele>18.666666666666668</ele><time>2026-04-10T10:00:10.859Z</time></trkpt><trkpt lat="42.1726817" lon="14.7030517"><ele>17.333333333333336</ele><time>2026-04-10T10:00:14.858Z</time></trkpt><trkpt lat="42.17271" lon="14.703135"><ele>16.0</ele><time>2026-04-10T10:00:17.858Z</time></trkpt><trkpt lat="42.1727733" lon="14.7031967"><ele>14.666666666666668</ele><time>2026-04-10T10:00:21.859Z</time></trkpt><trkpt lat="42.1728533" lon="14.7031967"><ele>13.333333333333334</ele><time>2026-04-10T10:00:24.859Z</time></trkpt><trkpt lat="42.1729217" lon="14.7032233"><ele>12.0</ele><time>2026-04-10T10:00:27.859Z</time></trkpt><trkpt lat="42.1729317" lon="14.7033183"><ele>12.0</ele><time>2026-04-10T10:00:30.859Z</time></trkpt><trkpt lat="42.1729217" lon="14.7034083"><ele>12.0</ele><time>2026-04-10T10:00:32.859Z</time></trkpt><trkpt lat="42.172895" lon="14.7035217"><ele>12.0</ele><time>2026-04-10T10:00:35.859Z</time></trkpt><trkpt lat="42.1728717" lon="14.703615"><ele>12.0</ele><time>2026-04-10T10:00:38.859Z</time></trkpt><trkpt lat="42.17285" lon="14.7037067"><ele>12.0</ele><time>2026-04-10T10:00:41.859Z</time></trkpt><trkpt lat="42.1728183" lon="14.703815"><ele>12.0</ele><time>2026-04-10T10:00:44.859Z</time></trkpt><trkpt lat="42.1727917" lon="14.7039333"><ele>11.5</ele><time>2026-04-10T10:00:47.858Z</time></trkpt><trkpt lat="42.1727633" lon="14.704045"><ele>11.0</ele><time>2026-04-10T10:00:50.859Z</time></trkpt><trkpt lat="42.1727383" lon="14.7041717"><ele>10.5</ele><time>2026-04-10T10:00:53.859Z</time></trkpt><trkpt lat="42.1727333" lon="14.7042633"><ele>10.0</ele><time>2026-04-10T10:00:55.858Z</time></trkpt><trkpt lat="42.1727217" lon="14.7043867"><ele>9.5</ele><time>2026-04-10T10:00:58.858Z</time></trkpt><trkpt lat="42.1726933" lon="14.7044717"><ele>9.0</ele><time>2026-04-10T10:01:00.859Z</time></trkpt><trkpt lat="42.172665" lon="14.7045583"><ele>8.333333333333334</ele><time>2026-04-10T10:01:02.859Z</time></trkpt><trkpt lat="42.1726533" lon="14.7046467"><ele>7.666666666666667</ele><time>2026-04-10T10:01:04.859Z</time></trkpt><trkpt lat="42.172645" lon="14.7047683"><ele>7.0</ele><time>2026-04-10T10:01:07.859Z</time></trkpt><trkpt lat="42.1726233" lon="14.7048883"><ele>6.333333333333334</ele><time>2026-04-10T10:01:10.859Z</time></trkpt><trkpt lat="42.1725933" lon="14.705"><ele>5.666666666666667</ele><time>2026-04-10T10:01:13.858Z</time></trkpt><trkpt lat="42.1725667" lon="14.70508"><ele>5.0</ele><time>2026-04-10T10:01:15.859Z</time></trkpt><trkpt lat="42.1725383" lon="14.7051683"><ele>4.571428571428571</ele><time>2026-04-10T10:01:17.859Z</time></trkpt><trkpt lat="42.17251" lon="14.7052617"><ele>4.142857142857143</ele><time>2026-04-10T10:01:19.859Z</time></trkpt><trkpt lat="42.172485" lon="14.7053617"><ele>3.7142857142857144</ele><time>2026-04-10T10:01:21.859Z</time></trkpt><trkpt lat="42.1724583" lon="14.7054567"><ele>3.2857142857142856</ele><time>2026-04-10T10:01:23.858Z</time></trkpt><trkpt lat="42.1724367" lon="14.7055517"><ele>2.8571428571428568</ele><time>2026-04-10T10:01:25.858Z</time></trkpt><trkpt lat="42.1724217" lon="14.7056517"><ele>2.4285714285714284</ele><time>2026-04-10T10:01:27.858Z</time></trkpt><trkpt lat="42.1724133" lon="14.705745"><ele>2.0</ele><time>2026-04-10T10:01:29.859Z</time></trkpt><trkpt lat="42.172395" lon="14.7058583"><ele>2.0</ele><time>2026-04-10T10:01:32.858Z</time></trkpt><trkpt lat="42.17237" lon="14.7059483"><ele>1.9999999999999998</ele><time>2026-04-10T10:01:34.859Z</time></trkpt><trkpt lat="42.172345" lon="14.70604"><ele>2.0</ele><time>2026-04-10T10:01:36.858Z</time></trkpt><trkpt lat="42.1723267" lon="14.706135"><ele>2.0</ele><time>2026-04-10T10:01:38.859Z</time></trkpt><trkpt lat="42.17232" lon="14.7062267"><ele>1.9999999999999998</ele><time>2026-04-10T10:01:40.859Z</time></trkpt><trkpt lat="42.1723183" lon="14.7063217"><ele>2.0</ele><time>2026-04-10T10:01:42.859Z</time></trkpt><trkpt lat="42.1723133" lon="14.706425"><ele>2.0</ele><time>2026-04-10T10:01:44.859Z</time></trkpt><trkpt lat="42.1723133" lon="14.7065267"><ele>4.833333333333333</ele><time>2026-04-10T10:01:46.859Z</time></trkpt><trkpt lat="42.1723083" lon="14.70663"><ele>7.666666666666666</ele><time>2026-04-10T10:01:48.859Z</time></trkpt><trkpt lat="42.1723033" lon="14.706735"><ele>10.5</ele><time>2026-04-10T10:01:50.858Z</time></trkpt><trkpt lat="42.1722967" lon="14.7068467"><ele>13.333333333333332</ele><time>2026-04-10T10:01:52.859Z</time></trkpt><trkpt lat="42.1722967" lon="14.7069467"><ele>16.166666666666664</ele><time>2026-04-10T10:01:54.859Z</time></trkpt><trkpt lat="42.1723033" lon="14.7070317"><ele>19.0</ele><time>2026-04-10T10:01:56.858Z</time></trkpt><trkpt lat="42.17233" lon="14.70713"><ele>17.285714285714285</ele><time>2026-04-10T10:01:59.859Z</time></trkpt><trkpt lat="42.1723583" lon="14.7072183"><ele>15.571428571428573</ele><time>2026-04-10T10:02:02.859Z</time></trkpt><trkpt lat="42.1723983" lon="14.7072917"><ele>13.857142857142858</ele><time>2026-04-10T10:02:05.859Z</time></trkpt><trkpt lat="42.1724333" lon="14.707375"><ele>12.142857142857142</ele><time>2026-04-10T10:02:08.858Z</time></trkpt><trkpt lat="42.1724983" lon="14.7074683"><ele>10.428571428571429</ele><time>2026-04-10T10:02:11.858Z</time></trkpt><trkpt lat="42.1725517" lon="14.7075283"><ele>8.714285714285715</ele><time>2026-04-10T10:02:13.859Z</time></trkpt><trkpt lat="42.17261" lon="14.707575"><ele>7.0</ele><time>2026-04-10T10:02:15.859Z</time></trkpt><trkpt lat="42.1726667" lon="14.7076217"><ele>7.0</ele><time>2026-04-10T10:02:17.859Z</time></trkpt><trkpt lat="42.1727317" lon="14.7076783"><ele>7.0</ele><time>2026-04-10T10:02:19.859Z</time></trkpt><trkpt lat="42.1727883" lon="14.7077433"><ele>7.0</ele><time>2026-04-10T10:02:21.859Z</time></trkpt><trkpt lat="42.172825" lon="14.7078133"><ele>7.0</ele><time>2026-04-10T10:02:23.859Z</time></trkpt><trkpt lat="42.172875" lon="14.7079133"><ele>7.0</ele><time>2026-04-10T10:02:26.859Z</time></trkpt><trkpt lat="42.172925" lon="14.7079983"><ele>7.0</ele><time>2026-04-10T10:02:29.859Z</time></trkpt><trkpt lat="42.17297" lon="14.7080583"><ele>7.0</ele><time>2026-04-10T10:02:32.859Z</time></trkpt><trkpt lat="42.1730233" lon="14.708105"><ele>6.571428571428571</ele><time>2026-04-10T10:02:35.858Z</time></trkpt><trkpt lat="42.1730733" lon="14.708165"><ele>6.142857142857142</ele><time>2026-04-10T10:02:38.858Z</time></trkpt><trkpt lat="42.1731283" lon="14.7082267"><ele>5.714285714285714</ele><time>2026-04-10T10:02:41.858Z</time></trkpt><trkpt lat="42.1731783" lon="14.70828"><ele>5.285714285714286</ele><time>2026-04-10T10:02:44.859Z</time></trkpt><trkpt lat="42.1732217" lon="14.7083417"><ele>4.857142857142857</ele><time>2026-04-10T10:02:49.859Z</time></trkpt><trkpt lat="42.1731517" lon="14.7083383"><ele>4.428571428571429</ele><time>2026-04-10T10:03:07.858Z</time></trkpt><trkpt lat="42.1731033" lon="14.708265"><ele>4.0</ele><time>2026-04-10T10:03:13.859Z</time></trkpt><trkpt lat="42.1730433" lon="14.708225"><ele>5.7142857142857135</ele><time>2026-04-10T10:03:17.858Z</time></trkpt><trkpt lat="42.1729583" lon="14.7082233"><ele>7.428571428571428</ele><time>2026-04-10T10:03:21.859Z</time></trkpt><trkpt lat="42.17288" lon="14.708225"><ele>9.142857142857142</ele><time>2026-04-10T10:03:25.858Z</time></trkpt><trkpt lat="42.172815" lon="14.7081783"><ele>10.857142857142856</ele><time>2026-04-10T10:03:29.859Z</time></trkpt><trkpt lat="42.172765" lon="14.70812"><ele>12.57142857142857</ele><time>2026-04-10T10:03:33.859Z</time></trkpt><trkpt lat="42.1727183" lon="14.70806"><ele>14.285714285714285</ele><time>2026-04-10T10:03:39.859Z</time></trkpt><trkpt lat="42.1726933" lon="14.7081433"><ele>16.0</ele><time>2026-04-10T10:04:24.858Z</time></trkpt><trkpt lat="42.1727733" lon="14.7081917"><ele>15.999999999999998</ele><time>2026-04-10T10:04:28.859Z</time></trkpt><trkpt lat="42.1728533" lon="14.7082483"><ele>16.0</ele><time>2026-04-10T10:04:31.858Z</time></trkpt><trkpt lat="42.17292" lon="14.7082533"><ele>16.0</ele><time>2026-04-10T10:04:33.858Z</time></trkpt><trkpt lat="42.17299" lon="14.7082717"><ele>16.0</ele><time>2026-04-10T10:04:35.859Z</time></trkpt><trkpt lat="42.17308" lon="14.7083083"><ele>15.999999999999998</ele><time>2026-04-10T10:04:37.859Z</time></trkpt><trkpt lat="42.17319" lon="14.7083583"><ele>16.0</ele><time>2026-04-10T10:04:39.859Z</time></trkpt><trkpt lat="42.173295" lon="14.7084183"><ele>13.999999999999998</ele><time>2026-04-10T10:04:41.859Z</time></trkpt><trkpt lat="42.1733867" lon="14.7085033"><ele>12.0</ele><time>2026-04-10T10:04:43.859Z</time></trkpt><trkpt lat="42.1734317" lon="14.70861"><ele>10.0</ele><time>2026-04-10T10:04:45.859Z</time></trkpt><trkpt lat="42.173425" lon="14.7087283"><ele>8.0</ele><time>2026-04-10T10:04:48.859Z</time></trkpt><trkpt lat="42.17341" lon="14.708835"><ele>6.0</ele><time>2026-04-10T10:04:52.859Z</time></trkpt><trkpt lat="42.173385" lon="14.708935"><ele>4.0</ele><time>2026-04-10T10:04:55.858Z</time></trkpt><trkpt lat="42.1733467" lon="14.70903"><ele>3.6666666666666665</ele><time>2026-04-10T10:04:58.858Z</time></trkpt><trkpt lat="42.17328" lon="14.709115"><ele>3.333333333333333</ele><time>2026-04-10T10:05:01.859Z</time></trkpt><trkpt lat="42.173215" lon="14.7091767"><ele>3.0</ele><time>2026-04-10T10:05:04.858Z</time></trkpt><trkpt lat="42.173145" lon="14.7092283"><ele>2.6666666666666665</ele><time>2026-04-10T10:05:07.858Z</time></trkpt><trkpt lat="42.1730733" lon="14.7092833"><ele>2.333333333333333</ele><time>2026-04-10T10:05:10.859Z</time></trkpt><trkpt lat="42.1730017" lon="14.7093333"><ele>2.0</ele><time>2026-04-10T10:05:13.859Z</time></trkpt><trkpt lat="42.1729283" lon="14.7093583"><ele>2.4285714285714284</ele><time>2026-04-10T10:05:15.858Z</time></trkpt><trkpt lat="42.1728633" lon="14.70938"><ele>2.8571428571428568</ele><time>2026-04-10T10:05:17.858Z</time></trkpt><trkpt lat="42.1727867" lon="14.709405"><ele>3.2857142857142856</ele><time>2026-04-10T10:05:19.858Z</time></trkpt><trkpt lat="42.1727133" lon="14.70944"><ele>3.7142857142857144</ele><time>2026-04-10T10:05:21.859Z</time></trkpt><trkpt lat="42.1726483" lon="14.709475"><ele>4.142857142857143</ele><time>2026-04-10T10:05:23.858Z</time></trkpt><trkpt lat="42.1725783" lon="14.7095083"><ele>4.571428571428571</ele><time>2026-04-10T10:05:25.859Z</time></trkpt><trkpt lat="42.1725083" lon="14.7095417"><ele>5.0</ele><time>2026-04-10T10:05:27.859Z</time></trkpt><trkpt lat="42.17244" lon="14.70957"><ele>5.0</ele><time>2026-04-10T10:05:29.859Z</time></trkpt><trkpt lat="42.172365" lon="14.7096"><ele>5.0</ele><time>2026-04-10T10:05:31.859Z</time></trkpt><trkpt lat="42.17229" lon="14.7096283"><ele>5.0</ele><time>2026-04-10T10:05:33.858Z</time></trkpt><trkpt lat="42.17222" lon="14.7096533"><ele>5.0</ele><time>2026-04-10T10:05:35.858Z</time></trkpt><trkpt lat="42.1721533" lon="14.7096733"><ele>5.0</ele><time>2026-04-10T10:05:37.859Z</time></trkpt><trkpt lat="42.172085" lon="14.709695"><ele>5.0</ele><time>2026-04-10T10:05:39.859Z</time></trkpt><trkpt lat="42.1720133" lon="14.7097217"><ele>5.0</ele><time>2026-04-10T10:05:41.859Z</time></trkpt><trkpt lat="42.1719433" lon="14.7097567"><ele>6.142857142857142</ele><time>2026-04-10T10:05:43.859Z</time></trkpt><trkpt lat="42.171875" lon="14.7097983"><ele>7.2857142857142865</ele><time>2026-04-10T10:05:45.859Z</time></trkpt><trkpt lat="42.1718133" lon="14.7098533"><ele>8.428571428571429</ele><time>2026-04-10T10:05:47.859Z</time></trkpt><trkpt lat="42.1717617" lon="14.709925"><ele>9.571428571428571</ele><time>2026-04-10T10:05:49.858Z</time></trkpt><trkpt lat="42.171725" lon="14.710005"><ele>10.714285714285715</ele><time>2026-04-10T10:05:51.859Z</time></trkpt><trkpt lat="42.1716783" lon="14.7100767"><ele>11.857142857142856</ele><time>2026-04-10T10:05:53.859Z</time></trkpt><trkpt lat="42.1716333" lon="14.7101533"><ele>13.0</ele><time>2026-04-10T10:05:55.859Z</time></trkpt><trkpt lat="42.1715917" lon="14.7102233"><ele>13.142857142857142</ele><time>2026-04-10T10:05:57.859Z</time></trkpt><trkpt lat="42.1715417" lon="14.710295"><ele>13.285714285714286</ele><time>2026-04-10T10:05:59.858Z</time></trkpt><trkpt lat="42.1715" lon="14.7103717"><ele>13.428571428571429</ele><time>2026-04-10T10:06:01.858Z</time></trkpt><trkpt lat="42.1714617" lon="14.71045"><ele>13.571428571428571</ele><time>2026-04-10T10:06:03.859Z</time></trkpt><trkpt lat="42.1714183" lon="14.7105267"><ele>13.714285714285715</ele><time>2026-04-10T10:06:05.859Z</time></trkpt><trkpt lat="42.17138" lon="14.7106117"><ele>13.857142857142858</ele><time>2026-04-10T10:06:07.858Z</time></trkpt><trkpt lat="42.171345" lon="14.710705"><ele>14.0</ele><time>2026-04-10T10:06:09.859Z</time></trkpt><trkpt lat="42.1713167" lon="14.7107967"><ele>14.0</ele><time>2026-04-10T10:06:11.858Z</time></trkpt><trkpt lat="42.1712817" lon="14.710885"><ele>14.0</ele><time>2026-04-10T10:06:13.859Z</time></trkpt><trkpt lat="42.1712417" lon="14.711"><ele>14.0</ele><time>2026-04-10T10:06:16.859Z</time></trkpt><trkpt lat="42.1712183" lon="14.71108"><ele>14.0</ele><time>2026-04-10T10:06:18.859Z</time></trkpt><trkpt lat="42.1712017" lon="14.711165"><ele>14.0</ele><time>2026-04-10T10:06:20.858Z</time></trkpt><trkpt lat="42.1711783" lon="14.7112517"><ele>14.0</ele><time>2026-04-10T10:06:22.859Z</time></trkpt><trkpt lat="42.1711583" lon="14.7113383"><ele>14.0</ele><time>2026-04-10T10:06:24.858Z</time></trkpt><trkpt lat="42.1711317" lon="14.7114533"><ele>14.428571428571429</ele><time>2026-04-10T10:06:27.858Z</time></trkpt><trkpt lat="42.1711083" lon="14.7115533"><ele>14.857142857142858</ele><time>2026-04-10T10:06:30.858Z</time></trkpt><trkpt lat="42.1711033" lon="14.711655"><ele>15.285714285714285</ele><time>2026-04-10T10:06:33.858Z</time></trkpt><trkpt lat="42.1711017" lon="14.7117533"><ele>15.714285714285714</ele><time>2026-04-10T10:06:36.859Z</time></trkpt><trkpt lat="42.17112" lon="14.7118633"><ele>16.142857142857142</ele><time>2026-04-10T10:06:39.859Z</time></trkpt><trkpt lat="42.17114" lon="14.7119467"><ele>16.57142857142857</ele><time>2026-04-10T10:06:41.859Z</time></trkpt><trkpt lat="42.171165" lon="14.71203"><ele>17.0</ele><time>2026-04-10T10:06:43.859Z</time></trkpt><trkpt lat="42.171195" lon="14.7121133"><ele>16.999999999999996</ele><time>2026-04-10T10:06:45.858Z</time></trkpt><trkpt lat="42.1712083" lon="14.7122017"><ele>17.0</ele><time>2026-04-10T10:06:48.859Z</time></trkpt><trkpt lat="42.171155" lon="14.7121467"><ele>17.0</ele><time>2026-04-10T10:06:54.858Z</time></trkpt><trkpt lat="42.1711133" lon="14.712035"><ele>17.0</ele><time>2026-04-10T10:06:57.859Z</time></trkpt><trkpt lat="42.1710883" lon="14.7119533"><ele>17.0</ele><time>2026-04-10T10:06:59.859Z</time></trkpt><trkpt lat="42.1710683" lon="14.71187"><ele>16.999999999999996</ele><time>2026-04-10T10:07:01.858Z</time></trkpt><trkpt lat="42.17105" lon="14.7117817"><ele>17.0</ele><time>2026-04-10T10:07:03.859Z</time></trkpt><trkpt lat="42.1710217" lon="14.7117"><ele>17.0</ele><time>2026-04-10T10:07:05.858Z</time></trkpt><trkpt lat="42.1709917" lon="14.7116133"><ele>17.0</ele><time>2026-04-10T10:07:07.858Z</time></trkpt><trkpt lat="42.17096" lon="14.7115267"><ele>17.0</ele><time>2026-04-10T10:07:09.858Z</time></trkpt><trkpt lat="42.170925" lon="14.7114517"><ele>17.0</ele><time>2026-04-10T10:07:11.859Z</time></trkpt><trkpt lat="42.170875" lon="14.71136"><ele>17.0</ele><time>2026-04-10T10:07:14.858Z</time></trkpt><trkpt lat="42.17085" lon="14.7112733"><ele>17.0</ele><time>2026-04-10T10:07:17.858Z</time></trkpt><trkpt lat="42.1708467" lon="14.7111517"><ele>16.57142857142857</ele><time>2026-04-10T10:07:20.859Z</time></trkpt><trkpt lat="42.1708417" lon="14.7110483"><ele>16.142857142857142</ele><time>2026-04-10T10:07:22.859Z</time></trkpt><trkpt lat="42.17084" lon="14.71095"><ele>15.714285714285714</ele><time>2026-04-10T10:07:24.858Z</time></trkpt><trkpt lat="42.1708333" lon="14.71086"><ele>15.285714285714285</ele><time>2026-04-10T10:07:26.858Z</time></trkpt><trkpt lat="42.1708433" lon="14.7107733"><ele>14.857142857142858</ele><time>2026-04-10T10:07:28.859Z</time></trkpt><trkpt lat="42.17085" lon="14.71068"><ele>14.428571428571429</ele><time>2026-04-10T10:07:30.859Z</time></trkpt><trkpt lat="42.170855" lon="14.7105833"><ele>14.0</ele><time>2026-04-10T10:07:32.858Z</time></trkpt><trkpt lat="42.1708617" lon="14.7104783"><ele>14.000000000000002</ele><time>2026-04-10T10:07:34.859Z</time></trkpt><trkpt lat="42.1708667" lon="14.7103683"><ele>14.0</ele><time>2026-04-10T10:07:36.859Z</time></trkpt><trkpt lat="42.1708783" lon="14.7102583"><ele>14.0</ele><time>2026-04-10T10:07:38.859Z</time></trkpt><trkpt lat="42.1708817" lon="14.71015"><ele>14.0</ele><time>2026-04-10T10:07:40.858Z</time></trkpt><trkpt lat="42.170885" lon="14.71004"><ele>14.000000000000002</ele><time>2026-04-10T10:07:42.859Z</time></trkpt><trkpt lat="42.1708867" lon="14.7099317"><ele>14.0</ele><time>2026-04-10T10:07:44.859Z</time></trkpt><trkpt lat="42.1708867" lon="14.7098233"><ele>14.000000000000002</ele><time>2026-04-10T10:07:46.859Z</time></trkpt><trkpt lat="42.1708867" lon="14.70972"><ele>14.0</ele><time>2026-04-10T10:07:48.858Z</time></trkpt><trkpt lat="42.1708883" lon="14.70962"><ele>14.0</ele><time>2026-04-10T10:07:50.858Z</time></trkpt><trkpt lat="42.1708917" lon="14.709515"><ele>14.0</ele><time>2026-04-10T10:07:52.859Z</time></trkpt><trkpt lat="42.170895" lon="14.7094083"><ele>14.000000000000002</ele><time>2026-04-10T10:07:54.859Z</time></trkpt><trkpt lat="42.1708983" lon="14.7093"><ele>14.0</ele><time>2026-04-10T10:07:56.858Z</time></trkpt><trkpt lat="42.1708983" lon="14.70919"><ele>14.333333333333334</ele><time>2026-04-10T10:07:58.859Z</time></trkpt><trkpt lat="42.1709017" lon="14.7090833"><ele>14.666666666666668</ele><time>2026-04-10T10:08:00.858Z</time></trkpt><trkpt lat="42.1709067" lon="14.7089717"><ele>15.0</ele><time>2026-04-10T10:08:02.859Z</time></trkpt><trkpt lat="42.17091" lon="14.7088667"><ele>15.333333333333332</ele><time>2026-04-10T10:08:04.858Z</time></trkpt><trkpt lat="42.170915" lon="14.7087567"><ele>15.666666666666666</ele><time>2026-04-10T10:08:06.858Z</time></trkpt><trkpt lat="42.170915" lon="14.70865"><ele>16.0</ele><time>2026-04-10T10:08:08.859Z</time></trkpt><trkpt lat="42.1709117" lon="14.7085433"><ele>16.333333333333332</ele><time>2026-04-10T10:08:10.858Z</time></trkpt><trkpt lat="42.1709067" lon="14.7084383"><ele>16.666666666666664</ele><time>2026-04-10T10:08:12.859Z</time></trkpt><trkpt lat="42.170895" lon="14.7083183"><ele>17.0</ele><time>2026-04-10T10:08:14.859Z</time></trkpt><trkpt lat="42.1708967" lon="14.7082017"><ele>17.333333333333332</ele><time>2026-04-10T10:08:16.859Z</time></trkpt><trkpt lat="42.1708967" lon="14.7080933"><ele>17.666666666666668</ele><time>2026-04-10T10:08:18.859Z</time></trkpt><trkpt lat="42.1708883" lon="14.7079767"><ele>18.0</ele><time>2026-04-10T10:08:20.858Z</time></trkpt><trkpt lat="42.17088" lon="14.7078633"><ele>18.0</ele><time>2026-04-10T10:08:22.858Z</time></trkpt><trkpt lat="42.1708667" lon="14.7077517"><ele>18.0</ele><time>2026-04-10T10:08:24.859Z</time></trkpt><trkpt lat="42.1708533" lon="14.70764"><ele>18.0</ele><time>2026-04-10T10:08:26.859Z</time></trkpt><trkpt lat="42.1708417" lon="14.7075317"><ele>18.0</ele><time>2026-04-10T10:08:28.858Z</time></trkpt><trkpt lat="42.1708333" lon="14.7074233"><ele>18.0</ele><time>2026-04-10T10:08:30.859Z</time></trkpt><trkpt lat="42.17082" lon="14.70731"><ele>18.0</ele><time>2026-04-10T10:08:32.859Z</time></trkpt><trkpt lat="42.1708067" lon="14.7072033"><ele>18.166666666666668</ele><time>2026-04-10T10:08:34.858Z</time></trkpt><trkpt lat="42.1707967" lon="14.70709"><ele>18.333333333333332</ele><time>2026-04-10T10:08:36.859Z</time></trkpt><trkpt lat="42.1707883" lon="14.7069683"><ele>18.5</ele><time>2026-04-10T10:08:38.858Z</time></trkpt><trkpt lat="42.170775" lon="14.7068667"><ele>18.666666666666664</ele><time>2026-04-10T10:08:40.858Z</time></trkpt><trkpt lat="42.170765" lon="14.7067667"><ele>18.833333333333332</ele><time>2026-04-10T10:08:42.859Z</time></trkpt><trkpt lat="42.170755" lon="14.7066517"><ele>19.0</ele><time>2026-04-10T10:08:44.859Z</time></trkpt><trkpt lat="42.1707433" lon="14.7065417"><ele>19.0</ele><time>2026-04-10T10:08:46.858Z</time></trkpt><trkpt lat="42.1707283" lon="14.7064333"><ele>19.0</ele><time>2026-04-10T10:08:48.859Z</time></trkpt><trkpt lat="42.170715" lon="14.70633"><ele>19.0</ele><time>2026-04-10T10:08:50.859Z</time></trkpt><trkpt lat="42.1707033" lon="14.706225"><ele>19.0</ele><time>2026-04-10T10:08:52.859Z</time></trkpt><trkpt lat="42.1706933" lon="14.7061167"><ele>19.0</ele><time>2026-04-10T10:08:54.859Z</time></trkpt><trkpt lat="42.1706833" lon="14.706005"><ele>19.0</ele><time>2026-04-10T10:08:56.859Z</time></trkpt><trkpt lat="42.17067" lon="14.7058933"><ele>19.166666666666664</ele><time>2026-04-10T10:08:58.859Z</time></trkpt><trkpt lat="42.17066" lon="14.705785"><ele>19.333333333333332</ele><time>2026-04-10T10:09:00.858Z</time></trkpt><trkpt lat="42.1706467" lon="14.705675"><ele>19.5</ele><time>2026-04-10T10:09:02.859Z</time></trkpt><trkpt lat="42.1706367" lon="14.7055683"><ele>19.666666666666668</ele><time>2026-04-10T10:09:04.859Z</time></trkpt><trkpt lat="42.17062" lon="14.70546"><ele>19.833333333333336</ele><time>2026-04-10T10:09:06.859Z</time></trkpt><trkpt lat="42.1706083" lon="14.7053517"><ele>20.0</ele><time>2026-04-10T10:09:08.859Z</time></trkpt><trkpt lat="42.170595" lon="14.7052433"><ele>19.5</ele><time>2026-04-10T10:09:10.859Z</time></trkpt><trkpt lat="42.17058" lon="14.7051383"><ele>19.0</ele><time>2026-04-10T10:09:12.859Z</time></trkpt><trkpt lat="42.1705683" lon="14.705035"><ele>18.5</ele><time>2026-04-10T10:09:14.858Z</time></trkpt><trkpt lat="42.17056" lon="14.7049283"><ele>18.0</ele><time>2026-04-10T10:09:16.858Z</time></trkpt><trkpt lat="42.17054" lon="14.7048217"><ele>17.5</ele><time>2026-04-10T10:09:18.858Z</time></trkpt><trkpt lat="42.1705167" lon="14.7047183"><ele>17.0</ele><time>2026-04-10T10:09:20.858Z</time></trkpt><trkpt lat="42.1704933" lon="14.7046167"><ele>17.0</ele><time>2026-04-10T10:09:22.859Z</time></trkpt><trkpt lat="42.1704717" lon="14.7045183"><ele>17.0</ele><time>2026-04-10T10:09:24.859Z</time></trkpt><trkpt lat="42.1704483" lon="14.70443"><ele>17.0</ele><time>2026-04-10T10:09:26.858Z</time></trkpt><trkpt lat="42.1704183" lon="14.7043333"><ele>17.0</ele><time>2026-04-10T10:09:28.858Z</time></trkpt><trkpt lat="42.1703817" lon="14.7042317"><ele>17.0</ele><time>2026-04-10T10:09:30.859Z</time></trkpt><trkpt lat="42.170345" lon="14.7041317"><ele>17.0</ele><time>2026-04-10T10:09:32.859Z</time></trkpt><trkpt lat="42.1703067" lon="14.704035"><ele>17.5</ele><time>2026-04-10T10:09:34.858Z</time></trkpt><trkpt lat="42.1702617" lon="14.7039383"><ele>18.0</ele><time>2026-04-10T10:09:36.858Z</time></trkpt><trkpt lat="42.1702133" lon="14.7038417"><ele>18.5</ele><time>2026-04-10T10:09:38.859Z</time></trkpt><trkpt lat="42.170165" lon="14.703745"><ele>19.0</ele><time>2026-04-10T10:09:40.859Z</time></trkpt><trkpt lat="42.1701117" lon="14.7036483"><ele>19.5</ele><time>2026-04-10T10:09:42.859Z</time></trkpt><trkpt lat="42.1700583" lon="14.7035517"><ele>20.0</ele><time>2026-04-10T10:09:44.859Z</time></trkpt><trkpt lat="42.1700033" lon="14.70346"><ele>20.333333333333336</ele><time>2026-04-10T10:09:46.858Z</time></trkpt><trkpt lat="42.16995" lon="14.7033667"><ele>20.666666666666668</ele><time>2026-04-10T10:09:48.859Z</time></trkpt><trkpt lat="42.1698983" lon="14.7032783"><ele>21.0</ele><time>2026-04-10T10:09:50.859Z</time></trkpt><trkpt lat="42.1698483" lon="14.703195"><ele>21.333333333333332</ele><time>2026-04-10T10:09:52.859Z</time></trkpt><trkpt lat="42.1697983" lon="14.70311"><ele>21.666666666666664</ele><time>2026-04-10T10:09:54.858Z</time></trkpt><trkpt lat="42.169755" lon="14.703015"><ele>22.0</ele><time>2026-04-10T10:09:56.858Z</time></trkpt><trkpt lat="42.1697017" lon="14.7029683"><ele>22.166666666666664</ele><time>2026-04-10T10:09:58.859Z</time></trkpt><trkpt lat="42.1696433" lon="14.7029017"><ele>22.333333333333332</ele><time>2026-04-10T10:10:01.229Z</time></trkpt><trkpt lat="42.169615" lon="14.702815"><ele>22.5</ele><time>2026-04-10T10:10:02.36Z</time></trkpt><trkpt lat="42.1695733" lon="14.7026967"><ele>22.666666666666668</ele><time>2026-04-10T10:10:04.359Z</time></trkpt><trkpt lat="42.1695383" lon="14.7026217"><ele>22.833333333333336</ele><time>2026-04-10T10:10:05.859Z</time></trkpt><trkpt lat="42.1695033" lon="14.7025217"><ele>23.0</ele><time>2026-04-10T10:10:07.86Z</time></trkpt><trkpt lat="42.16947" lon="14.7024233"><ele>23.666666666666668</ele><time>2026-04-10T10:10:09.86Z</time></trkpt><trkpt lat="42.1694317" lon="14.7023233"><ele>24.333333333333336</ele><time>2026-04-10T10:10:11.859Z</time></trkpt><trkpt lat="42.1694017" lon="14.7022233"><ele>25.0</ele><time>2026-04-10T10:10:13.859Z</time></trkpt><trkpt lat="42.1693717" lon="14.7021217"><ele>25.666666666666668</ele><time>2026-04-10T10:10:15.86Z</time></trkpt><trkpt lat="42.1693483" lon="14.7020267"><ele>26.333333333333332</ele><time>2026-04-10T10:10:17.859Z</time></trkpt><trkpt lat="42.1693317" lon="14.701925"><ele>27.0</ele><time>2026-04-10T10:10:19.86Z</time></trkpt><trkpt lat="42.16931" lon="14.70182"><ele>27.333333333333332</ele><time>2026-04-10T10:10:21.859Z</time></trkpt><trkpt lat="42.1692917" lon="14.701715"><ele>27.666666666666664</ele><time>2026-04-10T10:10:23.859Z</time></trkpt><trkpt lat="42.1692767" lon="14.7016083"><ele>28.0</ele><time>2026-04-10T10:10:25.86Z</time></trkpt><trkpt lat="42.16926" lon="14.7015"><ele>28.333333333333332</ele><time>2026-04-10T10:10:27.859Z</time></trkpt><trkpt lat="42.169245" lon="14.7013933"><ele>28.666666666666664</ele><time>2026-04-10T10:10:29.86Z</time></trkpt><trkpt lat="42.1692267" lon="14.7012917"><ele>29.0</ele><time>2026-04-10T10:10:31.859Z</time></trkpt><trkpt lat="42.1692083" lon="14.7011817"><ele>29.666666666666664</ele><time>2026-04-10T10:10:33.86Z</time></trkpt><trkpt lat="42.16919" lon="14.7010717"><ele>30.333333333333332</ele><time>2026-04-10T10:10:35.86Z</time></trkpt><trkpt lat="42.169175" lon="14.7009667"><ele>31.0</ele><time>2026-04-10T10:10:37.859Z</time></trkpt><trkpt lat="42.16916" lon="14.7008567"><ele>31.666666666666664</ele><time>2026-04-10T10:10:39.86Z</time></trkpt><trkpt lat="42.169135" lon="14.70075"><ele>32.333333333333336</ele><time>2026-04-10T10:10:41.86Z</time></trkpt><trkpt lat="42.1691167" lon="14.70064"><ele>33.0</ele><time>2026-04-10T10:10:43.859Z</time></trkpt><trkpt lat="42.1690967" lon="14.7005383"><ele>33.0</ele><time>2026-04-10T10:10:45.859Z</time></trkpt><trkpt lat="42.1690817" lon="14.700425"><ele>33.0</ele><time>2026-04-10T10:10:47.86Z</time></trkpt><trkpt lat="42.169065" lon="14.700315"><ele>33.0</ele><time>2026-04-10T10:10:49.86Z</time></trkpt><trkpt lat="42.16905" lon="14.7002067"><ele>33.0</ele><time>2026-04-10T10:10:51.86Z</time></trkpt><trkpt lat="42.1690383" lon="14.7000967"><ele>33.0</ele><time>2026-04-10T10:10:53.86Z</time></trkpt><trkpt lat="42.1690217" lon="14.699985"><ele>33.0</ele><time>2026-04-10T10:10:55.859Z</time></trkpt><trkpt lat="42.169" lon="14.6998717"><ele>33.333333333333336</ele><time>2026-04-10T10:10:57.859Z</time></trkpt><trkpt lat="42.16898" lon="14.6997567"><ele>33.666666666666664</ele><time>2026-04-10T10:10:59.859Z</time></trkpt><trkpt lat="42.1689583" lon="14.699645"><ele>34.0</ele><time>2026-04-10T10:11:01.86Z</time></trkpt><trkpt lat="42.16894" lon="14.699535"><ele>34.33333333333333</ele><time>2026-04-10T10:11:03.86Z</time></trkpt><trkpt lat="42.1689283" lon="14.6994217"><ele>34.666666666666664</ele><time>2026-04-10T10:11:05.859Z</time></trkpt><trkpt lat="42.16891" lon="14.699315"><ele>35.0</ele><time>2026-04-10T10:11:07.86Z</time></trkpt><trkpt lat="42.1688967" lon="14.699205"><ele>35.0</ele><time>2026-04-10T10:11:09.86Z</time></trkpt><trkpt lat="42.1688883" lon="14.6990917"><ele>35.0</ele><time>2026-04-10T10:11:11.86Z</time></trkpt><trkpt lat="42.1688883" lon="14.6989883"><ele>35.0</ele><time>2026-04-10T10:11:13.86Z</time></trkpt><trkpt lat="42.1688967" lon="14.6988783"><ele>35.0</ele><time>2026-04-10T10:11:15.859Z</time></trkpt><trkpt lat="42.1689067" lon="14.6987667"><ele>35.0</ele><time>2026-04-10T10:11:17.86Z</time></trkpt><trkpt lat="42.1689267" lon="14.6986567"><ele>35.0</ele><time>2026-04-10T10:11:19.859Z</time></trkpt><trkpt lat="42.1689483" lon="14.6985433"><ele>35.166666666666664</ele><time>2026-04-10T10:11:21.86Z</time></trkpt><trkpt lat="42.1689683" lon="14.6984283"><ele>35.33333333333333</ele><time>2026-04-10T10:11:23.859Z</time></trkpt><trkpt lat="42.1689933" lon="14.698315"><ele>35.5</ele><time>2026-04-10T10:11:25.859Z</time></trkpt><trkpt lat="42.1690183" lon="14.6982067"><ele>35.666666666666664</ele><time>2026-04-10T10:11:27.859Z</time></trkpt><trkpt lat="42.1690417" lon="14.6980917"><ele>35.833333333333336</ele><time>2026-04-10T10:11:29.86Z</time></trkpt><trkpt lat="42.1690667" lon="14.697985"><ele>36.0</ele><time>2026-04-10T10:11:31.859Z</time></trkpt><trkpt lat="42.1690917" lon="14.6978717"><ele>36.0</ele><time>2026-04-10T10:11:33.86Z</time></trkpt><trkpt lat="42.169115" lon="14.6977633"><ele>36.0</ele><time>2026-04-10T10:11:35.86Z</time></trkpt><trkpt lat="42.1691383" lon="14.6976567"><ele>36.0</ele><time>2026-04-10T10:11:37.86Z</time></trkpt><trkpt lat="42.169165" lon="14.6975467"><ele>36.0</ele><time>2026-04-10T10:11:39.859Z</time></trkpt><trkpt lat="42.1691933" lon="14.697435"><ele>36.0</ele><time>2026-04-10T10:11:41.86Z</time></trkpt><trkpt lat="42.1692133" lon="14.6973183"><ele>36.0</ele><time>2026-04-10T10:11:43.86Z</time></trkpt><trkpt lat="42.1692417" lon="14.6972017"><ele>36.166666666666664</ele><time>2026-04-10T10:11:45.86Z</time></trkpt><trkpt lat="42.1692683" lon="14.6970817"><ele>36.333333333333336</ele><time>2026-04-10T10:11:47.86Z</time></trkpt><trkpt lat="42.1692917" lon="14.6969667"><ele>36.5</ele><time>2026-04-10T10:11:49.859Z</time></trkpt><trkpt lat="42.1693133" lon="14.69685"><ele>36.66666666666667</ele><time>2026-04-10T10:11:51.86Z</time></trkpt><trkpt lat="42.1693383" lon="14.6967383"><ele>36.833333333333336</ele><time>2026-04-10T10:11:53.86Z</time></trkpt><trkpt lat="42.1693617" lon="14.6966267"><ele>37.0</ele><time>2026-04-10T10:11:55.86Z</time></trkpt><trkpt lat="42.1693867" lon="14.6965117"><ele>37.0</ele><time>2026-04-10T10:11:57.859Z</time></trkpt><trkpt lat="42.1694117" lon="14.6964"><ele>37.0</ele><time>2026-04-10T10:11:59.86Z</time></trkpt><trkpt lat="42.1694367" lon="14.696275"><ele>37.0</ele><time>2026-04-10T10:12:01.86Z</time></trkpt><trkpt lat="42.1694667" lon="14.69615"><ele>37.0</ele><time>2026-04-10T10:12:03.86Z</time></trkpt><trkpt lat="42.169495" lon="14.69603"><ele>37.0</ele><time>2026-04-10T10:12:05.86Z</time></trkpt><trkpt lat="42.1695233" lon="14.6959183"><ele>36.833333333333336</ele><time>2026-04-10T10:12:07.859Z</time></trkpt><trkpt lat="42.16956" lon="14.6958133"><ele>36.66666666666667</ele><time>2026-04-10T10:12:09.859Z</time></trkpt><trkpt lat="42.1696083" lon="14.6957233"><ele>36.5</ele><time>2026-04-10T10:12:11.86Z</time></trkpt><trkpt lat="42.1696567" lon="14.69563"><ele>36.333333333333336</ele><time>2026-04-10T10:12:13.86Z</time></trkpt><trkpt lat="42.1696933" lon="14.695525"><ele>36.166666666666664</ele><time>2026-04-10T10:12:15.86Z</time></trkpt><trkpt lat="42.1697183" lon="14.6954017"><ele>36.0</ele><time>2026-04-10T10:12:17.86Z</time></trkpt><trkpt lat="42.16973" lon="14.695275"><ele>35.8</ele><time>2026-04-10T10:12:19.86Z</time></trkpt><trkpt lat="42.1697417" lon="14.6951583"><ele>35.6</ele><time>2026-04-10T10:12:21.859Z</time></trkpt><trkpt lat="42.1697683" lon="14.6950383"><ele>35.4</ele><time>2026-04-10T10:12:23.859Z</time></trkpt><trkpt lat="42.16981" lon="14.69491"><ele>35.2</ele><time>2026-04-10T10:12:25.86Z</time></trkpt><trkpt lat="42.16986" lon="14.6947983"><ele>35.0</ele><time>2026-04-10T10:12:27.86Z</time></trkpt><trkpt lat="42.1698983" lon="14.6946733"><ele>35.5</ele><time>2026-04-10T10:12:29.86Z</time></trkpt><trkpt lat="42.169945" lon="14.694535"><ele>36.0</ele><time>2026-04-10T10:12:31.86Z</time></trkpt><trkpt lat="42.1699867" lon="14.6943783"><ele>36.5</ele><time>2026-04-10T10:12:33.86Z</time></trkpt><trkpt lat="42.1700383" lon="14.694235"><ele>37.0</ele><time>2026-04-10T10:12:35.86Z</time></trkpt><trkpt lat="42.170095" lon="14.6940967"><ele>37.0</ele><time>2026-04-10T10:12:37.86Z</time></trkpt><trkpt lat="42.1701467" lon="14.6939467"><ele>37.0</ele><time>2026-04-10T10:12:39.86Z</time></trkpt><trkpt lat="42.1701983" lon="14.6937983"><ele>37.0</ele><time>2026-04-10T10:12:41.859Z</time></trkpt><trkpt lat="42.1702433" lon="14.693665"><ele>37.0</ele><time>2026-04-10T10:12:43.86Z</time></trkpt><trkpt lat="42.1702967" lon="14.69353"><ele>37.0</ele><time>2026-04-10T10:12:45.859Z</time></trkpt><trkpt lat="42.170345" lon="14.6933933"><ele>37.0</ele><time>2026-04-10T10:12:47.86Z</time></trkpt><trkpt lat="42.1703917" lon="14.6932617"><ele>37.0</ele><time>2026-04-10T10:12:49.86Z</time></trkpt><trkpt lat="42.1704367" lon="14.6931233"><ele>37.0</ele><time>2026-04-10T10:12:51.86Z</time></trkpt><trkpt lat="42.1704817" lon="14.6929883"><ele>37.0</ele><time>2026-04-10T10:12:53.86Z</time></trkpt><trkpt lat="42.1705317" lon="14.6928517"><ele>36.75</ele><time>2026-04-10T10:12:55.86Z</time></trkpt><trkpt lat="42.1705867" lon="14.6927183"><ele>36.5</ele><time>2026-04-10T10:12:57.859Z</time></trkpt><trkpt lat="42.170635" lon="14.6925817"><ele>36.25</ele><time>2026-04-10T10:12:59.86Z</time></trkpt><trkpt lat="42.1706833" lon="14.69244"><ele>36.0</ele><time>2026-04-10T10:13:01.859Z</time></trkpt><trkpt lat="42.1707267" lon="14.6923"><ele>36.0</ele><time>2026-04-10T10:13:03.86Z</time></trkpt><trkpt lat="42.17077" lon="14.6921617"><ele>36.0</ele><time>2026-04-10T10:13:05.86Z</time></trkpt><trkpt lat="42.1708167" lon="14.6920267"><ele>36.0</ele><time>2026-04-10T10:13:07.86Z</time></trkpt><trkpt lat="42.1708683" lon="14.6918967"><ele>36.0</ele><time>2026-04-10T10:13:09.859Z</time></trkpt><trkpt lat="42.1709467" lon="14.6917883"><ele>36.0</ele><time>2026-04-10T10:13:11.86Z</time></trkpt><trkpt lat="42.17105" lon="14.691725"><ele>36.2</ele><time>2026-04-10T10:13:13.86Z</time></trkpt><trkpt lat="42.1711567" lon="14.69173"><ele>36.400000000000006</ele><time>2026-04-10T10:13:15.859Z</time></trkpt><trkpt lat="42.1712533" lon="14.6917783"><ele>36.6</ele><time>2026-04-10T10:13:17.86Z</time></trkpt><trkpt lat="42.171355" lon="14.6918333"><ele>36.800000000000004</ele><time>2026-04-10T10:13:19.859Z</time></trkpt><trkpt lat="42.1714567" lon="14.6918967"><ele>37.0</ele><time>2026-04-10T10:13:21.859Z</time></trkpt><trkpt lat="42.1715583" lon="14.6919633"><ele>37.0</ele><time>2026-04-10T10:13:23.86Z</time></trkpt><trkpt lat="42.1716617" lon="14.69203"><ele>37.0</ele><time>2026-04-10T10:13:25.86Z</time></trkpt><trkpt lat="42.1717683" lon="14.6920983"><ele>37.0</ele><time>2026-04-10T10:13:27.86Z</time></trkpt><trkpt lat="42.1718733" lon="14.6921617"><ele>37.0</ele><time>2026-04-10T10:13:29.859Z</time></trkpt><trkpt lat="42.17198" lon="14.6922217"><ele>37.0</ele><time>2026-04-10T10:13:31.86Z</time></trkpt><trkpt lat="42.17208" lon="14.6922883"><ele>37.0</ele><time>2026-04-10T10:13:33.859Z</time></trkpt><trkpt lat="42.1721817" lon="14.69235"><ele>37.0</ele><time>2026-04-10T10:13:35.86Z</time></trkpt><trkpt lat="42.1722783" lon="14.6924133"><ele>37.0</ele><time>2026-04-10T10:13:37.859Z</time></trkpt><trkpt lat="42.172365" lon="14.69247"><ele>37.0</ele><time>2026-04-10T10:13:39.86Z</time></trkpt><trkpt lat="42.1724667" lon="14.69253"><ele>36.800000000000004</ele><time>2026-04-10T10:13:41.86Z</time></trkpt><trkpt lat="42.1725683" lon="14.6925933"><ele>36.6</ele><time>2026-04-10T10:13:43.859Z</time></trkpt><trkpt lat="42.1726617" lon="14.6926617"><ele>36.400000000000006</ele><time>2026-04-10T10:13:45.859Z</time></trkpt><trkpt lat="42.17275" lon="14.6927217"><ele>36.2</ele><time>2026-04-10T10:13:47.859Z</time></trkpt><trkpt lat="42.17285" lon="14.69278"><ele>36.0</ele><time>2026-04-10T10:13:49.86Z</time></trkpt><trkpt lat="42.1729483" lon="14.692845"><ele>36.0</ele><time>2026-04-10T10:13:51.86Z</time></trkpt><trkpt lat="42.1730483" lon="14.6929067"><ele>36.0</ele><time>2026-04-10T10:13:53.859Z</time></trkpt><trkpt lat="42.1731417" lon="14.692965"><ele>36.0</ele><time>2026-04-10T10:13:55.86Z</time></trkpt><trkpt lat="42.173235" lon="14.6930317"><ele>36.0</ele><time>2026-04-10T10:13:57.86Z</time></trkpt><trkpt lat="42.1733333" lon="14.693095"><ele>36.0</ele><time>2026-04-10T10:13:59.859Z</time></trkpt><trkpt lat="42.1734383" lon="14.6931433"><ele>35.6</ele><time>2026-04-10T10:14:01.86Z</time></trkpt><trkpt lat="42.1735383" lon="14.693205"><ele>35.2</ele><time>2026-04-10T10:14:03.859Z</time></trkpt><trkpt lat="42.173635" lon="14.69326"><ele>34.8</ele><time>2026-04-10T10:14:05.859Z</time></trkpt><trkpt lat="42.1737317" lon="14.69332"><ele>34.4</ele><time>2026-04-10T10:14:07.86Z</time></trkpt><trkpt lat="42.1738283" lon="14.69338"><ele>34.0</ele><time>2026-04-10T10:14:09.859Z</time></trkpt><trkpt lat="42.1739167" lon="14.6934383"><ele>34.0</ele><time>2026-04-10T10:14:11.86Z</time></trkpt><trkpt lat="42.1739983" lon="14.6935"><ele>34.0</ele><time>2026-04-10T10:14:13.86Z</time></trkpt><trkpt lat="42.1740783" lon="14.6935583"><ele>34.0</ele><time>2026-04-10T10:14:15.86Z</time></trkpt><trkpt lat="42.1741533" lon="14.69362"><ele>34.0</ele><time>2026-04-10T10:14:17.859Z</time></trkpt><trkpt lat="42.1742133" lon="14.6936517"><ele>34.0</ele><time>2026-04-10T10:14:19.86Z</time></trkpt><trkpt lat="42.1742767" lon="14.693685"><ele>34.0</ele><time>2026-04-10T10:14:22.86Z</time></trkpt><trkpt lat="42.17434" lon="14.6937217"><ele>34.0</ele><time>2026-04-10T10:14:26.86Z</time></trkpt><trkpt lat="42.174365" lon="14.6936083"><ele>34.0</ele><time>2026-04-10T10:14:43.859Z</time></trkpt><trkpt lat="42.1743867" lon="14.6935217"><ele>34.0</ele><time>2026-04-10T10:14:47.86Z</time></trkpt><trkpt lat="42.1744417" lon="14.6934667"><ele>34.0</ele><time>2026-04-10T10:14:52.86Z</time></trkpt><trkpt lat="42.1745033" lon="14.6934183"><ele>34.0</ele><time>2026-04-10T10:14:56.859Z</time></trkpt><trkpt lat="42.174585" lon="14.6933567"><ele>34.0</ele><time>2026-04-10T10:15:00.86Z</time></trkpt><trkpt lat="42.1746417" lon="14.6933"><ele>34.0</ele><time>2026-04-10T10:15:02.86Z</time></trkpt><trkpt lat="42.1747083" lon="14.6932383"><ele>34.0</ele><time>2026-04-10T10:15:04.86Z</time></trkpt><trkpt lat="42.1747833" lon="14.6931667"><ele>34.0</ele><time>2026-04-10T10:15:06.86Z</time></trkpt><trkpt lat="42.1748583" lon="14.693105"><ele>34.0</ele><time>2026-04-10T10:15:08.86Z</time></trkpt><trkpt lat="42.1749333" lon="14.693035"><ele>34.0</ele><time>2026-04-10T10:15:10.86Z</time></trkpt><trkpt lat="42.1750033" lon="14.692965"><ele>34.0</ele><time>2026-04-10T10:15:12.86Z</time></trkpt><trkpt lat="42.1750967" lon="14.6928683"><ele>34.2</ele><time>2026-04-10T10:15:14.859Z</time></trkpt><trkpt lat="42.17518" lon="14.6927733"><ele>34.4</ele><time>2026-04-10T10:15:16.86Z</time></trkpt><trkpt lat="42.175265" lon="14.6926817"><ele>34.6</ele><time>2026-04-10T10:15:18.86Z</time></trkpt><trkpt lat="42.1753467" lon="14.6925783"><ele>34.8</ele><time>2026-04-10T10:15:20.859Z</time></trkpt><trkpt lat="42.17542" lon="14.6924617"><ele>35.0</ele><time>2026-04-10T10:15:22.86Z</time></trkpt><trkpt lat="42.1754767" lon="14.6923483"><ele>35.0</ele><time>2026-04-10T10:15:24.859Z</time></trkpt><trkpt lat="42.1755317" lon="14.6922283"><ele>35.0</ele><time>2026-04-10T10:15:26.86Z</time></trkpt><trkpt lat="42.175585" lon="14.6921"><ele>35.0</ele><time>2026-04-10T10:15:28.859Z</time></trkpt><trkpt lat="42.17563" lon="14.6919617"><ele>35.0</ele><time>2026-04-10T10:15:30.86Z</time></trkpt><trkpt lat="42.1756717" lon="14.691835"><ele>35.0</ele><time>2026-04-10T10:15:32.86Z</time></trkpt><trkpt lat="42.1757217" lon="14.6917283"><ele>35.0</ele><time>2026-04-10T10:15:34.859Z</time></trkpt><trkpt lat="42.1757633" lon="14.6916283"><ele>35.0</ele><time>2026-04-10T10:15:36.859Z</time></trkpt><trkpt lat="42.175805" lon="14.69152"><ele>35.0</ele><time>2026-04-10T10:15:38.86Z</time></trkpt><trkpt lat="42.175845" lon="14.691415"><ele>35.0</ele><time>2026-04-10T10:15:40.86Z</time></trkpt><trkpt lat="42.175875" lon="14.6913033"><ele>35.0</ele><time>2026-04-10T10:15:42.859Z</time></trkpt><trkpt lat="42.1759133" lon="14.6911867"><ele>35.0</ele><time>2026-04-10T10:15:44.86Z</time></trkpt><trkpt lat="42.1759583" lon="14.691065"><ele>35.0</ele><time>2026-04-10T10:15:46.86Z</time></trkpt><trkpt lat="42.1759983" lon="14.6909367"><ele>35.0</ele><time>2026-04-10T10:15:48.859Z</time></trkpt><trkpt lat="42.1760417" lon="14.6907983"><ele>35.0</ele><time>2026-04-10T10:15:50.859Z</time></trkpt><trkpt lat="42.176085" lon="14.6906667"><ele>35.0</ele><time>2026-04-10T10:15:52.86Z</time></trkpt><trkpt lat="42.1761317" lon="14.6905333"><ele>35.0</ele><time>2026-04-10T10:15:54.859Z</time></trkpt><trkpt lat="42.1761733" lon="14.6903967"><ele>35.0</ele><time>2026-04-10T10:15:56.86Z</time></trkpt><trkpt lat="42.1762167" lon="14.6902633"><ele>35.0</ele><time>2026-04-10T10:15:58.86Z</time></trkpt><trkpt lat="42.17626" lon="14.6901317"><ele>35.0</ele><time>2026-04-10T10:16:00.86Z</time></trkpt><trkpt lat="42.1763" lon="14.6900133"><ele>35.0</ele><time>2026-04-10T10:16:02.859Z</time></trkpt><trkpt lat="42.17634" lon="14.689895"><ele>35.0</ele><time>2026-04-10T10:16:04.86Z</time></trkpt><trkpt lat="42.1763783" lon="14.689775"><ele>34.83333333333333</ele><time>2026-04-10T10:16:06.859Z</time></trkpt><trkpt lat="42.1764167" lon="14.6896617"><ele>34.666666666666664</ele><time>2026-04-10T10:16:08.86Z</time></trkpt><trkpt lat="42.176455" lon="14.6895533"><ele>34.5</ele><time>2026-04-10T10:16:10.86Z</time></trkpt><trkpt lat="42.176495" lon="14.6894467"><ele>34.333333333333336</ele><time>2026-04-10T10:16:12.86Z</time></trkpt><trkpt lat="42.1765333" lon="14.6893367"><ele>34.16666666666667</ele><time>2026-04-10T10:16:14.86Z</time></trkpt><trkpt lat="42.176585" lon="14.6892383"><ele>34.0</ele><time>2026-04-10T10:16:16.859Z</time></trkpt><trkpt lat="42.1766517" lon="14.6891483"><ele>33.6</ele><time>2026-04-10T10:16:18.86Z</time></trkpt><trkpt lat="42.1767367" lon="14.6890783"><ele>33.2</ele><time>2026-04-10T10:16:20.86Z</time></trkpt><trkpt lat="42.17684" lon="14.6890333"><ele>32.800000000000004</ele><time>2026-04-10T10:16:22.86Z</time></trkpt><trkpt lat="42.1769533" lon="14.68901"><ele>32.4</ele><time>2026-04-10T10:16:24.86Z</time></trkpt><trkpt lat="42.1770667" lon="14.689"><ele>32.0</ele><time>2026-04-10T10:16:26.859Z</time></trkpt><trkpt lat="42.1771767" lon="14.6889817"><ele>31.999999999999996</ele><time>2026-04-10T10:16:28.859Z</time></trkpt><trkpt lat="42.1772867" lon="14.6889183"><ele>32.0</ele><time>2026-04-10T10:16:30.859Z</time></trkpt><trkpt lat="42.17734" lon="14.6888633"><ele>32.0</ele><time>2026-04-10T10:16:31.859Z</time></trkpt><trkpt lat="42.177385" lon="14.6888033"><ele>32.0</ele><time>2026-04-10T10:16:32.86Z</time></trkpt><trkpt lat="42.177425" lon="14.6887367"><ele>31.999999999999996</ele><time>2026-04-10T10:16:33.86Z</time></trkpt><trkpt lat="42.177465" lon="14.6886617"><ele>32.0</ele><time>2026-04-10T10:16:34.86Z</time></trkpt><trkpt lat="42.177505" lon="14.6885867"><ele>31.499999999999996</ele><time>2026-04-10T10:16:35.859Z</time></trkpt><trkpt lat="42.1775517" lon="14.6885183"><ele>31.0</ele><time>2026-04-10T10:16:36.86Z</time></trkpt><trkpt lat="42.1776" lon="14.6884483"><ele>30.5</ele><time>2026-04-10T10:16:37.86Z</time></trkpt><trkpt lat="42.1776483" lon="14.688385"><ele>30.0</ele><time>2026-04-10T10:16:38.86Z</time></trkpt><trkpt lat="42.177695" lon="14.6883217"><ele>29.499999999999996</ele><time>2026-04-10T10:16:39.859Z</time></trkpt><trkpt lat="42.1777433" lon="14.6882583"><ele>29.0</ele><time>2026-04-10T10:16:40.86Z</time></trkpt><trkpt lat="42.1778317" lon="14.68814"><ele>29.0</ele><time>2026-04-10T10:16:42.86Z</time></trkpt><trkpt lat="42.1779167" lon="14.6880333"><ele>29.0</ele><time>2026-04-10T10:16:44.859Z</time></trkpt><trkpt lat="42.1780033" lon="14.6879367"><ele>29.0</ele><time>2026-04-10T10:16:46.859Z</time></trkpt><trkpt lat="42.1780933" lon="14.687865"><ele>29.0</ele><time>2026-04-10T10:16:48.86Z</time></trkpt><trkpt lat="42.1781833" lon="14.6877983"><ele>29.0</ele><time>2026-04-10T10:16:50.86Z</time></trkpt><trkpt lat="42.1782717" lon="14.6877583"><ele>28.0</ele><time>2026-04-10T10:16:52.86Z</time></trkpt><trkpt lat="42.178365" lon="14.6877183"><ele>27.0</ele><time>2026-04-10T10:16:54.859Z</time></trkpt><trkpt lat="42.1784617" lon="14.6876817"><ele>26.0</ele><time>2026-04-10T10:16:56.86Z</time></trkpt><trkpt lat="42.1785567" lon="14.6876467"><ele>25.0</ele><time>2026-04-10T10:16:58.86Z</time></trkpt><trkpt lat="42.17865" lon="14.6876333"><ele>24.0</ele><time>2026-04-10T10:17:00.859Z</time></trkpt><trkpt lat="42.1787467" lon="14.6876283"><ele>24.0</ele><time>2026-04-10T10:17:02.86Z</time></trkpt><trkpt lat="42.1788467" lon="14.6876267"><ele>24.0</ele><time>2026-04-10T10:17:04.86Z</time></trkpt><trkpt lat="42.17895" lon="14.687605"><ele>24.0</ele><time>2026-04-10T10:17:06.859Z</time></trkpt><trkpt lat="42.17904" lon="14.6875583"><ele>24.0</ele><time>2026-04-10T10:17:08.86Z</time></trkpt><trkpt lat="42.1791067" lon="14.6874767"><ele>24.0</ele><time>2026-04-10T10:17:10.859Z</time></trkpt><trkpt lat="42.1791567" lon="14.6873533"><ele>22.4</ele><time>2026-04-10T10:17:12.86Z</time></trkpt><trkpt lat="42.1791767" lon="14.68721"><ele>20.799999999999997</ele><time>2026-04-10T10:17:14.859Z</time></trkpt><trkpt lat="42.17918" lon="14.6870633"><ele>19.200000000000003</ele><time>2026-04-10T10:17:16.86Z</time></trkpt><trkpt lat="42.1791617" lon="14.6869083"><ele>17.6</ele><time>2026-04-10T10:17:18.86Z</time></trkpt><trkpt lat="42.1791333" lon="14.6867583"><ele>16.0</ele><time>2026-04-10T10:17:20.86Z</time></trkpt><trkpt lat="42.179115" lon="14.6866183"><ele>15.8</ele><time>2026-04-10T10:17:22.86Z</time></trkpt><trkpt lat="42.1790817" lon="14.6865083"><ele>15.600000000000001</ele><time>2026-04-10T10:17:24.86Z</time></trkpt><trkpt lat="42.1790467" lon="14.6863983"><ele>15.4</ele><time>2026-04-10T10:17:26.86Z</time></trkpt><trkpt lat="42.178995" lon="14.6862867"><ele>15.2</ele><time>2026-04-10T10:17:28.86Z</time></trkpt><trkpt lat="42.1789317" lon="14.6861883"><ele>15.0</ele><time>2026-04-10T10:17:30.86Z</time></trkpt><trkpt lat="42.178855" lon="14.6861017"><ele>13.833333333333334</ele><time>2026-04-10T10:17:32.86Z</time></trkpt><trkpt lat="42.1787533" lon="14.686015"><ele>12.666666666666666</ele><time>2026-04-10T10:17:34.86Z</time></trkpt><trkpt lat="42.1786933" lon="14.68596"><ele>11.5</ele><time>2026-04-10T10:17:36.859Z</time></trkpt><trkpt lat="42.1786217" lon="14.6858983"><ele>10.333333333333332</ele><time>2026-04-10T10:17:39.86Z</time></trkpt><trkpt lat="42.1785567" lon="14.6858567"><ele>9.166666666666666</ele><time>2026-04-10T10:17:41.86Z</time></trkpt><trkpt lat="42.17849" lon="14.6858017"><ele>8.0</ele><time>2026-04-10T10:17:43.86Z</time></trkpt><trkpt lat="42.1784267" lon="14.6857417"><ele>7.999999999999999</ele><time>2026-04-10T10:17:45.86Z</time></trkpt><trkpt lat="42.1783667" lon="14.685675"><ele>8.0</ele><time>2026-04-10T10:17:47.86Z</time></trkpt><trkpt lat="42.17832" lon="14.6856083"><ele>8.0</ele><time>2026-04-10T10:17:50.859Z</time></trkpt><trkpt lat="42.17826" lon="14.6855367"><ele>8.0</ele><time>2026-04-10T10:17:55.86Z</time></trkpt><trkpt lat="42.178195" lon="14.6854817"><ele>7.999999999999999</ele><time>2026-04-10T10:17:59.86Z</time></trkpt><trkpt lat="42.17814" lon="14.6854217"><ele>8.0</ele><time>2026-04-10T10:18:03.86Z</time></trkpt><trkpt lat="42.1780833" lon="14.68534"><ele>8.666666666666666</ele><time>2026-04-10T10:18:07.86Z</time></trkpt><trkpt lat="42.17802" lon="14.685285"><ele>9.333333333333332</ele><time>2026-04-10T10:18:10.859Z</time></trkpt><trkpt lat="42.17795" lon="14.6852267"><ele>10.0</ele><time>2026-04-10T10:18:13.859Z</time></trkpt><trkpt lat="42.1778833" lon="14.6851683"><ele>10.666666666666666</ele><time>2026-04-10T10:18:16.859Z</time></trkpt><trkpt lat="42.17781" lon="14.6850983"><ele>11.333333333333334</ele><time>2026-04-10T10:18:19.859Z</time></trkpt><trkpt lat="42.1777517" lon="14.685055"><ele>12.0</ele><time>2026-04-10T10:18:21.86Z</time></trkpt><trkpt lat="42.17769" lon="14.6849967"><ele>12.0</ele><time>2026-04-10T10:18:23.859Z</time></trkpt><trkpt lat="42.1776467" lon="14.68489"><ele>12.0</ele><time>2026-04-10T10:18:26.86Z</time></trkpt><trkpt lat="42.1776633" lon="14.6847733"><ele>12.0</ele><time>2026-04-10T10:18:29.86Z</time></trkpt><trkpt lat="42.1776767" lon="14.68469"><ele>12.0</ele><time>2026-04-10T10:18:31.86Z</time></trkpt><trkpt lat="42.1777067" lon="14.6845967"><ele>12.0</ele><time>2026-04-10T10:18:34.86Z</time></trkpt><trkpt lat="42.1777617" lon="14.6845367"><ele>12.0</ele><time>2026-04-10T10:18:37.86Z</time></trkpt><trkpt lat="42.1778433" lon="14.6844933"><ele>11.999999999999998</ele><time>2026-04-10T10:18:40.86Z</time></trkpt><trkpt lat="42.177905" lon="14.6844717"><ele>12.0</ele><time>2026-04-10T10:18:42.86Z</time></trkpt><trkpt lat="42.1779683" lon="14.6844533"><ele>12.0</ele><time>2026-04-10T10:18:44.859Z</time></trkpt><trkpt lat="42.1780583" lon="14.684445"><ele>12.0</ele><time>2026-04-10T10:18:47.86Z</time></trkpt><trkpt lat="42.17813" lon="14.6844383"><ele>12.0</ele><time>2026-04-10T10:18:50.859Z</time></trkpt><trkpt lat="42.1782117" lon="14.6844233"><ele>11.999999999999998</ele><time>2026-04-10T10:18:53.86Z</time></trkpt><trkpt lat="42.17828" lon="14.68439"><ele>12.0</ele><time>2026-04-10T10:18:56.859Z</time></trkpt><trkpt lat="42.1783483" lon="14.6843517"><ele>12.666666666666666</ele><time>2026-04-10T10:18:59.86Z</time></trkpt><trkpt lat="42.1784167" lon="14.6843367"><ele>13.333333333333332</ele><time>2026-04-10T10:19:02.86Z</time></trkpt><trkpt lat="42.178495" lon="14.6843183"><ele>14.0</ele><time>2026-04-10T10:19:05.86Z</time></trkpt><trkpt lat="42.1785667" lon="14.68428"><ele>14.666666666666666</ele><time>2026-04-10T10:19:08.86Z</time></trkpt><trkpt lat="42.178645" lon="14.6842417"><ele>15.333333333333332</ele><time>2026-04-10T10:19:11.86Z</time></trkpt><trkpt lat="42.1787167" lon="14.6841883"><ele>16.0</ele><time>2026-04-10T10:19:14.859Z</time></trkpt><trkpt lat="42.1787817" lon="14.684135"><ele>15.999999999999998</ele><time>2026-04-10T10:19:17.86Z</time></trkpt><trkpt lat="42.178845" lon="14.684075"><ele>16.0</ele><time>2026-04-10T10:19:20.86Z</time></trkpt><trkpt lat="42.1789133" lon="14.68401"><ele>16.0</ele><time>2026-04-10T10:19:23.86Z</time></trkpt><trkpt lat="42.1789767" lon="14.6839483"><ele>16.0</ele><time>2026-04-10T10:19:26.859Z</time></trkpt><trkpt lat="42.17904" lon="14.68388"><ele>15.999999999999998</ele><time>2026-04-10T10:19:29.86Z</time></trkpt><trkpt lat="42.1790967" lon="14.6838033"><ele>16.0</ele><time>2026-04-10T10:19:32.86Z</time></trkpt><trkpt lat="42.1791417" lon="14.6837217"><ele>15.666666666666666</ele><time>2026-04-10T10:19:35.86Z</time></trkpt><trkpt lat="42.179175" lon="14.6836033"><ele>15.333333333333332</ele><time>2026-04-10T10:19:38.86Z</time></trkpt><trkpt lat="42.1791833" lon="14.6835183"><ele>15.0</ele><time>2026-04-10T10:19:40.859Z</time></trkpt><trkpt lat="42.1791833" lon="14.6834283"><ele>14.666666666666668</ele><time>2026-04-10T10:19:42.86Z</time></trkpt><trkpt lat="42.1791783" lon="14.683335"><ele>14.333333333333334</ele><time>2026-04-10T10:19:44.859Z</time></trkpt><trkpt lat="42.17916" lon="14.683215"><ele>14.0</ele><time>2026-04-10T10:19:47.859Z</time></trkpt><trkpt lat="42.1791067" lon="14.6831167"><ele>14.833333333333334</ele><time>2026-04-10T10:19:50.86Z</time></trkpt><trkpt lat="42.17903" lon="14.6830767"><ele>15.666666666666668</ele><time>2026-04-10T10:19:53.86Z</time></trkpt><trkpt lat="42.1789533" lon="14.6830583"><ele>16.5</ele><time>2026-04-10T10:19:56.859Z</time></trkpt><trkpt lat="42.1788567" lon="14.6830317"><ele>17.333333333333332</ele><time>2026-04-10T10:19:59.859Z</time></trkpt><trkpt lat="42.1787817" lon="14.6830117"><ele>18.166666666666664</ele><time>2026-04-10T10:20:01.859Z</time></trkpt><trkpt lat="42.1786967" lon="14.6829883"><ele>19.0</ele><time>2026-04-10T10:20:03.86Z</time></trkpt><trkpt lat="42.1786167" lon="14.6829633"><ele>19.333333333333332</ele><time>2026-04-10T10:20:05.86Z</time></trkpt><trkpt lat="42.17854" lon="14.68295"><ele>19.666666666666664</ele><time>2026-04-10T10:20:07.86Z</time></trkpt><trkpt lat="42.1784683" lon="14.6829367"><ele>20.0</ele><time>2026-04-10T10:20:09.86Z</time></trkpt><trkpt lat="42.17839" lon="14.682915"><ele>20.333333333333332</ele><time>2026-04-10T10:20:11.859Z</time></trkpt><trkpt lat="42.1783183" lon="14.6829"><ele>20.666666666666668</ele><time>2026-04-10T10:20:13.86Z</time></trkpt><trkpt lat="42.1782333" lon="14.6828917"><ele>21.0</ele><time>2026-04-10T10:20:15.86Z</time></trkpt><trkpt lat="42.17815" lon="14.6828767"><ele>21.0</ele><time>2026-04-10T10:20:17.859Z</time></trkpt><trkpt lat="42.1780667" lon="14.6828567"><ele>21.0</ele><time>2026-04-10T10:20:19.86Z</time></trkpt><trkpt lat="42.17798" lon="14.6828333"><ele>21.0</ele><time>2026-04-10T10:20:21.859Z</time></trkpt><trkpt lat="42.17788" lon="14.6828217"><ele>21.0</ele><time>2026-04-10T10:20:23.86Z</time></trkpt><trkpt lat="42.1777917" lon="14.6828167"><ele>21.0</ele><time>2026-04-10T10:20:25.86Z</time></trkpt><trkpt lat="42.177725" lon="14.6828017"><ele>21.0</ele><time>2026-04-10T10:20:27.859Z</time></trkpt><trkpt lat="42.1776417" lon="14.682765"><ele>22.0</ele><time>2026-04-10T10:20:30.859Z</time></trkpt><trkpt lat="42.1775617" lon="14.68275"><ele>23.0</ele><time>2026-04-10T10:20:32.859Z</time></trkpt><trkpt lat="42.1774783" lon="14.6827383"><ele>24.0</ele><time>2026-04-10T10:20:34.86Z</time></trkpt><trkpt lat="42.1773967" lon="14.6827317"><ele>25.0</ele><time>2026-04-10T10:20:36.86Z</time></trkpt><trkpt lat="42.1773217" lon="14.68272"><ele>26.0</ele><time>2026-04-10T10:20:38.86Z</time></trkpt><trkpt lat="42.1772317" lon="14.6826967"><ele>27.0</ele><time>2026-04-10T10:20:40.859Z</time></trkpt><trkpt lat="42.17714" lon="14.6826767"><ele>27.0</ele><time>2026-04-10T10:20:42.859Z</time></trkpt><trkpt lat="42.177055" lon="14.6826517"><ele>27.0</ele><time>2026-04-10T10:20:44.86Z</time></trkpt><trkpt lat="42.176965" lon="14.6826233"><ele>27.0</ele><time>2026-04-10T10:20:46.86Z</time></trkpt><trkpt lat="42.1768717" lon="14.6825933"><ele>27.0</ele><time>2026-04-10T10:20:48.86Z</time></trkpt><trkpt lat="42.1767917" lon="14.6825617"><ele>27.0</ele><time>2026-04-10T10:20:50.86Z</time></trkpt><trkpt lat="42.17671" lon="14.6825267"><ele>27.0</ele><time>2026-04-10T10:20:52.859Z</time></trkpt><trkpt lat="42.1766417" lon="14.6824767"><ele>27.0</ele><time>2026-04-10T10:20:54.86Z</time></trkpt><trkpt lat="42.1765917" lon="14.6824117"><ele>27.0</ele><time>2026-04-10T10:20:56.86Z</time></trkpt><trkpt lat="42.17657" lon="14.6823317"><ele>27.0</ele><time>2026-04-10T10:20:58.86Z</time></trkpt><trkpt lat="42.1765683" lon="14.6822317"><ele>27.0</ele><time>2026-04-10T10:21:00.86Z</time></trkpt><trkpt lat="42.17659" lon="14.6821417"><ele>27.0</ele><time>2026-04-10T10:21:02.859Z</time></trkpt><trkpt lat="42.1766117" lon="14.6820383"><ele>27.0</ele><time>2026-04-10T10:21:04.86Z</time></trkpt><trkpt lat="42.1766467" lon="14.6819483"><ele>27.0</ele><time>2026-04-10T10:21:06.859Z</time></trkpt><trkpt lat="42.1766817" lon="14.681845"><ele>27.166666666666668</ele><time>2026-04-10T10:21:09.859Z</time></trkpt><trkpt lat="42.1767117" lon="14.68174"><ele>27.333333333333336</ele><time>2026-04-10T10:21:12.859Z</time></trkpt><trkpt lat="42.1767333" lon="14.6816583"><ele>27.5</ele><time>2026-04-10T10:21:14.859Z</time></trkpt><trkpt lat="42.17671" lon="14.6815417"><ele>27.666666666666668</ele><time>2026-04-10T10:21:17.859Z</time></trkpt><trkpt lat="42.17666" lon="14.6814817"><ele>27.833333333333336</ele><time>2026-04-10T10:21:19.86Z</time></trkpt><trkpt lat="42.176595" lon="14.68142"><ele>28.0</ele><time>2026-04-10T10:21:21.86Z</time></trkpt><trkpt lat="42.1765117" lon="14.6813783"><ele>28.000000000000004</ele><time>2026-04-10T10:21:23.86Z</time></trkpt><trkpt lat="42.1764317" lon="14.6813767"><ele>28.0</ele><time>2026-04-10T10:21:25.86Z</time></trkpt><trkpt lat="42.17636" lon="14.68136"><ele>28.0</ele><time>2026-04-10T10:21:27.86Z</time></trkpt><trkpt lat="42.1763217" lon="14.6812733"><ele>28.0</ele><time>2026-04-10T10:21:29.86Z</time></trkpt><trkpt lat="42.1762867" lon="14.681165"><ele>28.000000000000004</ele><time>2026-04-10T10:21:31.86Z</time></trkpt><trkpt lat="42.17626" lon="14.681035"><ele>28.0</ele><time>2026-04-10T10:21:33.86Z</time></trkpt><trkpt lat="42.1762233" lon="14.6809183"><ele>29.0</ele><time>2026-04-10T10:21:35.86Z</time></trkpt><trkpt lat="42.17618" lon="14.6808067"><ele>29.999999999999996</ele><time>2026-04-10T10:21:37.859Z</time></trkpt><trkpt lat="42.17613" lon="14.6806983"><ele>30.999999999999996</ele><time>2026-04-10T10:21:39.86Z</time></trkpt><trkpt lat="42.1760767" lon="14.68059"><ele>32.0</ele><time>2026-04-10T10:21:41.86Z</time></trkpt><trkpt lat="42.1760067" lon="14.680495"><ele>33.0</ele><time>2026-04-10T10:21:43.86Z</time></trkpt><trkpt lat="42.1759283" lon="14.6804117"><ele>33.0</ele><time>2026-04-10T10:21:45.859Z</time></trkpt><trkpt lat="42.175855" lon="14.6803283"><ele>33.0</ele><time>2026-04-10T10:21:47.86Z</time></trkpt><trkpt lat="42.1757883" lon="14.6802417"><ele>33.0</ele><time>2026-04-10T10:21:49.86Z</time></trkpt><trkpt lat="42.17572" lon="14.6801567"><ele>33.0</ele><time>2026-04-10T10:21:51.86Z</time></trkpt><trkpt lat="42.1756583" lon="14.6800617"><ele>33.0</ele><time>2026-04-10T10:21:53.859Z</time></trkpt><trkpt lat="42.1755883" lon="14.6799667"><ele>33.5</ele><time>2026-04-10T10:21:55.859Z</time></trkpt><trkpt lat="42.1755233" lon="14.679875"><ele>34.0</ele><time>2026-04-10T10:21:57.859Z</time></trkpt><trkpt lat="42.1754667" lon="14.6797917"><ele>34.5</ele><time>2026-04-10T10:21:59.86Z</time></trkpt><trkpt lat="42.1754117" lon="14.6797117"><ele>35.0</ele><time>2026-04-10T10:22:01.86Z</time></trkpt><trkpt lat="42.175355" lon="14.679635"><ele>35.5</ele><time>2026-04-10T10:22:03.86Z</time></trkpt><trkpt lat="42.1752933" lon="14.6795467"><ele>36.0</ele><time>2026-04-10T10:22:05.86Z</time></trkpt><trkpt lat="42.17524" lon="14.6794467"><ele>36.166666666666664</ele><time>2026-04-10T10:22:07.86Z</time></trkpt><trkpt lat="42.1751833" lon="14.6793467"><ele>36.333333333333336</ele><time>2026-04-10T10:22:09.859Z</time></trkpt><trkpt lat="42.1751583" lon="14.6792483"><ele>36.5</ele><time>2026-04-10T10:22:11.86Z</time></trkpt><trkpt lat="42.17515" lon="14.6791483"><ele>36.66666666666667</ele><time>2026-04-10T10:22:13.86Z</time></trkpt><trkpt lat="42.1751683" lon="14.679045"><ele>36.833333333333336</ele><time>2026-04-10T10:22:15.859Z</time></trkpt><trkpt lat="42.1751983" lon="14.6789417"><ele>37.0</ele><time>2026-04-10T10:22:17.86Z</time></trkpt><trkpt lat="42.17524" lon="14.6788367"><ele>37.0</ele><time>2026-04-10T10:22:19.859Z</time></trkpt><trkpt lat="42.1752883" lon="14.6787383"><ele>37.0</ele><time>2026-04-10T10:22:21.86Z</time></trkpt><trkpt lat="42.1753433" lon="14.6786583"><ele>37.0</ele><time>2026-04-10T10:22:23.86Z</time></trkpt><trkpt lat="42.1754017" lon="14.678575"><ele>37.0</ele><time>2026-04-10T10:22:25.859Z</time></trkpt><trkpt lat="42.1754583" lon="14.6784983"><ele>37.0</ele><time>2026-04-10T10:22:27.86Z</time></trkpt><trkpt lat="42.175515" lon="14.6784167"><ele>37.0</ele><time>2026-04-10T10:22:29.86Z</time></trkpt><trkpt lat="42.1755617" lon="14.6783317"><ele>37.0</ele><time>2026-04-10T10:22:31.859Z</time></trkpt><trkpt lat="42.1756" lon="14.6782383"><ele>37.0</ele><time>2026-04-10T10:22:33.86Z</time></trkpt><trkpt lat="42.1756283" lon="14.6781417"><ele>37.0</ele><time>2026-04-10T10:22:35.859Z</time></trkpt><trkpt lat="42.1756533" lon="14.6780333"><ele>37.0</ele><time>2026-04-10T10:22:37.86Z</time></trkpt><trkpt lat="42.17568" lon="14.6779133"><ele>37.0</ele><time>2026-04-10T10:22:39.86Z</time></trkpt><trkpt lat="42.1757117" lon="14.67778"><ele>37.0</ele><time>2026-04-10T10:22:41.86Z</time></trkpt><trkpt lat="42.1757317" lon="14.6776583"><ele>37.0</ele><time>2026-04-10T10:22:43.86Z</time></trkpt><trkpt lat="42.1757333" lon="14.6775333"><ele>37.0</ele><time>2026-04-10T10:22:45.86Z</time></trkpt><trkpt lat="42.1757017" lon="14.6774183"><ele>37.0</ele><time>2026-04-10T10:22:47.86Z</time></trkpt><trkpt lat="42.175635" lon="14.677355"><ele>37.0</ele><time>2026-04-10T10:22:49.859Z</time></trkpt><trkpt lat="42.1755583" lon="14.67735"><ele>37.0</ele><time>2026-04-10T10:22:52.859Z</time></trkpt><trkpt lat="42.1754933" lon="14.677395"><ele>37.0</ele><time>2026-04-10T10:22:55.86Z</time></trkpt><trkpt lat="42.1753983" lon="14.6774417"><ele>37.16666666666667</ele><time>2026-04-10T10:22:58.86Z</time></trkpt><trkpt lat="42.1753383" lon="14.6774717"><ele>37.333333333333336</ele><time>2026-04-10T10:23:00.86Z</time></trkpt><trkpt lat="42.175245" lon="14.6775133"><ele>37.5</ele><time>2026-04-10T10:23:03.86Z</time></trkpt><trkpt lat="42.1751567" lon="14.677525"><ele>37.666666666666664</ele><time>2026-04-10T10:23:05.86Z</time></trkpt><trkpt lat="42.1750683" lon="14.67753"><ele>37.83333333333333</ele><time>2026-04-10T10:23:07.86Z</time></trkpt><trkpt lat="42.1749867" lon="14.6775167"><ele>38.0</ele><time>2026-04-10T10:23:09.859Z</time></trkpt><trkpt lat="42.1748983" lon="14.6775017"><ele>38.199999999999996</ele><time>2026-04-10T10:23:11.86Z</time></trkpt><trkpt lat="42.1747967" lon="14.6774883"><ele>38.4</ele><time>2026-04-10T10:23:13.86Z</time></trkpt><trkpt lat="42.1746917" lon="14.6774733"><ele>38.599999999999994</ele><time>2026-04-10T10:23:15.86Z</time></trkpt><trkpt lat="42.1745817" lon="14.6774417"><ele>38.8</ele><time>2026-04-10T10:23:17.86Z</time></trkpt><trkpt lat="42.1744817" lon="14.6773933"><ele>39.0</ele><time>2026-04-10T10:23:19.86Z</time></trkpt><trkpt lat="42.1743917" lon="14.6773267"><ele>39.0</ele><time>2026-04-10T10:23:21.86Z</time></trkpt><trkpt lat="42.1743033" lon="14.6772633"><ele>39.0</ele><time>2026-04-10T10:23:23.86Z</time></trkpt><trkpt lat="42.1742217" lon="14.6771933"><ele>39.0</ele><time>2026-04-10T10:23:25.86Z</time></trkpt><trkpt lat="42.1741417" lon="14.6771167"><ele>39.0</ele><time>2026-04-10T10:23:27.86Z</time></trkpt><trkpt lat="42.1740533" lon="14.677045"><ele>39.0</ele><time>2026-04-10T10:23:29.859Z</time></trkpt><trkpt lat="42.1739667" lon="14.6769667"><ele>39.4</ele><time>2026-04-10T10:23:31.86Z</time></trkpt><trkpt lat="42.1738867" lon="14.67689"><ele>39.8</ele><time>2026-04-10T10:23:33.86Z</time></trkpt><trkpt lat="42.1738033" lon="14.6768233"><ele>40.199999999999996</ele><time>2026-04-10T10:23:35.859Z</time></trkpt><trkpt lat="42.1737217" lon="14.6767633"><ele>40.599999999999994</ele><time>2026-04-10T10:23:37.859Z</time></trkpt><trkpt lat="42.17364" lon="14.6767017"><ele>41.0</ele><time>2026-04-10T10:23:39.859Z</time></trkpt><trkpt lat="42.173565" lon="14.6766417"><ele>41.0</ele><time>2026-04-10T10:23:41.86Z</time></trkpt><trkpt lat="42.17349" lon="14.676595"><ele>41.0</ele><time>2026-04-10T10:23:43.86Z</time></trkpt><trkpt lat="42.1734217" lon="14.6765533"><ele>41.0</ele><time>2026-04-10T10:23:45.859Z</time></trkpt><trkpt lat="42.1733517" lon="14.6765083"><ele>41.0</ele><time>2026-04-10T10:23:47.859Z</time></trkpt><trkpt lat="42.1732767" lon="14.6764667"><ele>41.0</ele><time>2026-04-10T10:23:49.86Z</time></trkpt><trkpt lat="42.1732067" lon="14.676415"><ele>41.0</ele><time>2026-04-10T10:23:51.86Z</time></trkpt><trkpt lat="42.1731367" lon="14.6763633"><ele>41.0</ele><time>2026-04-10T10:23:53.86Z</time></trkpt><trkpt lat="42.1730567" lon="14.6763117"><ele>41.0</ele><time>2026-04-10T10:23:55.86Z</time></trkpt><trkpt lat="42.172975" lon="14.67626"><ele>41.0</ele><time>2026-04-10T10:23:57.86Z</time></trkpt><trkpt lat="42.1729033" lon="14.6762067"><ele>41.0</ele><time>2026-04-10T10:23:59.859Z</time></trkpt><trkpt lat="42.1728267" lon="14.6761583"><ele>41.0</ele><time>2026-04-10T10:24:01.859Z</time></trkpt><trkpt lat="42.17275" lon="14.6761033"><ele>41.0</ele><time>2026-04-10T10:24:03.859Z</time></trkpt><trkpt lat="42.1726767" lon="14.6760483"><ele>41.33333333333333</ele><time>2026-04-10T10:24:05.86Z</time></trkpt><trkpt lat="42.1726033" lon="14.6759967"><ele>41.666666666666664</ele><time>2026-04-10T10:24:07.859Z</time></trkpt><trkpt lat="42.1725283" lon="14.67595"><ele>42.0</ele><time>2026-04-10T10:24:09.86Z</time></trkpt><trkpt lat="42.1724483" lon="14.6759067"><ele>42.333333333333336</ele><time>2026-04-10T10:24:11.86Z</time></trkpt><trkpt lat="42.1723783" lon="14.67585"><ele>42.66666666666667</ele><time>2026-04-10T10:24:13.86Z</time></trkpt><trkpt lat="42.172305" lon="14.6757917"><ele>43.0</ele><time>2026-04-10T10:24:15.86Z</time></trkpt><trkpt lat="42.17223" lon="14.6757333"><ele>43.16666666666667</ele><time>2026-04-10T10:24:17.86Z</time></trkpt><trkpt lat="42.17216" lon="14.6756883"><ele>43.333333333333336</ele><time>2026-04-10T10:24:19.859Z</time></trkpt><trkpt lat="42.172085" lon="14.6756383"><ele>43.5</ele><time>2026-04-10T10:24:21.86Z</time></trkpt><trkpt lat="42.1720133" lon="14.6755817"><ele>43.666666666666664</ele><time>2026-04-10T10:24:23.86Z</time></trkpt><trkpt lat="42.1719417" lon="14.6755233"><ele>43.83333333333333</ele><time>2026-04-10T10:24:25.86Z</time></trkpt><trkpt lat="42.1718683" lon="14.6754733"><ele>44.0</ele><time>2026-04-10T10:24:27.86Z</time></trkpt><trkpt lat="42.1717983" lon="14.6754267"><ele>44.0</ele><time>2026-04-10T10:24:29.86Z</time></trkpt><trkpt lat="42.1717333" lon="14.6753767"><ele>44.0</ele><time>2026-04-10T10:24:31.86Z</time></trkpt><trkpt lat="42.1716667" lon="14.675335"><ele>44.0</ele><time>2026-04-10T10:24:33.859Z</time></trkpt><trkpt lat="42.171605" lon="14.67529"><ele>44.0</ele><time>2026-04-10T10:24:35.86Z</time></trkpt><trkpt lat="42.1715383" lon="14.675245"><ele>44.0</ele><time>2026-04-10T10:24:37.86Z</time></trkpt><trkpt lat="42.171475" lon="14.675205"><ele>44.0</ele><time>2026-04-10T10:24:39.86Z</time></trkpt><trkpt lat="42.1714117" lon="14.67516"><ele>44.0</ele><time>2026-04-10T10:24:41.859Z</time></trkpt><trkpt lat="42.1713517" lon="14.6751133"><ele>44.33333333333333</ele><time>2026-04-10T10:24:43.86Z</time></trkpt><trkpt lat="42.1712917" lon="14.67504"><ele>44.666666666666664</ele><time>2026-04-10T10:24:46.86Z</time></trkpt><trkpt lat="42.1713383" lon="14.6749383"><ele>45.0</ele><time>2026-04-10T10:24:49.86Z</time></trkpt><trkpt lat="42.1714017" lon="14.6748767"><ele>45.333333333333336</ele><time>2026-04-10T10:24:51.86Z</time></trkpt><trkpt lat="42.1714667" lon="14.6748"><ele>45.66666666666667</ele><time>2026-04-10T10:24:53.86Z</time></trkpt><trkpt lat="42.1715333" lon="14.6747183"><ele>46.0</ele><time>2026-04-10T10:24:55.86Z</time></trkpt><trkpt lat="42.1716067" lon="14.6746117"><ele>46.0</ele><time>2026-04-10T10:24:57.86Z</time></trkpt><trkpt lat="42.1716583" lon="14.674515"><ele>46.0</ele><time>2026-04-10T10:24:59.859Z</time></trkpt><trkpt lat="42.171705" lon="14.6744117"><ele>46.0</ele><time>2026-04-10T10:25:01.859Z</time></trkpt><trkpt lat="42.1717533" lon="14.6743233"><ele>46.0</ele><time>2026-04-10T10:25:03.86Z</time></trkpt><trkpt lat="42.17179" lon="14.6742433"><ele>46.0</ele><time>2026-04-10T10:25:05.859Z</time></trkpt><trkpt lat="42.171825" lon="14.674165"><ele>46.0</ele><time>2026-04-10T10:25:07.86Z</time></trkpt><trkpt lat="42.1718667" lon="14.6740833"><ele>46.142857142857146</ele><time>2026-04-10T10:25:09.859Z</time></trkpt><trkpt lat="42.171905" lon="14.6740033"><ele>46.285714285714285</ele><time>2026-04-10T10:25:11.859Z</time></trkpt><trkpt lat="42.171955" lon="14.6738967"><ele>46.42857142857143</ele><time>2026-04-10T10:25:14.86Z</time></trkpt><trkpt lat="42.171995" lon="14.67382"><ele>46.57142857142857</ele><time>2026-04-10T10:25:16.859Z</time></trkpt><trkpt lat="42.1720333" lon="14.6737433"><ele>46.71428571428571</ele><time>2026-04-10T10:25:18.86Z</time></trkpt><trkpt lat="42.1720717" lon="14.6736683"><ele>46.857142857142854</ele><time>2026-04-10T10:25:20.859Z</time></trkpt><trkpt lat="42.17211" lon="14.6736"><ele>47.0</ele><time>2026-04-10T10:25:22.86Z</time></trkpt><trkpt lat="42.1721733" lon="14.673505"><ele>46.666666666666664</ele><time>2026-04-10T10:25:25.86Z</time></trkpt><trkpt lat="42.1722217" lon="14.673445"><ele>46.33333333333333</ele><time>2026-04-10T10:25:27.859Z</time></trkpt><trkpt lat="42.17227" lon="14.673375"><ele>46.0</ele><time>2026-04-10T10:25:29.86Z</time></trkpt><trkpt lat="42.1723267" lon="14.6733083"><ele>45.666666666666664</ele><time>2026-04-10T10:25:31.86Z</time></trkpt><trkpt lat="42.1723933" lon="14.6732317"><ele>45.333333333333336</ele><time>2026-04-10T10:25:33.859Z</time></trkpt><trkpt lat="42.1724533" lon="14.6731617"><ele>45.0</ele><time>2026-04-10T10:25:35.859Z</time></trkpt><trkpt lat="42.1725133" lon="14.6730933"><ele>44.833333333333336</ele><time>2026-04-10T10:25:37.86Z</time></trkpt><trkpt lat="42.1725717" lon="14.6730267"><ele>44.666666666666664</ele><time>2026-04-10T10:25:39.86Z</time></trkpt><trkpt lat="42.1726283" lon="14.6729483"><ele>44.5</ele><time>2026-04-10T10:25:41.86Z</time></trkpt><trkpt lat="42.1726817" lon="14.6728717"><ele>44.33333333333333</ele><time>2026-04-10T10:25:43.86Z</time></trkpt><trkpt lat="42.17274" lon="14.6727717"><ele>44.166666666666664</ele><time>2026-04-10T10:25:46.86Z</time></trkpt><trkpt lat="42.172775" lon="14.6726917"><ele>44.0</ele><time>2026-04-10T10:25:48.86Z</time></trkpt><trkpt lat="42.172805" lon="14.6726067"><ele>44.0</ele><time>2026-04-10T10:25:50.86Z</time></trkpt><trkpt lat="42.1728417" lon="14.672525"><ele>44.0</ele><time>2026-04-10T10:25:52.86Z</time></trkpt><trkpt lat="42.172875" lon="14.6724433"><ele>44.0</ele><time>2026-04-10T10:25:55.86Z</time></trkpt><trkpt lat="42.1729133" lon="14.6723483"><ele>44.0</ele><time>2026-04-10T10:25:58.86Z</time></trkpt><trkpt lat="42.172945" lon="14.6722533"><ele>44.0</ele><time>2026-04-10T10:26:00.86Z</time></trkpt><trkpt lat="42.1729883" lon="14.6721433"><ele>44.0</ele><time>2026-04-10T10:26:02.859Z</time></trkpt><trkpt lat="42.1730333" lon="14.6720433"><ele>44.0</ele><time>2026-04-10T10:26:04.86Z</time></trkpt><trkpt lat="42.17308" lon="14.6719533"><ele>44.0</ele><time>2026-04-10T10:26:06.86Z</time></trkpt><trkpt lat="42.1731083" lon="14.671875"><ele>44.0</ele><time>2026-04-10T10:26:08.86Z</time></trkpt><trkpt lat="42.1731483" lon="14.6717733"><ele>44.0</ele><time>2026-04-10T10:26:11.86Z</time></trkpt><trkpt lat="42.1731933" lon="14.6716617"><ele>44.0</ele><time>2026-04-10T10:26:14.859Z</time></trkpt><trkpt lat="42.1732283" lon="14.6715867"><ele>44.0</ele><time>2026-04-10T10:26:16.86Z</time></trkpt><trkpt lat="42.1732583" lon="14.6715083"><ele>44.0</ele><time>2026-04-10T10:26:18.859Z</time></trkpt><trkpt lat="42.1733067" lon="14.6714033"><ele>44.0</ele><time>2026-04-10T10:26:21.86Z</time></trkpt><trkpt lat="42.1733533" lon="14.6713017"><ele>44.0</ele><time>2026-04-10T10:26:24.86Z</time></trkpt><trkpt lat="42.1733867" lon="14.6712133"><ele>44.0</ele><time>2026-04-10T10:26:27.86Z</time></trkpt><trkpt lat="42.1734283" lon="14.6711183"><ele>44.0</ele><time>2026-04-10T10:26:32.86Z</time></trkpt><trkpt lat="42.1734767" lon="14.6710117"><ele>44.0</ele><time>2026-04-10T10:26:35.86Z</time></trkpt><trkpt lat="42.1735183" lon="14.6709133"><ele>44.5</ele><time>2026-04-10T10:26:37.859Z</time></trkpt><trkpt lat="42.1735533" lon="14.6708217"><ele>45.0</ele><time>2026-04-10T10:26:39.859Z</time></trkpt><trkpt lat="42.17359" lon="14.6707417"><ele>45.5</ele><time>2026-04-10T10:26:41.86Z</time></trkpt><trkpt lat="42.17363" lon="14.67066"><ele>46.0</ele><time>2026-04-10T10:26:43.86Z</time></trkpt><trkpt lat="42.1736633" lon="14.6705833"><ele>46.5</ele><time>2026-04-10T10:26:45.86Z</time></trkpt><trkpt lat="42.1737067" lon="14.6704717"><ele>47.0</ele><time>2026-04-10T10:26:48.86Z</time></trkpt><trkpt lat="42.17375" lon="14.6703733"><ele>47.166666666666664</ele><time>2026-04-10T10:26:51.86Z</time></trkpt><trkpt lat="42.17379" lon="14.67026"><ele>47.33333333333333</ele><time>2026-04-10T10:26:54.86Z</time></trkpt><trkpt lat="42.1738383" lon="14.670155"><ele>47.5</ele><time>2026-04-10T10:26:57.86Z</time></trkpt><trkpt lat="42.1738867" lon="14.670045"><ele>47.666666666666664</ele><time>2026-04-10T10:27:00.86Z</time></trkpt><trkpt lat="42.1739283" lon="14.6699433"><ele>47.833333333333336</ele><time>2026-04-10T10:27:03.859Z</time></trkpt><trkpt lat="42.1739567" lon="14.669865"><ele>48.0</ele><time>2026-04-10T10:27:05.859Z</time></trkpt><trkpt lat="42.1739967" lon="14.66976"><ele>47.99999999999999</ele><time>2026-04-10T10:27:08.86Z</time></trkpt><trkpt lat="42.1740433" lon="14.669665"><ele>48.0</ele><time>2026-04-10T10:27:11.859Z</time></trkpt><trkpt lat="42.1740733" lon="14.6695883"><ele>48.0</ele><time>2026-04-10T10:27:13.86Z</time></trkpt><trkpt lat="42.17412" lon="14.6694867"><ele>48.0</ele><time>2026-04-10T10:27:16.86Z</time></trkpt><trkpt lat="42.1741533" lon="14.66941"><ele>48.0</ele><time>2026-04-10T10:27:18.86Z</time></trkpt><trkpt lat="42.174185" lon="14.6693317"><ele>47.99999999999999</ele><time>2026-04-10T10:27:20.86Z</time></trkpt><trkpt lat="42.17421" lon="14.6692467"><ele>48.0</ele><time>2026-04-10T10:27:22.86Z</time></trkpt><trkpt lat="42.1742367" lon="14.6691683"><ele>48.0</ele><time>2026-04-10T10:27:24.86Z</time></trkpt><trkpt lat="42.1742667" lon="14.66906"><ele>48.0</ele><time>2026-04-10T10:27:27.86Z</time></trkpt><trkpt lat="42.174285" lon="14.6689567"><ele>48.0</ele><time>2026-04-10T10:27:30.859Z</time></trkpt><trkpt lat="42.1742883" lon="14.6688667"><ele>48.0</ele><time>2026-04-10T10:27:32.86Z</time></trkpt><trkpt lat="42.1742933" lon="14.6687433"><ele>48.0</ele><time>2026-04-10T10:27:35.859Z</time></trkpt><trkpt lat="42.1743067" lon="14.6686533"><ele>48.0</ele><time>2026-04-10T10:27:37.859Z</time></trkpt><trkpt lat="42.1743167" lon="14.6685567"><ele>47.857142857142854</ele><time>2026-04-10T10:27:39.86Z</time></trkpt><trkpt lat="42.17433" lon="14.6684567"><ele>47.714285714285715</ele><time>2026-04-10T10:27:41.859Z</time></trkpt><trkpt lat="42.1743383" lon="14.66837"><ele>47.57142857142857</ele><time>2026-04-10T10:27:43.86Z</time></trkpt><trkpt lat="42.174345" lon="14.6682833"><ele>47.42857142857143</ele><time>2026-04-10T10:27:45.86Z</time></trkpt><trkpt lat="42.1743567" lon="14.6681983"><ele>47.285714285714285</ele><time>2026-04-10T10:27:47.86Z</time></trkpt><trkpt lat="42.1743733" lon="14.668105"><ele>47.14285714285714</ele><time>2026-04-10T10:27:49.86Z</time></trkpt><trkpt lat="42.1744083" lon="14.668025"><ele>47.0</ele><time>2026-04-10T10:27:51.86Z</time></trkpt><trkpt lat="42.1744567" lon="14.667955"><ele>47.0</ele><time>2026-04-10T10:27:53.859Z</time></trkpt><trkpt lat="42.1745133" lon="14.6678883"><ele>47.0</ele><time>2026-04-10T10:27:55.86Z</time></trkpt><trkpt lat="42.1745633" lon="14.6678217"><ele>47.0</ele><time>2026-04-10T10:27:57.859Z</time></trkpt><trkpt lat="42.1746183" lon="14.66775"><ele>47.0</ele><time>2026-04-10T10:27:59.859Z</time></trkpt><trkpt lat="42.1746783" lon="14.667695"><ele>47.0</ele><time>2026-04-10T10:28:01.859Z</time></trkpt><trkpt lat="42.1747383" lon="14.6676267"><ele>47.0</ele><time>2026-04-10T10:28:03.86Z</time></trkpt><trkpt lat="42.174805" lon="14.66755"><ele>46.0</ele><time>2026-04-10T10:28:05.859Z</time></trkpt><trkpt lat="42.1748667" lon="14.6674683"><ele>45.0</ele><time>2026-04-10T10:28:07.86Z</time></trkpt><trkpt lat="42.17492" lon="14.6673983"><ele>44.0</ele><time>2026-04-10T10:28:09.86Z</time></trkpt><trkpt lat="42.17497" lon="14.66734"><ele>43.0</ele><time>2026-04-10T10:28:11.859Z</time></trkpt><trkpt lat="42.1750217" lon="14.6672833"><ele>42.0</ele><time>2026-04-10T10:28:13.86Z</time></trkpt><trkpt lat="42.1750883" lon="14.6672017"><ele>41.0</ele><time>2026-04-10T10:28:16.86Z</time></trkpt><trkpt lat="42.17515" lon="14.6671267"><ele>41.0</ele><time>2026-04-10T10:28:19.86Z</time></trkpt><trkpt lat="42.1752117" lon="14.66705"><ele>41.0</ele><time>2026-04-10T10:28:22.86Z</time></trkpt><trkpt lat="42.175275" lon="14.6669817"><ele>41.0</ele><time>2026-04-10T10:28:25.859Z</time></trkpt><trkpt lat="42.1753317" lon="14.6669317"><ele>41.0</ele><time>2026-04-10T10:28:28.859Z</time></trkpt><trkpt lat="42.1753833" lon="14.6668683"><ele>41.0</ele><time>2026-04-10T10:28:30.86Z</time></trkpt><trkpt lat="42.17544" lon="14.6667817"><ele>41.0</ele><time>2026-04-10T10:28:32.859Z</time></trkpt><trkpt lat="42.1754933" lon="14.6667083"><ele>41.285714285714285</ele><time>2026-04-10T10:28:35.357Z</time></trkpt><trkpt lat="42.1755417" lon="14.6666483"><ele>41.57142857142857</ele><time>2026-04-10T10:28:37.357Z</time></trkpt><trkpt lat="42.1756017" lon="14.6665933"><ele>41.85714285714286</ele><time>2026-04-10T10:28:39.856Z</time></trkpt><trkpt lat="42.1756533" lon="14.6665433"><ele>42.14285714285714</ele><time>2026-04-10T10:28:41.857Z</time></trkpt><trkpt lat="42.1757333" lon="14.6664833"><ele>42.42857142857143</ele><time>2026-04-10T10:28:44.857Z</time></trkpt><trkpt lat="42.175795" lon="14.6664533"><ele>42.714285714285715</ele><time>2026-04-10T10:28:46.856Z</time></trkpt><trkpt lat="42.1758583" lon="14.666385"><ele>43.0</ele><time>2026-04-10T10:28:49.857Z</time></trkpt><trkpt lat="42.1759367" lon="14.6663733"><ele>43.5</ele><time>2026-04-10T10:28:52.856Z</time></trkpt><trkpt lat="42.1760133" lon="14.666315"><ele>44.0</ele><time>2026-04-10T10:28:55.856Z</time></trkpt><trkpt lat="42.1760683" lon="14.6662583"><ele>44.5</ele><time>2026-04-10T10:28:58.857Z</time></trkpt><trkpt lat="42.17614" lon="14.6661983"><ele>45.0</ele><time>2026-04-10T10:29:01.856Z</time></trkpt><trkpt lat="42.1762083" lon="14.66616"><ele>45.5</ele><time>2026-04-10T10:29:04.857Z</time></trkpt><trkpt lat="42.1762917" lon="14.666105"><ele>46.0</ele><time>2026-04-10T10:29:07.857Z</time></trkpt><trkpt lat="42.1763483" lon="14.6660667"><ele>46.5</ele><time>2026-04-10T10:29:09.857Z</time></trkpt><trkpt lat="42.1764167" lon="14.6659883"><ele>47.0</ele><time>2026-04-10T10:29:12.857Z</time></trkpt><trkpt lat="42.17647" lon="14.6659317"><ele>47.5</ele><time>2026-04-10T10:29:14.857Z</time></trkpt><trkpt lat="42.1765317" lon="14.6658617"><ele>48.0</ele><time>2026-04-10T10:29:17.857Z</time></trkpt><trkpt lat="42.1766" lon="14.6657733"><ele>48.49999999999999</ele><time>2026-04-10T10:29:21.857Z</time></trkpt><trkpt lat="42.1766517" lon="14.66571"><ele>49.0</ele><time>2026-04-10T10:29:23.857Z</time></trkpt><trkpt lat="42.176705" lon="14.6656517"><ele>48.99999999999999</ele><time>2026-04-10T10:29:25.857Z</time></trkpt><trkpt lat="42.1767633" lon="14.66558"><ele>49.0</ele><time>2026-04-10T10:29:27.857Z</time></trkpt><trkpt lat="42.1768183" lon="14.665515"><ele>49.0</ele><time>2026-04-10T10:29:29.857Z</time></trkpt><trkpt lat="42.1768967" lon="14.6654333"><ele>49.0</ele><time>2026-04-10T10:29:32.857Z</time></trkpt><trkpt lat="42.1769517" lon="14.6653767"><ele>48.99999999999999</ele><time>2026-04-10T10:29:34.857Z</time></trkpt><trkpt lat="42.177" lon="14.6653217"><ele>49.0</ele><time>2026-04-10T10:29:36.856Z</time></trkpt><trkpt lat="42.1770533" lon="14.66526"><ele>49.0</ele><time>2026-04-10T10:29:38.857Z</time></trkpt><trkpt lat="42.17711" lon="14.6651967"><ele>49.0</ele><time>2026-04-10T10:29:40.857Z</time></trkpt><trkpt lat="42.1771683" lon="14.6651267"><ele>49.0</ele><time>2026-04-10T10:29:42.857Z</time></trkpt><trkpt lat="42.17722" lon="14.6650633"><ele>49.0</ele><time>2026-04-10T10:29:44.857Z</time></trkpt><trkpt lat="42.177275" lon="14.6650117"><ele>49.0</ele><time>2026-04-10T10:29:46.857Z</time></trkpt><trkpt lat="42.17733" lon="14.664955"><ele>49.0</ele><time>2026-04-10T10:29:48.857Z</time></trkpt><trkpt lat="42.177385" lon="14.6648983"><ele>49.0</ele><time>2026-04-10T10:29:50.856Z</time></trkpt><trkpt lat="42.177435" lon="14.6648433"><ele>48.857142857142854</ele><time>2026-04-10T10:29:52.857Z</time></trkpt><trkpt lat="42.1774867" lon="14.6647883"><ele>48.714285714285715</ele><time>2026-04-10T10:29:54.856Z</time></trkpt><trkpt lat="42.177535" lon="14.6647233"><ele>48.57142857142857</ele><time>2026-04-10T10:29:56.857Z</time></trkpt><trkpt lat="42.1775817" lon="14.66466"><ele>48.42857142857143</ele><time>2026-04-10T10:29:58.857Z</time></trkpt><trkpt lat="42.177635" lon="14.6646"><ele>48.285714285714285</ele><time>2026-04-10T10:30:00.857Z</time></trkpt><trkpt lat="42.1776833" lon="14.66453"><ele>48.14285714285714</ele><time>2026-04-10T10:30:02.857Z</time></trkpt><trkpt lat="42.1777333" lon="14.664445"><ele>48.0</ele><time>2026-04-10T10:30:04.856Z</time></trkpt><trkpt lat="42.1777783" lon="14.66437"><ele>47.99999999999999</ele><time>2026-04-10T10:30:06.856Z</time></trkpt><trkpt lat="42.1778167" lon="14.6643017"><ele>48.0</ele><time>2026-04-10T10:30:08.857Z</time></trkpt><trkpt lat="42.1778717" lon="14.6642017"><ele>48.0</ele><time>2026-04-10T10:30:11.857Z</time></trkpt><trkpt lat="42.1779233" lon="14.6641033"><ele>48.0</ele><time>2026-04-10T10:30:14.857Z</time></trkpt><trkpt lat="42.17796" lon="14.6640317"><ele>48.0</ele><time>2026-04-10T10:30:16.856Z</time></trkpt><trkpt lat="42.177995" lon="14.66395"><ele>47.99999999999999</ele><time>2026-04-10T10:30:18.857Z</time></trkpt><trkpt lat="42.1780233" lon="14.6638733"><ele>48.0</ele><time>2026-04-10T10:30:20.856Z</time></trkpt><trkpt lat="42.1780633" lon="14.6638"><ele>48.0</ele><time>2026-04-10T10:30:22.857Z</time></trkpt><trkpt lat="42.1781067" lon="14.6637183"><ele>48.0</ele><time>2026-04-10T10:30:24.857Z</time></trkpt><trkpt lat="42.1781483" lon="14.6636283"><ele>48.0</ele><time>2026-04-10T10:30:26.857Z</time></trkpt><trkpt lat="42.17819" lon="14.6635433"><ele>48.0</ele><time>2026-04-10T10:30:28.857Z</time></trkpt><trkpt lat="42.1782333" lon="14.6634433"><ele>48.0</ele><time>2026-04-10T10:30:31.857Z</time></trkpt><trkpt lat="42.178285" lon="14.66334"><ele>48.0</ele><time>2026-04-10T10:30:34.856Z</time></trkpt><trkpt lat="42.1783233" lon="14.66327"><ele>47.99999999999999</ele><time>2026-04-10T10:30:36.856Z</time></trkpt><trkpt lat="42.1783633" lon="14.6631967"><ele>48.0</ele><time>2026-04-10T10:30:38.856Z</time></trkpt><trkpt lat="42.1784017" lon="14.6631183"><ele>48.0</ele><time>2026-04-10T10:30:40.857Z</time></trkpt><trkpt lat="42.17844" lon="14.66304"><ele>48.0</ele><time>2026-04-10T10:30:42.857Z</time></trkpt><trkpt lat="42.178475" lon="14.6629667"><ele>48.0</ele><time>2026-04-10T10:30:44.856Z</time></trkpt><trkpt lat="42.17852" lon="14.6628867"><ele>47.99999999999999</ele><time>2026-04-10T10:30:46.856Z</time></trkpt><trkpt lat="42.17855" lon="14.6628033"><ele>48.0</ele><time>2026-04-10T10:30:48.857Z</time></trkpt><trkpt lat="42.17858" lon="14.6627217"><ele>48.14285714285714</ele><time>2026-04-10T10:30:50.857Z</time></trkpt><trkpt lat="42.1786067" lon="14.66264"><ele>48.285714285714285</ele><time>2026-04-10T10:30:52.857Z</time></trkpt><trkpt lat="42.1786367" lon="14.6625283"><ele>48.42857142857143</ele><time>2026-04-10T10:30:55.857Z</time></trkpt><trkpt lat="42.1786567" lon="14.6624433"><ele>48.57142857142857</ele><time>2026-04-10T10:30:57.857Z</time></trkpt><trkpt lat="42.1786733" lon="14.66236"><ele>48.714285714285715</ele><time>2026-04-10T10:30:59.857Z</time></trkpt><trkpt lat="42.17869" lon="14.6622767"><ele>48.857142857142854</ele><time>2026-04-10T10:31:01.856Z</time></trkpt><trkpt lat="42.1787033" lon="14.66219"><ele>49.0</ele><time>2026-04-10T10:31:03.856Z</time></trkpt><trkpt lat="42.1787083" lon="14.662095"><ele>49.0</ele><time>2026-04-10T10:31:05.856Z</time></trkpt><trkpt lat="42.1787217" lon="14.66201"><ele>49.0</ele><time>2026-04-10T10:31:07.856Z</time></trkpt><trkpt lat="42.17874" lon="14.6618917"><ele>49.0</ele><time>2026-04-10T10:31:10.856Z</time></trkpt><trkpt lat="42.1787517" lon="14.6617933"><ele>49.0</ele><time>2026-04-10T10:31:12.857Z</time></trkpt><trkpt lat="42.1787667" lon="14.661705"><ele>49.0</ele><time>2026-04-10T10:31:14.856Z</time></trkpt><trkpt lat="42.1787767" lon="14.661615"><ele>49.0</ele><time>2026-04-10T10:31:16.857Z</time></trkpt><trkpt lat="42.17879" lon="14.661525"><ele>49.0</ele><time>2026-04-10T10:31:18.856Z</time></trkpt><trkpt lat="42.17881" lon="14.66143"><ele>49.142857142857146</ele><time>2026-04-10T10:31:20.856Z</time></trkpt><trkpt lat="42.17883" lon="14.66134"><ele>49.285714285714285</ele><time>2026-04-10T10:31:22.857Z</time></trkpt><trkpt lat="42.178845" lon="14.6612467"><ele>49.42857142857143</ele><time>2026-04-10T10:31:24.857Z</time></trkpt><trkpt lat="42.1788583" lon="14.6611567"><ele>49.57142857142857</ele><time>2026-04-10T10:31:26.857Z</time></trkpt><trkpt lat="42.178875" lon="14.6610683"><ele>49.714285714285715</ele><time>2026-04-10T10:31:28.857Z</time></trkpt><trkpt lat="42.1788967" lon="14.6609717"><ele>49.85714285714286</ele><time>2026-04-10T10:31:30.857Z</time></trkpt><trkpt lat="42.17892" lon="14.6608833"><ele>50.0</ele><time>2026-04-10T10:31:32.857Z</time></trkpt><trkpt lat="42.1789467" lon="14.6608033"><ele>50.00000000000001</ele><time>2026-04-10T10:31:34.856Z</time></trkpt><trkpt lat="42.178985" lon="14.6607283"><ele>50.0</ele><time>2026-04-10T10:31:36.857Z</time></trkpt><trkpt lat="42.1790217" lon="14.6606583"><ele>50.0</ele><time>2026-04-10T10:31:38.857Z</time></trkpt><trkpt lat="42.17907" lon="14.6605633"><ele>50.0</ele><time>2026-04-10T10:31:41.857Z</time></trkpt><trkpt lat="42.1791133" lon="14.66048"><ele>50.00000000000001</ele><time>2026-04-10T10:31:44.857Z</time></trkpt><trkpt lat="42.1791667" lon="14.6603867"><ele>50.0</ele><time>2026-04-10T10:31:47.857Z</time></trkpt><trkpt lat="42.1792283" lon="14.66029"><ele>50.00000000000001</ele><time>2026-04-10T10:31:50.857Z</time></trkpt><trkpt lat="42.1792767" lon="14.6602117"><ele>50.0</ele><time>2026-04-10T10:31:52.857Z</time></trkpt><trkpt lat="42.1793183" lon="14.6601383"><ele>50.0</ele><time>2026-04-10T10:31:54.857Z</time></trkpt><trkpt lat="42.1793633" lon="14.66006"><ele>50.0</ele><time>2026-04-10T10:31:56.856Z</time></trkpt><trkpt lat="42.1794083" lon="14.6599867"><ele>50.0</ele><time>2026-04-10T10:31:58.857Z</time></trkpt><trkpt lat="42.1794417" lon="14.6599117"><ele>50.00000000000001</ele><time>2026-04-10T10:32:00.857Z</time></trkpt><trkpt lat="42.179465" lon="14.6597917"><ele>50.0</ele><time>2026-04-10T10:32:03.857Z</time></trkpt><trkpt lat="42.1794533" lon="14.659705"><ele>50.00000000000001</ele><time>2026-04-10T10:32:05.856Z</time></trkpt><trkpt lat="42.17943" lon="14.65962"><ele>50.0</ele><time>2026-04-10T10:32:07.857Z</time></trkpt><trkpt lat="42.1794" lon="14.6595383"><ele>50.0</ele><time>2026-04-10T10:32:09.856Z</time></trkpt><trkpt lat="42.1793717" lon="14.6594567"><ele>50.0</ele><time>2026-04-10T10:32:11.857Z</time></trkpt><trkpt lat="42.1793433" lon="14.6593767"><ele>50.0</ele><time>2026-04-10T10:32:13.856Z</time></trkpt><trkpt lat="42.1793167" lon="14.65929"><ele>50.00000000000001</ele><time>2026-04-10T10:32:15.857Z</time></trkpt><trkpt lat="42.179295" lon="14.65921"><ele>50.0</ele><time>2026-04-10T10:32:17.857Z</time></trkpt><trkpt lat="42.1792617" lon="14.6590983"><ele>50.28571428571429</ele><time>2026-04-10T10:32:20.857Z</time></trkpt><trkpt lat="42.17923" lon="14.6589817"><ele>50.57142857142857</ele><time>2026-04-10T10:32:23.857Z</time></trkpt><trkpt lat="42.17921" lon="14.658895"><ele>50.85714285714286</ele><time>2026-04-10T10:32:25.857Z</time></trkpt><trkpt lat="42.179195" lon="14.6588033"><ele>51.142857142857146</ele><time>2026-04-10T10:32:27.857Z</time></trkpt><trkpt lat="42.1791783" lon="14.658715"><ele>51.42857142857143</ele><time>2026-04-10T10:32:29.856Z</time></trkpt><trkpt lat="42.1791633" lon="14.65863"><ele>51.714285714285715</ele><time>2026-04-10T10:32:31.857Z</time></trkpt><trkpt lat="42.17915" lon="14.6585433"><ele>52.0</ele><time>2026-04-10T10:32:33.856Z</time></trkpt><trkpt lat="42.17913" lon="14.6584517"><ele>52.33333333333333</ele><time>2026-04-10T10:32:35.856Z</time></trkpt><trkpt lat="42.1791033" lon="14.6583317"><ele>52.666666666666664</ele><time>2026-04-10T10:32:38.857Z</time></trkpt><trkpt lat="42.179085" lon="14.65825"><ele>53.0</ele><time>2026-04-10T10:32:40.856Z</time></trkpt><trkpt lat="42.17906" lon="14.6581267"><ele>53.33333333333333</ele><time>2026-04-10T10:32:43.856Z</time></trkpt><trkpt lat="42.17904" lon="14.6580383"><ele>53.666666666666664</ele><time>2026-04-10T10:32:45.857Z</time></trkpt><trkpt lat="42.1790267" lon="14.6579167"><ele>54.0</ele><time>2026-04-10T10:32:48.857Z</time></trkpt><trkpt lat="42.1790033" lon="14.657795"><ele>54.333333333333336</ele><time>2026-04-10T10:32:51.857Z</time></trkpt><trkpt lat="42.1789867" lon="14.657705"><ele>54.66666666666667</ele><time>2026-04-10T10:32:53.856Z</time></trkpt><trkpt lat="42.1789583" lon="14.65762"><ele>55.0</ele><time>2026-04-10T10:32:55.856Z</time></trkpt><trkpt lat="42.1789267" lon="14.6575033"><ele>55.333333333333336</ele><time>2026-04-10T10:32:58.856Z</time></trkpt><trkpt lat="42.1788983" lon="14.6573867"><ele>55.66666666666667</ele><time>2026-04-10T10:33:01.856Z</time></trkpt><trkpt lat="42.1788633" lon="14.657275"><ele>56.0</ele><time>2026-04-10T10:33:04.857Z</time></trkpt><trkpt lat="42.1788333" lon="14.6571967"><ele>56.00000000000001</ele><time>2026-04-10T10:33:06.857Z</time></trkpt><trkpt lat="42.1787833" lon="14.6570883"><ele>56.0</ele><time>2026-04-10T10:33:09.857Z</time></trkpt><trkpt lat="42.1787433" lon="14.6570183"><ele>56.0</ele><time>2026-04-10T10:33:11.856Z</time></trkpt><trkpt lat="42.1786783" lon="14.6569167"><ele>56.0</ele><time>2026-04-10T10:33:14.857Z</time></trkpt><trkpt lat="42.1786217" lon="14.6568617"><ele>56.00000000000001</ele><time>2026-04-10T10:33:16.857Z</time></trkpt><trkpt lat="42.17857" lon="14.6567983"><ele>56.0</ele><time>2026-04-10T10:33:18.857Z</time></trkpt><trkpt lat="42.1785217" lon="14.6567383"><ele>56.333333333333336</ele><time>2026-04-10T10:33:20.856Z</time></trkpt><trkpt lat="42.1784767" lon="14.6566783"><ele>56.66666666666667</ele><time>2026-04-10T10:33:22.857Z</time></trkpt><trkpt lat="42.1784067" lon="14.6566017"><ele>57.0</ele><time>2026-04-10T10:33:25.857Z</time></trkpt><trkpt lat="42.1783433" lon="14.6565233"><ele>57.33333333333333</ele><time>2026-04-10T10:33:28.857Z</time></trkpt><trkpt lat="42.1782933" lon="14.6564683"><ele>57.666666666666664</ele><time>2026-04-10T10:33:30.857Z</time></trkpt><trkpt lat="42.17822" lon="14.656385"><ele>58.0</ele><time>2026-04-10T10:33:33.857Z</time></trkpt><trkpt lat="42.1781667" lon="14.6563233"><ele>58.14285714285715</ele><time>2026-04-10T10:33:35.856Z</time></trkpt><trkpt lat="42.17812" lon="14.656265"><ele>58.28571428571429</ele><time>2026-04-10T10:33:37.856Z</time></trkpt><trkpt lat="42.1780717" lon="14.6562"><ele>58.42857142857143</ele><time>2026-04-10T10:33:39.857Z</time></trkpt><trkpt lat="42.1780067" lon="14.6561083"><ele>58.57142857142858</ele><time>2026-04-10T10:33:42.857Z</time></trkpt><trkpt lat="42.1779633" lon="14.6560467"><ele>58.71428571428572</ele><time>2026-04-10T10:33:44.856Z</time></trkpt><trkpt lat="42.1779033" lon="14.65595"><ele>58.857142857142854</ele><time>2026-04-10T10:33:47.856Z</time></trkpt><trkpt lat="42.1778667" lon="14.65588"><ele>59.0</ele><time>2026-04-10T10:33:49.857Z</time></trkpt><trkpt lat="42.1778167" lon="14.655775"><ele>59.285714285714285</ele><time>2026-04-10T10:33:52.857Z</time></trkpt><trkpt lat="42.17777" lon="14.6557"><ele>59.57142857142857</ele><time>2026-04-10T10:33:54.857Z</time></trkpt><trkpt lat="42.1777233" lon="14.6556217"><ele>59.857142857142854</ele><time>2026-04-10T10:33:56.857Z</time></trkpt><trkpt lat="42.17767" lon="14.6555167"><ele>60.14285714285714</ele><time>2026-04-10T10:33:59.857Z</time></trkpt><trkpt lat="42.17763" lon="14.655445"><ele>60.42857142857143</ele><time>2026-04-10T10:34:01.856Z</time></trkpt><trkpt lat="42.1775883" lon="14.6553733"><ele>60.71428571428571</ele><time>2026-04-10T10:34:03.857Z</time></trkpt><trkpt lat="42.177545" lon="14.6553033"><ele>60.99999999999999</ele><time>2026-04-10T10:34:05.857Z</time></trkpt><trkpt lat="42.17749" lon="14.6551983"><ele>61.166666666666664</ele><time>2026-04-10T10:34:08.857Z</time></trkpt><trkpt lat="42.1774417" lon="14.65513"><ele>61.33333333333333</ele><time>2026-04-10T10:34:10.856Z</time></trkpt><trkpt lat="42.1773783" lon="14.6550383"><ele>61.5</ele><time>2026-04-10T10:34:13.857Z</time></trkpt><trkpt lat="42.1773283" lon="14.654975"><ele>61.66666666666667</ele><time>2026-04-10T10:34:15.857Z</time></trkpt><trkpt lat="42.1772733" lon="14.6549117"><ele>61.833333333333336</ele><time>2026-04-10T10:34:17.857Z</time></trkpt><trkpt lat="42.1772017" lon="14.654835"><ele>62.0</ele><time>2026-04-10T10:34:20.857Z</time></trkpt><trkpt lat="42.177145" lon="14.6547833"><ele>62.50000000000001</ele><time>2026-04-10T10:34:22.857Z</time></trkpt><trkpt lat="42.1770817" lon="14.6547317"><ele>63.0</ele><time>2026-04-10T10:34:24.856Z</time></trkpt><trkpt lat="42.177025" lon="14.6546933"><ele>63.5</ele><time>2026-04-10T10:34:26.857Z</time></trkpt><trkpt lat="42.17694" lon="14.6546433"><ele>64.0</ele><time>2026-04-10T10:34:29.857Z</time></trkpt><trkpt lat="42.1768767" lon="14.6546167"><ele>64.5</ele><time>2026-04-10T10:34:31.857Z</time></trkpt><trkpt lat="42.1767883" lon="14.654575"><ele>65.0</ele><time>2026-04-10T10:34:34.856Z</time></trkpt><trkpt lat="42.1767233" lon="14.65455"><ele>65.0</ele><time>2026-04-10T10:34:36.857Z</time></trkpt><trkpt lat="42.1766617" lon="14.6545233"><ele>65.0</ele><time>2026-04-10T10:34:38.857Z</time></trkpt><trkpt lat="42.1765683" lon="14.654485"><ele>65.0</ele><time>2026-04-10T10:34:41.857Z</time></trkpt><trkpt lat="42.176505" lon="14.6544583"><ele>65.0</ele><time>2026-04-10T10:34:43.856Z</time></trkpt><trkpt lat="42.1764383" lon="14.6544283"><ele>65.0</ele><time>2026-04-10T10:34:45.857Z</time></trkpt><trkpt lat="42.1763783" lon="14.6544017"><ele>65.0</ele><time>2026-04-10T10:34:47.856Z</time></trkpt><trkpt lat="42.1762883" lon="14.6543617"><ele>65.28571428571429</ele><time>2026-04-10T10:34:50.856Z</time></trkpt><trkpt lat="42.1762217" lon="14.654335"><ele>65.57142857142857</ele><time>2026-04-10T10:34:52.856Z</time></trkpt><trkpt lat="42.17616" lon="14.6543117"><ele>65.85714285714286</ele><time>2026-04-10T10:34:54.857Z</time></trkpt><trkpt lat="42.1760933" lon="14.6542867"><ele>66.14285714285714</ele><time>2026-04-10T10:34:56.857Z</time></trkpt><trkpt lat="42.1760267" lon="14.65426"><ele>66.42857142857143</ele><time>2026-04-10T10:34:58.856Z</time></trkpt><trkpt lat="42.1759633" lon="14.6542317"><ele>66.71428571428572</ele><time>2026-04-10T10:35:00.857Z</time></trkpt><trkpt lat="42.1758717" lon="14.6541967"><ele>67.0</ele><time>2026-04-10T10:35:03.856Z</time></trkpt><trkpt lat="42.1758067" lon="14.6541733"><ele>67.0</ele><time>2026-04-10T10:35:05.856Z</time></trkpt><trkpt lat="42.175745" lon="14.6541533"><ele>67.0</ele><time>2026-04-10T10:35:07.857Z</time></trkpt><trkpt lat="42.1756783" lon="14.6541333"><ele>67.0</ele><time>2026-04-10T10:35:09.857Z</time></trkpt><trkpt lat="42.175615" lon="14.6541083"><ele>67.0</ele><time>2026-04-10T10:35:11.856Z</time></trkpt><trkpt lat="42.1755517" lon="14.6540833"><ele>67.0</ele><time>2026-04-10T10:35:13.857Z</time></trkpt><trkpt lat="42.1754883" lon="14.6540567"><ele>67.0</ele><time>2026-04-10T10:35:15.857Z</time></trkpt><trkpt lat="42.1754267" lon="14.6540383"><ele>67.0</ele><time>2026-04-10T10:35:17.856Z</time></trkpt><trkpt lat="42.175365" lon="14.6540117"><ele>67.16666666666666</ele><time>2026-04-10T10:35:19.857Z</time></trkpt><trkpt lat="42.1752817" lon="14.6539733"><ele>67.33333333333333</ele><time>2026-04-10T10:35:22.856Z</time></trkpt><trkpt lat="42.175195" lon="14.6539333"><ele>67.5</ele><time>2026-04-10T10:35:25.856Z</time></trkpt><trkpt lat="42.175125" lon="14.6539083"><ele>67.66666666666667</ele><time>2026-04-10T10:35:27.856Z</time></trkpt><trkpt lat="42.17504" lon="14.65387"><ele>67.83333333333334</ele><time>2026-04-10T10:35:30.856Z</time></trkpt><trkpt lat="42.174955" lon="14.65383"><ele>68.0</ele><time>2026-04-10T10:35:33.857Z</time></trkpt><trkpt lat="42.1748933" lon="14.6538033"><ele>68.33333333333334</ele><time>2026-04-10T10:35:35.857Z</time></trkpt><trkpt lat="42.1748317" lon="14.653775"><ele>68.66666666666667</ele><time>2026-04-10T10:35:37.856Z</time></trkpt><trkpt lat="42.1747383" lon="14.653745"><ele>69.0</ele><time>2026-04-10T10:35:40.857Z</time></trkpt><trkpt lat="42.1746683" lon="14.653725"><ele>69.33333333333333</ele><time>2026-04-10T10:35:42.857Z</time></trkpt><trkpt lat="42.174605" lon="14.6537083"><ele>69.66666666666666</ele><time>2026-04-10T10:35:44.856Z</time></trkpt><trkpt lat="42.17451" lon="14.6536867"><ele>70.0</ele><time>2026-04-10T10:35:47.857Z</time></trkpt><trkpt lat="42.174445" lon="14.6536783"><ele>70.0</ele><time>2026-04-10T10:35:49.857Z</time></trkpt><trkpt lat="42.1743817" lon="14.6536733"><ele>70.0</ele><time>2026-04-10T10:35:51.856Z</time></trkpt><trkpt lat="42.1742883" lon="14.6536733"><ele>70.0</ele><time>2026-04-10T10:35:54.857Z</time></trkpt><trkpt lat="42.1742217" lon="14.6536717"><ele>70.0</ele><time>2026-04-10T10:35:56.857Z</time></trkpt><trkpt lat="42.1741583" lon="14.65367"><ele>70.0</ele><time>2026-04-10T10:35:58.857Z</time></trkpt><trkpt lat="42.1740767" lon="14.65367"><ele>70.0</ele><time>2026-04-10T10:36:01.856Z</time></trkpt><trkpt lat="42.1739967" lon="14.6536717"><ele>70.0</ele><time>2026-04-10T10:36:04.857Z</time></trkpt><trkpt lat="42.1739283" lon="14.6536667"><ele>69.83333333333333</ele><time>2026-04-10T10:36:06.856Z</time></trkpt><trkpt lat="42.1738333" lon="14.6536583"><ele>69.66666666666666</ele><time>2026-04-10T10:36:09.857Z</time></trkpt><trkpt lat="42.1737667" lon="14.6536533"><ele>69.5</ele><time>2026-04-10T10:36:11.856Z</time></trkpt><trkpt lat="42.1737033" lon="14.653645"><ele>69.33333333333333</ele><time>2026-04-10T10:36:13.857Z</time></trkpt><trkpt lat="42.1736083" lon="14.6536233"><ele>69.16666666666667</ele><time>2026-04-10T10:36:16.857Z</time></trkpt><trkpt lat="42.17354" lon="14.653595"><ele>69.0</ele><time>2026-04-10T10:36:18.857Z</time></trkpt><trkpt lat="42.1734783" lon="14.6535483"><ele>68.66666666666667</ele><time>2026-04-10T10:36:20.857Z</time></trkpt><trkpt lat="42.17341" lon="14.653455"><ele>68.33333333333333</ele><time>2026-04-10T10:36:23.856Z</time></trkpt><trkpt lat="42.1733517" lon="14.653365"><ele>68.0</ele><time>2026-04-10T10:36:25.856Z</time></trkpt><trkpt lat="42.1732983" lon="14.6532783"><ele>67.66666666666666</ele><time>2026-04-10T10:36:27.857Z</time></trkpt><trkpt lat="42.173245" lon="14.6531833"><ele>67.33333333333333</ele><time>2026-04-10T10:36:29.857Z</time></trkpt><trkpt lat="42.173195" lon="14.6531017"><ele>67.0</ele><time>2026-04-10T10:36:31.856Z</time></trkpt><trkpt lat="42.17313" lon="14.6530433"><ele>65.66666666666666</ele><time>2026-04-10T10:36:33.856Z</time></trkpt><trkpt lat="42.17304" lon="14.6530217"><ele>64.33333333333333</ele><time>2026-04-10T10:36:35.856Z</time></trkpt><trkpt lat="42.1729567" lon="14.6530417"><ele>63.0</ele><time>2026-04-10T10:36:37.857Z</time></trkpt><trkpt lat="42.172875" lon="14.6530783"><ele>61.66666666666667</ele><time>2026-04-10T10:36:39.856Z</time></trkpt><trkpt lat="42.1727933" lon="14.6531233"><ele>60.333333333333336</ele><time>2026-04-10T10:36:41.856Z</time></trkpt><trkpt lat="42.172715" lon="14.6531767"><ele>59.0</ele><time>2026-04-10T10:36:43.856Z</time></trkpt><trkpt lat="42.172645" lon="14.653215"><ele>59.0</ele><time>2026-04-10T10:36:45.856Z</time></trkpt><trkpt lat="42.17258" lon="14.6532483"><ele>59.0</ele><time>2026-04-10T10:36:47.857Z</time></trkpt><trkpt lat="42.1725217" lon="14.6532817"><ele>59.0</ele><time>2026-04-10T10:36:49.856Z</time></trkpt><trkpt lat="42.1724417" lon="14.6533367"><ele>59.0</ele><time>2026-04-10T10:36:52.856Z</time></trkpt><trkpt lat="42.172385" lon="14.65338"><ele>59.0</ele><time>2026-04-10T10:36:54.857Z</time></trkpt><trkpt lat="42.1723317" lon="14.6534283"><ele>59.0</ele><time>2026-04-10T10:36:56.857Z</time></trkpt><trkpt lat="42.172275" lon="14.6534783"><ele>59.0</ele><time>2026-04-10T10:36:58.857Z</time></trkpt><trkpt lat="42.172215" lon="14.6535433"><ele>59.71428571428571</ele><time>2026-04-10T10:37:00.856Z</time></trkpt><trkpt lat="42.1721533" lon="14.6536083"><ele>60.42857142857143</ele><time>2026-04-10T10:37:02.856Z</time></trkpt><trkpt lat="42.17209" lon="14.653655"><ele>61.14285714285714</ele><time>2026-04-10T10:37:04.857Z</time></trkpt><trkpt lat="42.172035" lon="14.6537"><ele>61.857142857142854</ele><time>2026-04-10T10:37:06.857Z</time></trkpt><trkpt lat="42.1719733" lon="14.6537383"><ele>62.57142857142857</ele><time>2026-04-10T10:37:09.856Z</time></trkpt><trkpt lat="42.1718867" lon="14.6537783"><ele>63.285714285714285</ele><time>2026-04-10T10:37:12.857Z</time></trkpt><trkpt lat="42.17182" lon="14.6537967"><ele>64.0</ele><time>2026-04-10T10:37:14.857Z</time></trkpt><trkpt lat="42.1717317" lon="14.6538033"><ele>63.99999999999999</ele><time>2026-04-10T10:37:17.857Z</time></trkpt><trkpt lat="42.1716617" lon="14.6537867"><ele>64.0</ele><time>2026-04-10T10:37:20.856Z</time></trkpt><trkpt lat="42.1715817" lon="14.6537733"><ele>64.0</ele><time>2026-04-10T10:37:23.857Z</time></trkpt><trkpt lat="42.17151" lon="14.65377"><ele>64.0</ele><time>2026-04-10T10:37:25.857Z</time></trkpt><trkpt lat="42.17143" lon="14.653795"><ele>63.99999999999999</ele><time>2026-04-10T10:37:27.856Z</time></trkpt><trkpt lat="42.1713567" lon="14.6538367"><ele>64.0</ele><time>2026-04-10T10:37:29.857Z</time></trkpt><trkpt lat="42.171295" lon="14.65388"><ele>62.99999999999999</ele><time>2026-04-10T10:37:31.857Z</time></trkpt><trkpt lat="42.1712267" lon="14.6539183"><ele>62.0</ele><time>2026-04-10T10:37:33.856Z</time></trkpt><trkpt lat="42.17117" lon="14.6539667"><ele>61.0</ele><time>2026-04-10T10:37:35.856Z</time></trkpt><trkpt lat="42.1710933" lon="14.6540333"><ele>60.0</ele><time>2026-04-10T10:37:38.856Z</time></trkpt><trkpt lat="42.1710267" lon="14.65411"><ele>58.99999999999999</ele><time>2026-04-10T10:37:41.857Z</time></trkpt><trkpt lat="42.1709767" lon="14.6541633"><ele>58.0</ele><time>2026-04-10T10:37:43.857Z</time></trkpt><trkpt lat="42.17091" lon="14.65424"><ele>58.00000000000001</ele><time>2026-04-10T10:37:46.856Z</time></trkpt><trkpt lat="42.1708467" lon="14.6543217"><ele>58.0</ele><time>2026-04-10T10:37:49.856Z</time></trkpt><trkpt lat="42.17079" lon="14.6543917"><ele>58.00000000000001</ele><time>2026-04-10T10:37:52.857Z</time></trkpt><trkpt lat="42.1707467" lon="14.6544633"><ele>58.00000000000001</ele><time>2026-04-10T10:37:55.857Z</time></trkpt><trkpt lat="42.1706967" lon="14.6545233"><ele>58.0</ele><time>2026-04-10T10:37:58.856Z</time></trkpt><trkpt lat="42.1706383" lon="14.6545867"><ele>58.00000000000001</ele><time>2026-04-10T10:38:01.857Z</time></trkpt><trkpt lat="42.1705817" lon="14.65465"><ele>58.00000000000001</ele><time>2026-04-10T10:38:04.857Z</time></trkpt><trkpt lat="42.1705233" lon="14.6546167"><ele>60.166666666666664</ele><time>2026-04-10T10:38:08.857Z</time></trkpt><trkpt lat="42.1704383" lon="14.6545767"><ele>62.33333333333333</ele><time>2026-04-10T10:38:11.856Z</time></trkpt><trkpt lat="42.170375" lon="14.6545733"><ele>64.5</ele><time>2026-04-10T10:38:13.856Z</time></trkpt><trkpt lat="42.1703067" lon="14.65457"><ele>66.66666666666667</ele><time>2026-04-10T10:38:15.857Z</time></trkpt><trkpt lat="42.17023" lon="14.65456"><ele>68.83333333333334</ele><time>2026-04-10T10:38:17.857Z</time></trkpt><trkpt lat="42.1701467" lon="14.6545483"><ele>71.0</ele><time>2026-04-10T10:38:19.857Z</time></trkpt><trkpt lat="42.170065" lon="14.654525"><ele>71.0</ele><time>2026-04-10T10:38:21.857Z</time></trkpt><trkpt lat="42.1699767" lon="14.6545133"><ele>71.0</ele><time>2026-04-10T10:38:23.857Z</time></trkpt><trkpt lat="42.169885" lon="14.6545083"><ele>71.0</ele><time>2026-04-10T10:38:25.856Z</time></trkpt><trkpt lat="42.169795" lon="14.6545167"><ele>71.0</ele><time>2026-04-10T10:38:27.856Z</time></trkpt><trkpt lat="42.169695" lon="14.6545167"><ele>71.0</ele><time>2026-04-10T10:38:29.856Z</time></trkpt><trkpt lat="42.1695967" lon="14.6545117"><ele>69.8</ele><time>2026-04-10T10:38:31.856Z</time></trkpt><trkpt lat="42.169495" lon="14.654495"><ele>68.6</ele><time>2026-04-10T10:38:33.857Z</time></trkpt><trkpt lat="42.16939" lon="14.6544783"><ele>67.4</ele><time>2026-04-10T10:38:35.857Z</time></trkpt><trkpt lat="42.1692883" lon="14.6544733"><ele>66.2</ele><time>2026-04-10T10:38:37.856Z</time></trkpt><trkpt lat="42.1691967" lon="14.6544817"><ele>65.0</ele><time>2026-04-10T10:38:39.856Z</time></trkpt><trkpt lat="42.1691183" lon="14.6545117"><ele>65.00000000000001</ele><time>2026-04-10T10:38:41.856Z</time></trkpt><trkpt lat="42.1690333" lon="14.6545367"><ele>65.0</ele><time>2026-04-10T10:38:43.857Z</time></trkpt><trkpt lat="42.16897" lon="14.6545433"><ele>65.0</ele><time>2026-04-10T10:38:45.857Z</time></trkpt><trkpt lat="42.168975" lon="14.6544567"><ele>65.0</ele><time>2026-04-10T10:38:49.856Z</time></trkpt><trkpt lat="42.1690567" lon="14.6544483"><ele>65.0</ele><time>2026-04-10T10:38:53.857Z</time></trkpt><trkpt lat="42.1691217" lon="14.65444"><ele>65.00000000000001</ele><time>2026-04-10T10:38:55.857Z</time></trkpt><trkpt lat="42.16919" lon="14.6544283"><ele>65.0</ele><time>2026-04-10T10:38:57.857Z</time></trkpt><trkpt lat="42.169275" lon="14.6543883"><ele>61.2</ele><time>2026-04-10T10:38:59.857Z</time></trkpt><trkpt lat="42.16937" lon="14.654355"><ele>57.4</ele><time>2026-04-10T10:39:01.856Z</time></trkpt><trkpt lat="42.1694733" lon="14.6543033"><ele>53.599999999999994</ele><time>2026-04-10T10:39:03.857Z</time></trkpt><trkpt lat="42.1695333" lon="14.6542767"><ele>49.8</ele><time>2026-04-10T10:39:04.857Z</time></trkpt><trkpt lat="42.16964" lon="14.65424"><ele>46.0</ele><time>2026-04-10T10:39:06.857Z</time></trkpt><trkpt lat="42.16976" lon="14.6542167"><ele>47.199999999999996</ele><time>2026-04-10T10:39:08.857Z</time></trkpt><trkpt lat="42.16987" lon="14.6542217"><ele>48.4</ele><time>2026-04-10T10:39:10.857Z</time></trkpt><trkpt lat="42.169945" lon="14.6541933"><ele>49.6</ele><time>2026-04-10T10:39:11.857Z</time></trkpt><trkpt lat="42.1700733" lon="14.654175"><ele>50.8</ele><time>2026-04-10T10:39:13.857Z</time></trkpt><trkpt lat="42.1701383" lon="14.654165"><ele>52.0</ele><time>2026-04-10T10:39:14.856Z</time></trkpt><trkpt lat="42.1702583" lon="14.65417"><ele>52.0</ele><time>2026-04-10T10:39:16.856Z</time></trkpt><trkpt lat="42.1703783" lon="14.6541717"><ele>52.0</ele><time>2026-04-10T10:39:18.857Z</time></trkpt><trkpt lat="42.17044" lon="14.6541517"><ele>52.0</ele><time>2026-04-10T10:39:19.856Z</time></trkpt><trkpt lat="42.1705183" lon="14.654065"><ele>52.0</ele><time>2026-04-10T10:39:21.857Z</time></trkpt><trkpt lat="42.1705467" lon="14.65394"><ele>52.0</ele><time>2026-04-10T10:39:23.857Z</time></trkpt><trkpt lat="42.17051" lon="14.6538017"><ele>52.0</ele><time>2026-04-10T10:39:25.857Z</time></trkpt><trkpt lat="42.170435" lon="14.6537267"><ele>52.0</ele><time>2026-04-10T10:39:27.856Z</time></trkpt><trkpt lat="42.17032" lon="14.65374"><ele>52.0</ele><time>2026-04-10T10:39:29.856Z</time></trkpt><trkpt lat="42.17024" lon="14.6537717"><ele>52.0</ele><time>2026-04-10T10:39:30.856Z</time></trkpt><trkpt lat="42.1701633" lon="14.6537967"><ele>52.0</ele><time>2026-04-10T10:39:31.857Z</time></trkpt><trkpt lat="42.1700817" lon="14.6538083"><ele>52.0</ele><time>2026-04-10T10:39:32.857Z</time></trkpt><trkpt lat="42.170005" lon="14.6538217"><ele>52.0</ele><time>2026-04-10T10:39:33.857Z</time></trkpt><trkpt lat="42.16993" lon="14.6538333"><ele>52.0</ele><time>2026-04-10T10:39:34.857Z</time></trkpt><trkpt lat="42.1698533" lon="14.653835"><ele>52.0</ele><time>2026-04-10T10:39:35.857Z</time></trkpt><trkpt lat="42.1697783" lon="14.6538417"><ele>52.0</ele><time>2026-04-10T10:39:36.857Z</time></trkpt><trkpt lat="42.1697067" lon="14.6538533"><ele>52.0</ele><time>2026-04-10T10:39:37.856Z</time></trkpt><trkpt lat="42.1696367" lon="14.6538583"><ele>52.0</ele><time>2026-04-10T10:39:38.856Z</time></trkpt><trkpt lat="42.16957" lon="14.6538583"><ele>50.8</ele><time>2026-04-10T10:39:39.857Z</time></trkpt><trkpt lat="42.1694533" lon="14.653835"><ele>49.6</ele><time>2026-04-10T10:39:41.856Z</time></trkpt><trkpt lat="42.1693533" lon="14.6537733"><ele>48.4</ele><time>2026-04-10T10:39:43.857Z</time></trkpt><trkpt lat="42.1692817" lon="14.653685"><ele>47.199999999999996</ele><time>2026-04-10T10:39:45.856Z</time></trkpt><trkpt lat="42.16924" lon="14.6535567"><ele>46.0</ele><time>2026-04-10T10:39:47.857Z</time></trkpt><trkpt lat="42.1692133" lon="14.6534467"><ele>44.833333333333336</ele><time>2026-04-10T10:39:49.857Z</time></trkpt><trkpt lat="42.1692" lon="14.6533417"><ele>43.66666666666667</ele><time>2026-04-10T10:39:52.856Z</time></trkpt><trkpt lat="42.1692117" lon="14.6532267"><ele>42.5</ele><time>2026-04-10T10:39:56.857Z</time></trkpt><trkpt lat="42.169225" lon="14.65314"><ele>41.333333333333336</ele><time>2026-04-10T10:39:58.856Z</time></trkpt><trkpt lat="42.1692433" lon="14.653025"><ele>40.166666666666664</ele><time>2026-04-10T10:40:00.856Z</time></trkpt><trkpt lat="42.1692333" lon="14.6528817"><ele>39.0</ele><time>2026-04-10T10:40:02.857Z</time></trkpt><trkpt lat="42.16921" lon="14.6528"><ele>38.2</ele><time>2026-04-10T10:40:03.856Z</time></trkpt><trkpt lat="42.1691667" lon="14.652645"><ele>37.4</ele><time>2026-04-10T10:40:05.857Z</time></trkpt><trkpt lat="42.1690833" lon="14.6525333"><ele>36.6</ele><time>2026-04-10T10:40:07.857Z</time></trkpt><trkpt lat="42.1690267" lon="14.6524867"><ele>35.8</ele><time>2026-04-10T10:40:08.857Z</time></trkpt><trkpt lat="42.168955" lon="14.6524533"><ele>35.0</ele><time>2026-04-10T10:40:09.856Z</time></trkpt><trkpt lat="42.1688817" lon="14.652435"><ele>35.0</ele><time>2026-04-10T10:40:10.856Z</time></trkpt><trkpt lat="42.1687983" lon="14.652425"><ele>35.0</ele><time>2026-04-10T10:40:11.857Z</time></trkpt><trkpt lat="42.16872" lon="14.6524183"><ele>35.0</ele><time>2026-04-10T10:40:12.857Z</time></trkpt><trkpt lat="42.168645" lon="14.6524083"><ele>35.0</ele><time>2026-04-10T10:40:13.857Z</time></trkpt><trkpt lat="42.168575" lon="14.652395"><ele>35.0</ele><time>2026-04-10T10:40:14.857Z</time></trkpt><trkpt lat="42.168505" lon="14.652375"><ele>35.0</ele><time>2026-04-10T10:40:15.857Z</time></trkpt><trkpt lat="42.168435" lon="14.6523467"><ele>35.0</ele><time>2026-04-10T10:40:16.857Z</time></trkpt><trkpt lat="42.1683733" lon="14.652305"><ele>35.0</ele><time>2026-04-10T10:40:17.857Z</time></trkpt><trkpt lat="42.168315" lon="14.6522533"><ele>35.0</ele><time>2026-04-10T10:40:18.856Z</time></trkpt><trkpt lat="42.1682567" lon="14.6521933"><ele>35.0</ele><time>2026-04-10T10:40:19.857Z</time></trkpt><trkpt lat="42.1682033" lon="14.6521283"><ele>35.0</ele><time>2026-04-10T10:40:20.857Z</time></trkpt><trkpt lat="42.16815" lon="14.652065"><ele>35.0</ele><time>2026-04-10T10:40:21.857Z</time></trkpt><trkpt lat="42.168105" lon="14.6519917"><ele>35.0</ele><time>2026-04-10T10:40:22.857Z</time></trkpt><trkpt lat="42.16806" lon="14.651915"><ele>33.714285714285715</ele><time>2026-04-10T10:40:23.857Z</time></trkpt><trkpt lat="42.1680067" lon="14.6518483"><ele>32.42857142857143</ele><time>2026-04-10T10:40:24.856Z</time></trkpt><trkpt lat="42.1679483" lon="14.6517867"><ele>31.142857142857142</ele><time>2026-04-10T10:40:25.857Z</time></trkpt><trkpt lat="42.1678933" lon="14.6517283"><ele>29.857142857142858</ele><time>2026-04-10T10:40:26.857Z</time></trkpt><trkpt lat="42.16783" lon="14.65168"><ele>28.571428571428573</ele><time>2026-04-10T10:40:27.857Z</time></trkpt><trkpt lat="42.167765" lon="14.6516533"><ele>27.285714285714285</ele><time>2026-04-10T10:40:28.857Z</time></trkpt><trkpt lat="42.167695" lon="14.6516417"><ele>26.0</ele><time>2026-04-10T10:40:29.857Z</time></trkpt><trkpt lat="42.16762" lon="14.6516317"><ele>26.0</ele><time>2026-04-10T10:40:30.856Z</time></trkpt><trkpt lat="42.16755" lon="14.6516283"><ele>26.0</ele><time>2026-04-10T10:40:31.857Z</time></trkpt><trkpt lat="42.1674733" lon="14.65162"><ele>26.0</ele><time>2026-04-10T10:40:32.857Z</time></trkpt><trkpt lat="42.1674017" lon="14.6516067"><ele>26.0</ele><time>2026-04-10T10:40:33.857Z</time></trkpt><trkpt lat="42.1673333" lon="14.6515883"><ele>26.0</ele><time>2026-04-10T10:40:34.857Z</time></trkpt><trkpt lat="42.1672683" lon="14.6515667"><ele>26.0</ele><time>2026-04-10T10:40:35.856Z</time></trkpt><trkpt lat="42.1672" lon="14.6515367"><ele>26.0</ele><time>2026-04-10T10:40:36.857Z</time></trkpt><trkpt lat="42.1671367" lon="14.6515017"><ele>26.285714285714285</ele><time>2026-04-10T10:40:37.857Z</time></trkpt><trkpt lat="42.1670717" lon="14.65147"><ele>26.571428571428573</ele><time>2026-04-10T10:40:38.856Z</time></trkpt><trkpt lat="42.1669983" lon="14.6514417"><ele>26.857142857142858</ele><time>2026-04-10T10:40:39.857Z</time></trkpt><trkpt lat="42.1669317" lon="14.6514083"><ele>27.142857142857142</ele><time>2026-04-10T10:40:40.857Z</time></trkpt><trkpt lat="42.1668633" lon="14.6513783"><ele>27.42857142857143</ele><time>2026-04-10T10:40:41.857Z</time></trkpt><trkpt lat="42.1668" lon="14.6513433"><ele>27.714285714285715</ele><time>2026-04-10T10:40:42.857Z</time></trkpt><trkpt lat="42.16674" lon="14.65131"><ele>28.0</ele><time>2026-04-10T10:40:43.856Z</time></trkpt><trkpt lat="42.1666783" lon="14.6512767"><ele>28.000000000000004</ele><time>2026-04-10T10:40:44.857Z</time></trkpt><trkpt lat="42.1666183" lon="14.6512433"><ele>28.0</ele><time>2026-04-10T10:40:45.857Z</time></trkpt><trkpt lat="42.166555" lon="14.6512117"><ele>28.0</ele><time>2026-04-10T10:40:46.857Z</time></trkpt><trkpt lat="42.16644" lon="14.6511533"><ele>28.0</ele><time>2026-04-10T10:40:48.856Z</time></trkpt><trkpt lat="42.16638" lon="14.6511217"><ele>28.000000000000004</ele><time>2026-04-10T10:40:49.857Z</time></trkpt><trkpt lat="42.16632" lon="14.6510933"><ele>28.0</ele><time>2026-04-10T10:40:50.856Z</time></trkpt><trkpt lat="42.166255" lon="14.6510633"><ele>26.666666666666668</ele><time>2026-04-10T10:40:51.856Z</time></trkpt><trkpt lat="42.16619" lon="14.65104"><ele>25.333333333333336</ele><time>2026-04-10T10:40:52.856Z</time></trkpt><trkpt lat="42.166065" lon="14.6510183"><ele>24.0</ele><time>2026-04-10T10:40:54.857Z</time></trkpt><trkpt lat="42.1659983" lon="14.6510217"><ele>22.666666666666668</ele><time>2026-04-10T10:40:55.857Z</time></trkpt><trkpt lat="42.1659333" lon="14.65103"><ele>21.333333333333336</ele><time>2026-04-10T10:40:56.856Z</time></trkpt><trkpt lat="42.1658133" lon="14.6510567"><ele>20.0</ele><time>2026-04-10T10:40:58.856Z</time></trkpt><trkpt lat="42.165695" lon="14.651055"><ele>19.8</ele><time>2026-04-10T10:41:00.857Z</time></trkpt><trkpt lat="42.165585" lon="14.651055"><ele>19.6</ele><time>2026-04-10T10:41:02.857Z</time></trkpt><trkpt lat="42.1654767" lon="14.6510583"><ele>19.4</ele><time>2026-04-10T10:41:04.857Z</time></trkpt><trkpt lat="42.1653667" lon="14.6510617"><ele>19.2</ele><time>2026-04-10T10:41:06.857Z</time></trkpt><trkpt lat="42.1652567" lon="14.65107"><ele>19.0</ele><time>2026-04-10T10:41:08.856Z</time></trkpt><trkpt lat="42.1651517" lon="14.6510767"><ele>19.0</ele><time>2026-04-10T10:41:10.857Z</time></trkpt><trkpt lat="42.16506" lon="14.651075"><ele>19.0</ele><time>2026-04-10T10:41:12.857Z</time></trkpt><trkpt lat="42.1649667" lon="14.6510667"><ele>19.0</ele><time>2026-04-10T10:41:14.856Z</time></trkpt><trkpt lat="42.16488" lon="14.6510467"><ele>19.0</ele><time>2026-04-10T10:41:16.856Z</time></trkpt><trkpt lat="42.1648033" lon="14.6510233"><ele>19.0</ele><time>2026-04-10T10:41:18.857Z</time></trkpt><trkpt lat="42.1647333" lon="14.65099"><ele>19.0</ele><time>2026-04-10T10:41:20.857Z</time></trkpt><trkpt lat="42.16467" lon="14.6509367"><ele>20.166666666666664</ele><time>2026-04-10T10:41:22.857Z</time></trkpt><trkpt lat="42.1646033" lon="14.6508817"><ele>21.333333333333332</ele><time>2026-04-10T10:41:24.857Z</time></trkpt><trkpt lat="42.1645383" lon="14.6508283"><ele>22.5</ele><time>2026-04-10T10:41:26.856Z</time></trkpt><trkpt lat="42.164475" lon="14.6507617"><ele>23.666666666666664</ele><time>2026-04-10T10:41:28.857Z</time></trkpt><trkpt lat="42.1644083" lon="14.6506917"><ele>24.833333333333332</ele><time>2026-04-10T10:41:30.856Z</time></trkpt><trkpt lat="42.1643467" lon="14.6506033"><ele>26.0</ele><time>2026-04-10T10:41:32.857Z</time></trkpt><trkpt lat="42.1642933" lon="14.650505"><ele>26.0</ele><time>2026-04-10T10:41:34.856Z</time></trkpt><trkpt lat="42.164255" lon="14.6504033"><ele>26.0</ele><time>2026-04-10T10:41:36.857Z</time></trkpt><trkpt lat="42.1642233" lon="14.6503"><ele>26.0</ele><time>2026-04-10T10:41:38.857Z</time></trkpt><trkpt lat="42.1641917" lon="14.6501917"><ele>26.0</ele><time>2026-04-10T10:41:40.857Z</time></trkpt><trkpt lat="42.1641733" lon="14.65007"><ele>26.0</ele><time>2026-04-10T10:41:42.856Z</time></trkpt><trkpt lat="42.1641483" lon="14.64993"><ele>25.333333333333332</ele><time>2026-04-10T10:41:44.857Z</time></trkpt><trkpt lat="42.16415" lon="14.6498367"><ele>24.666666666666664</ele><time>2026-04-10T10:41:46.856Z</time></trkpt><trkpt lat="42.1641583" lon="14.6497283"><ele>24.0</ele><time>2026-04-10T10:41:48.857Z</time></trkpt><trkpt lat="42.1641617" lon="14.64961"><ele>23.333333333333332</ele><time>2026-04-10T10:41:50.856Z</time></trkpt><trkpt lat="42.1641633" lon="14.6494967"><ele>22.666666666666664</ele><time>2026-04-10T10:41:52.856Z</time></trkpt><trkpt lat="42.1641633" lon="14.6493867"><ele>22.0</ele><time>2026-04-10T10:41:54.857Z</time></trkpt><trkpt lat="42.1641617" lon="14.6492767"><ele>22.0</ele><time>2026-04-10T10:41:56.857Z</time></trkpt><trkpt lat="42.16416" lon="14.6491533"><ele>22.0</ele><time>2026-04-10T10:41:58.857Z</time></trkpt><trkpt lat="42.164145" lon="14.6490283"><ele>22.0</ele><time>2026-04-10T10:42:00.857Z</time></trkpt><trkpt lat="42.164125" lon="14.6489133"><ele>22.0</ele><time>2026-04-10T10:42:02.857Z</time></trkpt><trkpt lat="42.1641" lon="14.6487933"><ele>22.0</ele><time>2026-04-10T10:42:04.857Z</time></trkpt><trkpt lat="42.1640667" lon="14.6486917"><ele>22.0</ele><time>2026-04-10T10:42:06.856Z</time></trkpt><trkpt lat="42.16404" lon="14.6485967"><ele>22.0</ele><time>2026-04-10T10:42:08.856Z</time></trkpt><trkpt lat="42.1640133" lon="14.6485133"><ele>22.0</ele><time>2026-04-10T10:42:10.856Z</time></trkpt><trkpt lat="42.1639767" lon="14.6484067"><ele>22.0</ele><time>2026-04-10T10:42:12.856Z</time></trkpt><trkpt lat="42.16394" lon="14.6482867"><ele>22.0</ele><time>2026-04-10T10:42:14.857Z</time></trkpt><trkpt lat="42.1639167" lon="14.64818"><ele>22.0</ele><time>2026-04-10T10:42:16.857Z</time></trkpt><trkpt lat="42.1639083" lon="14.6480883"><ele>22.0</ele><time>2026-04-10T10:42:18.856Z</time></trkpt><trkpt lat="42.163915" lon="14.6479567"><ele>22.0</ele><time>2026-04-10T10:42:20.857Z</time></trkpt><trkpt lat="42.163925" lon="14.6478167"><ele>22.0</ele><time>2026-04-10T10:42:22.857Z</time></trkpt><trkpt lat="42.1639367" lon="14.647675"><ele>22.0</ele><time>2026-04-10T10:42:24.857Z</time></trkpt><trkpt lat="42.16395" lon="14.6475317"><ele>22.0</ele><time>2026-04-10T10:42:26.857Z</time></trkpt><trkpt lat="42.163965" lon="14.6473867"><ele>22.0</ele><time>2026-04-10T10:42:28.856Z</time></trkpt><trkpt lat="42.163975" lon="14.6472333"><ele>21.5</ele><time>2026-04-10T10:42:30.857Z</time></trkpt><trkpt lat="42.1639867" lon="14.64708"><ele>21.0</ele><time>2026-04-10T10:42:32.857Z</time></trkpt><trkpt lat="42.164" lon="14.6469233"><ele>20.5</ele><time>2026-04-10T10:42:34.856Z</time></trkpt><trkpt lat="42.1640167" lon="14.6467717"><ele>20.0</ele><time>2026-04-10T10:42:36.857Z</time></trkpt><trkpt lat="42.1640267" lon="14.646625"><ele>20.0</ele><time>2026-04-10T10:42:38.857Z</time></trkpt><trkpt lat="42.1640367" lon="14.64647"><ele>20.0</ele><time>2026-04-10T10:42:40.857Z</time></trkpt><trkpt lat="42.164045" lon="14.6463183"><ele>20.0</ele><time>2026-04-10T10:42:42.857Z</time></trkpt><trkpt lat="42.1640467" lon="14.6461683"><ele>20.0</ele><time>2026-04-10T10:42:44.856Z</time></trkpt><trkpt lat="42.16405" lon="14.64602"><ele>20.0</ele><time>2026-04-10T10:42:46.857Z</time></trkpt><trkpt lat="42.1640433" lon="14.64587"><ele>19.8</ele><time>2026-04-10T10:42:48.856Z</time></trkpt><trkpt lat="42.16404" lon="14.645725"><ele>19.6</ele><time>2026-04-10T10:42:50.857Z</time></trkpt><trkpt lat="42.164035" lon="14.6455833"><ele>19.4</ele><time>2026-04-10T10:42:52.857Z</time></trkpt><trkpt lat="42.164035" lon="14.6454383"><ele>19.2</ele><time>2026-04-10T10:42:54.857Z</time></trkpt><trkpt lat="42.1640333" lon="14.6452967"><ele>19.0</ele><time>2026-04-10T10:42:56.856Z</time></trkpt><trkpt lat="42.1640267" lon="14.64515"><ele>18.599999999999998</ele><time>2026-04-10T10:42:58.857Z</time></trkpt><trkpt lat="42.16402" lon="14.6450133"><ele>18.2</ele><time>2026-04-10T10:43:00.856Z</time></trkpt><trkpt lat="42.16402" lon="14.6448617"><ele>17.799999999999997</ele><time>2026-04-10T10:43:02.857Z</time></trkpt><trkpt lat="42.1640183" lon="14.644705"><ele>17.4</ele><time>2026-04-10T10:43:04.856Z</time></trkpt><trkpt lat="42.1640083" lon="14.644545"><ele>17.0</ele><time>2026-04-10T10:43:06.857Z</time></trkpt><trkpt lat="42.1639967" lon="14.64439"><ele>17.0</ele><time>2026-04-10T10:43:08.857Z</time></trkpt><trkpt lat="42.1639883" lon="14.644225"><ele>17.0</ele><time>2026-04-10T10:43:10.856Z</time></trkpt><trkpt lat="42.16398" lon="14.644065"><ele>17.0</ele><time>2026-04-10T10:43:12.857Z</time></trkpt><trkpt lat="42.1639767" lon="14.6439117"><ele>17.0</ele><time>2026-04-10T10:43:14.857Z</time></trkpt><trkpt lat="42.163975" lon="14.64376"><ele>17.6</ele><time>2026-04-10T10:43:16.856Z</time></trkpt><trkpt lat="42.1639767" lon="14.6436133"><ele>18.2</ele><time>2026-04-10T10:43:18.856Z</time></trkpt><trkpt lat="42.16397" lon="14.6434717"><ele>18.8</ele><time>2026-04-10T10:43:20.857Z</time></trkpt><trkpt lat="42.163965" lon="14.6433433"><ele>19.4</ele><time>2026-04-10T10:43:22.857Z</time></trkpt><trkpt lat="42.16396" lon="14.6432117"><ele>20.0</ele><time>2026-04-10T10:43:24.857Z</time></trkpt><trkpt lat="42.1639633" lon="14.643075"><ele>20.0</ele><time>2026-04-10T10:43:26.857Z</time></trkpt><trkpt lat="42.1639633" lon="14.64292"><ele>20.0</ele><time>2026-04-10T10:43:28.856Z</time></trkpt><trkpt lat="42.1639583" lon="14.6427783"><ele>20.0</ele><time>2026-04-10T10:43:30.857Z</time></trkpt><trkpt lat="42.1639567" lon="14.6426433"><ele>20.0</ele><time>2026-04-10T10:43:32.856Z</time></trkpt><trkpt lat="42.1639517" lon="14.6425117"><ele>20.0</ele><time>2026-04-10T10:43:34.857Z</time></trkpt><trkpt lat="42.1639517" lon="14.642385"><ele>20.0</ele><time>2026-04-10T10:43:36.856Z</time></trkpt><trkpt lat="42.1639483" lon="14.6422617"><ele>20.0</ele><time>2026-04-10T10:43:38.857Z</time></trkpt><trkpt lat="42.1639517" lon="14.64215"><ele>20.0</ele><time>2026-04-10T10:43:40.857Z</time></trkpt><trkpt lat="42.1639617" lon="14.6420317"><ele>20.0</ele><time>2026-04-10T10:43:42.856Z</time></trkpt><trkpt lat="42.163965" lon="14.64192"><ele>20.0</ele><time>2026-04-10T10:43:44.857Z</time></trkpt><trkpt lat="42.1639733" lon="14.6418183"><ele>20.0</ele><time>2026-04-10T10:43:46.856Z</time></trkpt><trkpt lat="42.1639833" lon="14.6417117"><ele>20.0</ele><time>2026-04-10T10:43:48.857Z</time></trkpt><trkpt lat="42.16401" lon="14.6415933"><ele>20.0</ele><time>2026-04-10T10:43:50.856Z</time></trkpt><trkpt lat="42.164045" lon="14.6414733"><ele>20.0</ele><time>2026-04-10T10:43:52.856Z</time></trkpt><trkpt lat="42.1640917" lon="14.64135"><ele>20.0</ele><time>2026-04-10T10:43:54.857Z</time></trkpt><trkpt lat="42.1641517" lon="14.6412517"><ele>20.0</ele><time>2026-04-10T10:43:56.857Z</time></trkpt><trkpt lat="42.1642217" lon="14.6411517"><ele>20.0</ele><time>2026-04-10T10:43:58.857Z</time></trkpt><trkpt lat="42.164275" lon="14.641025"><ele>20.0</ele><time>2026-04-10T10:44:00.857Z</time></trkpt><trkpt lat="42.164295" lon="14.6408783"><ele>20.0</ele><time>2026-04-10T10:44:02.856Z</time></trkpt><trkpt lat="42.1642583" lon="14.6407417"><ele>20.0</ele><time>2026-04-10T10:44:04.857Z</time></trkpt><trkpt lat="42.1641667" lon="14.6406367"><ele>20.0</ele><time>2026-04-10T10:44:06.857Z</time></trkpt><trkpt lat="42.1640583" lon="14.64059"><ele>19.6</ele><time>2026-04-10T10:44:08.856Z</time></trkpt><trkpt lat="42.163995" lon="14.6405883"><ele>19.2</ele><time>2026-04-10T10:44:09.857Z</time></trkpt><trkpt lat="42.1638733" lon="14.6405983"><ele>18.8</ele><time>2026-04-10T10:44:11.857Z</time></trkpt><trkpt lat="42.1637683" lon="14.6405633"><ele>18.4</ele><time>2026-04-10T10:44:13.856Z</time></trkpt><trkpt lat="42.1636983" lon="14.640475"><ele>18.0</ele><time>2026-04-10T10:44:15.857Z</time></trkpt><trkpt lat="42.16366" lon="14.6403567"><ele>18.5</ele><time>2026-04-10T10:44:17.857Z</time></trkpt><trkpt lat="42.1636167" lon="14.64022"><ele>19.0</ele><time>2026-04-10T10:44:19.857Z</time></trkpt><trkpt lat="42.16353" lon="14.6401183"><ele>19.5</ele><time>2026-04-10T10:44:21.857Z</time></trkpt><trkpt lat="42.1634333" lon="14.640035"><ele>20.0</ele><time>2026-04-10T10:44:23.856Z</time></trkpt><trkpt lat="42.1633483" lon="14.6399283"><ele>20.0</ele><time>2026-04-10T10:44:25.856Z</time></trkpt><trkpt lat="42.1632767" lon="14.6397983"><ele>20.0</ele><time>2026-04-10T10:44:27.856Z</time></trkpt><trkpt lat="42.1631967" lon="14.63968"><ele>20.0</ele><time>2026-04-10T10:44:29.857Z</time></trkpt><trkpt lat="42.1630983" lon="14.639585"><ele>20.0</ele><time>2026-04-10T10:44:31.857Z</time></trkpt><trkpt lat="42.1629833" lon="14.6395383"><ele>20.2</ele><time>2026-04-10T10:44:33.856Z</time></trkpt><trkpt lat="42.16287" lon="14.6395"><ele>20.4</ele><time>2026-04-10T10:44:35.856Z</time></trkpt><trkpt lat="42.162775" lon="14.63945"><ele>20.6</ele><time>2026-04-10T10:44:37.857Z</time></trkpt><trkpt lat="42.16268" lon="14.6393767"><ele>20.8</ele><time>2026-04-10T10:44:39.857Z</time></trkpt><trkpt lat="42.1625983" lon="14.639275"><ele>21.0</ele><time>2026-04-10T10:44:41.856Z</time></trkpt><trkpt lat="42.1625267" lon="14.63916"><ele>21.200000000000003</ele><time>2026-04-10T10:44:43.857Z</time></trkpt><trkpt lat="42.162465" lon="14.6390267"><ele>21.400000000000002</ele><time>2026-04-10T10:44:45.857Z</time></trkpt><trkpt lat="42.1624233" lon="14.6388783"><ele>21.6</ele><time>2026-04-10T10:44:47.857Z</time></trkpt><trkpt lat="42.162425" lon="14.6387283"><ele>21.8</ele><time>2026-04-10T10:44:49.856Z</time></trkpt><trkpt lat="42.1624633" lon="14.6386033"><ele>22.0</ele><time>2026-04-10T10:44:51.857Z</time></trkpt><trkpt lat="42.1625367" lon="14.638505"><ele>22.8</ele><time>2026-04-10T10:44:53.857Z</time></trkpt><trkpt lat="42.1626083" lon="14.638415"><ele>23.6</ele><time>2026-04-10T10:44:55.856Z</time></trkpt><trkpt lat="42.16269" lon="14.6383433"><ele>24.400000000000002</ele><time>2026-04-10T10:44:57.857Z</time></trkpt><trkpt lat="42.1627767" lon="14.6382883"><ele>25.200000000000003</ele><time>2026-04-10T10:44:59.856Z</time></trkpt><trkpt lat="42.162865" lon="14.6382433"><ele>26.0</ele><time>2026-04-10T10:45:01.857Z</time></trkpt><trkpt lat="42.1629533" lon="14.6381783"><ele>25.999999999999996</ele><time>2026-04-10T10:45:03.856Z</time></trkpt><trkpt lat="42.1630383" lon="14.6381233"><ele>26.0</ele><time>2026-04-10T10:45:05.857Z</time></trkpt><trkpt lat="42.1631083" lon="14.6380767"><ele>26.0</ele><time>2026-04-10T10:45:07.857Z</time></trkpt><trkpt lat="42.1631783" lon="14.638035"><ele>26.0</ele><time>2026-04-10T10:45:09.856Z</time></trkpt><trkpt lat="42.1632517" lon="14.63797"><ele>25.999999999999996</ele><time>2026-04-10T10:45:11.857Z</time></trkpt><trkpt lat="42.1633183" lon="14.637885"><ele>26.0</ele><time>2026-04-10T10:45:13.857Z</time></trkpt><trkpt lat="42.1633783" lon="14.637795"><ele>26.6</ele><time>2026-04-10T10:45:15.857Z</time></trkpt><trkpt lat="42.163435" lon="14.6376933"><ele>27.200000000000003</ele><time>2026-04-10T10:45:17.857Z</time></trkpt><trkpt lat="42.1634983" lon="14.637585"><ele>27.799999999999997</ele><time>2026-04-10T10:45:19.857Z</time></trkpt><trkpt lat="42.16356" lon="14.6375017"><ele>28.4</ele><time>2026-04-10T10:45:21.857Z</time></trkpt><trkpt lat="42.163615" lon="14.6373967"><ele>29.0</ele><time>2026-04-10T10:45:23.857Z</time></trkpt><trkpt lat="42.1636617" lon="14.637265"><ele>29.0</ele><time>2026-04-10T10:45:25.857Z</time></trkpt><trkpt lat="42.1636617" lon="14.63715"><ele>29.0</ele><time>2026-04-10T10:45:27.856Z</time></trkpt><trkpt lat="42.1636717" lon="14.6370117"><ele>29.0</ele><time>2026-04-10T10:45:28.857Z</time></trkpt><trkpt lat="42.163635" lon="14.6368517"><ele>29.0</ele><time>2026-04-10T10:45:30.856Z</time></trkpt><trkpt lat="42.1636083" lon="14.6367617"><ele>29.0</ele><time>2026-04-10T10:45:31.857Z</time></trkpt><trkpt lat="42.1635517" lon="14.63661"><ele>30.0</ele><time>2026-04-10T10:45:33.857Z</time></trkpt><trkpt lat="42.1634883" lon="14.6364783"><ele>31.0</ele><time>2026-04-10T10:45:35.856Z</time></trkpt><trkpt lat="42.1634217" lon="14.63636"><ele>32.0</ele><time>2026-04-10T10:45:37.856Z</time></trkpt><trkpt lat="42.1633567" lon="14.6362517"><ele>33.0</ele><time>2026-04-10T10:45:39.857Z</time></trkpt><trkpt lat="42.1632967" lon="14.6361517"><ele>34.0</ele><time>2026-04-10T10:45:41.857Z</time></trkpt><trkpt lat="42.1632433" lon="14.6360417"><ele>34.6</ele><time>2026-04-10T10:45:43.857Z</time></trkpt><trkpt lat="42.1631833" lon="14.635925"><ele>35.2</ele><time>2026-04-10T10:45:45.857Z</time></trkpt><trkpt lat="42.16313" lon="14.6358117"><ele>35.800000000000004</ele><time>2026-04-10T10:45:47.857Z</time></trkpt><trkpt lat="42.16307" lon="14.6357133"><ele>36.4</ele><time>2026-04-10T10:45:49.856Z</time></trkpt><trkpt lat="42.1630117" lon="14.6356217"><ele>37.0</ele><time>2026-04-10T10:45:51.856Z</time></trkpt><trkpt lat="42.1629433" lon="14.6355367"><ele>37.0</ele><time>2026-04-10T10:45:53.856Z</time></trkpt><trkpt lat="42.1628633" lon="14.635465"><ele>37.0</ele><time>2026-04-10T10:45:55.857Z</time></trkpt><trkpt lat="42.1627717" lon="14.6354117"><ele>37.0</ele><time>2026-04-10T10:45:57.857Z</time></trkpt><trkpt lat="42.1626783" lon="14.6353633"><ele>37.0</ele><time>2026-04-10T10:45:59.857Z</time></trkpt><trkpt lat="42.1625967" lon="14.6353217"><ele>37.0</ele><time>2026-04-10T10:46:01.856Z</time></trkpt><trkpt lat="42.16251" lon="14.63529"><ele>38.2</ele><time>2026-04-10T10:46:03.856Z</time></trkpt><trkpt lat="42.1624217" lon="14.63525"><ele>39.400000000000006</ele><time>2026-04-10T10:46:05.857Z</time></trkpt><trkpt lat="42.1623383" lon="14.6352067"><ele>40.599999999999994</ele><time>2026-04-10T10:46:07.856Z</time></trkpt><trkpt lat="42.1622517" lon="14.6351583"><ele>41.8</ele><time>2026-04-10T10:46:09.857Z</time></trkpt><trkpt lat="42.1621683" lon="14.6350967"><ele>43.0</ele><time>2026-04-10T10:46:11.857Z</time></trkpt><trkpt lat="42.1620933" lon="14.6350317"><ele>43.66666666666667</ele><time>2026-04-10T10:46:13.857Z</time></trkpt><trkpt lat="42.1620333" lon="14.63496"><ele>44.333333333333336</ele><time>2026-04-10T10:46:15.856Z</time></trkpt><trkpt lat="42.1619617" lon="14.63489"><ele>45.0</ele><time>2026-04-10T10:46:17.856Z</time></trkpt><trkpt lat="42.1618983" lon="14.6348417"><ele>45.666666666666664</ele><time>2026-04-10T10:46:20.857Z</time></trkpt><trkpt lat="42.1618167" lon="14.6348467"><ele>46.33333333333333</ele><time>2026-04-10T10:46:23.857Z</time></trkpt><trkpt lat="42.1617333" lon="14.6347417"><ele>47.0</ele><time>2026-04-10T10:46:25.856Z</time></trkpt><trkpt lat="42.1617083" lon="14.6346317"><ele>47.0</ele><time>2026-04-10T10:46:26.857Z</time></trkpt><trkpt lat="42.16166" lon="14.634515"><ele>47.0</ele><time>2026-04-10T10:46:28.857Z</time></trkpt><trkpt lat="42.1616233" lon="14.6343933"><ele>47.0</ele><time>2026-04-10T10:46:30.857Z</time></trkpt><trkpt lat="42.1616133" lon="14.63428"><ele>47.0</ele><time>2026-04-10T10:46:32.857Z</time></trkpt><trkpt lat="42.16163" lon="14.634175"><ele>47.0</ele><time>2026-04-10T10:46:34.857Z</time></trkpt><trkpt lat="42.1616633" lon="14.6340783"><ele>47.0</ele><time>2026-04-10T10:46:36.857Z</time></trkpt><trkpt lat="42.16171" lon="14.6339833"><ele>47.6</ele><time>2026-04-10T10:46:38.857Z</time></trkpt><trkpt lat="42.1617617" lon="14.633885"><ele>48.2</ele><time>2026-04-10T10:46:40.857Z</time></trkpt><trkpt lat="42.1618133" lon="14.6337967"><ele>48.8</ele><time>2026-04-10T10:46:42.856Z</time></trkpt><trkpt lat="42.1618683" lon="14.633695"><ele>49.4</ele><time>2026-04-10T10:46:44.857Z</time></trkpt><trkpt lat="42.16193" lon="14.633595"><ele>50.0</ele><time>2026-04-10T10:46:46.857Z</time></trkpt><trkpt lat="42.161995" lon="14.6334983"><ele>51.4</ele><time>2026-04-10T10:46:48.857Z</time></trkpt><trkpt lat="42.1620583" lon="14.6333967"><ele>52.8</ele><time>2026-04-10T10:46:50.856Z</time></trkpt><trkpt lat="42.1621167" lon="14.6332983"><ele>54.2</ele><time>2026-04-10T10:46:52.856Z</time></trkpt><trkpt lat="42.162175" lon="14.63321"><ele>55.6</ele><time>2026-04-10T10:46:54.856Z</time></trkpt><trkpt lat="42.16224" lon="14.63311"><ele>57.0</ele><time>2026-04-10T10:46:56.857Z</time></trkpt><trkpt lat="42.1623017" lon="14.6330133"><ele>57.0</ele><time>2026-04-10T10:46:58.856Z</time></trkpt><trkpt lat="42.162355" lon="14.63292"><ele>57.0</ele><time>2026-04-10T10:47:00.856Z</time></trkpt><trkpt lat="42.1624083" lon="14.63283"><ele>57.0</ele><time>2026-04-10T10:47:02.857Z</time></trkpt><trkpt lat="42.1624667" lon="14.6327317"><ele>57.0</ele><time>2026-04-10T10:47:04.857Z</time></trkpt><trkpt lat="42.1625333" lon="14.63264"><ele>57.0</ele><time>2026-04-10T10:47:06.857Z</time></trkpt><trkpt lat="42.1625983" lon="14.6325517"><ele>56.8</ele><time>2026-04-10T10:47:08.857Z</time></trkpt><trkpt lat="42.1626683" lon="14.63247"><ele>56.6</ele><time>2026-04-10T10:47:10.857Z</time></trkpt><trkpt lat="42.1627383" lon="14.6323883"><ele>56.39999999999999</ele><time>2026-04-10T10:47:12.856Z</time></trkpt><trkpt lat="42.1628133" lon="14.632305"><ele>56.199999999999996</ele><time>2026-04-10T10:47:14.857Z</time></trkpt><trkpt lat="42.1628783" lon="14.632215"><ele>56.0</ele><time>2026-04-10T10:47:16.857Z</time></trkpt><trkpt lat="42.162925" lon="14.6321067"><ele>56.00000000000001</ele><time>2026-04-10T10:47:18.856Z</time></trkpt><trkpt lat="42.1629383" lon="14.631985"><ele>56.0</ele><time>2026-04-10T10:47:20.857Z</time></trkpt><trkpt lat="42.1629267" lon="14.631855"><ele>56.0</ele><time>2026-04-10T10:47:22.856Z</time></trkpt><trkpt lat="42.1628733" lon="14.6317617"><ele>56.0</ele><time>2026-04-10T10:47:24.857Z</time></trkpt><trkpt lat="42.162795" lon="14.6317083"><ele>56.00000000000001</ele><time>2026-04-10T10:47:26.856Z</time></trkpt><trkpt lat="42.1627117" lon="14.6316867"><ele>56.0</ele><time>2026-04-10T10:47:28.857Z</time></trkpt><trkpt lat="42.1626317" lon="14.6317017"><ele>57.599999999999994</ele><time>2026-04-10T10:47:30.856Z</time></trkpt><trkpt lat="42.1625517" lon="14.631745"><ele>59.199999999999996</ele><time>2026-04-10T10:47:32.856Z</time></trkpt><trkpt lat="42.1624783" lon="14.6317983"><ele>60.800000000000004</ele><time>2026-04-10T10:47:34.856Z</time></trkpt><trkpt lat="42.1623933" lon="14.63187"><ele>62.400000000000006</ele><time>2026-04-10T10:47:36.856Z</time></trkpt><trkpt lat="42.162305" lon="14.6319383"><ele>64.0</ele><time>2026-04-10T10:47:38.856Z</time></trkpt><trkpt lat="42.1622167" lon="14.632"><ele>64.4</ele><time>2026-04-10T10:47:40.856Z</time></trkpt><trkpt lat="42.162135" lon="14.6320633"><ele>64.80000000000001</ele><time>2026-04-10T10:47:42.857Z</time></trkpt><trkpt lat="42.1620517" lon="14.6321267"><ele>65.19999999999999</ele><time>2026-04-10T10:47:44.856Z</time></trkpt><trkpt lat="42.1619667" lon="14.6321867"><ele>65.6</ele><time>2026-04-10T10:47:46.856Z</time></trkpt><trkpt lat="42.1618867" lon="14.6322483"><ele>66.0</ele><time>2026-04-10T10:47:48.856Z</time></trkpt><trkpt lat="42.161805" lon="14.6323117"><ele>66.0</ele><time>2026-04-10T10:47:50.857Z</time></trkpt><trkpt lat="42.1617283" lon="14.6323717"><ele>66.0</ele><time>2026-04-10T10:47:52.857Z</time></trkpt><trkpt lat="42.1616533" lon="14.6324367"><ele>66.0</ele><time>2026-04-10T10:47:54.857Z</time></trkpt><trkpt lat="42.16159" lon="14.6325"><ele>66.0</ele><time>2026-04-10T10:47:56.856Z</time></trkpt><trkpt lat="42.1615267" lon="14.6325533"><ele>66.0</ele><time>2026-04-10T10:47:58.856Z</time></trkpt><trkpt lat="42.1614617" lon="14.6326083"><ele>66.0</ele><time>2026-04-10T10:48:00.857Z</time></trkpt><trkpt lat="42.161385" lon="14.632655"><ele>65.2</ele><time>2026-04-10T10:48:02.857Z</time></trkpt><trkpt lat="42.161305" lon="14.63271"><ele>64.39999999999999</ele><time>2026-04-10T10:48:04.857Z</time></trkpt><trkpt lat="42.1612183" lon="14.632765"><ele>63.6</ele><time>2026-04-10T10:48:06.856Z</time></trkpt><trkpt lat="42.1611317" lon="14.6328217"><ele>62.8</ele><time>2026-04-10T10:48:08.857Z</time></trkpt><trkpt lat="42.1610417" lon="14.6328783"><ele>62.0</ele><time>2026-04-10T10:48:10.857Z</time></trkpt><trkpt lat="42.1609567" lon="14.63293"><ele>62.0</ele><time>2026-04-10T10:48:12.856Z</time></trkpt><trkpt lat="42.1608567" lon="14.6329617"><ele>62.0</ele><time>2026-04-10T10:48:14.857Z</time></trkpt><trkpt lat="42.1607683" lon="14.6329567"><ele>62.0</ele><time>2026-04-10T10:48:16.857Z</time></trkpt><trkpt lat="42.1606783" lon="14.63291"><ele>62.0</ele><time>2026-04-10T10:48:18.857Z</time></trkpt><trkpt lat="42.1606183" lon="14.6328283"><ele>62.0</ele><time>2026-04-10T10:48:20.856Z</time></trkpt><trkpt lat="42.160565" lon="14.6327333"><ele>62.00000000000001</ele><time>2026-04-10T10:48:22.856Z</time></trkpt><trkpt lat="42.1605333" lon="14.6326267"><ele>62.0</ele><time>2026-04-10T10:48:24.857Z</time></trkpt><trkpt lat="42.160505" lon="14.6325183"><ele>62.0</ele><time>2026-04-10T10:48:26.856Z</time></trkpt><trkpt lat="42.1604783" lon="14.632405"><ele>62.0</ele><time>2026-04-10T10:48:28.856Z</time></trkpt><trkpt lat="42.1604617" lon="14.632285"><ele>62.00000000000001</ele><time>2026-04-10T10:48:30.856Z</time></trkpt><trkpt lat="42.160445" lon="14.632165"><ele>62.0</ele><time>2026-04-10T10:48:32.857Z</time></trkpt><trkpt lat="42.1604333" lon="14.6320383"><ele>63.6</ele><time>2026-04-10T10:48:34.857Z</time></trkpt><trkpt lat="42.1604167" lon="14.6319167"><ele>65.2</ele><time>2026-04-10T10:48:36.857Z</time></trkpt><trkpt lat="42.1604" lon="14.631805"><ele>66.8</ele><time>2026-04-10T10:48:38.857Z</time></trkpt><trkpt lat="42.1603667" lon="14.6316833"><ele>68.4</ele><time>2026-04-10T10:48:40.856Z</time></trkpt><trkpt lat="42.160335" lon="14.63156"><ele>70.0</ele><time>2026-04-10T10:48:42.857Z</time></trkpt><trkpt lat="42.1603" lon="14.6314283"><ele>70.0</ele><time>2026-04-10T10:48:44.857Z</time></trkpt><trkpt lat="42.1602617" lon="14.6312967"><ele>70.0</ele><time>2026-04-10T10:48:46.856Z</time></trkpt><trkpt lat="42.1602283" lon="14.6311617"><ele>70.0</ele><time>2026-04-10T10:48:48.856Z</time></trkpt><trkpt lat="42.1602133" lon="14.6310217"><ele>70.0</ele><time>2026-04-10T10:48:50.857Z</time></trkpt><trkpt lat="42.160205" lon="14.6308783"><ele>70.0</ele><time>2026-04-10T10:48:52.857Z</time></trkpt><trkpt lat="42.160205" lon="14.630745"><ele>71.2</ele><time>2026-04-10T10:48:54.857Z</time></trkpt><trkpt lat="42.160215" lon="14.6305967"><ele>72.4</ele><time>2026-04-10T10:48:56.857Z</time></trkpt><trkpt lat="42.1602183" lon="14.630465"><ele>73.6</ele><time>2026-04-10T10:48:58.857Z</time></trkpt><trkpt lat="42.1602167" lon="14.630335"><ele>74.8</ele><time>2026-04-10T10:49:00.857Z</time></trkpt><trkpt lat="42.1602233" lon="14.630195"><ele>76.0</ele><time>2026-04-10T10:49:02.857Z</time></trkpt><trkpt lat="42.1602283" lon="14.6300583"><ele>77.0</ele><time>2026-04-10T10:49:04.857Z</time></trkpt><trkpt lat="42.160235" lon="14.6299283"><ele>78.0</ele><time>2026-04-10T10:49:06.856Z</time></trkpt><trkpt lat="42.1602533" lon="14.6297983"><ele>79.0</ele><time>2026-04-10T10:49:08.857Z</time></trkpt><trkpt lat="42.1602683" lon="14.62967"><ele>80.0</ele><time>2026-04-10T10:49:10.857Z</time></trkpt><trkpt lat="42.1602883" lon="14.62955"><ele>81.0</ele><time>2026-04-10T10:49:12.857Z</time></trkpt><trkpt lat="42.16031" lon="14.6294217"><ele>81.4</ele><time>2026-04-10T10:49:14.856Z</time></trkpt><trkpt lat="42.16033" lon="14.629285"><ele>81.8</ele><time>2026-04-10T10:49:16.857Z</time></trkpt><trkpt lat="42.1603467" lon="14.629145"><ele>82.2</ele><time>2026-04-10T10:49:18.857Z</time></trkpt><trkpt lat="42.1603617" lon="14.6290067"><ele>82.60000000000001</ele><time>2026-04-10T10:49:20.856Z</time></trkpt><trkpt lat="42.1603783" lon="14.6288783"><ele>83.0</ele><time>2026-04-10T10:49:22.857Z</time></trkpt><trkpt lat="42.1603933" lon="14.62875"><ele>83.2</ele><time>2026-04-10T10:49:24.857Z</time></trkpt><trkpt lat="42.1604117" lon="14.62863"><ele>83.4</ele><time>2026-04-10T10:49:26.857Z</time></trkpt><trkpt lat="42.16043" lon="14.6285067"><ele>83.60000000000001</ele><time>2026-04-10T10:49:28.857Z</time></trkpt><trkpt lat="42.160445" lon="14.6283783"><ele>83.80000000000001</ele><time>2026-04-10T10:49:30.857Z</time></trkpt><trkpt lat="42.1604633" lon="14.628255"><ele>84.0</ele><time>2026-04-10T10:49:32.857Z</time></trkpt><trkpt lat="42.1604783" lon="14.6281267"><ele>84.0</ele><time>2026-04-10T10:49:34.856Z</time></trkpt><trkpt lat="42.1604933" lon="14.628"><ele>84.0</ele><time>2026-04-10T10:49:36.856Z</time></trkpt><trkpt lat="42.1605117" lon="14.62787"><ele>84.0</ele><time>2026-04-10T10:49:38.856Z</time></trkpt><trkpt lat="42.1605317" lon="14.6277433"><ele>84.0</ele><time>2026-04-10T10:49:40.856Z</time></trkpt><trkpt lat="42.1605517" lon="14.6276183"><ele>84.0</ele><time>2026-04-10T10:49:42.857Z</time></trkpt><trkpt lat="42.1605717" lon="14.6274867"><ele>84.6</ele><time>2026-04-10T10:49:44.856Z</time></trkpt><trkpt lat="42.16059" lon="14.6273617"><ele>85.2</ele><time>2026-04-10T10:49:46.856Z</time></trkpt><trkpt lat="42.1606067" lon="14.627235"><ele>85.8</ele><time>2026-04-10T10:49:48.857Z</time></trkpt><trkpt lat="42.1606217" lon="14.6271117"><ele>86.39999999999999</ele><time>2026-04-10T10:49:50.856Z</time></trkpt><trkpt lat="42.1606367" lon="14.626985"><ele>87.0</ele><time>2026-04-10T10:49:52.856Z</time></trkpt><trkpt lat="42.1606533" lon="14.626855"><ele>87.19999999999999</ele><time>2026-04-10T10:49:54.857Z</time></trkpt><trkpt lat="42.1606717" lon="14.6267217"><ele>87.4</ele><time>2026-04-10T10:49:56.857Z</time></trkpt><trkpt lat="42.1606917" lon="14.6266"><ele>87.6</ele><time>2026-04-10T10:49:58.857Z</time></trkpt><trkpt lat="42.1607217" lon="14.626485"><ele>87.80000000000001</ele><time>2026-04-10T10:50:00.857Z</time></trkpt><trkpt lat="42.160755" lon="14.6263717"><ele>88.0</ele><time>2026-04-10T10:50:02.856Z</time></trkpt><trkpt lat="42.1608033" lon="14.6262633"><ele>88.60000000000001</ele><time>2026-04-10T10:50:04.857Z</time></trkpt><trkpt lat="42.1608617" lon="14.626165"><ele>89.2</ele><time>2026-04-10T10:50:06.857Z</time></trkpt><trkpt lat="42.16092" lon="14.6260817"><ele>89.8</ele><time>2026-04-10T10:50:08.857Z</time></trkpt><trkpt lat="42.1609883" lon="14.6260033"><ele>90.4</ele><time>2026-04-10T10:50:10.857Z</time></trkpt><trkpt lat="42.1610633" lon="14.62592"><ele>91.0</ele><time>2026-04-10T10:50:12.857Z</time></trkpt><trkpt lat="42.1611367" lon="14.625845"><ele>91.8</ele><time>2026-04-10T10:50:14.857Z</time></trkpt><trkpt lat="42.1612083" lon="14.6257667"><ele>92.6</ele><time>2026-04-10T10:50:16.857Z</time></trkpt><trkpt lat="42.16128" lon="14.6256967"><ele>93.4</ele><time>2026-04-10T10:50:18.857Z</time></trkpt><trkpt lat="42.1613583" lon="14.6256183"><ele>94.2</ele><time>2026-04-10T10:50:20.857Z</time></trkpt><trkpt lat="42.1614333" lon="14.6255433"><ele>95.0</ele><time>2026-04-10T10:50:22.857Z</time></trkpt><trkpt lat="42.1615083" lon="14.6254733"><ele>95.0</ele><time>2026-04-10T10:50:24.857Z</time></trkpt><trkpt lat="42.1615783" lon="14.6253967"><ele>95.0</ele><time>2026-04-10T10:50:26.857Z</time></trkpt><trkpt lat="42.1616467" lon="14.62531"><ele>95.0</ele><time>2026-04-10T10:50:28.856Z</time></trkpt><trkpt lat="42.1617133" lon="14.6252133"><ele>95.0</ele><time>2026-04-10T10:50:30.857Z</time></trkpt><trkpt lat="42.1617783" lon="14.6251333"><ele>95.0</ele><time>2026-04-10T10:50:32.856Z</time></trkpt><trkpt lat="42.16183" lon="14.6250317"><ele>96.2</ele><time>2026-04-10T10:50:34.857Z</time></trkpt><trkpt lat="42.1618783" lon="14.624915"><ele>97.4</ele><time>2026-04-10T10:50:36.857Z</time></trkpt><trkpt lat="42.1619217" lon="14.6247967"><ele>98.6</ele><time>2026-04-10T10:50:38.856Z</time></trkpt><trkpt lat="42.16195" lon="14.62466"><ele>99.8</ele><time>2026-04-10T10:50:40.856Z</time></trkpt><trkpt lat="42.1619883" lon="14.6245333"><ele>101.0</ele><time>2026-04-10T10:50:42.856Z</time></trkpt><trkpt lat="42.1620183" lon="14.62441"><ele>102.0</ele><time>2026-04-10T10:50:44.857Z</time></trkpt><trkpt lat="42.1620483" lon="14.624285"><ele>103.0</ele><time>2026-04-10T10:50:46.856Z</time></trkpt><trkpt lat="42.1620767" lon="14.6241633"><ele>104.0</ele><time>2026-04-10T10:50:48.856Z</time></trkpt><trkpt lat="42.162105" lon="14.62405"><ele>105.0</ele><time>2026-04-10T10:50:50.857Z</time></trkpt><trkpt lat="42.1621283" lon="14.6239283"><ele>106.0</ele><time>2026-04-10T10:50:52.857Z</time></trkpt><trkpt lat="42.1621517" lon="14.623815"><ele>106.0</ele><time>2026-04-10T10:50:54.857Z</time></trkpt><trkpt lat="42.162165" lon="14.6236917"><ele>106.0</ele><time>2026-04-10T10:50:56.856Z</time></trkpt><trkpt lat="42.16216" lon="14.62357"><ele>106.0</ele><time>2026-04-10T10:50:58.857Z</time></trkpt><trkpt lat="42.1621333" lon="14.6234517"><ele>106.0</ele><time>2026-04-10T10:51:00.857Z</time></trkpt><trkpt lat="42.1620983" lon="14.6233433"><ele>106.0</ele><time>2026-04-10T10:51:02.856Z</time></trkpt><trkpt lat="42.1620367" lon="14.6232233"><ele>106.66666666666667</ele><time>2026-04-10T10:51:04.857Z</time></trkpt><trkpt lat="42.1619783" lon="14.62312"><ele>107.33333333333334</ele><time>2026-04-10T10:51:06.857Z</time></trkpt><trkpt lat="42.161935" lon="14.6230367"><ele>108.0</ele><time>2026-04-10T10:51:08.856Z</time></trkpt><trkpt lat="42.161885" lon="14.62298"><ele>108.66666666666666</ele><time>2026-04-10T10:51:10.857Z</time></trkpt><trkpt lat="42.1618117" lon="14.623"><ele>109.33333333333333</ele><time>2026-04-10T10:51:13.857Z</time></trkpt><trkpt lat="42.16179" lon="14.6228833"><ele>110.0</ele><time>2026-04-10T10:51:42.856Z</time></trkpt><trkpt lat="42.161755" lon="14.6227833"><ele>110.33333333333333</ele><time>2026-04-10T10:51:45.857Z</time></trkpt><trkpt lat="42.16171" lon="14.6226833"><ele>110.66666666666666</ele><time>2026-04-10T10:51:48.857Z</time></trkpt><trkpt lat="42.161675" lon="14.6226033"><ele>111.0</ele><time>2026-04-10T10:51:52.856Z</time></trkpt><trkpt lat="42.161665" lon="14.6225183"><ele>111.33333333333334</ele><time>2026-04-10T10:51:56.856Z</time></trkpt><trkpt lat="42.16165" lon="14.62242"><ele>111.66666666666667</ele><time>2026-04-10T10:51:58.857Z</time></trkpt><trkpt lat="42.1615983" lon="14.6223083"><ele>112.0</ele><time>2026-04-10T10:52:00.857Z</time></trkpt><trkpt lat="42.1615417" lon="14.6222"><ele>112.0</ele><time>2026-04-10T10:52:02.857Z</time></trkpt><trkpt lat="42.1614867" lon="14.6220833"><ele>111.99999999999999</ele><time>2026-04-10T10:52:04.857Z</time></trkpt><trkpt lat="42.1614317" lon="14.6219633"><ele>111.99999999999999</ele><time>2026-04-10T10:52:06.857Z</time></trkpt><trkpt lat="42.16138" lon="14.62184"><ele>112.0</ele><time>2026-04-10T10:52:08.857Z</time></trkpt><trkpt lat="42.1613233" lon="14.621715"><ele>112.0</ele><time>2026-04-10T10:52:10.857Z</time></trkpt><trkpt lat="42.1612567" lon="14.6215983"><ele>112.5</ele><time>2026-04-10T10:52:12.856Z</time></trkpt><trkpt lat="42.1611883" lon="14.6214817"><ele>113.0</ele><time>2026-04-10T10:52:14.857Z</time></trkpt><trkpt lat="42.161125" lon="14.62136"><ele>113.5</ele><time>2026-04-10T10:52:16.857Z</time></trkpt><trkpt lat="42.1610667" lon="14.6212267"><ele>114.0</ele><time>2026-04-10T10:52:18.856Z</time></trkpt><trkpt lat="42.1609983" lon="14.6211017"><ele>114.6</ele><time>2026-04-10T10:52:20.857Z</time></trkpt><trkpt lat="42.160935" lon="14.6209783"><ele>115.2</ele><time>2026-04-10T10:52:22.856Z</time></trkpt><trkpt lat="42.1608783" lon="14.6208533"><ele>115.79999999999998</ele><time>2026-04-10T10:52:24.857Z</time></trkpt><trkpt lat="42.160815" lon="14.6207283"><ele>116.39999999999999</ele><time>2026-04-10T10:52:26.856Z</time></trkpt><trkpt lat="42.160755" lon="14.6206067"><ele>117.0</ele><time>2026-04-10T10:52:28.857Z</time></trkpt><trkpt lat="42.1606967" lon="14.6204783"><ele>117.0</ele><time>2026-04-10T10:52:30.856Z</time></trkpt><trkpt lat="42.160635" lon="14.6203567"><ele>116.99999999999999</ele><time>2026-04-10T10:52:32.856Z</time></trkpt><trkpt lat="42.16058" lon="14.620235"><ele>116.99999999999999</ele><time>2026-04-10T10:52:34.857Z</time></trkpt><trkpt lat="42.1605217" lon="14.620115"><ele>117.0</ele><time>2026-04-10T10:52:36.857Z</time></trkpt><trkpt lat="42.1604567" lon="14.6199917"><ele>117.0</ele><time>2026-04-10T10:52:38.857Z</time></trkpt><trkpt lat="42.1603917" lon="14.619865"><ele>117.6</ele><time>2026-04-10T10:52:40.857Z</time></trkpt><trkpt lat="42.1603283" lon="14.61974"><ele>118.19999999999999</ele><time>2026-04-10T10:52:42.856Z</time></trkpt><trkpt lat="42.1602683" lon="14.61962"><ele>118.8</ele><time>2026-04-10T10:52:44.857Z</time></trkpt><trkpt lat="42.1602033" lon="14.619495"><ele>119.4</ele><time>2026-04-10T10:52:46.857Z</time></trkpt><trkpt lat="42.1601383" lon="14.6193683"><ele>120.0</ele><time>2026-04-10T10:52:48.857Z</time></trkpt><trkpt lat="42.1600767" lon="14.619245"><ele>120.4</ele><time>2026-04-10T10:52:50.857Z</time></trkpt><trkpt lat="42.1600233" lon="14.6191367"><ele>120.8</ele><time>2026-04-10T10:52:52.856Z</time></trkpt><trkpt lat="42.1599767" lon="14.6190317"><ele>121.19999999999999</ele><time>2026-04-10T10:52:54.856Z</time></trkpt><trkpt lat="42.1599417" lon="14.6189333"><ele>121.6</ele><time>2026-04-10T10:52:56.856Z</time></trkpt><trkpt lat="42.1598833" lon="14.6188233"><ele>122.0</ele><time>2026-04-10T10:52:58.856Z</time></trkpt><trkpt lat="42.159815" lon="14.6187117"><ele>122.6</ele><time>2026-04-10T10:53:00.856Z</time></trkpt><trkpt lat="42.1597533" lon="14.6186"><ele>123.19999999999999</ele><time>2026-04-10T10:53:02.857Z</time></trkpt><trkpt lat="42.1597" lon="14.6184917"><ele>123.8</ele><time>2026-04-10T10:53:04.856Z</time></trkpt><trkpt lat="42.1596483" lon="14.6183733"><ele>124.4</ele><time>2026-04-10T10:53:06.857Z</time></trkpt><trkpt lat="42.1595817" lon="14.61826"><ele>125.0</ele><time>2026-04-10T10:53:08.856Z</time></trkpt><trkpt lat="42.1595233" lon="14.61815"><ele>124.99999999999999</ele><time>2026-04-10T10:53:10.857Z</time></trkpt><trkpt lat="42.159485" lon="14.6180567"><ele>125.0</ele><time>2026-04-10T10:53:12.857Z</time></trkpt><trkpt lat="42.1594433" lon="14.617965"><ele>125.0</ele><time>2026-04-10T10:53:14.856Z</time></trkpt><trkpt lat="42.1594" lon="14.61787"><ele>125.0</ele><time>2026-04-10T10:53:16.857Z</time></trkpt><trkpt lat="42.159355" lon="14.6177783"><ele>124.99999999999999</ele><time>2026-04-10T10:53:18.857Z</time></trkpt><trkpt lat="42.15931" lon="14.6176833"><ele>125.0</ele><time>2026-04-10T10:53:20.856Z</time></trkpt><trkpt lat="42.15927" lon="14.6175867"><ele>125.33333333333333</ele><time>2026-04-10T10:53:22.856Z</time></trkpt><trkpt lat="42.1592183" lon="14.6174933"><ele>125.66666666666666</ele><time>2026-04-10T10:53:24.857Z</time></trkpt><trkpt lat="42.1591717" lon="14.6174"><ele>126.0</ele><time>2026-04-10T10:53:26.857Z</time></trkpt><trkpt lat="42.159125" lon="14.6173033"><ele>126.33333333333334</ele><time>2026-04-10T10:53:28.857Z</time></trkpt><trkpt lat="42.1590783" lon="14.6172017"><ele>126.66666666666667</ele><time>2026-04-10T10:53:30.856Z</time></trkpt><trkpt lat="42.1590217" lon="14.617105"><ele>127.0</ele><time>2026-04-10T10:53:32.856Z</time></trkpt><trkpt lat="42.158975" lon="14.6170017"><ele>127.66666666666667</ele><time>2026-04-10T10:53:34.857Z</time></trkpt><trkpt lat="42.1589367" lon="14.6169183"><ele>128.33333333333334</ele><time>2026-04-10T10:53:36.856Z</time></trkpt><trkpt lat="42.1588883" lon="14.6168233"><ele>129.0</ele><time>2026-04-10T10:53:38.857Z</time></trkpt><trkpt lat="42.1588383" lon="14.61672"><ele>129.66666666666666</ele><time>2026-04-10T10:53:40.857Z</time></trkpt><trkpt lat="42.1587867" lon="14.6166167"><ele>130.33333333333331</ele><time>2026-04-10T10:53:42.857Z</time></trkpt><trkpt lat="42.158735" lon="14.61651"><ele>131.0</ele><time>2026-04-10T10:53:44.857Z</time></trkpt><trkpt lat="42.15868" lon="14.6163983"><ele>131.0</ele><time>2026-04-10T10:53:46.857Z</time></trkpt><trkpt lat="42.1586183" lon="14.6162833"><ele>131.0</ele><time>2026-04-10T10:53:48.856Z</time></trkpt><trkpt lat="42.1585567" lon="14.6161667"><ele>131.0</ele><time>2026-04-10T10:53:50.857Z</time></trkpt><trkpt lat="42.158495" lon="14.6160517"><ele>131.0</ele><time>2026-04-10T10:53:52.856Z</time></trkpt><trkpt lat="42.15844" lon="14.6159417"><ele>131.0</ele><time>2026-04-10T10:53:54.857Z</time></trkpt><trkpt lat="42.1583933" lon="14.6158517"><ele>131.14285714285714</ele><time>2026-04-10T10:53:56.857Z</time></trkpt><trkpt lat="42.1583517" lon="14.61577"><ele>131.2857142857143</ele><time>2026-04-10T10:53:58.857Z</time></trkpt><trkpt lat="42.1583167" lon="14.6156933"><ele>131.42857142857144</ele><time>2026-04-10T10:54:00.857Z</time></trkpt><trkpt lat="42.1582683" lon="14.6156117"><ele>131.57142857142858</ele><time>2026-04-10T10:54:02.856Z</time></trkpt><trkpt lat="42.1582133" lon="14.61552"><ele>131.71428571428572</ele><time>2026-04-10T10:54:04.856Z</time></trkpt><trkpt lat="42.15817" lon="14.615455"><ele>131.85714285714286</ele><time>2026-04-10T10:54:06.857Z</time></trkpt><trkpt lat="42.1581933" lon="14.6153583"><ele>132.0</ele><time>2026-04-10T10:54:08.857Z</time></trkpt><trkpt lat="42.1582117" lon="14.61523"><ele>132.0</ele><time>2026-04-10T10:54:10.857Z</time></trkpt><trkpt lat="42.158205" lon="14.6151033"><ele>132.0</ele><time>2026-04-10T10:54:12.857Z</time></trkpt><trkpt lat="42.1581517" lon="14.6149967"><ele>132.0</ele><time>2026-04-10T10:54:14.857Z</time></trkpt><trkpt lat="42.158075" lon="14.6149333"><ele>132.0</ele><time>2026-04-10T10:54:16.856Z</time></trkpt><trkpt lat="42.1579917" lon="14.6148817"><ele>132.0</ele><time>2026-04-10T10:54:18.856Z</time></trkpt><trkpt lat="42.157915" lon="14.61481"><ele>132.4</ele><time>2026-04-10T10:54:20.857Z</time></trkpt><trkpt lat="42.1578517" lon="14.6147033"><ele>132.79999999999998</ele><time>2026-04-10T10:54:22.857Z</time></trkpt><trkpt lat="42.1577933" lon="14.6145883"><ele>133.2</ele><time>2026-04-10T10:54:24.856Z</time></trkpt><trkpt lat="42.15774" lon="14.6144733"><ele>133.6</ele><time>2026-04-10T10:54:26.856Z</time></trkpt><trkpt lat="42.1576867" lon="14.6143733"><ele>134.0</ele><time>2026-04-10T10:54:28.857Z</time></trkpt><trkpt lat="42.1576333" lon="14.6142717"><ele>134.0</ele><time>2026-04-10T10:54:30.857Z</time></trkpt><trkpt lat="42.157585" lon="14.6141683"><ele>134.0</ele><time>2026-04-10T10:54:32.857Z</time></trkpt><trkpt lat="42.1575317" lon="14.6140533"><ele>134.0</ele><time>2026-04-10T10:54:34.856Z</time></trkpt><trkpt lat="42.15747" lon="14.613935"><ele>134.0</ele><time>2026-04-10T10:54:36.856Z</time></trkpt><trkpt lat="42.1574033" lon="14.6138183"><ele>134.0</ele><time>2026-04-10T10:54:38.856Z</time></trkpt><trkpt lat="42.1573433" lon="14.61371"><ele>134.0</ele><time>2026-04-10T10:54:40.856Z</time></trkpt><trkpt lat="42.1572883" lon="14.613605"><ele>134.0</ele><time>2026-04-10T10:54:42.856Z</time></trkpt><trkpt lat="42.1572467" lon="14.6135067"><ele>134.0</ele><time>2026-04-10T10:54:44.857Z</time></trkpt><trkpt lat="42.1572" lon="14.613395"><ele>134.0</ele><time>2026-04-10T10:54:46.857Z</time></trkpt><trkpt lat="42.1571483" lon="14.6132717"><ele>134.0</ele><time>2026-04-10T10:54:48.856Z</time></trkpt><trkpt lat="42.1570883" lon="14.613145"><ele>134.0</ele><time>2026-04-10T10:54:50.857Z</time></trkpt><trkpt lat="42.1570333" lon="14.6130233"><ele>134.0</ele><time>2026-04-10T10:54:52.857Z</time></trkpt><trkpt lat="42.1569967" lon="14.6129267"><ele>134.0</ele><time>2026-04-10T10:54:54.856Z</time></trkpt><trkpt lat="42.1569633" lon="14.612805"><ele>134.0</ele><time>2026-04-10T10:54:56.857Z</time></trkpt><trkpt lat="42.1569417" lon="14.6126933"><ele>134.0</ele><time>2026-04-10T10:54:58.857Z</time></trkpt><trkpt lat="42.1569117" lon="14.61255"><ele>134.2</ele><time>2026-04-10T10:55:00.857Z</time></trkpt><trkpt lat="42.1568833" lon="14.6123983"><ele>134.4</ele><time>2026-04-10T10:55:02.856Z</time></trkpt><trkpt lat="42.1568633" lon="14.6123067"><ele>134.6</ele><time>2026-04-10T10:55:03.857Z</time></trkpt><trkpt lat="42.1568433" lon="14.612225"><ele>134.8</ele><time>2026-04-10T10:55:04.857Z</time></trkpt><trkpt lat="42.1568083" lon="14.6120833"><ele>135.0</ele><time>2026-04-10T10:55:06.856Z</time></trkpt><trkpt lat="42.1567733" lon="14.611945"><ele>135.0</ele><time>2026-04-10T10:55:08.856Z</time></trkpt><trkpt lat="42.1567467" lon="14.611815"><ele>135.0</ele><time>2026-04-10T10:55:10.856Z</time></trkpt><trkpt lat="42.15673" lon="14.6117017"><ele>135.0</ele><time>2026-04-10T10:55:12.857Z</time></trkpt><trkpt lat="42.1567033" lon="14.6116033"><ele>135.0</ele><time>2026-04-10T10:55:14.857Z</time></trkpt><trkpt lat="42.1566833" lon="14.6115133"><ele>135.0</ele><time>2026-04-10T10:55:16.856Z</time></trkpt><trkpt lat="42.1566533" lon="14.61139"><ele>135.0</ele><time>2026-04-10T10:55:19.857Z</time></trkpt><trkpt lat="42.1566367" lon="14.6113"><ele>135.0</ele><time>2026-04-10T10:55:21.856Z</time></trkpt><trkpt lat="42.156615" lon="14.611185"><ele>135.0</ele><time>2026-04-10T10:55:24.856Z</time></trkpt><trkpt lat="42.1565883" lon="14.61108"><ele>135.0</ele><time>2026-04-10T10:55:26.857Z</time></trkpt><trkpt lat="42.1565267" lon="14.6109817"><ele>135.0</ele><time>2026-04-10T10:55:28.856Z</time></trkpt><trkpt lat="42.1564283" lon="14.6109083"><ele>135.0</ele><time>2026-04-10T10:55:30.857Z</time></trkpt><trkpt lat="42.156335" lon="14.6108433"><ele>134.8</ele><time>2026-04-10T10:55:32.857Z</time></trkpt><trkpt lat="42.156245" lon="14.6107883"><ele>134.6</ele><time>2026-04-10T10:55:34.857Z</time></trkpt><trkpt lat="42.15616" lon="14.61074"><ele>134.4</ele><time>2026-04-10T10:55:36.856Z</time></trkpt><trkpt lat="42.1560783" lon="14.61069"><ele>134.2</ele><time>2026-04-10T10:55:38.856Z</time></trkpt><trkpt lat="42.1560017" lon="14.61064"><ele>134.0</ele><time>2026-04-10T10:55:40.857Z</time></trkpt><trkpt lat="42.1559233" lon="14.6105633"><ele>134.0</ele><time>2026-04-10T10:55:42.857Z</time></trkpt><trkpt lat="42.1558533" lon="14.6104933"><ele>134.0</ele><time>2026-04-10T10:55:44.856Z</time></trkpt><trkpt lat="42.1557867" lon="14.610425"><ele>134.0</ele><time>2026-04-10T10:55:46.856Z</time></trkpt><trkpt lat="42.1557" lon="14.61035"><ele>134.0</ele><time>2026-04-10T10:55:48.856Z</time></trkpt><trkpt lat="42.1556183" lon="14.61026"><ele>134.0</ele><time>2026-04-10T10:55:50.856Z</time></trkpt><trkpt lat="42.1555367" lon="14.6101767"><ele>134.2</ele><time>2026-04-10T10:55:52.856Z</time></trkpt><trkpt lat="42.155445" lon="14.610085"><ele>134.4</ele><time>2026-04-10T10:55:54.856Z</time></trkpt><trkpt lat="42.1553733" lon="14.6099917"><ele>134.6</ele><time>2026-04-10T10:55:56.857Z</time></trkpt><trkpt lat="42.1552967" lon="14.609905"><ele>134.8</ele><time>2026-04-10T10:55:58.856Z</time></trkpt><trkpt lat="42.155215" lon="14.6098183"><ele>135.0</ele><time>2026-04-10T10:56:00.856Z</time></trkpt><trkpt lat="42.1551367" lon="14.6097217"><ele>135.0</ele><time>2026-04-10T10:56:02.856Z</time></trkpt><trkpt lat="42.155055" lon="14.60962"><ele>135.0</ele><time>2026-04-10T10:56:04.856Z</time></trkpt><trkpt lat="42.1549833" lon="14.609515"><ele>135.0</ele><time>2026-04-10T10:56:06.857Z</time></trkpt><trkpt lat="42.1549067" lon="14.6094133"><ele>135.0</ele><time>2026-04-10T10:56:08.857Z</time></trkpt><trkpt lat="42.1548383" lon="14.609315"><ele>135.0</ele><time>2026-04-10T10:56:10.857Z</time></trkpt><trkpt lat="42.1547667" lon="14.6092267"><ele>135.33333333333334</ele><time>2026-04-10T10:56:12.857Z</time></trkpt><trkpt lat="42.1547083" lon="14.60913"><ele>135.66666666666666</ele><time>2026-04-10T10:56:14.856Z</time></trkpt><trkpt lat="42.1546733" lon="14.6090583"><ele>136.0</ele><time>2026-04-10T10:56:16.856Z</time></trkpt><trkpt lat="42.1546217" lon="14.608995"><ele>136.33333333333331</ele><time>2026-04-10T10:56:19.857Z</time></trkpt><trkpt lat="42.15455" lon="14.6089183"><ele>136.66666666666666</ele><time>2026-04-10T10:56:22.857Z</time></trkpt><trkpt lat="42.1544767" lon="14.6088517"><ele>137.0</ele><time>2026-04-10T10:56:24.857Z</time></trkpt><trkpt lat="42.154395" lon="14.6087933"><ele>137.0</ele><time>2026-04-10T10:56:26.857Z</time></trkpt><trkpt lat="42.1543217" lon="14.6087283"><ele>137.0</ele><time>2026-04-10T10:56:28.857Z</time></trkpt><trkpt lat="42.1542383" lon="14.60867"><ele>137.0</ele><time>2026-04-10T10:56:30.857Z</time></trkpt><trkpt lat="42.15416" lon="14.6086217"><ele>137.0</ele><time>2026-04-10T10:56:32.856Z</time></trkpt><trkpt lat="42.15408" lon="14.6085867"><ele>137.0</ele><time>2026-04-10T10:56:34.857Z</time></trkpt><trkpt lat="42.1540017" lon="14.60854"><ele>137.0</ele><time>2026-04-10T10:56:36.857Z</time></trkpt><trkpt lat="42.1539217" lon="14.60848"><ele>136.79999999999998</ele><time>2026-04-10T10:56:38.857Z</time></trkpt><trkpt lat="42.1538383" lon="14.6084133"><ele>136.6</ele><time>2026-04-10T10:56:40.857Z</time></trkpt><trkpt lat="42.1537583" lon="14.6083333"><ele>136.39999999999998</ele><time>2026-04-10T10:56:42.856Z</time></trkpt><trkpt lat="42.15369" lon="14.6082383"><ele>136.2</ele><time>2026-04-10T10:56:44.857Z</time></trkpt><trkpt lat="42.153625" lon="14.608135"><ele>136.0</ele><time>2026-04-10T10:56:46.857Z</time></trkpt><trkpt lat="42.1535617" lon="14.60804"><ele>136.0</ele><time>2026-04-10T10:56:48.856Z</time></trkpt><trkpt lat="42.1534983" lon="14.6079367"><ele>136.0</ele><time>2026-04-10T10:56:50.857Z</time></trkpt><trkpt lat="42.1534417" lon="14.6078433"><ele>136.0</ele><time>2026-04-10T10:56:52.856Z</time></trkpt><trkpt lat="42.15338" lon="14.6077533"><ele>136.0</ele><time>2026-04-10T10:56:54.857Z</time></trkpt><trkpt lat="42.1533233" lon="14.60765"><ele>136.0</ele><time>2026-04-10T10:56:56.857Z</time></trkpt><trkpt lat="42.153265" lon="14.60754"><ele>136.4</ele><time>2026-04-10T10:56:58.857Z</time></trkpt><trkpt lat="42.1532" lon="14.60743"><ele>136.8</ele><time>2026-04-10T10:57:00.856Z</time></trkpt><trkpt lat="42.15314" lon="14.6073233"><ele>137.20000000000002</ele><time>2026-04-10T10:57:02.857Z</time></trkpt><trkpt lat="42.15307" lon="14.60721"><ele>137.6</ele><time>2026-04-10T10:57:04.856Z</time></trkpt><trkpt lat="42.153005" lon="14.6071017"><ele>138.0</ele><time>2026-04-10T10:57:06.856Z</time></trkpt><trkpt lat="42.1529417" lon="14.6069883"><ele>138.4</ele><time>2026-04-10T10:57:08.856Z</time></trkpt><trkpt lat="42.1528733" lon="14.6068817"><ele>138.8</ele><time>2026-04-10T10:57:10.857Z</time></trkpt><trkpt lat="42.1527967" lon="14.6067917"><ele>139.2</ele><time>2026-04-10T10:57:12.857Z</time></trkpt><trkpt lat="42.1527367" lon="14.6066867"><ele>139.6</ele><time>2026-04-10T10:57:14.857Z</time></trkpt><trkpt lat="42.1526733" lon="14.606605"><ele>140.0</ele><time>2026-04-10T10:57:16.857Z</time></trkpt><trkpt lat="42.1525983" lon="14.6065333"><ele>140.0</ele><time>2026-04-10T10:57:18.857Z</time></trkpt><trkpt lat="42.1525233" lon="14.6064533"><ele>140.0</ele><time>2026-04-10T10:57:20.856Z</time></trkpt><trkpt lat="42.152445" lon="14.6063783"><ele>140.0</ele><time>2026-04-10T10:57:22.856Z</time></trkpt><trkpt lat="42.152375" lon="14.6063083"><ele>140.0</ele><time>2026-04-10T10:57:24.856Z</time></trkpt><trkpt lat="42.152315" lon="14.60624"><ele>140.0</ele><time>2026-04-10T10:57:26.856Z</time></trkpt><trkpt lat="42.1522383" lon="14.6061633"><ele>140.66666666666666</ele><time>2026-04-10T10:57:28.857Z</time></trkpt><trkpt lat="42.1521583" lon="14.6060917"><ele>141.33333333333331</ele><time>2026-04-10T10:57:30.856Z</time></trkpt><trkpt lat="42.1520733" lon="14.6060283"><ele>142.0</ele><time>2026-04-10T10:57:32.856Z</time></trkpt><trkpt lat="42.1520033" lon="14.6059567"><ele>142.66666666666666</ele><time>2026-04-10T10:57:34.857Z</time></trkpt><trkpt lat="42.151935" lon="14.6058917"><ele>143.33333333333334</ele><time>2026-04-10T10:57:36.857Z</time></trkpt><trkpt lat="42.1518717" lon="14.60584"><ele>144.0</ele><time>2026-04-10T10:57:38.857Z</time></trkpt><trkpt lat="42.1518017" lon="14.605785"><ele>144.0</ele><time>2026-04-10T10:57:40.857Z</time></trkpt><trkpt lat="42.1517383" lon="14.6057233"><ele>144.0</ele><time>2026-04-10T10:57:42.857Z</time></trkpt><trkpt lat="42.1516617" lon="14.6056633"><ele>144.0</ele><time>2026-04-10T10:57:44.856Z</time></trkpt><trkpt lat="42.1515917" lon="14.6055933"><ele>144.0</ele><time>2026-04-10T10:57:46.856Z</time></trkpt><trkpt lat="42.1515483" lon="14.6055083"><ele>144.0</ele><time>2026-04-10T10:57:48.857Z</time></trkpt><trkpt lat="42.151505" lon="14.6054033"><ele>144.0</ele><time>2026-04-10T10:57:50.857Z</time></trkpt><trkpt lat="42.1514567" lon="14.6052983"><ele>144.66666666666666</ele><time>2026-04-10T10:57:52.857Z</time></trkpt><trkpt lat="42.1514117" lon="14.6051967"><ele>145.33333333333334</ele><time>2026-04-10T10:57:54.856Z</time></trkpt><trkpt lat="42.15138" lon="14.6050917"><ele>146.0</ele><time>2026-04-10T10:57:56.857Z</time></trkpt><trkpt lat="42.1513333" lon="14.6049883"><ele>146.66666666666669</ele><time>2026-04-10T10:57:58.857Z</time></trkpt><trkpt lat="42.1512783" lon="14.60489"><ele>147.33333333333334</ele><time>2026-04-10T10:58:00.856Z</time></trkpt><trkpt lat="42.1512233" lon="14.6047867"><ele>148.0</ele><time>2026-04-10T10:58:02.857Z</time></trkpt><trkpt lat="42.1511717" lon="14.6046933"><ele>148.0</ele><time>2026-04-10T10:58:04.857Z</time></trkpt><trkpt lat="42.151115" lon="14.60459"><ele>148.0</ele><time>2026-04-10T10:58:06.856Z</time></trkpt><trkpt lat="42.151065" lon="14.6044883"><ele>148.0</ele><time>2026-04-10T10:58:08.857Z</time></trkpt><trkpt lat="42.1510117" lon="14.6043933"><ele>148.0</ele><time>2026-04-10T10:58:10.857Z</time></trkpt><trkpt lat="42.1509567" lon="14.6042983"><ele>148.0</ele><time>2026-04-10T10:58:12.857Z</time></trkpt><trkpt lat="42.150905" lon="14.604205"><ele>147.83333333333334</ele><time>2026-04-10T10:58:14.857Z</time></trkpt><trkpt lat="42.15085" lon="14.6041117"><ele>147.66666666666669</ele><time>2026-04-10T10:58:16.857Z</time></trkpt><trkpt lat="42.1507917" lon="14.6040067"><ele>147.5</ele><time>2026-04-10T10:58:18.856Z</time></trkpt><trkpt lat="42.150735" lon="14.6039067"><ele>147.33333333333334</ele><time>2026-04-10T10:58:20.856Z</time></trkpt><trkpt lat="42.1506883" lon="14.6038133"><ele>147.16666666666666</ele><time>2026-04-10T10:58:22.857Z</time></trkpt><trkpt lat="42.1506467" lon="14.6037383"><ele>147.0</ele><time>2026-04-10T10:58:24.857Z</time></trkpt><trkpt lat="42.1506067" lon="14.6036717"><ele>147.5</ele><time>2026-04-10T10:58:26.857Z</time></trkpt><trkpt lat="42.1505583" lon="14.6035917"><ele>148.0</ele><time>2026-04-10T10:58:28.856Z</time></trkpt><trkpt lat="42.1504983" lon="14.6035233"><ele>148.5</ele><time>2026-04-10T10:58:30.857Z</time></trkpt><trkpt lat="42.1504433" lon="14.6034583"><ele>149.0</ele><time>2026-04-10T10:58:32.856Z</time></trkpt><trkpt lat="42.1503933" lon="14.6034067"><ele>149.5</ele><time>2026-04-10T10:58:34.857Z</time></trkpt><trkpt lat="42.1503233" lon="14.6033267"><ele>150.0</ele><time>2026-04-10T10:58:37.857Z</time></trkpt><trkpt lat="42.150245" lon="14.6032383"><ele>150.0</ele><time>2026-04-10T11:02:39.859Z</time></trkpt><trkpt lat="42.1501717" lon="14.6031817"><ele>150.0</ele><time>2026-04-10T11:02:42.859Z</time></trkpt><trkpt lat="42.1501133" lon="14.6031383"><ele>150.0</ele><time>2026-04-10T11:02:44.858Z</time></trkpt><trkpt lat="42.1500517" lon="14.6030867"><ele>150.0</ele><time>2026-04-10T11:02:46.858Z</time></trkpt><trkpt lat="42.1499783" lon="14.6030283"><ele>150.0</ele><time>2026-04-10T11:02:48.859Z</time></trkpt><trkpt lat="42.1499017" lon="14.60297"><ele>150.0</ele><time>2026-04-10T11:02:50.859Z</time></trkpt><trkpt lat="42.1498317" lon="14.6029"><ele>150.4</ele><time>2026-04-10T11:02:52.858Z</time></trkpt><trkpt lat="42.149765" lon="14.6028267"><ele>150.8</ele><time>2026-04-10T11:02:54.858Z</time></trkpt><trkpt lat="42.1497017" lon="14.6027483"><ele>151.2</ele><time>2026-04-10T11:02:56.859Z</time></trkpt><trkpt lat="42.149625" lon="14.6026683"><ele>151.6</ele><time>2026-04-10T11:02:58.858Z</time></trkpt><trkpt lat="42.1495533" lon="14.6025833"><ele>152.0</ele><time>2026-04-10T11:03:00.858Z</time></trkpt><trkpt lat="42.149495" lon="14.60249"><ele>152.0</ele><time>2026-04-10T11:03:02.859Z</time></trkpt><trkpt lat="42.14943" lon="14.6024067"><ele>152.0</ele><time>2026-04-10T11:03:04.859Z</time></trkpt><trkpt lat="42.1493617" lon="14.6023183"><ele>152.0</ele><time>2026-04-10T11:03:06.859Z</time></trkpt><trkpt lat="42.1492967" lon="14.602235"><ele>152.0</ele><time>2026-04-10T11:03:08.858Z</time></trkpt><trkpt lat="42.1492417" lon="14.6021567"><ele>152.0</ele><time>2026-04-10T11:03:10.858Z</time></trkpt><trkpt lat="42.1491817" lon="14.60208"><ele>152.0</ele><time>2026-04-10T11:03:12.858Z</time></trkpt><trkpt lat="42.14911" lon="14.601995"><ele>151.0</ele><time>2026-04-10T11:03:14.859Z</time></trkpt><trkpt lat="42.1490333" lon="14.6019367"><ele>150.0</ele><time>2026-04-10T11:03:16.859Z</time></trkpt><trkpt lat="42.1489617" lon="14.6018883"><ele>149.0</ele><time>2026-04-10T11:03:18.859Z</time></trkpt><trkpt lat="42.1488817" lon="14.6018367"><ele>148.0</ele><time>2026-04-10T11:03:20.859Z</time></trkpt><trkpt lat="42.148805" lon="14.601775"><ele>147.0</ele><time>2026-04-10T11:03:22.859Z</time></trkpt><trkpt lat="42.1487367" lon="14.6016967"><ele>146.0</ele><time>2026-04-10T11:03:24.859Z</time></trkpt><trkpt lat="42.14869" lon="14.6016033"><ele>146.0</ele><time>2026-04-10T11:03:26.859Z</time></trkpt><trkpt lat="42.1486717" lon="14.6015"><ele>146.0</ele><time>2026-04-10T11:03:28.859Z</time></trkpt><trkpt lat="42.14866" lon="14.6013933"><ele>146.0</ele><time>2026-04-10T11:03:30.858Z</time></trkpt><trkpt lat="42.1486533" lon="14.6012867"><ele>146.0</ele><time>2026-04-10T11:03:32.859Z</time></trkpt><trkpt lat="42.1486483" lon="14.6011733"><ele>146.0</ele><time>2026-04-10T11:03:34.858Z</time></trkpt><trkpt lat="42.1486483" lon="14.6010617"><ele>146.0</ele><time>2026-04-10T11:03:36.859Z</time></trkpt><trkpt lat="42.14865" lon="14.6009483"><ele>146.2</ele><time>2026-04-10T11:03:38.858Z</time></trkpt><trkpt lat="42.1486367" lon="14.6008467"><ele>146.39999999999998</ele><time>2026-04-10T11:03:40.859Z</time></trkpt><trkpt lat="42.1486233" lon="14.6007183"><ele>146.6</ele><time>2026-04-10T11:03:42.858Z</time></trkpt><trkpt lat="42.1486017" lon="14.6005817"><ele>146.79999999999998</ele><time>2026-04-10T11:03:44.858Z</time></trkpt><trkpt lat="42.148585" lon="14.6004417"><ele>147.0</ele><time>2026-04-10T11:03:46.859Z</time></trkpt><trkpt lat="42.1485783" lon="14.6003117"><ele>146.6</ele><time>2026-04-10T11:03:48.858Z</time></trkpt><trkpt lat="42.148575" lon="14.6002083"><ele>146.2</ele><time>2026-04-10T11:03:50.859Z</time></trkpt><trkpt lat="42.1485733" lon="14.60008"><ele>145.8</ele><time>2026-04-10T11:03:52.858Z</time></trkpt><trkpt lat="42.1485767" lon="14.599955"><ele>145.4</ele><time>2026-04-10T11:03:54.859Z</time></trkpt><trkpt lat="42.1485883" lon="14.5998317"><ele>145.0</ele><time>2026-04-10T11:03:56.858Z</time></trkpt><trkpt lat="42.1486017" lon="14.599705"><ele>145.0</ele><time>2026-04-10T11:03:58.858Z</time></trkpt><trkpt lat="42.148605" lon="14.599575"><ele>145.0</ele><time>2026-04-10T11:04:00.859Z</time></trkpt><trkpt lat="42.14862" lon="14.5994467"><ele>145.0</ele><time>2026-04-10T11:04:02.858Z</time></trkpt><trkpt lat="42.148635" lon="14.5993217"><ele>145.0</ele><time>2026-04-10T11:04:04.859Z</time></trkpt><trkpt lat="42.1486483" lon="14.5991933"><ele>145.0</ele><time>2026-04-10T11:04:06.858Z</time></trkpt><trkpt lat="42.148655" lon="14.59907"><ele>145.16666666666669</ele><time>2026-04-10T11:04:08.859Z</time></trkpt><trkpt lat="42.1486617" lon="14.59896"><ele>145.33333333333334</ele><time>2026-04-10T11:04:10.858Z</time></trkpt><trkpt lat="42.1486683" lon="14.5988483"><ele>145.5</ele><time>2026-04-10T11:04:12.858Z</time></trkpt><trkpt lat="42.1486683" lon="14.5987267"><ele>145.66666666666666</ele><time>2026-04-10T11:04:14.858Z</time></trkpt><trkpt lat="42.1486733" lon="14.5986017"><ele>145.83333333333331</ele><time>2026-04-10T11:04:16.859Z</time></trkpt><trkpt lat="42.1486783" lon="14.5984667"><ele>146.0</ele><time>2026-04-10T11:04:18.858Z</time></trkpt><trkpt lat="42.148685" lon="14.598335"><ele>145.6</ele><time>2026-04-10T11:04:20.859Z</time></trkpt><trkpt lat="42.1486933" lon="14.5981933"><ele>145.2</ele><time>2026-04-10T11:04:22.859Z</time></trkpt><trkpt lat="42.1486983" lon="14.5980533"><ele>144.8</ele><time>2026-04-10T11:04:24.859Z</time></trkpt><trkpt lat="42.1487017" lon="14.5979233"><ele>144.4</ele><time>2026-04-10T11:04:26.859Z</time></trkpt><trkpt lat="42.1486983" lon="14.5977917"><ele>144.0</ele><time>2026-04-10T11:04:28.859Z</time></trkpt><trkpt lat="42.1487033" lon="14.597655"><ele>144.0</ele><time>2026-04-10T11:04:30.858Z</time></trkpt><trkpt lat="42.14871" lon="14.5975183"><ele>144.0</ele><time>2026-04-10T11:04:32.858Z</time></trkpt><trkpt lat="42.1487217" lon="14.5973783"><ele>144.0</ele><time>2026-04-10T11:04:34.859Z</time></trkpt><trkpt lat="42.148735" lon="14.5972467"><ele>144.0</ele><time>2026-04-10T11:04:36.859Z</time></trkpt><trkpt lat="42.1487417" lon="14.5971217"><ele>144.0</ele><time>2026-04-10T11:04:38.858Z</time></trkpt><trkpt lat="42.148735" lon="14.5969967"><ele>145.0</ele><time>2026-04-10T11:04:40.858Z</time></trkpt><trkpt lat="42.148735" lon="14.5968667"><ele>146.0</ele><time>2026-04-10T11:04:42.859Z</time></trkpt><trkpt lat="42.14873" lon="14.59674"><ele>147.0</ele><time>2026-04-10T11:04:44.858Z</time></trkpt><trkpt lat="42.148715" lon="14.59661"><ele>148.0</ele><time>2026-04-10T11:04:46.859Z</time></trkpt><trkpt lat="42.148705" lon="14.5964817"><ele>149.0</ele><time>2026-04-10T11:04:48.859Z</time></trkpt><trkpt lat="42.14869" lon="14.5963533"><ele>149.0</ele><time>2026-04-10T11:04:50.858Z</time></trkpt><trkpt lat="42.148675" lon="14.596225"><ele>149.0</ele><time>2026-04-10T11:04:52.859Z</time></trkpt><trkpt lat="42.1486583" lon="14.5961033"><ele>149.0</ele><time>2026-04-10T11:04:54.859Z</time></trkpt><trkpt lat="42.1486467" lon="14.5959867"><ele>149.0</ele><time>2026-04-10T11:04:56.858Z</time></trkpt><trkpt lat="42.1486383" lon="14.5958733"><ele>149.0</ele><time>2026-04-10T11:04:58.859Z</time></trkpt><trkpt lat="42.1486333" lon="14.5957667"><ele>149.0</ele><time>2026-04-10T11:05:00.859Z</time></trkpt><trkpt lat="42.14862" lon="14.59565"><ele>150.0</ele><time>2026-04-10T11:05:02.858Z</time></trkpt><trkpt lat="42.1485933" lon="14.5955267"><ele>151.0</ele><time>2026-04-10T11:05:04.858Z</time></trkpt><trkpt lat="42.1485817" lon="14.595415"><ele>152.0</ele><time>2026-04-10T11:05:06.859Z</time></trkpt><trkpt lat="42.1485667" lon="14.595285"><ele>153.0</ele><time>2026-04-10T11:05:08.858Z</time></trkpt><trkpt lat="42.14855" lon="14.5951533"><ele>154.0</ele><time>2026-04-10T11:05:10.859Z</time></trkpt><trkpt lat="42.14855" lon="14.595025"><ele>154.5</ele><time>2026-04-10T11:05:12.859Z</time></trkpt><trkpt lat="42.1485617" lon="14.5949"><ele>155.0</ele><time>2026-04-10T11:05:14.858Z</time></trkpt><trkpt lat="42.148575" lon="14.5947917"><ele>155.5</ele><time>2026-04-10T11:05:16.859Z</time></trkpt><trkpt lat="42.14859" lon="14.5946733"><ele>156.0</ele><time>2026-04-10T11:05:18.859Z</time></trkpt><trkpt lat="42.148605" lon="14.594565"><ele>156.5</ele><time>2026-04-10T11:05:20.859Z</time></trkpt><trkpt lat="42.148615" lon="14.594465"><ele>157.0</ele><time>2026-04-10T11:05:23.859Z</time></trkpt><trkpt lat="42.1486133" lon="14.594375"><ele>158.0</ele><time>2026-04-10T11:05:25.858Z</time></trkpt><trkpt lat="42.1485983" lon="14.59426"><ele>159.0</ele><time>2026-04-10T11:05:27.858Z</time></trkpt><trkpt lat="42.1485783" lon="14.59414"><ele>160.0</ele><time>2026-04-10T11:05:29.859Z</time></trkpt><trkpt lat="42.1485567" lon="14.59401"><ele>161.0</ele><time>2026-04-10T11:05:31.859Z</time></trkpt><trkpt lat="42.1485417" lon="14.5938817"><ele>162.0</ele><time>2026-04-10T11:05:33.858Z</time></trkpt><trkpt lat="42.1485267" lon="14.59375"><ele>162.66666666666666</ele><time>2026-04-10T11:05:35.859Z</time></trkpt><trkpt lat="42.1485317" lon="14.59362"><ele>163.33333333333334</ele><time>2026-04-10T11:05:37.858Z</time></trkpt><trkpt lat="42.148535" lon="14.593505"><ele>164.0</ele><time>2026-04-10T11:05:39.859Z</time></trkpt><trkpt lat="42.148535" lon="14.5933917"><ele>164.66666666666669</ele><time>2026-04-10T11:05:41.859Z</time></trkpt><trkpt lat="42.1485367" lon="14.5932683"><ele>165.33333333333334</ele><time>2026-04-10T11:05:43.858Z</time></trkpt><trkpt lat="42.1485433" lon="14.59315"><ele>166.0</ele><time>2026-04-10T11:05:45.859Z</time></trkpt><trkpt lat="42.1485483" lon="14.593025"><ele>166.0</ele><time>2026-04-10T11:05:47.859Z</time></trkpt><trkpt lat="42.1485433" lon="14.5929083"><ele>166.0</ele><time>2026-04-10T11:05:49.859Z</time></trkpt><trkpt lat="42.1485533" lon="14.5927967"><ele>166.0</ele><time>2026-04-10T11:05:51.858Z</time></trkpt><trkpt lat="42.14855" lon="14.5926817"><ele>166.0</ele><time>2026-04-10T11:05:53.859Z</time></trkpt><trkpt lat="42.1485517" lon="14.5925683"><ele>166.0</ele><time>2026-04-10T11:05:55.859Z</time></trkpt><trkpt lat="42.1485567" lon="14.5924467"><ele>166.0</ele><time>2026-04-10T11:05:57.859Z</time></trkpt><trkpt lat="42.14855" lon="14.5923383"><ele>166.5</ele><time>2026-04-10T11:05:59.859Z</time></trkpt><trkpt lat="42.14855" lon="14.5922183"><ele>167.0</ele><time>2026-04-10T11:06:01.858Z</time></trkpt><trkpt lat="42.148555" lon="14.5921017"><ele>167.5</ele><time>2026-04-10T11:06:03.859Z</time></trkpt><trkpt lat="42.14856" lon="14.5919867"><ele>168.0</ele><time>2026-04-10T11:06:05.859Z</time></trkpt><trkpt lat="42.14856" lon="14.591865"><ele>168.5</ele><time>2026-04-10T11:06:07.859Z</time></trkpt><trkpt lat="42.1485617" lon="14.591745"><ele>169.0</ele><time>2026-04-10T11:06:09.858Z</time></trkpt><trkpt lat="42.148565" lon="14.591635"><ele>169.39999999999998</ele><time>2026-04-10T11:06:11.859Z</time></trkpt><trkpt lat="42.1485683" lon="14.5915183"><ele>169.8</ele><time>2026-04-10T11:06:13.859Z</time></trkpt><trkpt lat="42.1485683" lon="14.591385"><ele>170.2</ele><time>2026-04-10T11:06:15.859Z</time></trkpt><trkpt lat="42.1485683" lon="14.591255"><ele>170.60000000000002</ele><time>2026-04-10T11:06:17.858Z</time></trkpt><trkpt lat="42.14857" lon="14.5911267"><ele>171.0</ele><time>2026-04-10T11:06:19.858Z</time></trkpt><trkpt lat="42.148575" lon="14.591"><ele>171.4</ele><time>2026-04-10T11:06:21.859Z</time></trkpt><trkpt lat="42.1485733" lon="14.5908733"><ele>171.8</ele><time>2026-04-10T11:06:23.858Z</time></trkpt><trkpt lat="42.14857" lon="14.59075"><ele>172.20000000000002</ele><time>2026-04-10T11:06:25.858Z</time></trkpt><trkpt lat="42.1485683" lon="14.590625"><ele>172.60000000000002</ele><time>2026-04-10T11:06:27.859Z</time></trkpt><trkpt lat="42.148565" lon="14.590495"><ele>173.0</ele><time>2026-04-10T11:06:29.858Z</time></trkpt><trkpt lat="42.1485633" lon="14.590375"><ele>173.16666666666666</ele><time>2026-04-10T11:06:31.859Z</time></trkpt><trkpt lat="42.148565" lon="14.5902633"><ele>173.33333333333331</ele><time>2026-04-10T11:06:33.859Z</time></trkpt><trkpt lat="42.1485667" lon="14.5901483"><ele>173.5</ele><time>2026-04-10T11:06:35.858Z</time></trkpt><trkpt lat="42.14857" lon="14.5900367"><ele>173.66666666666666</ele><time>2026-04-10T11:06:37.859Z</time></trkpt><trkpt lat="42.14858" lon="14.5899217"><ele>173.83333333333334</ele><time>2026-04-10T11:06:39.858Z</time></trkpt><trkpt lat="42.14859" lon="14.5898033"><ele>174.0</ele><time>2026-04-10T11:06:41.859Z</time></trkpt><trkpt lat="42.14861" lon="14.5897067"><ele>174.0</ele><time>2026-04-10T11:06:43.859Z</time></trkpt><trkpt lat="42.148615" lon="14.5895917"><ele>174.0</ele><time>2026-04-10T11:06:45.859Z</time></trkpt><trkpt lat="42.1486267" lon="14.5894817"><ele>174.0</ele><time>2026-04-10T11:06:47.858Z</time></trkpt><trkpt lat="42.1486383" lon="14.5893833"><ele>174.0</ele><time>2026-04-10T11:06:49.859Z</time></trkpt><trkpt lat="42.1486433" lon="14.5892733"><ele>174.0</ele><time>2026-04-10T11:06:51.859Z</time></trkpt><trkpt lat="42.1486483" lon="14.589165"><ele>174.0</ele><time>2026-04-10T11:06:53.859Z</time></trkpt><trkpt lat="42.148665" lon="14.58904"><ele>174.5</ele><time>2026-04-10T11:06:55.859Z</time></trkpt><trkpt lat="42.14868" lon="14.58892"><ele>175.0</ele><time>2026-04-10T11:06:57.859Z</time></trkpt><trkpt lat="42.1486917" lon="14.5888083"><ele>175.5</ele><time>2026-04-10T11:06:59.858Z</time></trkpt><trkpt lat="42.1487117" lon="14.5887"><ele>176.0</ele><time>2026-04-10T11:07:01.859Z</time></trkpt><trkpt lat="42.1487367" lon="14.588585"><ele>176.5</ele><time>2026-04-10T11:07:03.859Z</time></trkpt><trkpt lat="42.1487533" lon="14.58846"><ele>177.0</ele><time>2026-04-10T11:07:05.858Z</time></trkpt><trkpt lat="42.1487633" lon="14.58832"><ele>177.33333333333334</ele><time>2026-04-10T11:07:07.859Z</time></trkpt><trkpt lat="42.1487733" lon="14.5881933"><ele>177.66666666666666</ele><time>2026-04-10T11:07:09.859Z</time></trkpt><trkpt lat="42.14879" lon="14.5880783"><ele>178.0</ele><time>2026-04-10T11:07:11.859Z</time></trkpt><trkpt lat="42.1488017" lon="14.5879567"><ele>178.33333333333331</ele><time>2026-04-10T11:07:13.859Z</time></trkpt><trkpt lat="42.1488" lon="14.587835"><ele>178.66666666666666</ele><time>2026-04-10T11:07:15.859Z</time></trkpt><trkpt lat="42.1487933" lon="14.5877217"><ele>179.0</ele><time>2026-04-10T11:07:17.859Z</time></trkpt><trkpt lat="42.1487967" lon="14.5876017"><ele>179.5</ele><time>2026-04-10T11:07:19.859Z</time></trkpt><trkpt lat="42.1488117" lon="14.587475"><ele>180.0</ele><time>2026-04-10T11:07:21.859Z</time></trkpt><trkpt lat="42.1488317" lon="14.5873633"><ele>180.5</ele><time>2026-04-10T11:07:23.859Z</time></trkpt><trkpt lat="42.1488467" lon="14.58727"><ele>181.0</ele><time>2026-04-10T11:07:25.859Z</time></trkpt><trkpt lat="42.1488617" lon="14.587145"><ele>181.5</ele><time>2026-04-10T11:07:28.858Z</time></trkpt><trkpt lat="42.1488467" lon="14.5870517"><ele>182.0</ele><time>2026-04-10T11:07:30.858Z</time></trkpt><trkpt lat="42.1487917" lon="14.5869667"><ele>182.0</ele><time>2026-04-10T11:07:33.859Z</time></trkpt><trkpt lat="42.148735" lon="14.5869283"><ele>182.0</ele><time>2026-04-10T11:07:35.859Z</time></trkpt><trkpt lat="42.14866" lon="14.586885"><ele>182.0</ele><time>2026-04-10T11:07:38.858Z</time></trkpt><trkpt lat="42.1486083" lon="14.58683"><ele>182.0</ele><time>2026-04-10T11:07:42.858Z</time></trkpt><trkpt lat="42.148625" lon="14.5867083"><ele>182.0</ele><time>2026-04-10T11:07:45.859Z</time></trkpt><trkpt lat="42.1486367" lon="14.5866083"><ele>182.0</ele><time>2026-04-10T11:07:47.859Z</time></trkpt><trkpt lat="42.1486567" lon="14.5865233"><ele>182.0</ele><time>2026-04-10T11:07:49.858Z</time></trkpt><trkpt lat="42.1486767" lon="14.5864083"><ele>182.0</ele><time>2026-04-10T11:07:52.859Z</time></trkpt><trkpt lat="42.1486883" lon="14.5863133"><ele>182.0</ele><time>2026-04-10T11:07:54.859Z</time></trkpt><trkpt lat="42.1487017" lon="14.5862067"><ele>182.0</ele><time>2026-04-10T11:07:56.859Z</time></trkpt><trkpt lat="42.148725" lon="14.58612"><ele>182.0</ele><time>2026-04-10T11:07:58.859Z</time></trkpt><trkpt lat="42.14874" lon="14.5860367"><ele>182.0</ele><time>2026-04-10T11:08:00.859Z</time></trkpt><trkpt lat="42.148745" lon="14.5859517"><ele>182.0</ele><time>2026-04-10T11:08:03.859Z</time></trkpt><trkpt lat="42.1488083" lon="14.5859233"><ele>182.0</ele><time>2026-04-10T11:08:06.858Z</time></trkpt><trkpt lat="42.14887" lon="14.585865"><ele>181.5</ele><time>2026-04-10T11:08:10.858Z</time></trkpt><trkpt lat="42.1489133" lon="14.5857633"><ele>181.0</ele><time>2026-04-10T11:08:13.859Z</time></trkpt><trkpt lat="42.1489417" lon="14.585665"><ele>180.5</ele><time>2026-04-10T11:08:16.858Z</time></trkpt><trkpt lat="42.1489683" lon="14.585575"><ele>180.0</ele><time>2026-04-10T11:08:19.859Z</time></trkpt><trkpt lat="42.1490017" lon="14.5854833"><ele>179.5</ele><time>2026-04-10T11:08:22.859Z</time></trkpt><trkpt lat="42.1490217" lon="14.5854017"><ele>179.0</ele><time>2026-04-10T11:08:25.859Z</time></trkpt><trkpt lat="42.149055" lon="14.5853133"><ele>182.0</ele><time>2026-04-10T11:08:28.859Z</time></trkpt><trkpt lat="42.1490517" lon="14.585225"><ele>185.0</ele><time>2026-04-10T11:08:30.859Z</time></trkpt><trkpt lat="42.1490433" lon="14.5851133"><ele>188.0</ele><time>2026-04-10T11:08:33.858Z</time></trkpt><trkpt lat="42.149065" lon="14.5850033"><ele>191.0</ele><time>2026-04-10T11:08:36.859Z</time></trkpt><trkpt lat="42.149115" lon="14.58491"><ele>194.00000000000003</ele><time>2026-04-10T11:08:39.859Z</time></trkpt><trkpt lat="42.1491483" lon="14.5848"><ele>197.0</ele><time>2026-04-10T11:08:42.858Z</time></trkpt><trkpt lat="42.1491717" lon="14.58469"><ele>197.0</ele><time>2026-04-10T11:08:45.859Z</time></trkpt><trkpt lat="42.1491883" lon="14.5845967"><ele>197.0</ele><time>2026-04-10T11:08:47.858Z</time></trkpt><trkpt lat="42.1492117" lon="14.5845033"><ele>197.0</ele><time>2026-04-10T11:08:49.858Z</time></trkpt><trkpt lat="42.1492283" lon="14.5844117"><ele>197.0</ele><time>2026-04-10T11:08:51.858Z</time></trkpt><trkpt lat="42.1492417" lon="14.584325"><ele>197.0</ele><time>2026-04-10T11:08:53.859Z</time></trkpt><trkpt lat="42.1492583" lon="14.5842267"><ele>197.0</ele><time>2026-04-10T11:08:55.858Z</time></trkpt><trkpt lat="42.14927" lon="14.5841283"><ele>197.0</ele><time>2026-04-10T11:08:57.859Z</time></trkpt><trkpt lat="42.1492767" lon="14.5840417"><ele>196.50000000000003</ele><time>2026-04-10T11:08:59.858Z</time></trkpt><trkpt lat="42.149295" lon="14.5839267"><ele>196.0</ele><time>2026-04-10T11:09:02.859Z</time></trkpt><trkpt lat="42.1493133" lon="14.5838367"><ele>195.5</ele><time>2026-04-10T11:09:04.858Z</time></trkpt><trkpt lat="42.1493333" lon="14.5837183"><ele>195.0</ele><time>2026-04-10T11:09:07.858Z</time></trkpt><trkpt lat="42.1493417" lon="14.5836"><ele>194.50000000000003</ele><time>2026-04-10T11:09:10.858Z</time></trkpt><trkpt lat="42.1493667" lon="14.5835033"><ele>194.0</ele><time>2026-04-10T11:09:13.859Z</time></trkpt><trkpt lat="42.1493667" lon="14.5834133"><ele>194.0</ele><time>2026-04-10T11:09:16.859Z</time></trkpt><trkpt lat="42.14938" lon="14.5833267"><ele>194.0</ele><time>2026-04-10T11:09:18.858Z</time></trkpt><trkpt lat="42.1493983" lon="14.5832317"><ele>194.0</ele><time>2026-04-10T11:09:21.859Z</time></trkpt><trkpt lat="42.1494" lon="14.5831283"><ele>194.0</ele><time>2026-04-10T11:09:24.859Z</time></trkpt><trkpt lat="42.1494083" lon="14.5830383"><ele>194.0</ele><time>2026-04-10T11:09:27.858Z</time></trkpt><trkpt lat="42.1494283" lon="14.5829267"><ele>194.0</ele><time>2026-04-10T11:09:30.859Z</time></trkpt><trkpt lat="42.1494417" lon="14.5828433"><ele>194.0</ele><time>2026-04-10T11:09:32.858Z</time></trkpt><trkpt lat="42.149455" lon="14.582725"><ele>194.0</ele><time>2026-04-10T11:09:35.859Z</time></trkpt><trkpt lat="42.14947" lon="14.58262"><ele>194.0</ele><time>2026-04-10T11:09:38.859Z</time></trkpt><trkpt lat="42.149535" lon="14.58259"><ele>194.0</ele><time>2026-04-10T11:09:40.859Z</time></trkpt><trkpt lat="42.1496017" lon="14.5825917"><ele>194.0</ele><time>2026-04-10T11:09:42.859Z</time></trkpt><trkpt lat="42.1496733" lon="14.5826183"><ele>194.0</ele><time>2026-04-10T11:09:46.858Z</time></trkpt><trkpt lat="42.149675" lon="14.5827233"><ele>194.0</ele><time>2026-04-10T11:09:50.859Z</time></trkpt><trkpt lat="42.1496867" lon="14.582815"><ele>194.0</ele><time>2026-04-10T11:09:55.859Z</time></trkpt><trkpt lat="42.14971" lon="14.58293"><ele>194.0</ele><time>2026-04-10T11:10:00.858Z</time></trkpt><trkpt lat="42.1497117" lon="14.5830517"><ele>194.0</ele><time>2026-04-10T11:10:03.859Z</time></trkpt><trkpt lat="42.1497417" lon="14.5831583"><ele>194.0</ele><time>2026-04-10T11:10:05.859Z</time></trkpt><trkpt lat="42.1497817" lon="14.5832717"><ele>194.0</ele><time>2026-04-10T11:10:07.859Z</time></trkpt><trkpt lat="42.1498217" lon="14.58338"><ele>194.0</ele><time>2026-04-10T11:10:10.858Z</time></trkpt><trkpt lat="42.1498867" lon="14.5834683"><ele>196.50000000000003</ele><time>2026-04-10T11:10:13.859Z</time></trkpt><trkpt lat="42.1499617" lon="14.5835367"><ele>199.0</ele><time>2026-04-10T11:10:16.859Z</time></trkpt><trkpt lat="42.1500133" lon="14.5835933"><ele>201.5</ele><time>2026-04-10T11:10:18.859Z</time></trkpt><trkpt lat="42.1500617" lon="14.58366"><ele>204.0</ele><time>2026-04-10T11:10:20.859Z</time></trkpt><trkpt lat="42.15012" lon="14.5837483"><ele>206.50000000000003</ele><time>2026-04-10T11:10:23.859Z</time></trkpt><trkpt lat="42.1501633" lon="14.5838167"><ele>209.0</ele><time>2026-04-10T11:10:25.858Z</time></trkpt><trkpt lat="42.1502217" lon="14.58387"><ele>209.16666666666669</ele><time>2026-04-10T11:10:27.859Z</time></trkpt><trkpt lat="42.15029" lon="14.583925"><ele>209.33333333333334</ele><time>2026-04-10T11:10:29.859Z</time></trkpt><trkpt lat="42.150355" lon="14.58397"><ele>209.5</ele><time>2026-04-10T11:10:31.858Z</time></trkpt><trkpt lat="42.15042" lon="14.584025"><ele>209.66666666666669</ele><time>2026-04-10T11:10:34.859Z</time></trkpt><trkpt lat="42.1504533" lon="14.5841083"><ele>209.83333333333334</ele><time>2026-04-10T11:10:36.859Z</time></trkpt><trkpt lat="42.150465" lon="14.58423"><ele>210.0</ele><time>2026-04-10T11:10:39.859Z</time></trkpt><trkpt lat="42.15045" lon="14.584335"><ele>210.0</ele><time>2026-04-10T11:10:41.859Z</time></trkpt><trkpt lat="42.1504283" lon="14.5844567"><ele>210.0</ele><time>2026-04-10T11:10:44.859Z</time></trkpt><trkpt lat="42.1504583" lon="14.58457"><ele>210.0</ele><time>2026-04-10T11:10:46.858Z</time></trkpt><trkpt lat="42.1505183" lon="14.5846733"><ele>210.0</ele><time>2026-04-10T11:10:49.859Z</time></trkpt><trkpt lat="42.1505217" lon="14.5848033"><ele>210.0</ele><time>2026-04-10T11:10:52.859Z</time></trkpt><trkpt lat="42.150495" lon="14.5848967"><ele>209.16666666666666</ele><time>2026-04-10T11:10:54.859Z</time></trkpt><trkpt lat="42.15044" lon="14.584995"><ele>208.33333333333331</ele><time>2026-04-10T11:10:57.859Z</time></trkpt><trkpt lat="42.150365" lon="14.5850633"><ele>207.5</ele><time>2026-04-10T11:11:00.858Z</time></trkpt><trkpt lat="42.150305" lon="14.5850983"><ele>206.66666666666666</ele><time>2026-04-10T11:11:02.859Z</time></trkpt><trkpt lat="42.15023" lon="14.5851283"><ele>205.83333333333331</ele><time>2026-04-10T11:11:05.859Z</time></trkpt><trkpt lat="42.1501483" lon="14.58516"><ele>205.0</ele><time>2026-04-10T11:11:08.858Z</time></trkpt><trkpt lat="42.150085" lon="14.5851933"><ele>205.0</ele><time>2026-04-10T11:11:11.858Z</time></trkpt><trkpt lat="42.1500083" lon="14.58519"><ele>205.0</ele><time>2026-04-10T11:11:12.859Z</time></trkpt><trkpt lat="42.1499383" lon="14.5852"><ele>205.0</ele><time>2026-04-10T11:11:15.859Z</time></trkpt><trkpt lat="42.1499683" lon="14.5852933"><ele>205.0</ele><time>2026-04-10T11:15:43.359Z</time></trkpt></trkseg></trk></gpx>